<?xml version="1.0" encoding="UTF-8" standalone="no" ?>
<gpx xmlns="http://www.topografix.com/GPX/1/1" xmlns:xsi="http://www.w3.org/2001/XMLSchema-instance" xsi:schemaLocation="http://www.topografix.com/GPX/1/1 http://www.topografix.com/GPX/1/1/gpx.xsd" version="1.1" creator="VisuGPX - https://www.visugpx.com">
  <metadata>
    <name>trip septembre</name>
  </metadata>
  <wpt lat="50.83956" lon="1.59443">
    <ele>51.1</ele>
    <name><![CDATA[Batterie Todt]]></name>
    <type><![CDATA[user]]></type>
  </wpt>
  <wpt lat="50.82679" lon="2.18225">
    <ele>10.6</ele>
    <name><![CDATA[Blockhaus D'Éperlecques]]></name>
    <type><![CDATA[user]]></type>
  </wpt>
  <wpt lat="50.70075" lon="2.09689">
    <ele>56</ele>
    <name><![CDATA[Le Moulin de Mombreux]]></name>
    <type><![CDATA[user]]></type>
  </wpt>
  <wpt lat="50.38697" lon="2.32159">
    <ele>82.6</ele>
    <name><![CDATA[www.lesballastieres.com]]></name>
    <type><![CDATA[user]]></type>
  </wpt>
  <wpt lat="50.83956" lon="1.59443">
    <ele>51.1</ele>
    <name><![CDATA[Batterie Todt]]></name>
    <type><![CDATA[user]]></type>
  </wpt>
  <wpt lat="50.82679" lon="2.18225">
    <ele>10.6</ele>
    <name><![CDATA[Blockhaus D'Éperlecques]]></name>
    <type><![CDATA[user]]></type>
  </wpt>
  <wpt lat="50.70075" lon="2.09689">
    <ele>56</ele>
    <name><![CDATA[Le Moulin de Mombreux]]></name>
    <type><![CDATA[user]]></type>
  </wpt>
  <wpt lat="50.38697" lon="2.32159">
    <ele>82.6</ele>
    <name><![CDATA[www.lesballastieres.com]]></name>
    <type><![CDATA[user]]></type>
  </wpt>
  <wpt lat="45.20002" lon="5.42078">
    <ele>251.8</ele>
    <name><![CDATA[400 La Plaine de Buissonnière]]></name>
    <type><![CDATA[ 38470 Vinay]]></type>
  </wpt>
  <wpt lat="45.08552" lon="5.46765">
    <ele>694.9</ele>
    <name><![CDATA[31b Les Granges]]></name>
    <type><![CDATA[ 26420 Rencurel]]></type>
  </wpt>
  <trk>
    <name><![CDATA[Raid sur les anciennes pistes militaires autour de Jausiers (Haute-Ubaye)]]></name>
    <trkseg>
      <trkpt lat="44.42055" lon="6.73667">
        <ele>1220.043</ele>
        <time>2020-03-03T14:14:28Z</time>
      </trkpt>
      <trkpt lat="44.42055" lon="6.73667">
        <ele>1220.043</ele>
        <time>2020-03-03T14:14:28Z</time>
      </trkpt>
      <trkpt lat="44.42055" lon="6.73667">
        <ele>1220.064</ele>
        <time>2020-03-03T14:14:48Z</time>
      </trkpt>
      <trkpt lat="44.42178" lon="6.73713">
        <ele>1220.01</ele>
        <time>2020-03-03T14:15:08Z</time>
      </trkpt>
      <trkpt lat="44.42279" lon="6.73723">
        <ele>1220.008</ele>
        <time>2020-03-03T14:15:28Z</time>
      </trkpt>
      <trkpt lat="44.42594" lon="6.73701">
        <ele>1230.018</ele>
        <time>2020-03-03T14:15:48Z</time>
      </trkpt>
      <trkpt lat="44.42738" lon="6.73691">
        <ele>1230.081</ele>
        <time>2020-03-03T14:16:08Z</time>
      </trkpt>
      <trkpt lat="44.42884" lon="6.73632">
        <ele>1230.398</ele>
        <time>2020-03-03T14:16:28Z</time>
      </trkpt>
      <trkpt lat="44.42954" lon="6.73641">
        <ele>1230.017</ele>
        <time>2020-03-03T14:16:48Z</time>
      </trkpt>
      <trkpt lat="44.4302" lon="6.73707">
        <ele>1233.485</ele>
        <time>2020-03-03T14:17:08Z</time>
      </trkpt>
      <trkpt lat="44.43087" lon="6.7383">
        <ele>1230.726</ele>
        <time>2020-03-03T14:17:28Z</time>
      </trkpt>
      <trkpt lat="44.43114" lon="6.73851">
        <ele>1231.218</ele>
        <time>2020-03-03T14:17:48Z</time>
      </trkpt>
      <trkpt lat="44.43176" lon="6.73874">
        <ele>1236.764</ele>
        <time>2020-03-03T14:18:08Z</time>
      </trkpt>
      <trkpt lat="44.43271" lon="6.74042">
        <ele>1240.417</ele>
        <time>2020-03-03T14:18:28Z</time>
      </trkpt>
      <trkpt lat="44.43347" lon="6.74105">
        <ele>1240.587</ele>
        <time>2020-03-03T14:18:48Z</time>
      </trkpt>
      <trkpt lat="44.43372" lon="6.74155">
        <ele>1240.015</ele>
        <time>2020-03-03T14:19:08Z</time>
      </trkpt>
      <trkpt lat="44.43434" lon="6.74379">
        <ele>1249.308</ele>
        <time>2020-03-03T14:19:28Z</time>
      </trkpt>
      <trkpt lat="44.43488" lon="6.74404">
        <ele>1252.765</ele>
        <time>2020-03-03T14:19:48Z</time>
      </trkpt>
      <trkpt lat="44.4357" lon="6.74405">
        <ele>1247.038</ele>
        <time>2020-03-03T14:20:08Z</time>
      </trkpt>
      <trkpt lat="44.43618" lon="6.74363">
        <ele>1248.615</ele>
        <time>2020-03-03T14:20:28Z</time>
      </trkpt>
      <trkpt lat="44.43756" lon="6.74413">
        <ele>1251.514</ele>
        <time>2020-03-03T14:20:48Z</time>
      </trkpt>
      <trkpt lat="44.43816" lon="6.74385">
        <ele>1251.812</ele>
        <time>2020-03-03T14:21:08Z</time>
      </trkpt>
      <trkpt lat="44.43876" lon="6.744">
        <ele>1252.753</ele>
        <time>2020-03-03T14:21:28Z</time>
      </trkpt>
      <trkpt lat="44.43934" lon="6.74359">
        <ele>1253.645</ele>
        <time>2020-03-03T14:21:48Z</time>
      </trkpt>
      <trkpt lat="44.43992" lon="6.74271">
        <ele>1257.611</ele>
        <time>2020-03-03T14:22:08Z</time>
      </trkpt>
      <trkpt lat="44.44062" lon="6.74277">
        <ele>1256.779</ele>
        <time>2020-03-03T14:22:28Z</time>
      </trkpt>
      <trkpt lat="44.44158" lon="6.74193">
        <ele>1255.305</ele>
        <time>2020-03-03T14:22:48Z</time>
      </trkpt>
      <trkpt lat="44.44324" lon="6.74219">
        <ele>1260.825</ele>
        <time>2020-03-03T14:23:08Z</time>
      </trkpt>
      <trkpt lat="44.44421" lon="6.74264">
        <ele>1262.508</ele>
        <time>2020-03-03T14:23:28Z</time>
      </trkpt>
      <trkpt lat="44.44457" lon="6.74262">
        <ele>1262.441</ele>
        <time>2020-03-03T14:23:48Z</time>
      </trkpt>
      <trkpt lat="44.44568" lon="6.74199">
        <ele>1261.314</ele>
        <time>2020-03-03T14:24:08Z</time>
      </trkpt>
      <trkpt lat="44.44738" lon="6.74025">
        <ele>1263.341</ele>
        <time>2020-03-03T14:24:28Z</time>
      </trkpt>
      <trkpt lat="44.44798" lon="6.74022">
        <ele>1262.75</ele>
        <time>2020-03-03T14:24:48Z</time>
      </trkpt>
      <trkpt lat="44.44985" lon="6.74069">
        <ele>1262.528</ele>
        <time>2020-03-03T14:25:08Z</time>
      </trkpt>
      <trkpt lat="44.4513" lon="6.74224">
        <ele>1270.079</ele>
        <time>2020-03-03T14:25:28Z</time>
      </trkpt>
      <trkpt lat="44.45224" lon="6.74294">
        <ele>1271.731</ele>
        <time>2020-03-03T14:25:48Z</time>
      </trkpt>
      <trkpt lat="44.45262" lon="6.74315">
        <ele>1271.087</ele>
        <time>2020-03-03T14:26:08Z</time>
      </trkpt>
      <trkpt lat="44.45315" lon="6.74386">
        <ele>1273.271</ele>
        <time>2020-03-03T14:26:28Z</time>
      </trkpt>
      <trkpt lat="44.45354" lon="6.74386">
        <ele>1274.141</ele>
        <time>2020-03-03T14:26:48Z</time>
      </trkpt>
      <trkpt lat="44.45406" lon="6.74363">
        <ele>1276.015</ele>
        <time>2020-03-03T14:27:08Z</time>
      </trkpt>
      <trkpt lat="44.45523" lon="6.74371">
        <ele>1280.008</ele>
        <time>2020-03-03T14:27:28Z</time>
      </trkpt>
      <trkpt lat="44.45589" lon="6.74409">
        <ele>1283.571</ele>
        <time>2020-03-03T14:27:48Z</time>
      </trkpt>
      <trkpt lat="44.45682" lon="6.74409">
        <ele>1289.134</ele>
        <time>2020-03-03T14:28:08Z</time>
      </trkpt>
      <trkpt lat="44.45783" lon="6.7448">
        <ele>1287.371</ele>
        <time>2020-03-03T14:28:28Z</time>
      </trkpt>
      <trkpt lat="44.45806" lon="6.74524">
        <ele>1288.24</ele>
        <time>2020-03-03T14:28:48Z</time>
      </trkpt>
      <trkpt lat="44.45847" lon="6.74477">
        <ele>1295.848</ele>
        <time>2020-03-03T14:29:08Z</time>
      </trkpt>
      <trkpt lat="44.45864" lon="6.74363">
        <ele>1300.249</ele>
        <time>2020-03-03T14:29:28Z</time>
      </trkpt>
      <trkpt lat="44.45912" lon="6.74327">
        <ele>1302.051</ele>
        <time>2020-03-03T14:29:48Z</time>
      </trkpt>
      <trkpt lat="44.45988" lon="6.74213">
        <ele>1310.597</ele>
        <time>2020-03-03T14:30:08Z</time>
      </trkpt>
      <trkpt lat="44.46027" lon="6.74052">
        <ele>1312.498</ele>
        <time>2020-03-03T14:30:28Z</time>
      </trkpt>
      <trkpt lat="44.46007" lon="6.74035">
        <ele>1316.215</ele>
        <time>2020-03-03T14:30:48Z</time>
      </trkpt>
      <trkpt lat="44.45943" lon="6.74173">
        <ele>1325.626</ele>
        <time>2020-03-03T14:31:08Z</time>
      </trkpt>
      <trkpt lat="44.45862" lon="6.7425">
        <ele>1331.508</ele>
        <time>2020-03-03T14:31:28Z</time>
      </trkpt>
      <trkpt lat="44.4584" lon="6.74248">
        <ele>1337.463</ele>
        <time>2020-03-03T14:31:48Z</time>
      </trkpt>
      <trkpt lat="44.4584" lon="6.74239">
        <ele>1341.116</ele>
        <time>2020-03-03T14:32:08Z</time>
      </trkpt>
      <trkpt lat="44.45872" lon="6.74222">
        <ele>1339.323</ele>
        <time>2020-03-03T14:32:28Z</time>
      </trkpt>
      <trkpt lat="44.45912" lon="6.74152">
        <ele>1342.032</ele>
        <time>2020-03-03T14:32:48Z</time>
      </trkpt>
      <trkpt lat="44.45939" lon="6.74054">
        <ele>1349.02</ele>
        <time>2020-03-03T14:33:08Z</time>
      </trkpt>
      <trkpt lat="44.45934" lon="6.74047">
        <ele>1352.071</ele>
        <time>2020-03-03T14:33:28Z</time>
      </trkpt>
      <trkpt lat="44.45874" lon="6.74163">
        <ele>1354.913</ele>
        <time>2020-03-03T14:33:48Z</time>
      </trkpt>
      <trkpt lat="44.45767" lon="6.7419">
        <ele>1366.239</ele>
        <time>2020-03-03T14:34:08Z</time>
      </trkpt>
      <trkpt lat="44.45619" lon="6.74195">
        <ele>1371.675</ele>
        <time>2020-03-03T14:34:28Z</time>
      </trkpt>
      <trkpt lat="44.45577" lon="6.74177">
        <ele>1379.128</ele>
        <time>2020-03-03T14:34:48Z</time>
      </trkpt>
      <trkpt lat="44.45524" lon="6.74177">
        <ele>1384.82</ele>
        <time>2020-03-03T14:35:08Z</time>
      </trkpt>
      <trkpt lat="44.45526" lon="6.74161">
        <ele>1390.108</ele>
        <time>2020-03-03T14:35:28Z</time>
      </trkpt>
      <trkpt lat="44.45552" lon="6.74151">
        <ele>1390.281</ele>
        <time>2020-03-03T14:35:48Z</time>
      </trkpt>
      <trkpt lat="44.45605" lon="6.74155">
        <ele>1387.964</ele>
        <time>2020-03-03T14:36:08Z</time>
      </trkpt>
      <trkpt lat="44.45672" lon="6.74104">
        <ele>1396.651</ele>
        <time>2020-03-03T14:36:28Z</time>
      </trkpt>
      <trkpt lat="44.45764" lon="6.74066">
        <ele>1406.79</ele>
        <time>2020-03-03T14:36:48Z</time>
      </trkpt>
      <trkpt lat="44.45766" lon="6.74043">
        <ele>1410.828</ele>
        <time>2020-03-03T14:37:08Z</time>
      </trkpt>
      <trkpt lat="44.45757" lon="6.74023">
        <ele>1415.179</ele>
        <time>2020-03-03T14:37:28Z</time>
      </trkpt>
      <trkpt lat="44.45714" lon="6.74015">
        <ele>1419.251</ele>
        <time>2020-03-03T14:37:48Z</time>
      </trkpt>
      <trkpt lat="44.45709" lon="6.73993">
        <ele>1420.647</ele>
        <time>2020-03-03T14:38:08Z</time>
      </trkpt>
      <trkpt lat="44.45717" lon="6.73977">
        <ele>1421.321</ele>
        <time>2020-03-03T14:38:28Z</time>
      </trkpt>
      <trkpt lat="44.45772" lon="6.73954">
        <ele>1421.041</ele>
        <time>2020-03-03T14:38:48Z</time>
      </trkpt>
      <trkpt lat="44.45877" lon="6.73736">
        <ele>1436.605</ele>
        <time>2020-03-03T14:39:08Z</time>
      </trkpt>
      <trkpt lat="44.45975" lon="6.73645">
        <ele>1449.908</ele>
        <time>2020-03-03T14:39:28Z</time>
      </trkpt>
      <trkpt lat="44.45964" lon="6.7359">
        <ele>1456.686</ele>
        <time>2020-03-03T14:39:48Z</time>
      </trkpt>
      <trkpt lat="44.45956" lon="6.736">
        <ele>1460.259</ele>
        <time>2020-03-03T14:40:08Z</time>
      </trkpt>
      <trkpt lat="44.45955" lon="6.73638">
        <ele>1457.436</ele>
        <time>2020-03-03T14:40:28Z</time>
      </trkpt>
      <trkpt lat="44.45885" lon="6.73657">
        <ele>1462.785</ele>
        <time>2020-03-03T14:40:48Z</time>
      </trkpt>
      <trkpt lat="44.45879" lon="6.73643">
        <ele>1468.373</ele>
        <time>2020-03-03T14:41:08Z</time>
      </trkpt>
      <trkpt lat="44.45928" lon="6.73625">
        <ele>1466.474</ele>
        <time>2020-03-03T14:41:28Z</time>
      </trkpt>
      <trkpt lat="44.45929" lon="6.73601">
        <ele>1469.426</ele>
        <time>2020-03-03T14:41:48Z</time>
      </trkpt>
      <trkpt lat="44.45907" lon="6.73516">
        <ele>1480.932</ele>
        <time>2020-03-03T14:42:08Z</time>
      </trkpt>
      <trkpt lat="44.45932" lon="6.73472">
        <ele>1481.379</ele>
        <time>2020-03-03T14:42:28Z</time>
      </trkpt>
      <trkpt lat="44.45965" lon="6.73425">
        <ele>1486.405</ele>
        <time>2020-03-03T14:42:48Z</time>
      </trkpt>
      <trkpt lat="44.45971" lon="6.73378">
        <ele>1494.525</ele>
        <time>2020-03-03T14:43:08Z</time>
      </trkpt>
      <trkpt lat="44.46015" lon="6.73332">
        <ele>1499.808</ele>
        <time>2020-03-03T14:43:28Z</time>
      </trkpt>
      <trkpt lat="44.46065" lon="6.73318">
        <ele>1501.591</ele>
        <time>2020-03-03T14:43:48Z</time>
      </trkpt>
      <trkpt lat="44.46087" lon="6.73299">
        <ele>1507.914</ele>
        <time>2020-03-03T14:44:08Z</time>
      </trkpt>
      <trkpt lat="44.46108" lon="6.73316">
        <ele>1505.851</ele>
        <time>2020-03-03T14:44:28Z</time>
      </trkpt>
      <trkpt lat="44.46224" lon="6.73247">
        <ele>1526.49</ele>
        <time>2020-03-03T14:44:48Z</time>
      </trkpt>
      <trkpt lat="44.46302" lon="6.73321">
        <ele>1528.348</ele>
        <time>2020-03-03T14:45:08Z</time>
      </trkpt>
      <trkpt lat="44.46446" lon="6.73298">
        <ele>1547.139</ele>
        <time>2020-03-03T14:45:28Z</time>
      </trkpt>
      <trkpt lat="44.46493" lon="6.73279">
        <ele>1550.531</ele>
        <time>2020-03-03T14:45:48Z</time>
      </trkpt>
      <trkpt lat="44.46544" lon="6.73216">
        <ele>1561.247</ele>
        <time>2020-03-03T14:46:08Z</time>
      </trkpt>
      <trkpt lat="44.4662" lon="6.73069">
        <ele>1568.344</ele>
        <time>2020-03-03T14:46:28Z</time>
      </trkpt>
      <trkpt lat="44.46643" lon="6.73004">
        <ele>1573.405</ele>
        <time>2020-03-03T14:46:48Z</time>
      </trkpt>
      <trkpt lat="44.46632" lon="6.73">
        <ele>1579.215</ele>
        <time>2020-03-03T14:47:08Z</time>
      </trkpt>
      <trkpt lat="44.46598" lon="6.73065">
        <ele>1579.208</ele>
        <time>2020-03-03T14:47:28Z</time>
      </trkpt>
      <trkpt lat="44.46569" lon="6.731">
        <ele>1582.718</ele>
        <time>2020-03-03T14:47:48Z</time>
      </trkpt>
      <trkpt lat="44.46554" lon="6.73122">
        <ele>1584.481</ele>
        <time>2020-03-03T14:48:08Z</time>
      </trkpt>
      <trkpt lat="44.46547" lon="6.73115">
        <ele>1590.788</ele>
        <time>2020-03-03T14:48:28Z</time>
      </trkpt>
      <trkpt lat="44.46582" lon="6.73055">
        <ele>1589.617</ele>
        <time>2020-03-03T14:48:48Z</time>
      </trkpt>
      <trkpt lat="44.46596" lon="6.73004">
        <ele>1595.395</ele>
        <time>2020-03-03T14:49:08Z</time>
      </trkpt>
      <trkpt lat="44.46629" lon="6.72934">
        <ele>1597.896</ele>
        <time>2020-03-03T14:49:28Z</time>
      </trkpt>
      <trkpt lat="44.46651" lon="6.72841">
        <ele>1610.078</ele>
        <time>2020-03-03T14:49:48Z</time>
      </trkpt>
      <trkpt lat="44.46699" lon="6.72794">
        <ele>1611.664</ele>
        <time>2020-03-03T14:50:08Z</time>
      </trkpt>
      <trkpt lat="44.4673" lon="6.72774">
        <ele>1614.048</ele>
        <time>2020-03-03T14:50:28Z</time>
      </trkpt>
      <trkpt lat="44.46778" lon="6.72706">
        <ele>1624.361</ele>
        <time>2020-03-03T14:50:48Z</time>
      </trkpt>
      <trkpt lat="44.46809" lon="6.72643">
        <ele>1633.217</ele>
        <time>2020-03-03T14:51:08Z</time>
      </trkpt>
      <trkpt lat="44.4692" lon="6.72604">
        <ele>1648.508</ele>
        <time>2020-03-03T14:51:28Z</time>
      </trkpt>
      <trkpt lat="44.46951" lon="6.72608">
        <ele>1649.848</ele>
        <time>2020-03-03T14:51:48Z</time>
      </trkpt>
      <trkpt lat="44.46996" lon="6.72582">
        <ele>1660.651</ele>
        <time>2020-03-03T14:52:08Z</time>
      </trkpt>
      <trkpt lat="44.47037" lon="6.72579">
        <ele>1663.298</ele>
        <time>2020-03-03T14:52:28Z</time>
      </trkpt>
      <trkpt lat="44.47114" lon="6.72544">
        <ele>1674.247</ele>
        <time>2020-03-03T14:52:48Z</time>
      </trkpt>
      <trkpt lat="44.47174" lon="6.72549">
        <ele>1678.825</ele>
        <time>2020-03-03T14:53:08Z</time>
      </trkpt>
      <trkpt lat="44.4719" lon="6.72531">
        <ele>1681.896</ele>
        <time>2020-03-03T14:53:28Z</time>
      </trkpt>
      <trkpt lat="44.47221" lon="6.72436">
        <ele>1689.678</ele>
        <time>2020-03-03T14:53:48Z</time>
      </trkpt>
      <trkpt lat="44.47225" lon="6.72374">
        <ele>1697.214</ele>
        <time>2020-03-03T14:54:08Z</time>
      </trkpt>
      <trkpt lat="44.47274" lon="6.72259">
        <ele>1702.266</ele>
        <time>2020-03-03T14:54:28Z</time>
      </trkpt>
      <trkpt lat="44.47315" lon="6.72201">
        <ele>1704.429</ele>
        <time>2020-03-03T14:54:48Z</time>
      </trkpt>
      <trkpt lat="44.47334" lon="6.72154">
        <ele>1706.321</ele>
        <time>2020-03-03T14:55:08Z</time>
      </trkpt>
      <trkpt lat="44.47356" lon="6.7209">
        <ele>1711.508</ele>
        <time>2020-03-03T14:55:28Z</time>
      </trkpt>
      <trkpt lat="44.47392" lon="6.72058">
        <ele>1713.23</ele>
        <time>2020-03-03T14:55:48Z</time>
      </trkpt>
      <trkpt lat="44.47434" lon="6.71951">
        <ele>1717.863</ele>
        <time>2020-03-03T14:56:08Z</time>
      </trkpt>
      <trkpt lat="44.47489" lon="6.71878">
        <ele>1717.79</ele>
        <time>2020-03-03T14:56:28Z</time>
      </trkpt>
      <trkpt lat="44.4759" lon="6.71756">
        <ele>1725.869</ele>
        <time>2020-03-03T14:56:48Z</time>
      </trkpt>
      <trkpt lat="44.47622" lon="6.71715">
        <ele>1724.127</ele>
        <time>2020-03-03T14:57:08Z</time>
      </trkpt>
      <trkpt lat="44.47654" lon="6.71665">
        <ele>1727.348</ele>
        <time>2020-03-03T14:57:28Z</time>
      </trkpt>
      <trkpt lat="44.47682" lon="6.71589">
        <ele>1732.97</ele>
        <time>2020-03-03T14:57:48Z</time>
      </trkpt>
      <trkpt lat="44.47714" lon="6.71548">
        <ele>1735.616</ele>
        <time>2020-03-03T14:58:08Z</time>
      </trkpt>
      <trkpt lat="44.47726" lon="6.71525">
        <ele>1739.075</ele>
        <time>2020-03-03T14:58:28Z</time>
      </trkpt>
      <trkpt lat="44.47738" lon="6.71492">
        <ele>1743.728</ele>
        <time>2020-03-03T14:58:48Z</time>
      </trkpt>
      <trkpt lat="44.47768" lon="6.71457">
        <ele>1746.52</ele>
        <time>2020-03-03T14:59:08Z</time>
      </trkpt>
      <trkpt lat="44.4778" lon="6.71434">
        <ele>1751.308</ele>
        <time>2020-03-03T14:59:28Z</time>
      </trkpt>
      <trkpt lat="44.47809" lon="6.71418">
        <ele>1748.451</ele>
        <time>2020-03-03T14:59:48Z</time>
      </trkpt>
      <trkpt lat="44.47837" lon="6.71377">
        <ele>1752.124</ele>
        <time>2020-03-03T15:00:08Z</time>
      </trkpt>
      <trkpt lat="44.47888" lon="6.71329">
        <ele>1751.491</ele>
        <time>2020-03-03T15:00:28Z</time>
      </trkpt>
      <trkpt lat="44.47947" lon="6.71246">
        <ele>1752.04</ele>
        <time>2020-03-03T15:00:48Z</time>
      </trkpt>
      <trkpt lat="44.47989" lon="6.71184">
        <ele>1753.158</ele>
        <time>2020-03-03T15:01:08Z</time>
      </trkpt>
      <trkpt lat="44.48014" lon="6.71157">
        <ele>1752.739</ele>
        <time>2020-03-03T15:01:28Z</time>
      </trkpt>
      <trkpt lat="44.48029" lon="6.71128">
        <ele>1752.531</ele>
        <time>2020-03-03T15:01:48Z</time>
      </trkpt>
      <trkpt lat="44.48043" lon="6.71074">
        <ele>1749.837</ele>
        <time>2020-03-03T15:02:08Z</time>
      </trkpt>
      <trkpt lat="44.48042" lon="6.71046">
        <ele>1750.176</ele>
        <time>2020-03-03T15:02:28Z</time>
      </trkpt>
      <trkpt lat="44.48023" lon="6.70904">
        <ele>1750.59</ele>
        <time>2020-03-03T15:02:48Z</time>
      </trkpt>
      <trkpt lat="44.47998" lon="6.70845">
        <ele>1759.219</ele>
        <time>2020-03-03T15:03:08Z</time>
      </trkpt>
      <trkpt lat="44.47993" lon="6.70804">
        <ele>1761.408</ele>
        <time>2020-03-03T15:03:28Z</time>
      </trkpt>
      <trkpt lat="44.47995" lon="6.70723">
        <ele>1761.761</ele>
        <time>2020-03-03T15:03:48Z</time>
      </trkpt>
      <trkpt lat="44.47998" lon="6.70686">
        <ele>1761.414</ele>
        <time>2020-03-03T15:04:08Z</time>
      </trkpt>
      <trkpt lat="44.47995" lon="6.70612">
        <ele>1769.081</ele>
        <time>2020-03-03T15:04:28Z</time>
      </trkpt>
      <trkpt lat="44.48007" lon="6.70565">
        <ele>1772.31</ele>
        <time>2020-03-03T15:04:48Z</time>
      </trkpt>
      <trkpt lat="44.48059" lon="6.70474">
        <ele>1773.488</ele>
        <time>2020-03-03T15:05:08Z</time>
      </trkpt>
      <trkpt lat="44.4807" lon="6.70444">
        <ele>1776.539</ele>
        <time>2020-03-03T15:05:28Z</time>
      </trkpt>
      <trkpt lat="44.48077" lon="6.70417">
        <ele>1781.441</ele>
        <time>2020-03-03T15:05:48Z</time>
      </trkpt>
      <trkpt lat="44.48087" lon="6.70408">
        <ele>1780.397</ele>
        <time>2020-03-03T15:06:08Z</time>
      </trkpt>
      <trkpt lat="44.48102" lon="6.70399">
        <ele>1777.868</ele>
        <time>2020-03-03T15:06:28Z</time>
      </trkpt>
      <trkpt lat="44.48116" lon="6.70357">
        <ele>1781.042</ele>
        <time>2020-03-03T15:06:48Z</time>
      </trkpt>
      <trkpt lat="44.48129" lon="6.70302">
        <ele>1781.826</ele>
        <time>2020-03-03T15:07:08Z</time>
      </trkpt>
      <trkpt lat="44.48135" lon="6.7024">
        <ele>1786.308</ele>
        <time>2020-03-03T15:07:28Z</time>
      </trkpt>
      <trkpt lat="44.48146" lon="6.70184">
        <ele>1784.77</ele>
        <time>2020-03-03T15:07:48Z</time>
      </trkpt>
      <trkpt lat="44.48146" lon="6.70145">
        <ele>1789.833</ele>
        <time>2020-03-03T15:08:08Z</time>
      </trkpt>
      <trkpt lat="44.48153" lon="6.70119">
        <ele>1790.48</ele>
        <time>2020-03-03T15:08:28Z</time>
      </trkpt>
      <trkpt lat="44.48173" lon="6.70081">
        <ele>1790.019</ele>
        <time>2020-03-03T15:08:48Z</time>
      </trkpt>
      <trkpt lat="44.48174" lon="6.7006">
        <ele>1791.517</ele>
        <time>2020-03-03T15:09:08Z</time>
      </trkpt>
      <trkpt lat="44.48169" lon="6.70006">
        <ele>1798.018</ele>
        <time>2020-03-03T15:09:28Z</time>
      </trkpt>
      <trkpt lat="44.48173" lon="6.69985">
        <ele>1798.95</ele>
        <time>2020-03-03T15:09:48Z</time>
      </trkpt>
      <trkpt lat="44.4818" lon="6.69967">
        <ele>1798.486</ele>
        <time>2020-03-03T15:10:08Z</time>
      </trkpt>
      <trkpt lat="44.48171" lon="6.69896">
        <ele>1801.224</ele>
        <time>2020-03-03T15:10:28Z</time>
      </trkpt>
      <trkpt lat="44.48146" lon="6.6981">
        <ele>1807.904</ele>
        <time>2020-03-03T15:10:48Z</time>
      </trkpt>
      <trkpt lat="44.48148" lon="6.69744">
        <ele>1805.114</ele>
        <time>2020-03-03T15:11:08Z</time>
      </trkpt>
      <trkpt lat="44.4813" lon="6.69666">
        <ele>1811.608</ele>
        <time>2020-03-03T15:11:28Z</time>
      </trkpt>
      <trkpt lat="44.48121" lon="6.69582">
        <ele>1813.036</ele>
        <time>2020-03-03T15:11:48Z</time>
      </trkpt>
      <trkpt lat="44.48118" lon="6.69521">
        <ele>1813.439</ele>
        <time>2020-03-03T15:12:08Z</time>
      </trkpt>
      <trkpt lat="44.4811" lon="6.69477">
        <ele>1819.976</ele>
        <time>2020-03-03T15:12:28Z</time>
      </trkpt>
      <trkpt lat="44.48112" lon="6.69412">
        <ele>1822.085</ele>
        <time>2020-03-03T15:12:48Z</time>
      </trkpt>
      <trkpt lat="44.48119" lon="6.69362">
        <ele>1825.643</ele>
        <time>2020-03-03T15:13:08Z</time>
      </trkpt>
      <trkpt lat="44.48134" lon="6.69326">
        <ele>1820.674</ele>
        <time>2020-03-03T15:13:28Z</time>
      </trkpt>
      <trkpt lat="44.48111" lon="6.69273">
        <ele>1827.586</ele>
        <time>2020-03-03T15:13:48Z</time>
      </trkpt>
      <trkpt lat="44.4806" lon="6.692">
        <ele>1832.152</ele>
        <time>2020-03-03T15:14:08Z</time>
      </trkpt>
      <trkpt lat="44.48034" lon="6.69178">
        <ele>1835.272</ele>
        <time>2020-03-03T15:14:28Z</time>
      </trkpt>
      <trkpt lat="44.4803" lon="6.6916">
        <ele>1837.913</ele>
        <time>2020-03-03T15:14:48Z</time>
      </trkpt>
      <trkpt lat="44.48027" lon="6.69137">
        <ele>1846.514</ele>
        <time>2020-03-03T15:15:08Z</time>
      </trkpt>
      <trkpt lat="44.48039" lon="6.69126">
        <ele>1848.108</ele>
        <time>2020-03-03T15:15:28Z</time>
      </trkpt>
      <trkpt lat="44.48074" lon="6.69103">
        <ele>1848.241</ele>
        <time>2020-03-03T15:15:48Z</time>
      </trkpt>
      <trkpt lat="44.48099" lon="6.69078">
        <ele>1852.054</ele>
        <time>2020-03-03T15:16:08Z</time>
      </trkpt>
      <trkpt lat="44.48107" lon="6.69064">
        <ele>1856.331</ele>
        <time>2020-03-03T15:16:28Z</time>
      </trkpt>
      <trkpt lat="44.48142" lon="6.69034">
        <ele>1865.11</ele>
        <time>2020-03-03T15:16:48Z</time>
      </trkpt>
      <trkpt lat="44.48194" lon="6.69012">
        <ele>1867.388</ele>
        <time>2020-03-03T15:17:08Z</time>
      </trkpt>
      <trkpt lat="44.48229" lon="6.68974">
        <ele>1875.459</ele>
        <time>2020-03-03T15:17:28Z</time>
      </trkpt>
      <trkpt lat="44.4826" lon="6.68945">
        <ele>1873.461</ele>
        <time>2020-03-03T15:17:48Z</time>
      </trkpt>
      <trkpt lat="44.48284" lon="6.6886">
        <ele>1884.637</ele>
        <time>2020-03-03T15:18:08Z</time>
      </trkpt>
      <trkpt lat="44.48314" lon="6.68789">
        <ele>1881.031</ele>
        <time>2020-03-03T15:18:28Z</time>
      </trkpt>
      <trkpt lat="44.48312" lon="6.6875">
        <ele>1886.861</ele>
        <time>2020-03-03T15:18:48Z</time>
      </trkpt>
      <trkpt lat="44.48313" lon="6.68712">
        <ele>1890.207</ele>
        <time>2020-03-03T15:19:08Z</time>
      </trkpt>
      <trkpt lat="44.48302" lon="6.68709">
        <ele>1897.708</ele>
        <time>2020-03-03T15:19:28Z</time>
      </trkpt>
      <trkpt lat="44.48292" lon="6.68793">
        <ele>1895.447</ele>
        <time>2020-03-03T15:19:48Z</time>
      </trkpt>
      <trkpt lat="44.4826" lon="6.68828">
        <ele>1905.88</ele>
        <time>2020-03-03T15:20:08Z</time>
      </trkpt>
      <trkpt lat="44.48244" lon="6.68836">
        <ele>1910.197</ele>
        <time>2020-03-03T15:20:28Z</time>
      </trkpt>
      <trkpt lat="44.48242" lon="6.68856">
        <ele>1906.126</ele>
        <time>2020-03-03T15:20:48Z</time>
      </trkpt>
      <trkpt lat="44.482" lon="6.68886">
        <ele>1913.254</ele>
        <time>2020-03-03T15:21:08Z</time>
      </trkpt>
      <trkpt lat="44.48118" lon="6.6889">
        <ele>1924.245</ele>
        <time>2020-03-03T15:21:28Z</time>
      </trkpt>
      <trkpt lat="44.48102" lon="6.68896">
        <ele>1924.697</ele>
        <time>2020-03-03T15:21:48Z</time>
      </trkpt>
      <trkpt lat="44.48087" lon="6.68905">
        <ele>1924.583</ele>
        <time>2020-03-03T15:22:08Z</time>
      </trkpt>
      <trkpt lat="44.48061" lon="6.68913">
        <ele>1929.423</ele>
        <time>2020-03-03T15:22:28Z</time>
      </trkpt>
      <trkpt lat="44.48022" lon="6.68934">
        <ele>1933.283</ele>
        <time>2020-03-03T15:22:48Z</time>
      </trkpt>
      <trkpt lat="44.48013" lon="6.68923">
        <ele>1939.211</ele>
        <time>2020-03-03T15:23:08Z</time>
      </trkpt>
      <trkpt lat="44.48038" lon="6.68913">
        <ele>1935.808</ele>
        <time>2020-03-03T15:23:28Z</time>
      </trkpt>
      <trkpt lat="44.48061" lon="6.68894">
        <ele>1934.086</ele>
        <time>2020-03-03T15:23:48Z</time>
      </trkpt>
      <trkpt lat="44.48072" lon="6.68876">
        <ele>1934.539</ele>
        <time>2020-03-03T15:24:08Z</time>
      </trkpt>
      <trkpt lat="44.4808" lon="6.68835">
        <ele>1941.976</ele>
        <time>2020-03-03T15:24:28Z</time>
      </trkpt>
      <trkpt lat="44.48138" lon="6.68813">
        <ele>1944.655</ele>
        <time>2020-03-03T15:24:48Z</time>
      </trkpt>
      <trkpt lat="44.48164" lon="6.68771">
        <ele>1947.013</ele>
        <time>2020-03-03T15:25:08Z</time>
      </trkpt>
      <trkpt lat="44.48195" lon="6.68701">
        <ele>1954.174</ele>
        <time>2020-03-03T15:25:28Z</time>
      </trkpt>
      <trkpt lat="44.482" lon="6.68677">
        <ele>1955.076</ele>
        <time>2020-03-03T15:25:48Z</time>
      </trkpt>
      <trkpt lat="44.48201" lon="6.68631">
        <ele>1961.842</ele>
        <time>2020-03-03T15:26:08Z</time>
      </trkpt>
      <trkpt lat="44.4821" lon="6.68555">
        <ele>1968.436</ele>
        <time>2020-03-03T15:26:28Z</time>
      </trkpt>
      <trkpt lat="44.48222" lon="6.68525">
        <ele>1967.617</ele>
        <time>2020-03-03T15:26:48Z</time>
      </trkpt>
      <trkpt lat="44.48259" lon="6.68464">
        <ele>1971.718</ele>
        <time>2020-03-03T15:27:08Z</time>
      </trkpt>
      <trkpt lat="44.4827" lon="6.68423">
        <ele>1975.908</ele>
        <time>2020-03-03T15:27:28Z</time>
      </trkpt>
      <trkpt lat="44.48272" lon="6.68334">
        <ele>1984.227</ele>
        <time>2020-03-03T15:27:48Z</time>
      </trkpt>
      <trkpt lat="44.48278" lon="6.68305">
        <ele>1986.26</ele>
        <time>2020-03-03T15:28:08Z</time>
      </trkpt>
      <trkpt lat="44.48296" lon="6.68248">
        <ele>1990.677</ele>
        <time>2020-03-03T15:28:28Z</time>
      </trkpt>
      <trkpt lat="44.48301" lon="6.68205">
        <ele>2000.016</ele>
        <time>2020-03-03T15:28:48Z</time>
      </trkpt>
      <trkpt lat="44.48319" lon="6.68177">
        <ele>1998.924</ele>
        <time>2020-03-03T15:29:08Z</time>
      </trkpt>
      <trkpt lat="44.48321" lon="6.68128">
        <ele>2005.325</ele>
        <time>2020-03-03T15:29:28Z</time>
      </trkpt>
      <trkpt lat="44.48327" lon="6.68089">
        <ele>2008.827</ele>
        <time>2020-03-03T15:29:48Z</time>
      </trkpt>
      <trkpt lat="44.48333" lon="6.68071">
        <ele>2010.393</ele>
        <time>2020-03-03T15:30:08Z</time>
      </trkpt>
      <trkpt lat="44.48348" lon="6.68045">
        <ele>2006.285</ele>
        <time>2020-03-03T15:30:28Z</time>
      </trkpt>
      <trkpt lat="44.48344" lon="6.68009">
        <ele>2009.889</ele>
        <time>2020-03-03T15:30:48Z</time>
      </trkpt>
      <trkpt lat="44.48332" lon="6.67946">
        <ele>2021.417</ele>
        <time>2020-03-03T15:31:08Z</time>
      </trkpt>
      <trkpt lat="44.48347" lon="6.67923">
        <ele>2019.908</ele>
        <time>2020-03-03T15:31:28Z</time>
      </trkpt>
      <trkpt lat="44.48371" lon="6.67893">
        <ele>2014.752</ele>
        <time>2020-03-03T15:31:48Z</time>
      </trkpt>
      <trkpt lat="44.48373" lon="6.6788">
        <ele>2014.795</ele>
        <time>2020-03-03T15:32:08Z</time>
      </trkpt>
      <trkpt lat="44.48364" lon="6.67841">
        <ele>2021.252</ele>
        <time>2020-03-03T15:32:28Z</time>
      </trkpt>
      <trkpt lat="44.48367" lon="6.67831">
        <ele>2021.261</ele>
        <time>2020-03-03T15:32:48Z</time>
      </trkpt>
      <trkpt lat="44.48387" lon="6.67783">
        <ele>2015.119</ele>
        <time>2020-03-03T15:33:08Z</time>
      </trkpt>
      <trkpt lat="44.48378" lon="6.67756">
        <ele>2019.38</ele>
        <time>2020-03-03T15:33:28Z</time>
      </trkpt>
      <trkpt lat="44.48369" lon="6.67678">
        <ele>2024.692</ele>
        <time>2020-03-03T15:33:48Z</time>
      </trkpt>
      <trkpt lat="44.48381" lon="6.67639">
        <ele>2021.748</ele>
        <time>2020-03-03T15:34:08Z</time>
      </trkpt>
      <trkpt lat="44.48375" lon="6.67603">
        <ele>2022.499</ele>
        <time>2020-03-03T15:34:28Z</time>
      </trkpt>
      <trkpt lat="44.4836" lon="6.67549">
        <ele>2026.707</ele>
        <time>2020-03-03T15:34:48Z</time>
      </trkpt>
      <trkpt lat="44.48361" lon="6.67518">
        <ele>2027.427</ele>
        <time>2020-03-03T15:35:08Z</time>
      </trkpt>
      <trkpt lat="44.48375" lon="6.67477">
        <ele>2026.508</ele>
        <time>2020-03-03T15:35:28Z</time>
      </trkpt>
      <trkpt lat="44.48384" lon="6.67459">
        <ele>2026.973</ele>
        <time>2020-03-03T15:35:48Z</time>
      </trkpt>
      <trkpt lat="44.48391" lon="6.67449">
        <ele>2026.636</ele>
        <time>2020-03-03T15:36:08Z</time>
      </trkpt>
      <trkpt lat="44.48409" lon="6.67386">
        <ele>2031.253</ele>
        <time>2020-03-03T15:36:28Z</time>
      </trkpt>
      <trkpt lat="44.48422" lon="6.6736">
        <ele>2028.482</ele>
        <time>2020-03-03T15:36:48Z</time>
      </trkpt>
      <trkpt lat="44.48431" lon="6.67312">
        <ele>2022.62</ele>
        <time>2020-03-03T15:37:08Z</time>
      </trkpt>
      <trkpt lat="44.48413" lon="6.67249">
        <ele>2026.241</ele>
        <time>2020-03-03T15:37:28Z</time>
      </trkpt>
      <trkpt lat="44.48404" lon="6.67193">
        <ele>2025.963</ele>
        <time>2020-03-03T15:37:48Z</time>
      </trkpt>
      <trkpt lat="44.48405" lon="6.67169">
        <ele>2022.179</ele>
        <time>2020-03-03T15:38:08Z</time>
      </trkpt>
      <trkpt lat="44.48382" lon="6.671">
        <ele>2023.036</ele>
        <time>2020-03-03T15:38:28Z</time>
      </trkpt>
      <trkpt lat="44.48358" lon="6.67046">
        <ele>2035.517</ele>
        <time>2020-03-03T15:38:48Z</time>
      </trkpt>
      <trkpt lat="44.48381" lon="6.67017">
        <ele>2032.418</ele>
        <time>2020-03-03T15:39:08Z</time>
      </trkpt>
      <trkpt lat="44.48386" lon="6.67004">
        <ele>2032.408</ele>
        <time>2020-03-03T15:39:28Z</time>
      </trkpt>
      <trkpt lat="44.48393" lon="6.66933">
        <ele>2025.717</ele>
        <time>2020-03-03T15:39:48Z</time>
      </trkpt>
      <trkpt lat="44.48379" lon="6.6688">
        <ele>2025.93</ele>
        <time>2020-03-03T15:40:08Z</time>
      </trkpt>
      <trkpt lat="44.48363" lon="6.66866">
        <ele>2028.957</ele>
        <time>2020-03-03T15:40:28Z</time>
      </trkpt>
      <trkpt lat="44.48342" lon="6.66843">
        <ele>2030.146</ele>
        <time>2020-03-03T15:40:48Z</time>
      </trkpt>
      <trkpt lat="44.48343" lon="6.66815">
        <ele>2030.254</ele>
        <time>2020-03-03T15:41:08Z</time>
      </trkpt>
      <trkpt lat="44.48348" lon="6.66781">
        <ele>2033.315</ele>
        <time>2020-03-03T15:41:28Z</time>
      </trkpt>
      <trkpt lat="44.48293" lon="6.66635">
        <ele>2044.987</ele>
        <time>2020-03-03T15:41:48Z</time>
      </trkpt>
      <trkpt lat="44.48276" lon="6.66509">
        <ele>2055.243</ele>
        <time>2020-03-03T15:42:08Z</time>
      </trkpt>
      <trkpt lat="44.48283" lon="6.66431">
        <ele>2060.845</ele>
        <time>2020-03-03T15:42:28Z</time>
      </trkpt>
      <trkpt lat="44.48288" lon="6.66334">
        <ele>2066.547</ele>
        <time>2020-03-03T15:42:48Z</time>
      </trkpt>
      <trkpt lat="44.48304" lon="6.66285">
        <ele>2069.811</ele>
        <time>2020-03-03T15:43:08Z</time>
      </trkpt>
      <trkpt lat="44.48347" lon="6.6624">
        <ele>2077.808</ele>
        <time>2020-03-03T15:43:28Z</time>
      </trkpt>
      <trkpt lat="44.4835" lon="6.66202">
        <ele>2082.618</ele>
        <time>2020-03-03T15:43:48Z</time>
      </trkpt>
      <trkpt lat="44.48339" lon="6.66164">
        <ele>2087.371</ele>
        <time>2020-03-03T15:44:08Z</time>
      </trkpt>
      <trkpt lat="44.48295" lon="6.66103">
        <ele>2090.088</ele>
        <time>2020-03-03T15:44:28Z</time>
      </trkpt>
      <trkpt lat="44.48285" lon="6.6607">
        <ele>2098.357</ele>
        <time>2020-03-03T15:44:48Z</time>
      </trkpt>
      <trkpt lat="44.48249" lon="6.66028">
        <ele>2100.415</ele>
        <time>2020-03-03T15:45:08Z</time>
      </trkpt>
      <trkpt lat="44.48235" lon="6.65999">
        <ele>2107.836</ele>
        <time>2020-03-03T15:45:28Z</time>
      </trkpt>
      <trkpt lat="44.48214" lon="6.65987">
        <ele>2103.958</ele>
        <time>2020-03-03T15:45:48Z</time>
      </trkpt>
      <trkpt lat="44.48195" lon="6.65952">
        <ele>2109.964</ele>
        <time>2020-03-03T15:46:08Z</time>
      </trkpt>
      <trkpt lat="44.48162" lon="6.65922">
        <ele>2110.122</ele>
        <time>2020-03-03T15:46:28Z</time>
      </trkpt>
      <trkpt lat="44.48108" lon="6.65854">
        <ele>2116.662</ele>
        <time>2020-03-03T15:46:48Z</time>
      </trkpt>
      <trkpt lat="44.48099" lon="6.65833">
        <ele>2121.608</ele>
        <time>2020-03-03T15:47:08Z</time>
      </trkpt>
      <trkpt lat="44.48066" lon="6.65816">
        <ele>2122.108</ele>
        <time>2020-03-03T15:47:28Z</time>
      </trkpt>
      <trkpt lat="44.48033" lon="6.65789">
        <ele>2125.946</ele>
        <time>2020-03-03T15:47:48Z</time>
      </trkpt>
      <trkpt lat="44.48009" lon="6.65759">
        <ele>2130.439</ele>
        <time>2020-03-03T15:48:08Z</time>
      </trkpt>
      <trkpt lat="44.47995" lon="6.65733">
        <ele>2135.876</ele>
        <time>2020-03-03T15:48:28Z</time>
      </trkpt>
      <trkpt lat="44.47946" lon="6.65692">
        <ele>2136.055</ele>
        <time>2020-03-03T15:48:48Z</time>
      </trkpt>
      <trkpt lat="44.47938" lon="6.65675">
        <ele>2138.433</ele>
        <time>2020-03-03T15:49:08Z</time>
      </trkpt>
      <trkpt lat="44.47875" lon="6.65606">
        <ele>2143.174</ele>
        <time>2020-03-03T15:49:28Z</time>
      </trkpt>
      <trkpt lat="44.47863" lon="6.65582">
        <ele>2149.856</ele>
        <time>2020-03-03T15:49:48Z</time>
      </trkpt>
      <trkpt lat="44.4784" lon="6.65579">
        <ele>2144.482</ele>
        <time>2020-03-03T15:50:08Z</time>
      </trkpt>
      <trkpt lat="44.47823" lon="6.65554">
        <ele>2150.034</ele>
        <time>2020-03-03T15:50:28Z</time>
      </trkpt>
      <trkpt lat="44.47819" lon="6.6553">
        <ele>2160.355</ele>
        <time>2020-03-03T15:50:48Z</time>
      </trkpt>
      <trkpt lat="44.47771" lon="6.65533">
        <ele>2157.81</ele>
        <time>2020-03-03T15:51:08Z</time>
      </trkpt>
      <trkpt lat="44.47699" lon="6.65499">
        <ele>2162.108</ele>
        <time>2020-03-03T15:51:28Z</time>
      </trkpt>
      <trkpt lat="44.47686" lon="6.65485">
        <ele>2163.587</ele>
        <time>2020-03-03T15:51:48Z</time>
      </trkpt>
      <trkpt lat="44.47655" lon="6.65443">
        <ele>2174.77</ele>
        <time>2020-03-03T15:52:08Z</time>
      </trkpt>
      <trkpt lat="44.47645" lon="6.65441">
        <ele>2176.737</ele>
        <time>2020-03-03T15:52:28Z</time>
      </trkpt>
      <trkpt lat="44.47621" lon="6.65457">
        <ele>2171.976</ele>
        <time>2020-03-03T15:52:48Z</time>
      </trkpt>
      <trkpt lat="44.4759" lon="6.65441">
        <ele>2172.564</ele>
        <time>2020-03-03T15:53:08Z</time>
      </trkpt>
      <trkpt lat="44.47577" lon="6.65409">
        <ele>2182.365</ele>
        <time>2020-03-03T15:53:28Z</time>
      </trkpt>
      <trkpt lat="44.47561" lon="6.65412">
        <ele>2185.987</ele>
        <time>2020-03-03T15:53:48Z</time>
      </trkpt>
      <trkpt lat="44.47544" lon="6.65424">
        <ele>2182.643</ele>
        <time>2020-03-03T15:54:08Z</time>
      </trkpt>
      <trkpt lat="44.47482" lon="6.65387">
        <ele>2191.275</ele>
        <time>2020-03-03T15:54:28Z</time>
      </trkpt>
      <trkpt lat="44.47489" lon="6.65382">
        <ele>2193.228</ele>
        <time>2020-03-03T15:54:48Z</time>
      </trkpt>
      <trkpt lat="44.4754" lon="6.65394">
        <ele>2191.52</ele>
        <time>2020-03-03T15:55:08Z</time>
      </trkpt>
      <trkpt lat="44.47558" lon="6.65381">
        <ele>2196.108</ele>
        <time>2020-03-03T15:55:28Z</time>
      </trkpt>
      <trkpt lat="44.47576" lon="6.65345">
        <ele>2206.251</ele>
        <time>2020-03-03T15:55:48Z</time>
      </trkpt>
      <trkpt lat="44.47603" lon="6.65363">
        <ele>2201.744</ele>
        <time>2020-03-03T15:56:08Z</time>
      </trkpt>
      <trkpt lat="44.47628" lon="6.65362">
        <ele>2208.051</ele>
        <time>2020-03-03T15:56:28Z</time>
      </trkpt>
      <trkpt lat="44.47692" lon="6.65365">
        <ele>2215.63</ele>
        <time>2020-03-03T15:56:48Z</time>
      </trkpt>
      <trkpt lat="44.4774" lon="6.65374">
        <ele>2220.978</ele>
        <time>2020-03-03T15:57:08Z</time>
      </trkpt>
      <trkpt lat="44.47772" lon="6.65398">
        <ele>2218.379</ele>
        <time>2020-03-03T15:57:28Z</time>
      </trkpt>
      <trkpt lat="44.47777" lon="6.65389">
        <ele>2222.921</ele>
        <time>2020-03-03T15:57:48Z</time>
      </trkpt>
      <trkpt lat="44.47754" lon="6.6537">
        <ele>2226.487</ele>
        <time>2020-03-03T15:58:08Z</time>
      </trkpt>
      <trkpt lat="44.47745" lon="6.65359">
        <ele>2229.944</ele>
        <time>2020-03-03T15:58:28Z</time>
      </trkpt>
      <trkpt lat="44.47725" lon="6.6535">
        <ele>2230.005</ele>
        <time>2020-03-03T15:58:48Z</time>
      </trkpt>
      <trkpt lat="44.47691" lon="6.65324">
        <ele>2239.115</ele>
        <time>2020-03-03T15:59:08Z</time>
      </trkpt>
      <trkpt lat="44.47657" lon="6.65323">
        <ele>2234.508</ele>
        <time>2020-03-03T15:59:28Z</time>
      </trkpt>
      <trkpt lat="44.47622" lon="6.65287">
        <ele>2234.678</ele>
        <time>2020-03-03T15:59:48Z</time>
      </trkpt>
      <trkpt lat="44.47603" lon="6.65229">
        <ele>2250.621</ele>
        <time>2020-03-03T16:00:08Z</time>
      </trkpt>
      <trkpt lat="44.47564" lon="6.65235">
        <ele>2254.488</ele>
        <time>2020-03-03T16:00:28Z</time>
      </trkpt>
      <trkpt lat="44.47545" lon="6.6524">
        <ele>2253.247</ele>
        <time>2020-03-03T16:00:48Z</time>
      </trkpt>
      <trkpt lat="44.4748" lon="6.65206">
        <ele>2262.515</ele>
        <time>2020-03-03T16:01:08Z</time>
      </trkpt>
      <trkpt lat="44.47406" lon="6.65179">
        <ele>2272.786</ele>
        <time>2020-03-03T16:01:28Z</time>
      </trkpt>
      <trkpt lat="44.47361" lon="6.65191">
        <ele>2277.028</ele>
        <time>2020-03-03T16:01:48Z</time>
      </trkpt>
      <trkpt lat="44.47338" lon="6.6522">
        <ele>2272.584</ele>
        <time>2020-03-03T16:02:08Z</time>
      </trkpt>
      <trkpt lat="44.47333" lon="6.65209">
        <ele>2276.671</ele>
        <time>2020-03-03T16:02:28Z</time>
      </trkpt>
      <trkpt lat="44.47354" lon="6.65169">
        <ele>2284.041</ele>
        <time>2020-03-03T16:02:48Z</time>
      </trkpt>
      <trkpt lat="44.47371" lon="6.65155">
        <ele>2284.315</ele>
        <time>2020-03-03T16:03:08Z</time>
      </trkpt>
      <trkpt lat="44.47367" lon="6.65143">
        <ele>2288.608</ele>
        <time>2020-03-03T16:03:28Z</time>
      </trkpt>
      <trkpt lat="44.47335" lon="6.65164">
        <ele>2289.551</ele>
        <time>2020-03-03T16:03:48Z</time>
      </trkpt>
      <trkpt lat="44.47327" lon="6.65178">
        <ele>2286.394</ele>
        <time>2020-03-03T16:04:08Z</time>
      </trkpt>
      <trkpt lat="44.47306" lon="6.65177">
        <ele>2286.881</ele>
        <time>2020-03-03T16:04:28Z</time>
      </trkpt>
      <trkpt lat="44.47264" lon="6.65159">
        <ele>2288.64</ele>
        <time>2020-03-03T16:04:48Z</time>
      </trkpt>
      <trkpt lat="44.47269" lon="6.65148">
        <ele>2294.038</ele>
        <time>2020-03-03T16:05:08Z</time>
      </trkpt>
      <trkpt lat="44.47299" lon="6.65151">
        <ele>2295.579</ele>
        <time>2020-03-03T16:05:28Z</time>
      </trkpt>
      <trkpt lat="44.47337" lon="6.65117">
        <ele>2305.351</ele>
        <time>2020-03-03T16:05:48Z</time>
      </trkpt>
      <trkpt lat="44.47361" lon="6.65102">
        <ele>2308.247</ele>
        <time>2020-03-03T16:06:08Z</time>
      </trkpt>
      <trkpt lat="44.47397" lon="6.65101">
        <ele>2306.583</ele>
        <time>2020-03-03T16:06:28Z</time>
      </trkpt>
      <trkpt lat="44.47418" lon="6.65093">
        <ele>2311.925</ele>
        <time>2020-03-03T16:06:48Z</time>
      </trkpt>
      <trkpt lat="44.47455" lon="6.65099">
        <ele>2311.717</ele>
        <time>2020-03-03T16:07:08Z</time>
      </trkpt>
      <trkpt lat="44.47493" lon="6.65081">
        <ele>2319.708</ele>
        <time>2020-03-03T16:07:28Z</time>
      </trkpt>
      <trkpt lat="44.47539" lon="6.65078">
        <ele>2325.292</ele>
        <time>2020-03-03T16:07:48Z</time>
      </trkpt>
      <trkpt lat="44.47574" lon="6.65089">
        <ele>2325.215</ele>
        <time>2020-03-03T16:08:08Z</time>
      </trkpt>
      <trkpt lat="44.47601" lon="6.65067">
        <ele>2336.712</ele>
        <time>2020-03-03T16:08:28Z</time>
      </trkpt>
      <trkpt lat="44.47638" lon="6.65073">
        <ele>2335.431</ele>
        <time>2020-03-03T16:08:48Z</time>
      </trkpt>
      <trkpt lat="44.47661" lon="6.65083">
        <ele>2334.149</ele>
        <time>2020-03-03T16:09:08Z</time>
      </trkpt>
      <trkpt lat="44.47677" lon="6.6508">
        <ele>2337.56</ele>
        <time>2020-03-03T16:09:28Z</time>
      </trkpt>
      <trkpt lat="44.47698" lon="6.65102">
        <ele>2336.492</ele>
        <time>2020-03-03T16:09:48Z</time>
      </trkpt>
      <trkpt lat="44.47738" lon="6.65097">
        <ele>2343.228</ele>
        <time>2020-03-03T16:10:08Z</time>
      </trkpt>
      <trkpt lat="44.47769" lon="6.65099">
        <ele>2344.769</ele>
        <time>2020-03-03T16:10:28Z</time>
      </trkpt>
      <trkpt lat="44.47774" lon="6.65087">
        <ele>2347.104</ele>
        <time>2020-03-03T16:10:48Z</time>
      </trkpt>
      <trkpt lat="44.47742" lon="6.65048">
        <ele>2351.324</ele>
        <time>2020-03-03T16:11:08Z</time>
      </trkpt>
      <trkpt lat="44.47692" lon="6.64978">
        <ele>2358.508</ele>
        <time>2020-03-03T16:11:28Z</time>
      </trkpt>
      <trkpt lat="44.47669" lon="6.6497">
        <ele>2365.35</ele>
        <time>2020-03-03T16:11:48Z</time>
      </trkpt>
      <trkpt lat="44.47613" lon="6.65009">
        <ele>2366.113</ele>
        <time>2020-03-03T16:12:08Z</time>
      </trkpt>
      <trkpt lat="44.47569" lon="6.6498">
        <ele>2378.23</ele>
        <time>2020-03-03T16:12:28Z</time>
      </trkpt>
      <trkpt lat="44.47532" lon="6.64967">
        <ele>2379.089</ele>
        <time>2020-03-03T16:12:48Z</time>
      </trkpt>
      <trkpt lat="44.47492" lon="6.64944">
        <ele>2382.517</ele>
        <time>2020-03-03T16:13:08Z</time>
      </trkpt>
      <trkpt lat="44.47462" lon="6.64928">
        <ele>2382.688</ele>
        <time>2020-03-03T16:13:28Z</time>
      </trkpt>
      <trkpt lat="44.47398" lon="6.64867">
        <ele>2393.64</ele>
        <time>2020-03-03T16:13:48Z</time>
      </trkpt>
      <trkpt lat="44.47359" lon="6.6486">
        <ele>2398.466</ele>
        <time>2020-03-03T16:14:08Z</time>
      </trkpt>
      <trkpt lat="44.47325" lon="6.64865">
        <ele>2397.233</ele>
        <time>2020-03-03T16:14:28Z</time>
      </trkpt>
      <trkpt lat="44.47279" lon="6.64843">
        <ele>2408.523</ele>
        <time>2020-03-03T16:14:48Z</time>
      </trkpt>
      <trkpt lat="44.4725" lon="6.64847">
        <ele>2408.015</ele>
        <time>2020-03-03T16:15:08Z</time>
      </trkpt>
      <trkpt lat="44.47218" lon="6.64838">
        <ele>2411.708</ele>
        <time>2020-03-03T16:15:28Z</time>
      </trkpt>
      <trkpt lat="44.47176" lon="6.64839">
        <ele>2409.597</ele>
        <time>2020-03-03T16:15:48Z</time>
      </trkpt>
      <trkpt lat="44.47169" lon="6.64823">
        <ele>2412.09</ele>
        <time>2020-03-03T16:16:08Z</time>
      </trkpt>
      <trkpt lat="44.47178" lon="6.64816">
        <ele>2414.127</ele>
        <time>2020-03-03T16:16:28Z</time>
      </trkpt>
      <trkpt lat="44.47252" lon="6.64806">
        <ele>2422.776</ele>
        <time>2020-03-03T16:16:48Z</time>
      </trkpt>
      <trkpt lat="44.47282" lon="6.64791">
        <ele>2428.714</ele>
        <time>2020-03-03T16:17:08Z</time>
      </trkpt>
      <trkpt lat="44.47312" lon="6.6479">
        <ele>2429.755</ele>
        <time>2020-03-03T16:17:28Z</time>
      </trkpt>
      <trkpt lat="44.4734" lon="6.6478">
        <ele>2432.817</ele>
        <time>2020-03-03T16:17:48Z</time>
      </trkpt>
      <trkpt lat="44.47372" lon="6.64762">
        <ele>2439.743</ele>
        <time>2020-03-03T16:18:08Z</time>
      </trkpt>
      <trkpt lat="44.47418" lon="6.64763">
        <ele>2442.938</ele>
        <time>2020-03-03T16:18:28Z</time>
      </trkpt>
      <trkpt lat="44.47469" lon="6.648">
        <ele>2442.37</ele>
        <time>2020-03-03T16:18:48Z</time>
      </trkpt>
      <trkpt lat="44.47497" lon="6.64808">
        <ele>2447.217</ele>
        <time>2020-03-03T16:19:08Z</time>
      </trkpt>
      <trkpt lat="44.47549" lon="6.64801">
        <ele>2454.608</ele>
        <time>2020-03-03T16:19:28Z</time>
      </trkpt>
      <trkpt lat="44.47586" lon="6.64782">
        <ele>2455.927</ele>
        <time>2020-03-03T16:19:48Z</time>
      </trkpt>
      <trkpt lat="44.47596" lon="6.64721">
        <ele>2465.36</ele>
        <time>2020-03-03T16:20:08Z</time>
      </trkpt>
      <trkpt lat="44.4763" lon="6.64611">
        <ele>2476.837</ele>
        <time>2020-03-03T16:20:28Z</time>
      </trkpt>
      <trkpt lat="44.47673" lon="6.64574">
        <ele>2482.646</ele>
        <time>2020-03-03T16:20:48Z</time>
      </trkpt>
      <trkpt lat="44.47703" lon="6.64586">
        <ele>2477.294</ele>
        <time>2020-03-03T16:21:08Z</time>
      </trkpt>
      <trkpt lat="44.47731" lon="6.64571">
        <ele>2484.425</ele>
        <time>2020-03-03T16:21:28Z</time>
      </trkpt>
      <trkpt lat="44.4776" lon="6.64536">
        <ele>2490.337</ele>
        <time>2020-03-03T16:21:48Z</time>
      </trkpt>
      <trkpt lat="44.47798" lon="6.64519">
        <ele>2490.883</ele>
        <time>2020-03-03T16:22:08Z</time>
      </trkpt>
      <trkpt lat="44.47829" lon="6.64536">
        <ele>2492.461</ele>
        <time>2020-03-03T16:22:28Z</time>
      </trkpt>
      <trkpt lat="44.47844" lon="6.64559">
        <ele>2491.521</ele>
        <time>2020-03-03T16:22:48Z</time>
      </trkpt>
      <trkpt lat="44.47871" lon="6.64595">
        <ele>2492.613</ele>
        <time>2020-03-03T16:23:08Z</time>
      </trkpt>
      <trkpt lat="44.47912" lon="6.64598">
        <ele>2505.808</ele>
        <time>2020-03-03T16:23:28Z</time>
      </trkpt>
      <trkpt lat="44.47937" lon="6.64625">
        <ele>2503.15</ele>
        <time>2020-03-03T16:23:48Z</time>
      </trkpt>
      <trkpt lat="44.47957" lon="6.6463">
        <ele>2508.983</ele>
        <time>2020-03-03T16:24:08Z</time>
      </trkpt>
      <trkpt lat="44.47966" lon="6.64689">
        <ele>2503.31</ele>
        <time>2020-03-03T16:24:28Z</time>
      </trkpt>
      <trkpt lat="44.47989" lon="6.64701">
        <ele>2514.299</ele>
        <time>2020-03-03T16:24:48Z</time>
      </trkpt>
      <trkpt lat="44.47991" lon="6.64731">
        <ele>2510.517</ele>
        <time>2020-03-03T16:25:08Z</time>
      </trkpt>
      <trkpt lat="44.48003" lon="6.6475">
        <ele>2514.558</ele>
        <time>2020-03-03T16:25:28Z</time>
      </trkpt>
      <trkpt lat="44.48006" lon="6.64778">
        <ele>2512.44</ele>
        <time>2020-03-03T16:25:48Z</time>
      </trkpt>
      <trkpt lat="44.48013" lon="6.64794">
        <ele>2514.356</ele>
        <time>2020-03-03T16:26:08Z</time>
      </trkpt>
      <trkpt lat="44.4802" lon="6.64845">
        <ele>2514.011</ele>
        <time>2020-03-03T16:26:28Z</time>
      </trkpt>
      <trkpt lat="44.48036" lon="6.64863">
        <ele>2520.921</ele>
        <time>2020-03-03T16:26:48Z</time>
      </trkpt>
      <trkpt lat="44.48056" lon="6.64872">
        <ele>2529.003</ele>
        <time>2020-03-03T16:27:08Z</time>
      </trkpt>
      <trkpt lat="44.48092" lon="6.64872">
        <ele>2534.508</ele>
        <time>2020-03-03T16:27:28Z</time>
      </trkpt>
      <trkpt lat="44.48124" lon="6.64854">
        <ele>2541.135</ele>
        <time>2020-03-03T16:27:48Z</time>
      </trkpt>
      <trkpt lat="44.4814" lon="6.64835">
        <ele>2546.438</ele>
        <time>2020-03-03T16:28:08Z</time>
      </trkpt>
      <trkpt lat="44.48214" lon="6.64842">
        <ele>2546.225</ele>
        <time>2020-03-03T16:28:28Z</time>
      </trkpt>
      <trkpt lat="44.48243" lon="6.64855">
        <ele>2545.564</ele>
        <time>2020-03-03T16:28:48Z</time>
      </trkpt>
      <trkpt lat="44.48281" lon="6.64863">
        <ele>2550.112</ele>
        <time>2020-03-03T16:29:08Z</time>
      </trkpt>
      <trkpt lat="44.48342" lon="6.64878">
        <ele>2560.753</ele>
        <time>2020-03-03T16:29:28Z</time>
      </trkpt>
      <trkpt lat="44.48383" lon="6.64882">
        <ele>2567.645</ele>
        <time>2020-03-03T16:29:48Z</time>
      </trkpt>
      <trkpt lat="44.48441" lon="6.64862">
        <ele>2576.831</ele>
        <time>2020-03-03T16:30:08Z</time>
      </trkpt>
      <trkpt lat="44.48491" lon="6.64807">
        <ele>2585.637</ele>
        <time>2020-03-03T16:30:28Z</time>
      </trkpt>
      <trkpt lat="44.48524" lon="6.64804">
        <ele>2583.549</ele>
        <time>2020-03-03T16:30:48Z</time>
      </trkpt>
      <trkpt lat="44.48541" lon="6.64818">
        <ele>2582.713</ele>
        <time>2020-03-03T16:31:08Z</time>
      </trkpt>
      <trkpt lat="44.48573" lon="6.64859">
        <ele>2583.308</ele>
        <time>2020-03-03T16:31:28Z</time>
      </trkpt>
      <trkpt lat="44.48609" lon="6.64883">
        <ele>2588.687</ele>
        <time>2020-03-03T16:31:48Z</time>
      </trkpt>
      <trkpt lat="44.48617" lon="6.65032">
        <ele>2589.23</ele>
        <time>2020-03-03T16:32:08Z</time>
      </trkpt>
      <trkpt lat="44.48633" lon="6.65047">
        <ele>2596.617</ele>
        <time>2020-03-03T16:32:28Z</time>
      </trkpt>
      <trkpt lat="44.48666" lon="6.65044">
        <ele>2607.026</ele>
        <time>2020-03-03T16:32:48Z</time>
      </trkpt>
      <trkpt lat="44.48693" lon="6.65058">
        <ele>2605.274</ele>
        <time>2020-03-03T16:33:08Z</time>
      </trkpt>
      <trkpt lat="44.48691" lon="6.65045">
        <ele>2609.925</ele>
        <time>2020-03-03T16:33:28Z</time>
      </trkpt>
      <trkpt lat="44.48666" lon="6.6503">
        <ele>2614.097</ele>
        <time>2020-03-03T16:33:48Z</time>
      </trkpt>
      <trkpt lat="44.48634" lon="6.65017">
        <ele>2602.323</ele>
        <time>2020-03-03T16:34:08Z</time>
      </trkpt>
      <trkpt lat="44.4865" lon="6.64916">
        <ele>2611.542</ele>
        <time>2020-03-03T16:34:28Z</time>
      </trkpt>
      <trkpt lat="44.4866" lon="6.64889">
        <ele>2614.322</ele>
        <time>2020-03-03T16:34:48Z</time>
      </trkpt>
      <trkpt lat="44.48683" lon="6.64834">
        <ele>2624.814</ele>
        <time>2020-03-03T16:35:08Z</time>
      </trkpt>
      <trkpt lat="44.48659" lon="6.64764">
        <ele>2630.208</ele>
        <time>2020-03-03T16:35:28Z</time>
      </trkpt>
      <trkpt lat="44.48657" lon="6.64717">
        <ele>2636.418</ele>
        <time>2020-03-03T16:35:48Z</time>
      </trkpt>
      <trkpt lat="44.48675" lon="6.64705">
        <ele>2640.291</ele>
        <time>2020-03-03T16:36:08Z</time>
      </trkpt>
      <trkpt lat="44.49091" lon="6.64405">
        <ele>2637.778</ele>
        <time>2020-03-03T16:36:28Z</time>
      </trkpt>
      <trkpt lat="44.49155" lon="6.64371">
        <ele>2626.367</ele>
        <time>2020-03-03T16:36:48Z</time>
      </trkpt>
      <trkpt lat="44.49188" lon="6.64392">
        <ele>2624.215</ele>
        <time>2020-03-03T16:37:08Z</time>
      </trkpt>
      <trkpt lat="44.49211" lon="6.64421">
        <ele>2624.836</ele>
        <time>2020-03-03T16:37:28Z</time>
      </trkpt>
      <trkpt lat="44.49267" lon="6.6439">
        <ele>2620.128</ele>
        <time>2020-03-03T16:37:48Z</time>
      </trkpt>
      <trkpt lat="44.49298" lon="6.64354">
        <ele>2612.714</ele>
        <time>2020-03-03T16:38:08Z</time>
      </trkpt>
      <trkpt lat="44.49424" lon="6.64338">
        <ele>2593.875</ele>
        <time>2020-03-03T16:38:28Z</time>
      </trkpt>
      <trkpt lat="44.49444" lon="6.6434">
        <ele>2593.928</ele>
        <time>2020-03-03T16:38:48Z</time>
      </trkpt>
      <trkpt lat="44.49464" lon="6.64331">
        <ele>2586.92</ele>
        <time>2020-03-03T16:39:08Z</time>
      </trkpt>
      <trkpt lat="44.49506" lon="6.6434">
        <ele>2587.708</ele>
        <time>2020-03-03T16:39:28Z</time>
      </trkpt>
      <trkpt lat="44.49602" lon="6.64334">
        <ele>2577.691</ele>
        <time>2020-03-03T16:39:48Z</time>
      </trkpt>
      <trkpt lat="44.49655" lon="6.64315">
        <ele>2568.674</ele>
        <time>2020-03-03T16:40:08Z</time>
      </trkpt>
      <trkpt lat="44.49702" lon="6.6432">
        <ele>2564.251</ele>
        <time>2020-03-03T16:40:28Z</time>
      </trkpt>
      <trkpt lat="44.49762" lon="6.64316">
        <ele>2558.96</ele>
        <time>2020-03-03T16:40:48Z</time>
      </trkpt>
      <trkpt lat="44.49819" lon="6.64291">
        <ele>2553.518</ele>
        <time>2020-03-03T16:41:08Z</time>
      </trkpt>
      <trkpt lat="44.49815" lon="6.64283">
        <ele>2550.779</ele>
        <time>2020-03-03T16:41:28Z</time>
      </trkpt>
      <trkpt lat="44.49767" lon="6.64293">
        <ele>2550.691</ele>
        <time>2020-03-03T16:41:48Z</time>
      </trkpt>
      <trkpt lat="44.49726" lon="6.64285">
        <ele>2545.547</ele>
        <time>2020-03-03T16:42:08Z</time>
      </trkpt>
      <trkpt lat="44.49678" lon="6.64253">
        <ele>2544.966</ele>
        <time>2020-03-03T16:42:28Z</time>
      </trkpt>
      <trkpt lat="44.49678" lon="6.64236">
        <ele>2544.829</ele>
        <time>2020-03-03T16:42:48Z</time>
      </trkpt>
      <trkpt lat="44.49692" lon="6.64212">
        <ele>2542.921</ele>
        <time>2020-03-03T16:43:08Z</time>
      </trkpt>
      <trkpt lat="44.49728" lon="6.64181">
        <ele>2537.708</ele>
        <time>2020-03-03T16:43:28Z</time>
      </trkpt>
      <trkpt lat="44.49766" lon="6.64116">
        <ele>2535.32</ele>
        <time>2020-03-03T16:43:48Z</time>
      </trkpt>
      <trkpt lat="44.49777" lon="6.64118">
        <ele>2533.623</ele>
        <time>2020-03-03T16:44:08Z</time>
      </trkpt>
      <trkpt lat="44.49784" lon="6.64149">
        <ele>2529.91</ele>
        <time>2020-03-03T16:44:28Z</time>
      </trkpt>
      <trkpt lat="44.49811" lon="6.64181">
        <ele>2525.459</ele>
        <time>2020-03-03T16:44:48Z</time>
      </trkpt>
      <trkpt lat="44.49895" lon="6.64206">
        <ele>2517.967</ele>
        <time>2020-03-03T16:45:08Z</time>
      </trkpt>
      <trkpt lat="44.49922" lon="6.64198">
        <ele>2515.638</ele>
        <time>2020-03-03T16:45:28Z</time>
      </trkpt>
      <trkpt lat="44.4996" lon="6.64168">
        <ele>2508.82</ele>
        <time>2020-03-03T16:45:48Z</time>
      </trkpt>
      <trkpt lat="44.49987" lon="6.64158">
        <ele>2508.676</ele>
        <time>2020-03-03T16:46:08Z</time>
      </trkpt>
      <trkpt lat="44.50026" lon="6.64108">
        <ele>2499.454</ele>
        <time>2020-03-03T16:46:28Z</time>
      </trkpt>
      <trkpt lat="44.5002" lon="6.64096">
        <ele>2493.956</ele>
        <time>2020-03-03T16:46:48Z</time>
      </trkpt>
      <trkpt lat="44.49979" lon="6.64121">
        <ele>2496.311</ele>
        <time>2020-03-03T16:47:08Z</time>
      </trkpt>
      <trkpt lat="44.49888" lon="6.64109">
        <ele>2491.808</ele>
        <time>2020-03-03T16:47:28Z</time>
      </trkpt>
      <trkpt lat="44.49876" lon="6.6408">
        <ele>2490.249</ele>
        <time>2020-03-03T16:47:48Z</time>
      </trkpt>
      <trkpt lat="44.49868" lon="6.64037">
        <ele>2483.222</ele>
        <time>2020-03-03T16:48:08Z</time>
      </trkpt>
      <trkpt lat="44.49831" lon="6.64018">
        <ele>2482.439</ele>
        <time>2020-03-03T16:48:28Z</time>
      </trkpt>
      <trkpt lat="44.49785" lon="6.63972">
        <ele>2475.978</ele>
        <time>2020-03-03T16:48:48Z</time>
      </trkpt>
      <trkpt lat="44.49769" lon="6.63943">
        <ele>2473.396</ele>
        <time>2020-03-03T16:49:08Z</time>
      </trkpt>
      <trkpt lat="44.49765" lon="6.63925">
        <ele>2472.257</ele>
        <time>2020-03-03T16:49:28Z</time>
      </trkpt>
      <trkpt lat="44.4975" lon="6.63899">
        <ele>2477.659</ele>
        <time>2020-03-03T16:49:48Z</time>
      </trkpt>
      <trkpt lat="44.49758" lon="6.63889">
        <ele>2477.065</ele>
        <time>2020-03-03T16:50:08Z</time>
      </trkpt>
      <trkpt lat="44.49823" lon="6.63882">
        <ele>2464.354</ele>
        <time>2020-03-03T16:50:28Z</time>
      </trkpt>
      <trkpt lat="44.49903" lon="6.63827">
        <ele>2454.356</ele>
        <time>2020-03-03T16:50:48Z</time>
      </trkpt>
      <trkpt lat="44.49956" lon="6.63809">
        <ele>2446.511</ele>
        <time>2020-03-03T16:51:08Z</time>
      </trkpt>
      <trkpt lat="44.50095" lon="6.63803">
        <ele>2438.308</ele>
        <time>2020-03-03T16:51:28Z</time>
      </trkpt>
      <trkpt lat="44.50129" lon="6.63803">
        <ele>2436.689</ele>
        <time>2020-03-03T16:51:48Z</time>
      </trkpt>
      <trkpt lat="44.50231" lon="6.63877">
        <ele>2421.442</ele>
        <time>2020-03-03T16:52:08Z</time>
      </trkpt>
      <trkpt lat="44.50245" lon="6.63906">
        <ele>2419.749</ele>
        <time>2020-03-03T16:52:28Z</time>
      </trkpt>
      <trkpt lat="44.5029" lon="6.63898">
        <ele>2415.858</ele>
        <time>2020-03-03T16:52:48Z</time>
      </trkpt>
      <trkpt lat="44.50305" lon="6.63834">
        <ele>2409.436</ele>
        <time>2020-03-03T16:53:08Z</time>
      </trkpt>
      <trkpt lat="44.50297" lon="6.63802">
        <ele>2411.617</ele>
        <time>2020-03-03T16:53:28Z</time>
      </trkpt>
      <trkpt lat="44.50308" lon="6.63782">
        <ele>2408.889</ele>
        <time>2020-03-03T16:53:48Z</time>
      </trkpt>
      <trkpt lat="44.50342" lon="6.63759">
        <ele>2404.355</ele>
        <time>2020-03-03T16:54:08Z</time>
      </trkpt>
      <trkpt lat="44.50403" lon="6.63744">
        <ele>2398.627</ele>
        <time>2020-03-03T16:54:28Z</time>
      </trkpt>
      <trkpt lat="44.50453" lon="6.63801">
        <ele>2387.968</ele>
        <time>2020-03-03T16:54:48Z</time>
      </trkpt>
      <trkpt lat="44.50499" lon="6.63811">
        <ele>2385.614</ele>
        <time>2020-03-03T16:55:08Z</time>
      </trkpt>
      <trkpt lat="44.50533" lon="6.63771">
        <ele>2385.108</ele>
        <time>2020-03-03T16:55:28Z</time>
      </trkpt>
      <trkpt lat="44.50632" lon="6.63767">
        <ele>2372.356</ele>
        <time>2020-03-03T16:55:48Z</time>
      </trkpt>
      <trkpt lat="44.50661" lon="6.63749">
        <ele>2370.179</ele>
        <time>2020-03-03T16:56:08Z</time>
      </trkpt>
      <trkpt lat="44.50714" lon="6.63767">
        <ele>2365.926</ele>
        <time>2020-03-03T16:56:28Z</time>
      </trkpt>
      <trkpt lat="44.50749" lon="6.63817">
        <ele>2355.515</ele>
        <time>2020-03-03T16:56:48Z</time>
      </trkpt>
      <trkpt lat="44.50804" lon="6.63858">
        <ele>2351.553</ele>
        <time>2020-03-03T16:57:08Z</time>
      </trkpt>
      <trkpt lat="44.50826" lon="6.63896">
        <ele>2346.384</ele>
        <time>2020-03-03T16:57:28Z</time>
      </trkpt>
      <trkpt lat="44.50877" lon="6.63873">
        <ele>2349.116</ele>
        <time>2020-03-03T16:57:48Z</time>
      </trkpt>
      <trkpt lat="44.50984" lon="6.63984">
        <ele>2332.842</ele>
        <time>2020-03-03T16:58:08Z</time>
      </trkpt>
      <trkpt lat="44.50997" lon="6.64103">
        <ele>2320.361</ele>
        <time>2020-03-03T16:58:28Z</time>
      </trkpt>
      <trkpt lat="44.51028" lon="6.64158">
        <ele>2318.021</ele>
        <time>2020-03-03T16:58:48Z</time>
      </trkpt>
      <trkpt lat="44.51061" lon="6.64174">
        <ele>2316.113</ele>
        <time>2020-03-03T16:59:08Z</time>
      </trkpt>
      <trkpt lat="44.51131" lon="6.64232">
        <ele>2307.508</ele>
        <time>2020-03-03T16:59:28Z</time>
      </trkpt>
      <trkpt lat="44.51164" lon="6.6431">
        <ele>2299.66</ele>
        <time>2020-03-03T16:59:48Z</time>
      </trkpt>
      <trkpt lat="44.51157" lon="6.64338">
        <ele>2298.153</ele>
        <time>2020-03-03T17:00:08Z</time>
      </trkpt>
      <trkpt lat="44.51198" lon="6.64385">
        <ele>2290.97</ele>
        <time>2020-03-03T17:00:28Z</time>
      </trkpt>
      <trkpt lat="44.51261" lon="6.64412">
        <ele>2283.189</ele>
        <time>2020-03-03T17:00:48Z</time>
      </trkpt>
      <trkpt lat="44.51309" lon="6.64402">
        <ele>2281.117</ele>
        <time>2020-03-03T17:01:08Z</time>
      </trkpt>
      <trkpt lat="44.51337" lon="6.64386">
        <ele>2280.898</ele>
        <time>2020-03-03T17:01:28Z</time>
      </trkpt>
      <trkpt lat="44.51356" lon="6.644">
        <ele>2276.88</ele>
        <time>2020-03-03T17:01:48Z</time>
      </trkpt>
      <trkpt lat="44.5138" lon="6.64455">
        <ele>2269.426</ele>
        <time>2020-03-03T17:02:08Z</time>
      </trkpt>
      <trkpt lat="44.51428" lon="6.64497">
        <ele>2264.575</ele>
        <time>2020-03-03T17:02:28Z</time>
      </trkpt>
      <trkpt lat="44.51486" lon="6.64554">
        <ele>2257.328</ele>
        <time>2020-03-03T17:02:48Z</time>
      </trkpt>
      <trkpt lat="44.51537" lon="6.64589">
        <ele>2256.22</ele>
        <time>2020-03-03T17:03:08Z</time>
      </trkpt>
      <trkpt lat="44.51541" lon="6.6465">
        <ele>2249.408</ele>
        <time>2020-03-03T17:03:28Z</time>
      </trkpt>
      <trkpt lat="44.51523" lon="6.64705">
        <ele>2241.691</ele>
        <time>2020-03-03T17:03:48Z</time>
      </trkpt>
      <trkpt lat="44.51536" lon="6.64744">
        <ele>2242.014</ele>
        <time>2020-03-03T17:04:08Z</time>
      </trkpt>
      <trkpt lat="44.51531" lon="6.64762">
        <ele>2239.741</ele>
        <time>2020-03-03T17:04:28Z</time>
      </trkpt>
      <trkpt lat="44.51507" lon="6.64756">
        <ele>2236.89</ele>
        <time>2020-03-03T17:04:48Z</time>
      </trkpt>
      <trkpt lat="44.51487" lon="6.64757">
        <ele>2234.378</ele>
        <time>2020-03-03T17:05:08Z</time>
      </trkpt>
      <trkpt lat="44.51445" lon="6.64785">
        <ele>2227.479</ele>
        <time>2020-03-03T17:05:28Z</time>
      </trkpt>
      <trkpt lat="44.51448" lon="6.64803">
        <ele>2226.031</ele>
        <time>2020-03-03T17:05:48Z</time>
      </trkpt>
      <trkpt lat="44.5146" lon="6.64823">
        <ele>2225.377</ele>
        <time>2020-03-03T17:06:08Z</time>
      </trkpt>
      <trkpt lat="44.51509" lon="6.64843">
        <ele>2223.661</ele>
        <time>2020-03-03T17:06:28Z</time>
      </trkpt>
      <trkpt lat="44.51593" lon="6.64901">
        <ele>2213.721</ele>
        <time>2020-03-03T17:06:48Z</time>
      </trkpt>
      <trkpt lat="44.51644" lon="6.64886">
        <ele>2210.213</ele>
        <time>2020-03-03T17:07:08Z</time>
      </trkpt>
      <trkpt lat="44.51692" lon="6.64901">
        <ele>2203.008</ele>
        <time>2020-03-03T17:07:28Z</time>
      </trkpt>
      <trkpt lat="44.5174" lon="6.64929">
        <ele>2197.25</ele>
        <time>2020-03-03T17:07:48Z</time>
      </trkpt>
      <trkpt lat="44.51753" lon="6.64942">
        <ele>2195.783</ele>
        <time>2020-03-03T17:08:08Z</time>
      </trkpt>
      <trkpt lat="44.51775" lon="6.64955">
        <ele>2193.67</ele>
        <time>2020-03-03T17:08:28Z</time>
      </trkpt>
      <trkpt lat="44.51792" lon="6.65016">
        <ele>2183.349</ele>
        <time>2020-03-03T17:08:48Z</time>
      </trkpt>
      <trkpt lat="44.51812" lon="6.65026">
        <ele>2182.957</ele>
        <time>2020-03-03T17:09:08Z</time>
      </trkpt>
      <trkpt lat="44.51855" lon="6.64988">
        <ele>2183.468</ele>
        <time>2020-03-03T17:09:28Z</time>
      </trkpt>
      <trkpt lat="44.51935" lon="6.64968">
        <ele>2170.48</ele>
        <time>2020-03-03T17:09:48Z</time>
      </trkpt>
      <trkpt lat="44.51964" lon="6.64925">
        <ele>2169.136</ele>
        <time>2020-03-03T17:10:08Z</time>
      </trkpt>
      <trkpt lat="44.52002" lon="6.64891">
        <ele>2163.588</ele>
        <time>2020-03-03T17:10:28Z</time>
      </trkpt>
      <trkpt lat="44.52055" lon="6.64772">
        <ele>2155.624</ele>
        <time>2020-03-03T17:10:48Z</time>
      </trkpt>
      <trkpt lat="44.52092" lon="6.64732">
        <ele>2151.626</ele>
        <time>2020-03-03T17:11:08Z</time>
      </trkpt>
      <trkpt lat="44.5213" lon="6.64707">
        <ele>2142.608</ele>
        <time>2020-03-03T17:11:28Z</time>
      </trkpt>
      <trkpt lat="44.52168" lon="6.64658">
        <ele>2139.322</ele>
        <time>2020-03-03T17:11:48Z</time>
      </trkpt>
      <trkpt lat="44.52182" lon="6.6467">
        <ele>2132.065</ele>
        <time>2020-03-03T17:12:08Z</time>
      </trkpt>
      <trkpt lat="44.52146" lon="6.64758">
        <ele>2128.672</ele>
        <time>2020-03-03T17:12:28Z</time>
      </trkpt>
      <trkpt lat="44.5216" lon="6.64789">
        <ele>2121.881</ele>
        <time>2020-03-03T17:12:48Z</time>
      </trkpt>
      <trkpt lat="44.52152" lon="6.64821">
        <ele>2122.039</ele>
        <time>2020-03-03T17:13:08Z</time>
      </trkpt>
      <trkpt lat="44.5216" lon="6.64825">
        <ele>2119.34</ele>
        <time>2020-03-03T17:13:28Z</time>
      </trkpt>
      <trkpt lat="44.52191" lon="6.64778">
        <ele>2113.922</ele>
        <time>2020-03-03T17:13:48Z</time>
      </trkpt>
      <trkpt lat="44.52191" lon="6.64747">
        <ele>2116.668</ele>
        <time>2020-03-03T17:14:08Z</time>
      </trkpt>
      <trkpt lat="44.52271" lon="6.64684">
        <ele>2102.888</ele>
        <time>2020-03-03T17:14:28Z</time>
      </trkpt>
      <trkpt lat="44.52304" lon="6.64591">
        <ele>2092.524</ele>
        <time>2020-03-03T17:14:48Z</time>
      </trkpt>
      <trkpt lat="44.52302" lon="6.64566">
        <ele>2092.226</ele>
        <time>2020-03-03T17:15:08Z</time>
      </trkpt>
      <trkpt lat="44.5233" lon="6.64525">
        <ele>2085.208</ele>
        <time>2020-03-03T17:15:28Z</time>
      </trkpt>
      <trkpt lat="44.52311" lon="6.64505">
        <ele>2086.412</ele>
        <time>2020-03-03T17:15:48Z</time>
      </trkpt>
      <trkpt lat="44.52313" lon="6.64474">
        <ele>2083.675</ele>
        <time>2020-03-03T17:16:08Z</time>
      </trkpt>
      <trkpt lat="44.52327" lon="6.64433">
        <ele>2086.492</ele>
        <time>2020-03-03T17:16:28Z</time>
      </trkpt>
      <trkpt lat="44.52382" lon="6.6441">
        <ele>2075.431</ele>
        <time>2020-03-03T17:16:48Z</time>
      </trkpt>
      <trkpt lat="44.52397" lon="6.64384">
        <ele>2076.059</ele>
        <time>2020-03-03T17:17:08Z</time>
      </trkpt>
      <trkpt lat="44.52449" lon="6.64322">
        <ele>2072.03</ele>
        <time>2020-03-03T17:17:28Z</time>
      </trkpt>
      <trkpt lat="44.52478" lon="6.64297">
        <ele>2065.772</ele>
        <time>2020-03-03T17:17:48Z</time>
      </trkpt>
      <trkpt lat="44.52498" lon="6.64272">
        <ele>2062.348</ele>
        <time>2020-03-03T17:18:08Z</time>
      </trkpt>
      <trkpt lat="44.52498" lon="6.64286">
        <ele>2058.916</ele>
        <time>2020-03-03T17:18:28Z</time>
      </trkpt>
      <trkpt lat="44.52486" lon="6.64335">
        <ele>2051.676</ele>
        <time>2020-03-03T17:18:48Z</time>
      </trkpt>
      <trkpt lat="44.52456" lon="6.64371">
        <ele>2054.113</ele>
        <time>2020-03-03T17:19:08Z</time>
      </trkpt>
      <trkpt lat="44.52426" lon="6.64409">
        <ele>2055.108</ele>
        <time>2020-03-03T17:19:28Z</time>
      </trkpt>
      <trkpt lat="44.5243" lon="6.64415">
        <ele>2052.095</ele>
        <time>2020-03-03T17:19:48Z</time>
      </trkpt>
      <trkpt lat="44.52464" lon="6.6439">
        <ele>2045.568</ele>
        <time>2020-03-03T17:20:08Z</time>
      </trkpt>
      <trkpt lat="44.52481" lon="6.64381">
        <ele>2040.615</ele>
        <time>2020-03-03T17:20:28Z</time>
      </trkpt>
      <trkpt lat="44.5255" lon="6.643">
        <ele>2026.554</ele>
        <time>2020-03-03T17:20:48Z</time>
      </trkpt>
      <trkpt lat="44.52576" lon="6.64262">
        <ele>2029.412</ele>
        <time>2020-03-03T17:21:08Z</time>
      </trkpt>
      <trkpt lat="44.52627" lon="6.64263">
        <ele>2019.553</ele>
        <time>2020-03-03T17:21:28Z</time>
      </trkpt>
      <trkpt lat="44.52676" lon="6.64231">
        <ele>2015.395</ele>
        <time>2020-03-03T17:21:48Z</time>
      </trkpt>
      <trkpt lat="44.52709" lon="6.64199">
        <ele>2012.831</ele>
        <time>2020-03-03T17:22:08Z</time>
      </trkpt>
      <trkpt lat="44.5277" lon="6.64178">
        <ele>2009.114</ele>
        <time>2020-03-03T17:22:28Z</time>
      </trkpt>
      <trkpt lat="44.5283" lon="6.64186">
        <ele>1999.254</ele>
        <time>2020-03-03T17:22:48Z</time>
      </trkpt>
      <trkpt lat="44.52854" lon="6.64183">
        <ele>1998.709</ele>
        <time>2020-03-03T17:23:08Z</time>
      </trkpt>
      <trkpt lat="44.52957" lon="6.64202">
        <ele>1986.208</ele>
        <time>2020-03-03T17:23:28Z</time>
      </trkpt>
      <trkpt lat="44.53044" lon="6.64204">
        <ele>1976.155</ele>
        <time>2020-03-03T17:23:48Z</time>
      </trkpt>
      <trkpt lat="44.5309" lon="6.64184">
        <ele>1973.248</ele>
        <time>2020-03-03T17:24:08Z</time>
      </trkpt>
      <trkpt lat="44.53145" lon="6.64173">
        <ele>1968.455</ele>
        <time>2020-03-03T17:24:28Z</time>
      </trkpt>
      <trkpt lat="44.53189" lon="6.64179">
        <ele>1957.754</ele>
        <time>2020-03-03T17:24:48Z</time>
      </trkpt>
      <trkpt lat="44.53217" lon="6.64162">
        <ele>1956.822</ele>
        <time>2020-03-03T17:25:08Z</time>
      </trkpt>
      <trkpt lat="44.53253" lon="6.64137">
        <ele>1959.013</ele>
        <time>2020-03-03T17:25:28Z</time>
      </trkpt>
      <trkpt lat="44.53285" lon="6.6415">
        <ele>1950.225</ele>
        <time>2020-03-03T17:25:48Z</time>
      </trkpt>
      <trkpt lat="44.53364" lon="6.64169">
        <ele>1941.581</ele>
        <time>2020-03-03T17:26:08Z</time>
      </trkpt>
      <trkpt lat="44.53419" lon="6.64168">
        <ele>1938.948</ele>
        <time>2020-03-03T17:26:28Z</time>
      </trkpt>
      <trkpt lat="44.5347" lon="6.64148">
        <ele>1938.861</ele>
        <time>2020-03-03T17:26:48Z</time>
      </trkpt>
      <trkpt lat="44.53494" lon="6.64151">
        <ele>1933.817</ele>
        <time>2020-03-03T17:27:08Z</time>
      </trkpt>
      <trkpt lat="44.53527" lon="6.6415">
        <ele>1932.108</ele>
        <time>2020-03-03T17:27:28Z</time>
      </trkpt>
      <trkpt lat="44.53554" lon="6.64175">
        <ele>1927.258</ele>
        <time>2020-03-03T17:27:48Z</time>
      </trkpt>
      <trkpt lat="44.53588" lon="6.64161">
        <ele>1926.971</ele>
        <time>2020-03-03T17:28:08Z</time>
      </trkpt>
      <trkpt lat="44.53616" lon="6.64141">
        <ele>1924.718</ele>
        <time>2020-03-03T17:28:28Z</time>
      </trkpt>
      <trkpt lat="44.53734" lon="6.64081">
        <ele>1909.057</ele>
        <time>2020-03-03T17:28:48Z</time>
      </trkpt>
      <trkpt lat="44.53758" lon="6.64071">
        <ele>1903.475</ele>
        <time>2020-03-03T17:29:08Z</time>
      </trkpt>
      <trkpt lat="44.53807" lon="6.64016">
        <ele>1894.836</ele>
        <time>2020-03-03T17:29:28Z</time>
      </trkpt>
      <trkpt lat="44.53823" lon="6.63958">
        <ele>1889.058</ele>
        <time>2020-03-03T17:29:48Z</time>
      </trkpt>
      <trkpt lat="44.53835" lon="6.63962">
        <ele>1884.384</ele>
        <time>2020-03-03T17:30:08Z</time>
      </trkpt>
      <trkpt lat="44.5383" lon="6.64015">
        <ele>1888.864</ele>
        <time>2020-03-03T17:30:28Z</time>
      </trkpt>
      <trkpt lat="44.53819" lon="6.64046">
        <ele>1887.606</ele>
        <time>2020-03-03T17:30:48Z</time>
      </trkpt>
      <trkpt lat="44.53805" lon="6.64066">
        <ele>1888.316</ele>
        <time>2020-03-03T17:31:08Z</time>
      </trkpt>
      <trkpt lat="44.53817" lon="6.64079">
        <ele>1882.108</ele>
        <time>2020-03-03T17:31:28Z</time>
      </trkpt>
      <trkpt lat="44.53853" lon="6.63999">
        <ele>1878.98</ele>
        <time>2020-03-03T17:31:48Z</time>
      </trkpt>
      <trkpt lat="44.53852" lon="6.63956">
        <ele>1873.733</ele>
        <time>2020-03-03T17:32:08Z</time>
      </trkpt>
      <trkpt lat="44.5383" lon="6.63903">
        <ele>1869.36</ele>
        <time>2020-03-03T17:32:28Z</time>
      </trkpt>
      <trkpt lat="44.53803" lon="6.63862">
        <ele>1869.979</ele>
        <time>2020-03-03T17:32:48Z</time>
      </trkpt>
      <trkpt lat="44.53805" lon="6.63843">
        <ele>1869.227</ele>
        <time>2020-03-03T17:33:08Z</time>
      </trkpt>
      <trkpt lat="44.53822" lon="6.63821">
        <ele>1862.078</ele>
        <time>2020-03-03T17:33:28Z</time>
      </trkpt>
      <trkpt lat="44.53819" lon="6.63801">
        <ele>1860.46</ele>
        <time>2020-03-03T17:33:48Z</time>
      </trkpt>
      <trkpt lat="44.53807" lon="6.63752">
        <ele>1858.866</ele>
        <time>2020-03-03T17:34:08Z</time>
      </trkpt>
      <trkpt lat="44.53822" lon="6.6372">
        <ele>1857.834</ele>
        <time>2020-03-03T17:34:28Z</time>
      </trkpt>
      <trkpt lat="44.53842" lon="6.63693">
        <ele>1859.455</ele>
        <time>2020-03-03T17:34:48Z</time>
      </trkpt>
      <trkpt lat="44.53874" lon="6.63679">
        <ele>1854.41</ele>
        <time>2020-03-03T17:35:08Z</time>
      </trkpt>
      <trkpt lat="44.53901" lon="6.63632">
        <ele>1855.608</ele>
        <time>2020-03-03T17:35:28Z</time>
      </trkpt>
      <trkpt lat="44.53912" lon="6.63582">
        <ele>1854.767</ele>
        <time>2020-03-03T17:35:48Z</time>
      </trkpt>
      <trkpt lat="44.53912" lon="6.63527">
        <ele>1853.81</ele>
        <time>2020-03-03T17:36:08Z</time>
      </trkpt>
      <trkpt lat="44.53951" lon="6.63462">
        <ele>1845.177</ele>
        <time>2020-03-03T17:36:28Z</time>
      </trkpt>
      <trkpt lat="44.53994" lon="6.63431">
        <ele>1837.676</ele>
        <time>2020-03-03T17:36:48Z</time>
      </trkpt>
      <trkpt lat="44.54029" lon="6.63366">
        <ele>1831.594</ele>
        <time>2020-03-03T17:37:08Z</time>
      </trkpt>
      <trkpt lat="44.54052" lon="6.63303">
        <ele>1825.045</ele>
        <time>2020-03-03T17:37:28Z</time>
      </trkpt>
      <trkpt lat="44.54062" lon="6.63191">
        <ele>1818.287</ele>
        <time>2020-03-03T17:37:48Z</time>
      </trkpt>
      <trkpt lat="44.54084" lon="6.63122">
        <ele>1814.783</ele>
        <time>2020-03-03T17:38:08Z</time>
      </trkpt>
      <trkpt lat="44.54095" lon="6.63132">
        <ele>1809.941</ele>
        <time>2020-03-03T17:38:28Z</time>
      </trkpt>
      <trkpt lat="44.54091" lon="6.63207">
        <ele>1807.181</ele>
        <time>2020-03-03T17:38:48Z</time>
      </trkpt>
      <trkpt lat="44.54115" lon="6.63257">
        <ele>1800.309</ele>
        <time>2020-03-03T17:39:08Z</time>
      </trkpt>
      <trkpt lat="44.54116" lon="6.63295">
        <ele>1801.808</ele>
        <time>2020-03-03T17:39:28Z</time>
      </trkpt>
      <trkpt lat="44.5411" lon="6.6336">
        <ele>1801.588</ele>
        <time>2020-03-03T17:39:48Z</time>
      </trkpt>
      <trkpt lat="44.54121" lon="6.63368">
        <ele>1797.391</ele>
        <time>2020-03-03T17:40:08Z</time>
      </trkpt>
      <trkpt lat="44.54179" lon="6.6322">
        <ele>1783.688</ele>
        <time>2020-03-03T17:40:28Z</time>
      </trkpt>
      <trkpt lat="44.54199" lon="6.63203">
        <ele>1780.657</ele>
        <time>2020-03-03T17:40:48Z</time>
      </trkpt>
      <trkpt lat="44.54221" lon="6.63184">
        <ele>1776.785</ele>
        <time>2020-03-03T17:41:08Z</time>
      </trkpt>
      <trkpt lat="44.54232" lon="6.63142">
        <ele>1772.936</ele>
        <time>2020-03-03T17:41:28Z</time>
      </trkpt>
      <trkpt lat="44.54231" lon="6.6311">
        <ele>1773.748</ele>
        <time>2020-03-03T17:41:48Z</time>
      </trkpt>
      <trkpt lat="44.54267" lon="6.63001">
        <ele>1762.234</ele>
        <time>2020-03-03T17:42:08Z</time>
      </trkpt>
      <trkpt lat="44.54263" lon="6.62953">
        <ele>1760.876</ele>
        <time>2020-03-03T17:42:28Z</time>
      </trkpt>
      <trkpt lat="44.54353" lon="6.62803">
        <ele>1743.39</ele>
        <time>2020-03-03T17:42:48Z</time>
      </trkpt>
      <trkpt lat="44.54366" lon="6.62774">
        <ele>1740.219</ele>
        <time>2020-03-03T17:43:08Z</time>
      </trkpt>
      <trkpt lat="44.54381" lon="6.62698">
        <ele>1739.508</ele>
        <time>2020-03-03T17:43:28Z</time>
      </trkpt>
      <trkpt lat="44.54397" lon="6.6266">
        <ele>1734.541</ele>
        <time>2020-03-03T17:43:48Z</time>
      </trkpt>
      <trkpt lat="44.54406" lon="6.62616">
        <ele>1731.964</ele>
        <time>2020-03-03T17:44:08Z</time>
      </trkpt>
      <trkpt lat="44.54414" lon="6.62602">
        <ele>1728.541</ele>
        <time>2020-03-03T17:44:28Z</time>
      </trkpt>
      <trkpt lat="44.54405" lon="6.62534">
        <ele>1728.32</ele>
        <time>2020-03-03T17:44:48Z</time>
      </trkpt>
      <trkpt lat="44.54407" lon="6.62509">
        <ele>1728.398</ele>
        <time>2020-03-03T17:45:08Z</time>
      </trkpt>
      <trkpt lat="44.54422" lon="6.6245">
        <ele>1725.789</ele>
        <time>2020-03-03T17:45:28Z</time>
      </trkpt>
      <trkpt lat="44.54436" lon="6.62361">
        <ele>1723.681</ele>
        <time>2020-03-03T17:45:48Z</time>
      </trkpt>
      <trkpt lat="44.54468" lon="6.62178">
        <ele>1705.997</ele>
        <time>2020-03-03T17:46:08Z</time>
      </trkpt>
      <trkpt lat="44.54465" lon="6.62079">
        <ele>1701.124</ele>
        <time>2020-03-03T17:46:28Z</time>
      </trkpt>
      <trkpt lat="44.54468" lon="6.62021">
        <ele>1695.604</ele>
        <time>2020-03-03T17:46:48Z</time>
      </trkpt>
      <trkpt lat="44.54462" lon="6.61983">
        <ele>1691.514</ele>
        <time>2020-03-03T17:47:08Z</time>
      </trkpt>
      <trkpt lat="44.54454" lon="6.61958">
        <ele>1689.708</ele>
        <time>2020-03-03T17:47:28Z</time>
      </trkpt>
      <trkpt lat="44.54452" lon="6.61929">
        <ele>1684.276</ele>
        <time>2020-03-03T17:47:48Z</time>
      </trkpt>
      <trkpt lat="44.54428" lon="6.61896">
        <ele>1685.929</ele>
        <time>2020-03-03T17:48:08Z</time>
      </trkpt>
      <trkpt lat="44.54429" lon="6.61887">
        <ele>1684.876</ele>
        <time>2020-03-03T17:48:28Z</time>
      </trkpt>
      <trkpt lat="44.54451" lon="6.61853">
        <ele>1679.885</ele>
        <time>2020-03-03T17:48:48Z</time>
      </trkpt>
      <trkpt lat="44.54466" lon="6.618">
        <ele>1675.493</ele>
        <time>2020-03-03T17:49:08Z</time>
      </trkpt>
      <trkpt lat="44.54468" lon="6.61777">
        <ele>1672.564</ele>
        <time>2020-03-03T17:49:28Z</time>
      </trkpt>
      <trkpt lat="44.54453" lon="6.61719">
        <ele>1674.536</ele>
        <time>2020-03-03T17:49:48Z</time>
      </trkpt>
      <trkpt lat="44.54454" lon="6.61659">
        <ele>1669.452</ele>
        <time>2020-03-03T17:50:08Z</time>
      </trkpt>
      <trkpt lat="44.5446" lon="6.61607">
        <ele>1663.567</ele>
        <time>2020-03-03T17:50:28Z</time>
      </trkpt>
      <trkpt lat="44.54468" lon="6.61573">
        <ele>1661.181</ele>
        <time>2020-03-03T17:50:48Z</time>
      </trkpt>
      <trkpt lat="44.5448" lon="6.6155">
        <ele>1659.519</ele>
        <time>2020-03-03T17:51:08Z</time>
      </trkpt>
      <trkpt lat="44.54504" lon="6.61531">
        <ele>1654.408</ele>
        <time>2020-03-03T17:51:28Z</time>
      </trkpt>
      <trkpt lat="44.54519" lon="6.61419">
        <ele>1652.03</ele>
        <time>2020-03-03T17:51:48Z</time>
      </trkpt>
      <trkpt lat="44.54527" lon="6.61403">
        <ele>1649.753</ele>
        <time>2020-03-03T17:52:08Z</time>
      </trkpt>
      <trkpt lat="44.54539" lon="6.61383">
        <ele>1645.96</ele>
        <time>2020-03-03T17:52:28Z</time>
      </trkpt>
      <trkpt lat="44.5458" lon="6.6129">
        <ele>1638.189</ele>
        <time>2020-03-03T17:52:48Z</time>
      </trkpt>
      <trkpt lat="44.54623" lon="6.61241">
        <ele>1630.177</ele>
        <time>2020-03-03T17:53:08Z</time>
      </trkpt>
      <trkpt lat="44.54674" lon="6.61205">
        <ele>1620.258</ele>
        <time>2020-03-03T17:53:28Z</time>
      </trkpt>
      <trkpt lat="44.54691" lon="6.6118">
        <ele>1619.26</ele>
        <time>2020-03-03T17:53:48Z</time>
      </trkpt>
      <trkpt lat="44.54729" lon="6.61072">
        <ele>1615.686</ele>
        <time>2020-03-03T17:54:08Z</time>
      </trkpt>
      <trkpt lat="44.54738" lon="6.61042">
        <ele>1615.096</ele>
        <time>2020-03-03T17:54:28Z</time>
      </trkpt>
      <trkpt lat="44.54759" lon="6.61008">
        <ele>1612.531</ele>
        <time>2020-03-03T17:54:48Z</time>
      </trkpt>
      <trkpt lat="44.54792" lon="6.60975">
        <ele>1607.524</ele>
        <time>2020-03-03T17:55:08Z</time>
      </trkpt>
      <trkpt lat="44.54799" lon="6.60959">
        <ele>1604.908</ele>
        <time>2020-03-03T17:55:28Z</time>
      </trkpt>
      <trkpt lat="44.54798" lon="6.60938">
        <ele>1602.163</ele>
        <time>2020-03-03T17:55:48Z</time>
      </trkpt>
      <trkpt lat="44.54759" lon="6.60889">
        <ele>1594.776</ele>
        <time>2020-03-03T17:56:08Z</time>
      </trkpt>
      <trkpt lat="44.54724" lon="6.60856">
        <ele>1593.473</ele>
        <time>2020-03-03T17:56:28Z</time>
      </trkpt>
      <trkpt lat="44.54728" lon="6.6085">
        <ele>1591.232</ele>
        <time>2020-03-03T17:56:48Z</time>
      </trkpt>
      <trkpt lat="44.54761" lon="6.60869">
        <ele>1589.52</ele>
        <time>2020-03-03T17:57:08Z</time>
      </trkpt>
      <trkpt lat="44.54838" lon="6.60878">
        <ele>1583.411</ele>
        <time>2020-03-03T17:57:28Z</time>
      </trkpt>
      <trkpt lat="44.5486" lon="6.609">
        <ele>1582.223</ele>
        <time>2020-03-03T17:57:48Z</time>
      </trkpt>
      <trkpt lat="44.54865" lon="6.60887">
        <ele>1580.499</ele>
        <time>2020-03-03T17:58:08Z</time>
      </trkpt>
      <trkpt lat="44.54805" lon="6.60744">
        <ele>1573.855</ele>
        <time>2020-03-03T17:58:28Z</time>
      </trkpt>
      <trkpt lat="44.54812" lon="6.60722">
        <ele>1572.107</ele>
        <time>2020-03-03T17:58:48Z</time>
      </trkpt>
      <trkpt lat="44.54829" lon="6.60702">
        <ele>1569.117</ele>
        <time>2020-03-03T17:59:08Z</time>
      </trkpt>
      <trkpt lat="44.54858" lon="6.60714">
        <ele>1565.708</ele>
        <time>2020-03-03T17:59:28Z</time>
      </trkpt>
      <trkpt lat="44.54904" lon="6.60713">
        <ele>1558.129</ele>
        <time>2020-03-03T17:59:48Z</time>
      </trkpt>
      <trkpt lat="44.54909" lon="6.60952">
        <ele>1551.592</ele>
        <time>2020-03-03T18:00:08Z</time>
      </trkpt>
      <trkpt lat="44.54922" lon="6.61008">
        <ele>1548.979</ele>
        <time>2020-03-03T18:00:28Z</time>
      </trkpt>
      <trkpt lat="44.54955" lon="6.6104">
        <ele>1538.988</ele>
        <time>2020-03-03T18:00:48Z</time>
      </trkpt>
      <trkpt lat="44.54976" lon="6.61025">
        <ele>1538.756</ele>
        <time>2020-03-03T18:01:08Z</time>
      </trkpt>
      <trkpt lat="44.55035" lon="6.60863">
        <ele>1532.817</ele>
        <time>2020-03-03T18:01:28Z</time>
      </trkpt>
      <trkpt lat="44.5503" lon="6.60754">
        <ele>1531.669</ele>
        <time>2020-03-03T18:01:48Z</time>
      </trkpt>
      <trkpt lat="44.54999" lon="6.60643">
        <ele>1517.815</ele>
        <time>2020-03-03T18:02:08Z</time>
      </trkpt>
      <trkpt lat="44.54978" lon="6.60414">
        <ele>1503.825</ele>
        <time>2020-03-03T18:02:28Z</time>
      </trkpt>
      <trkpt lat="44.54996" lon="6.60355">
        <ele>1502.726</ele>
        <time>2020-03-03T18:02:48Z</time>
      </trkpt>
      <trkpt lat="44.55015" lon="6.60205">
        <ele>1495.508</ele>
        <time>2020-03-03T18:03:08Z</time>
      </trkpt>
      <trkpt lat="44.5498" lon="6.60075">
        <ele>1487.608</ele>
        <time>2020-03-03T18:03:28Z</time>
      </trkpt>
      <trkpt lat="44.5496" lon="6.59985">
        <ele>1483.726</ele>
        <time>2020-03-03T18:03:48Z</time>
      </trkpt>
      <trkpt lat="44.54962" lon="6.59872">
        <ele>1481.869</ele>
        <time>2020-03-03T18:04:08Z</time>
      </trkpt>
      <trkpt lat="44.5495" lon="6.59766">
        <ele>1471.996</ele>
        <time>2020-03-03T18:04:28Z</time>
      </trkpt>
      <trkpt lat="44.54973" lon="6.59683">
        <ele>1475.235</ele>
        <time>2020-03-03T18:04:48Z</time>
      </trkpt>
      <trkpt lat="44.54935" lon="6.59581">
        <ele>1475.563</ele>
        <time>2020-03-03T18:05:08Z</time>
      </trkpt>
      <trkpt lat="44.54913" lon="6.59537">
        <ele>1470.244</ele>
        <time>2020-03-03T18:05:28Z</time>
      </trkpt>
      <trkpt lat="44.54922" lon="6.59429">
        <ele>1461.386</ele>
        <time>2020-03-03T18:05:48Z</time>
      </trkpt>
      <trkpt lat="44.54942" lon="6.5935">
        <ele>1454.762</ele>
        <time>2020-03-03T18:06:08Z</time>
      </trkpt>
      <trkpt lat="44.55008" lon="6.5919">
        <ele>1447.873</ele>
        <time>2020-03-03T18:06:28Z</time>
      </trkpt>
      <trkpt lat="44.55001" lon="6.59109">
        <ele>1439.285</ele>
        <time>2020-03-03T18:06:48Z</time>
      </trkpt>
      <trkpt lat="44.55007" lon="6.59015">
        <ele>1431.613</ele>
        <time>2020-03-03T18:07:08Z</time>
      </trkpt>
      <trkpt lat="44.55024" lon="6.58951">
        <ele>1427.508</ele>
        <time>2020-03-03T18:07:28Z</time>
      </trkpt>
      <trkpt lat="44.55021" lon="6.58909">
        <ele>1420.951</ele>
        <time>2020-03-03T18:07:48Z</time>
      </trkpt>
      <trkpt lat="44.55026" lon="6.58849">
        <ele>1419.744</ele>
        <time>2020-03-03T18:08:08Z</time>
      </trkpt>
      <trkpt lat="44.55018" lon="6.5879">
        <ele>1412.091</ele>
        <time>2020-03-03T18:08:28Z</time>
      </trkpt>
      <trkpt lat="44.55025" lon="6.58715">
        <ele>1413.32</ele>
        <time>2020-03-03T18:08:48Z</time>
      </trkpt>
      <trkpt lat="44.54999" lon="6.58531">
        <ele>1396.958</ele>
        <time>2020-03-03T18:09:08Z</time>
      </trkpt>
      <trkpt lat="44.55014" lon="6.58294">
        <ele>1383.659</ele>
        <time>2020-03-03T18:09:28Z</time>
      </trkpt>
      <trkpt lat="44.55076" lon="6.58148">
        <ele>1377.621</ele>
        <time>2020-03-03T18:09:48Z</time>
      </trkpt>
      <trkpt lat="44.55091" lon="6.57984">
        <ele>1361.367</ele>
        <time>2020-03-03T18:10:08Z</time>
      </trkpt>
      <trkpt lat="44.5517" lon="6.57876">
        <ele>1356.483</ele>
        <time>2020-03-03T18:10:28Z</time>
      </trkpt>
      <trkpt lat="44.55228" lon="6.57747">
        <ele>1345.225</ele>
        <time>2020-03-03T18:10:48Z</time>
      </trkpt>
      <trkpt lat="44.55277" lon="6.57721">
        <ele>1346.417</ele>
        <time>2020-03-03T18:11:08Z</time>
      </trkpt>
      <trkpt lat="44.55354" lon="6.57577">
        <ele>1326.208</ele>
        <time>2020-03-03T18:11:28Z</time>
      </trkpt>
      <trkpt lat="44.55381" lon="6.57496">
        <ele>1323.242</ele>
        <time>2020-03-03T18:11:48Z</time>
      </trkpt>
      <trkpt lat="44.55536" lon="6.57291">
        <ele>1306.015</ele>
        <time>2020-03-03T18:12:08Z</time>
      </trkpt>
      <trkpt lat="44.55627" lon="6.57125">
        <ele>1291.242</ele>
        <time>2020-03-03T18:12:28Z</time>
      </trkpt>
      <trkpt lat="44.55683" lon="6.5692">
        <ele>1279.531</ele>
        <time>2020-03-03T18:12:48Z</time>
      </trkpt>
      <trkpt lat="44.55687" lon="6.56846">
        <ele>1270.869</ele>
        <time>2020-03-03T18:13:08Z</time>
      </trkpt>
      <trkpt lat="44.55722" lon="6.56732">
        <ele>1262.34</ele>
        <time>2020-03-03T18:13:28Z</time>
      </trkpt>
      <trkpt lat="44.55729" lon="6.56657">
        <ele>1260.882</ele>
        <time>2020-03-03T18:13:48Z</time>
      </trkpt>
      <trkpt lat="44.5572" lon="6.56609">
        <ele>1251.298</ele>
        <time>2020-03-03T18:14:08Z</time>
      </trkpt>
      <trkpt lat="44.55742" lon="6.56532">
        <ele>1245.489</ele>
        <time>2020-03-03T18:14:28Z</time>
      </trkpt>
      <trkpt lat="44.55794" lon="6.56423">
        <ele>1243.306</ele>
        <time>2020-03-03T18:14:48Z</time>
      </trkpt>
      <trkpt lat="44.55809" lon="6.56231">
        <ele>1231.426</ele>
        <time>2020-03-03T18:15:08Z</time>
      </trkpt>
      <trkpt lat="44.55793" lon="6.56232">
        <ele>1223.208</ele>
        <time>2020-03-03T18:15:28Z</time>
      </trkpt>
      <trkpt lat="44.55769" lon="6.56324">
        <ele>1221.882</ele>
        <time>2020-03-03T18:15:48Z</time>
      </trkpt>
      <trkpt lat="44.55739" lon="6.56375">
        <ele>1221.915</ele>
        <time>2020-03-03T18:16:08Z</time>
      </trkpt>
      <trkpt lat="44.55726" lon="6.5636">
        <ele>1220.222</ele>
        <time>2020-03-03T18:16:28Z</time>
      </trkpt>
      <trkpt lat="44.55736" lon="6.55992">
        <ele>1198.611</ele>
        <time>2020-03-03T18:16:48Z</time>
      </trkpt>
      <trkpt lat="44.55789" lon="6.55862">
        <ele>1192.939</ele>
        <time>2020-03-03T18:17:08Z</time>
      </trkpt>
      <trkpt lat="44.5579" lon="6.55756">
        <ele>1184.46</ele>
        <time>2020-03-03T18:17:28Z</time>
      </trkpt>
      <trkpt lat="44.55824" lon="6.55636">
        <ele>1180.572</ele>
        <time>2020-03-03T18:17:48Z</time>
      </trkpt>
      <trkpt lat="44.55813" lon="6.5558">
        <ele>1184.628</ele>
        <time>2020-03-03T18:18:08Z</time>
      </trkpt>
      <trkpt lat="44.55825" lon="6.55562">
        <ele>1187.361</ele>
        <time>2020-03-03T18:18:28Z</time>
      </trkpt>
      <trkpt lat="44.55869" lon="6.55552">
        <ele>1178.821</ele>
        <time>2020-03-03T18:18:48Z</time>
      </trkpt>
      <trkpt lat="44.55926" lon="6.55451">
        <ele>1177.113</ele>
        <time>2020-03-03T18:19:08Z</time>
      </trkpt>
      <trkpt lat="44.55985" lon="6.55441">
        <ele>1168.508</ele>
        <time>2020-03-03T18:19:28Z</time>
      </trkpt>
      <trkpt lat="44.56053" lon="6.55464">
        <ele>1157.67</ele>
        <time>2020-03-03T18:19:48Z</time>
      </trkpt>
      <trkpt lat="44.56084" lon="6.5544">
        <ele>1157.193</ele>
        <time>2020-03-03T18:20:08Z</time>
      </trkpt>
      <trkpt lat="44.56083" lon="6.55328">
        <ele>1150.58</ele>
        <time>2020-03-03T18:20:28Z</time>
      </trkpt>
      <trkpt lat="44.56069" lon="6.55226">
        <ele>1140.389</ele>
        <time>2020-03-03T18:20:48Z</time>
      </trkpt>
      <trkpt lat="44.5605" lon="6.55188">
        <ele>1140.927</ele>
        <time>2020-03-03T18:21:08Z</time>
      </trkpt>
      <trkpt lat="44.5605" lon="6.55141">
        <ele>1136.068</ele>
        <time>2020-03-03T18:21:28Z</time>
      </trkpt>
      <trkpt lat="44.56039" lon="6.55101">
        <ele>1133.13</ele>
        <time>2020-03-03T18:21:48Z</time>
      </trkpt>
      <trkpt lat="44.56049" lon="6.55094">
        <ele>1130.036</ele>
        <time>2020-03-03T18:22:08Z</time>
      </trkpt>
      <trkpt lat="44.56116" lon="6.55236">
        <ele>1125.081</ele>
        <time>2020-03-03T18:22:28Z</time>
      </trkpt>
      <trkpt lat="44.56142" lon="6.55258">
        <ele>1121.861</ele>
        <time>2020-03-03T18:22:48Z</time>
      </trkpt>
      <trkpt lat="44.5613" lon="6.55333">
        <ele>1126.017</ele>
        <time>2020-03-03T18:23:08Z</time>
      </trkpt>
      <trkpt lat="44.56142" lon="6.55348">
        <ele>1120.308</ele>
        <time>2020-03-03T18:23:28Z</time>
      </trkpt>
      <trkpt lat="44.56163" lon="6.55348">
        <ele>1119.322</ele>
        <time>2020-03-03T18:23:48Z</time>
      </trkpt>
      <trkpt lat="44.56182" lon="6.55308">
        <ele>1117.235</ele>
        <time>2020-03-03T18:24:08Z</time>
      </trkpt>
      <trkpt lat="44.56207" lon="6.55271">
        <ele>1115.972</ele>
        <time>2020-03-03T18:24:28Z</time>
      </trkpt>
      <trkpt lat="44.56228" lon="6.55196">
        <ele>1114.171</ele>
        <time>2020-03-03T18:24:48Z</time>
      </trkpt>
      <trkpt lat="44.56235" lon="6.55131">
        <ele>1113.779</ele>
        <time>2020-03-03T18:25:08Z</time>
      </trkpt>
      <trkpt lat="44.56226" lon="6.55077">
        <ele>1106.58</ele>
        <time>2020-03-03T18:25:28Z</time>
      </trkpt>
      <trkpt lat="44.56225" lon="6.55048">
        <ele>1105.912</ele>
        <time>2020-03-03T18:25:48Z</time>
      </trkpt>
      <trkpt lat="44.56237" lon="6.5503">
        <ele>1110.178</ele>
        <time>2020-03-03T18:26:08Z</time>
      </trkpt>
      <trkpt lat="44.56283" lon="6.55027">
        <ele>1111.175</ele>
        <time>2020-03-03T18:26:28Z</time>
      </trkpt>
      <trkpt lat="44.5635" lon="6.54981">
        <ele>1100.828</ele>
        <time>2020-03-03T18:26:48Z</time>
      </trkpt>
      <trkpt lat="44.56385" lon="6.54992">
        <ele>1101.42</ele>
        <time>2020-03-03T18:27:08Z</time>
      </trkpt>
      <trkpt lat="44.564" lon="6.54969">
        <ele>1094.508</ele>
        <time>2020-03-03T18:27:28Z</time>
      </trkpt>
      <trkpt lat="44.56378" lon="6.54888">
        <ele>1088.281</ele>
        <time>2020-03-03T18:27:48Z</time>
      </trkpt>
      <trkpt lat="44.56388" lon="6.54818">
        <ele>1090.464</ele>
        <time>2020-03-03T18:28:08Z</time>
      </trkpt>
      <trkpt lat="44.56396" lon="6.54746">
        <ele>1088.741</ele>
        <time>2020-03-03T18:28:28Z</time>
      </trkpt>
      <trkpt lat="44.56426" lon="6.54657">
        <ele>1091.59</ele>
        <time>2020-03-03T18:28:48Z</time>
      </trkpt>
      <trkpt lat="44.56445" lon="6.54642">
        <ele>1094.428</ele>
        <time>2020-03-03T18:29:08Z</time>
      </trkpt>
      <trkpt lat="44.56477" lon="6.54662">
        <ele>1096.829</ele>
        <time>2020-03-03T18:29:28Z</time>
      </trkpt>
      <trkpt lat="44.56489" lon="6.54647">
        <ele>1093.321</ele>
        <time>2020-03-03T18:29:48Z</time>
      </trkpt>
      <trkpt lat="44.56509" lon="6.54622">
        <ele>1089.777</ele>
        <time>2020-03-03T18:30:08Z</time>
      </trkpt>
      <trkpt lat="44.56547" lon="6.54605">
        <ele>1093.231</ele>
        <time>2020-03-03T18:30:28Z</time>
      </trkpt>
      <trkpt lat="44.56595" lon="6.54557">
        <ele>1096.161</ele>
        <time>2020-03-03T18:30:48Z</time>
      </trkpt>
      <trkpt lat="44.56629" lon="6.54494">
        <ele>1095.407</ele>
        <time>2020-03-03T18:31:08Z</time>
      </trkpt>
      <trkpt lat="44.56676" lon="6.54347">
        <ele>1091.308</ele>
        <time>2020-03-03T18:31:28Z</time>
      </trkpt>
      <trkpt lat="44.56682" lon="6.54252">
        <ele>1092.137</ele>
        <time>2020-03-03T18:31:48Z</time>
      </trkpt>
      <trkpt lat="44.56665" lon="6.54148">
        <ele>1096.11</ele>
        <time>2020-03-03T18:32:08Z</time>
      </trkpt>
      <trkpt lat="44.56626" lon="6.5411">
        <ele>1091.887</ele>
        <time>2020-03-03T18:32:28Z</time>
      </trkpt>
      <trkpt lat="44.56641" lon="6.54044">
        <ele>1093.266</ele>
        <time>2020-03-03T18:32:48Z</time>
      </trkpt>
      <trkpt lat="44.56644" lon="6.53999">
        <ele>1088.094</ele>
        <time>2020-03-03T18:33:08Z</time>
      </trkpt>
      <trkpt lat="44.56678" lon="6.53935">
        <ele>1091.525</ele>
        <time>2020-03-03T18:33:28Z</time>
      </trkpt>
      <trkpt lat="44.56676" lon="6.53904">
        <ele>1093.587</ele>
        <time>2020-03-03T18:33:48Z</time>
      </trkpt>
      <trkpt lat="44.56647" lon="6.53868">
        <ele>1093.013</ele>
        <time>2020-03-03T18:34:08Z</time>
      </trkpt>
      <trkpt lat="44.56599" lon="6.53835">
        <ele>1086.912</ele>
        <time>2020-03-03T18:34:28Z</time>
      </trkpt>
      <trkpt lat="44.56656" lon="6.53694">
        <ele>1089.332</ele>
        <time>2020-03-03T18:34:48Z</time>
      </trkpt>
      <trkpt lat="44.56734" lon="6.53693">
        <ele>1095.805</ele>
        <time>2020-03-03T18:35:08Z</time>
      </trkpt>
      <trkpt lat="44.56752" lon="6.53679">
        <ele>1094.008</ele>
        <time>2020-03-03T18:35:28Z</time>
      </trkpt>
      <trkpt lat="44.56759" lon="6.53687">
        <ele>1095.815</ele>
        <time>2020-03-03T18:35:48Z</time>
      </trkpt>
      <trkpt lat="44.56784" lon="6.53658">
        <ele>1094.948</ele>
        <time>2020-03-03T18:36:08Z</time>
      </trkpt>
      <trkpt lat="44.56832" lon="6.53629">
        <ele>1102.265</ele>
        <time>2020-03-03T18:36:28Z</time>
      </trkpt>
      <trkpt lat="44.56855" lon="6.53617">
        <ele>1106.044</ele>
        <time>2020-03-03T18:36:48Z</time>
      </trkpt>
      <trkpt lat="44.56893" lon="6.53614">
        <ele>1109.432</ele>
        <time>2020-03-03T18:37:08Z</time>
      </trkpt>
      <trkpt lat="44.56925" lon="6.53636">
        <ele>1113.233</ele>
        <time>2020-03-03T18:37:28Z</time>
      </trkpt>
      <trkpt lat="44.5692" lon="6.53646">
        <ele>1115.095</ele>
        <time>2020-03-03T18:37:48Z</time>
      </trkpt>
      <trkpt lat="44.56887" lon="6.53656">
        <ele>1115.981</ele>
        <time>2020-03-03T18:38:08Z</time>
      </trkpt>
      <trkpt lat="44.56868" lon="6.53672">
        <ele>1115.814</ele>
        <time>2020-03-03T18:38:28Z</time>
      </trkpt>
      <trkpt lat="44.56846" lon="6.53741">
        <ele>1120.854</ele>
        <time>2020-03-03T18:38:48Z</time>
      </trkpt>
      <trkpt lat="44.56851" lon="6.53743">
        <ele>1122.309</ele>
        <time>2020-03-03T18:39:08Z</time>
      </trkpt>
      <trkpt lat="44.56901" lon="6.53726">
        <ele>1126.708</ele>
        <time>2020-03-03T18:39:28Z</time>
      </trkpt>
      <trkpt lat="44.56928" lon="6.53732">
        <ele>1129.195</ele>
        <time>2020-03-03T18:39:48Z</time>
      </trkpt>
      <trkpt lat="44.56961" lon="6.53794">
        <ele>1135.598</ele>
        <time>2020-03-03T18:40:08Z</time>
      </trkpt>
      <trkpt lat="44.56999" lon="6.53812">
        <ele>1136.415</ele>
        <time>2020-03-03T18:40:28Z</time>
      </trkpt>
      <trkpt lat="44.57029" lon="6.53845">
        <ele>1139.524</ele>
        <time>2020-03-03T18:40:48Z</time>
      </trkpt>
      <trkpt lat="44.57046" lon="6.53843">
        <ele>1138.162</ele>
        <time>2020-03-03T18:41:08Z</time>
      </trkpt>
      <trkpt lat="44.57078" lon="6.53816">
        <ele>1137.063</ele>
        <time>2020-03-03T18:41:28Z</time>
      </trkpt>
      <trkpt lat="44.57103" lon="6.53817">
        <ele>1138.785</ele>
        <time>2020-03-03T18:41:48Z</time>
      </trkpt>
      <trkpt lat="44.57126" lon="6.53837">
        <ele>1142.671</ele>
        <time>2020-03-03T18:42:08Z</time>
      </trkpt>
      <trkpt lat="44.57138" lon="6.53857">
        <ele>1146.339</ele>
        <time>2020-03-03T18:42:28Z</time>
      </trkpt>
      <trkpt lat="44.5716" lon="6.53869">
        <ele>1146.701</ele>
        <time>2020-03-03T18:42:48Z</time>
      </trkpt>
      <trkpt lat="44.57171" lon="6.53897">
        <ele>1150.621</ele>
        <time>2020-03-03T18:43:08Z</time>
      </trkpt>
      <trkpt lat="44.57195" lon="6.53893">
        <ele>1150.008</ele>
        <time>2020-03-03T18:43:28Z</time>
      </trkpt>
      <trkpt lat="44.57207" lon="6.53894">
        <ele>1150.997</ele>
        <time>2020-03-03T18:43:48Z</time>
      </trkpt>
      <trkpt lat="44.5723" lon="6.5391">
        <ele>1154.96</ele>
        <time>2020-03-03T18:44:08Z</time>
      </trkpt>
      <trkpt lat="44.57238" lon="6.53935">
        <ele>1158.987</ele>
        <time>2020-03-03T18:44:28Z</time>
      </trkpt>
      <trkpt lat="44.57217" lon="6.53949">
        <ele>1162.266</ele>
        <time>2020-03-03T18:44:48Z</time>
      </trkpt>
      <trkpt lat="44.57219" lon="6.53962">
        <ele>1165.494</ele>
        <time>2020-03-03T18:45:08Z</time>
      </trkpt>
      <trkpt lat="44.57253" lon="6.53995">
        <ele>1169.035</ele>
        <time>2020-03-03T18:45:28Z</time>
      </trkpt>
      <trkpt lat="44.57286" lon="6.54024">
        <ele>1170.967</ele>
        <time>2020-03-03T18:45:48Z</time>
      </trkpt>
      <trkpt lat="44.57299" lon="6.54046">
        <ele>1173.573</ele>
        <time>2020-03-03T18:46:08Z</time>
      </trkpt>
      <trkpt lat="44.57316" lon="6.54077">
        <ele>1178.027</ele>
        <time>2020-03-03T18:46:28Z</time>
      </trkpt>
      <trkpt lat="44.57355" lon="6.54102">
        <ele>1179.568</ele>
        <time>2020-03-03T18:46:48Z</time>
      </trkpt>
      <trkpt lat="44.57388" lon="6.54152">
        <ele>1184.914</ele>
        <time>2020-03-03T18:47:08Z</time>
      </trkpt>
      <trkpt lat="44.57414" lon="6.54179">
        <ele>1188.908</ele>
        <time>2020-03-03T18:47:28Z</time>
      </trkpt>
      <trkpt lat="44.57461" lon="6.54194">
        <ele>1193.066</ele>
        <time>2020-03-03T18:47:48Z</time>
      </trkpt>
      <trkpt lat="44.57474" lon="6.5421">
        <ele>1195.789</ele>
        <time>2020-03-03T18:48:08Z</time>
      </trkpt>
      <trkpt lat="44.57491" lon="6.54236">
        <ele>1198.846</ele>
        <time>2020-03-03T18:48:28Z</time>
      </trkpt>
      <trkpt lat="44.57525" lon="6.54265">
        <ele>1202.265</ele>
        <time>2020-03-03T18:48:48Z</time>
      </trkpt>
      <trkpt lat="44.57555" lon="6.54277">
        <ele>1203.943</ele>
        <time>2020-03-03T18:49:08Z</time>
      </trkpt>
      <trkpt lat="44.57592" lon="6.54281">
        <ele>1204.334</ele>
        <time>2020-03-03T18:49:28Z</time>
      </trkpt>
      <trkpt lat="44.57632" lon="6.54302">
        <ele>1206.536</ele>
        <time>2020-03-03T18:49:48Z</time>
      </trkpt>
      <trkpt lat="44.5767" lon="6.54338">
        <ele>1211.372</ele>
        <time>2020-03-03T18:50:08Z</time>
      </trkpt>
      <trkpt lat="44.57688" lon="6.54367">
        <ele>1213.624</ele>
        <time>2020-03-03T18:50:28Z</time>
      </trkpt>
      <trkpt lat="44.57722" lon="6.54375">
        <ele>1216.504</ele>
        <time>2020-03-03T18:50:48Z</time>
      </trkpt>
      <trkpt lat="44.57752" lon="6.54371">
        <ele>1217.114</ele>
        <time>2020-03-03T18:51:08Z</time>
      </trkpt>
      <trkpt lat="44.57878" lon="6.54398">
        <ele>1219.608</ele>
        <time>2020-03-03T18:51:28Z</time>
      </trkpt>
      <trkpt lat="44.57898" lon="6.54413">
        <ele>1220.376</ele>
        <time>2020-03-03T18:51:48Z</time>
      </trkpt>
      <trkpt lat="44.57925" lon="6.54446">
        <ele>1221.779</ele>
        <time>2020-03-03T18:52:08Z</time>
      </trkpt>
      <trkpt lat="44.57969" lon="6.54444">
        <ele>1221.656</ele>
        <time>2020-03-03T18:52:28Z</time>
      </trkpt>
      <trkpt lat="44.57985" lon="6.54461">
        <ele>1223.425</ele>
        <time>2020-03-03T18:52:48Z</time>
      </trkpt>
      <trkpt lat="44.58012" lon="6.54511">
        <ele>1226.333</ele>
        <time>2020-03-03T18:53:08Z</time>
      </trkpt>
      <trkpt lat="44.58031" lon="6.54564">
        <ele>1228.294</ele>
        <time>2020-03-03T18:53:28Z</time>
      </trkpt>
      <trkpt lat="44.58082" lon="6.5463">
        <ele>1230.486</ele>
        <time>2020-03-03T18:53:48Z</time>
      </trkpt>
      <trkpt lat="44.58118" lon="6.54681">
        <ele>1230.632</ele>
        <time>2020-03-03T18:54:08Z</time>
      </trkpt>
      <trkpt lat="44.58144" lon="6.54736">
        <ele>1231.952</ele>
        <time>2020-03-03T18:54:28Z</time>
      </trkpt>
      <trkpt lat="44.58163" lon="6.54797">
        <ele>1233.553</ele>
        <time>2020-03-03T18:54:48Z</time>
      </trkpt>
      <trkpt lat="44.58192" lon="6.54884">
        <ele>1235.108</ele>
        <time>2020-03-03T18:55:08Z</time>
      </trkpt>
      <trkpt lat="44.58209" lon="6.54965">
        <ele>1243.608</ele>
        <time>2020-03-03T18:55:28Z</time>
      </trkpt>
      <trkpt lat="44.58231" lon="6.55053">
        <ele>1251.899</ele>
        <time>2020-03-03T18:55:48Z</time>
      </trkpt>
      <trkpt lat="44.58252" lon="6.55136">
        <ele>1260.552</ele>
        <time>2020-03-03T18:56:08Z</time>
      </trkpt>
      <trkpt lat="44.58272" lon="6.55172">
        <ele>1259.289</ele>
        <time>2020-03-03T18:56:28Z</time>
      </trkpt>
      <trkpt lat="44.58285" lon="6.55125">
        <ele>1255.378</ele>
        <time>2020-03-03T18:56:48Z</time>
      </trkpt>
      <trkpt lat="44.58293" lon="6.55048">
        <ele>1254.716</ele>
        <time>2020-03-03T18:57:08Z</time>
      </trkpt>
      <trkpt lat="44.58316" lon="6.54933">
        <ele>1263.957</ele>
        <time>2020-03-03T18:57:28Z</time>
      </trkpt>
      <trkpt lat="44.58317" lon="6.54899">
        <ele>1262.619</ele>
        <time>2020-03-03T18:57:48Z</time>
      </trkpt>
      <trkpt lat="44.58319" lon="6.5487">
        <ele>1262.425</ele>
        <time>2020-03-03T18:58:08Z</time>
      </trkpt>
      <trkpt lat="44.58331" lon="6.54862">
        <ele>1268.644</ele>
        <time>2020-03-03T18:58:28Z</time>
      </trkpt>
      <trkpt lat="44.58353" lon="6.5488">
        <ele>1271.805</ele>
        <time>2020-03-03T18:58:48Z</time>
      </trkpt>
      <trkpt lat="44.58382" lon="6.54908">
        <ele>1274.415</ele>
        <time>2020-03-03T18:59:08Z</time>
      </trkpt>
      <trkpt lat="44.58429" lon="6.54946">
        <ele>1277.608</ele>
        <time>2020-03-03T18:59:28Z</time>
      </trkpt>
      <trkpt lat="44.58449" lon="6.54963">
        <ele>1278.278</ele>
        <time>2020-03-03T18:59:48Z</time>
      </trkpt>
      <trkpt lat="44.5847" lon="6.54988">
        <ele>1279.221</ele>
        <time>2020-03-03T19:00:08Z</time>
      </trkpt>
      <trkpt lat="44.58489" lon="6.55012">
        <ele>1280.278</ele>
        <time>2020-03-03T19:00:28Z</time>
      </trkpt>
      <trkpt lat="44.58509" lon="6.55043">
        <ele>1282.297</ele>
        <time>2020-03-03T19:00:48Z</time>
      </trkpt>
      <trkpt lat="44.58522" lon="6.55065">
        <ele>1284.585</ele>
        <time>2020-03-03T19:01:08Z</time>
      </trkpt>
      <trkpt lat="44.58541" lon="6.55074">
        <ele>1285.946</ele>
        <time>2020-03-03T19:01:28Z</time>
      </trkpt>
      <trkpt lat="44.5854" lon="6.55081">
        <ele>1287.178</ele>
        <time>2020-03-03T19:01:48Z</time>
      </trkpt>
      <trkpt lat="44.58524" lon="6.5509">
        <ele>1288.574</ele>
        <time>2020-03-03T19:02:08Z</time>
      </trkpt>
      <trkpt lat="44.58491" lon="6.55124">
        <ele>1295.037</ele>
        <time>2020-03-03T19:02:28Z</time>
      </trkpt>
      <trkpt lat="44.58431" lon="6.55144">
        <ele>1301.449</ele>
        <time>2020-03-03T19:02:48Z</time>
      </trkpt>
      <trkpt lat="44.58408" lon="6.55142">
        <ele>1301.213</ele>
        <time>2020-03-03T19:03:08Z</time>
      </trkpt>
      <trkpt lat="44.58405" lon="6.5516">
        <ele>1306.208</ele>
        <time>2020-03-03T19:03:28Z</time>
      </trkpt>
      <trkpt lat="44.58471" lon="6.55169">
        <ele>1313.157</ele>
        <time>2020-03-03T19:03:48Z</time>
      </trkpt>
      <trkpt lat="44.58531" lon="6.55206">
        <ele>1326.37</ele>
        <time>2020-03-03T19:04:08Z</time>
      </trkpt>
      <trkpt lat="44.58557" lon="6.55201">
        <ele>1324.317</ele>
        <time>2020-03-03T19:04:28Z</time>
      </trkpt>
      <trkpt lat="44.58607" lon="6.55235">
        <ele>1336.096</ele>
        <time>2020-03-03T19:04:48Z</time>
      </trkpt>
      <trkpt lat="44.58654" lon="6.55252">
        <ele>1340.014</ele>
        <time>2020-03-03T19:05:08Z</time>
      </trkpt>
      <trkpt lat="44.58744" lon="6.55305">
        <ele>1356.435</ele>
        <time>2020-03-03T19:05:28Z</time>
      </trkpt>
      <trkpt lat="44.58772" lon="6.55332">
        <ele>1362.237</ele>
        <time>2020-03-03T19:05:48Z</time>
      </trkpt>
      <trkpt lat="44.5879" lon="6.55336">
        <ele>1362.393</ele>
        <time>2020-03-03T19:06:08Z</time>
      </trkpt>
      <trkpt lat="44.58821" lon="6.5533">
        <ele>1360.949</ele>
        <time>2020-03-03T19:06:28Z</time>
      </trkpt>
      <trkpt lat="44.58838" lon="6.55346">
        <ele>1364.502</ele>
        <time>2020-03-03T19:06:48Z</time>
      </trkpt>
      <trkpt lat="44.58851" lon="6.55404">
        <ele>1376.922</ele>
        <time>2020-03-03T19:07:08Z</time>
      </trkpt>
      <trkpt lat="44.58898" lon="6.55437">
        <ele>1381.008</ele>
        <time>2020-03-03T19:07:28Z</time>
      </trkpt>
      <trkpt lat="44.58914" lon="6.55464">
        <ele>1386.298</ele>
        <time>2020-03-03T19:07:48Z</time>
      </trkpt>
      <trkpt lat="44.58938" lon="6.55492">
        <ele>1389.091</ele>
        <time>2020-03-03T19:08:08Z</time>
      </trkpt>
      <trkpt lat="44.58899" lon="6.55527">
        <ele>1401.268</ele>
        <time>2020-03-03T19:08:28Z</time>
      </trkpt>
      <trkpt lat="44.58861" lon="6.55595">
        <ele>1414.117</ele>
        <time>2020-03-03T19:08:48Z</time>
      </trkpt>
      <trkpt lat="44.58858" lon="6.55618">
        <ele>1415.165</ele>
        <time>2020-03-03T19:09:08Z</time>
      </trkpt>
      <trkpt lat="44.58864" lon="6.55649">
        <ele>1415.536</ele>
        <time>2020-03-03T19:09:28Z</time>
      </trkpt>
      <trkpt lat="44.58851" lon="6.55687">
        <ele>1420.388</ele>
        <time>2020-03-03T19:09:48Z</time>
      </trkpt>
      <trkpt lat="44.58828" lon="6.55727">
        <ele>1429.474</ele>
        <time>2020-03-03T19:10:08Z</time>
      </trkpt>
      <trkpt lat="44.58813" lon="6.5582">
        <ele>1435.722</ele>
        <time>2020-03-03T19:10:28Z</time>
      </trkpt>
      <trkpt lat="44.58792" lon="6.55846">
        <ele>1446.662</ele>
        <time>2020-03-03T19:10:48Z</time>
      </trkpt>
      <trkpt lat="44.58767" lon="6.55937">
        <ele>1456.708</ele>
        <time>2020-03-03T19:11:08Z</time>
      </trkpt>
      <trkpt lat="44.58779" lon="6.55987">
        <ele>1457.508</ele>
        <time>2020-03-03T19:11:28Z</time>
      </trkpt>
      <trkpt lat="44.58814" lon="6.56023">
        <ele>1459.536</ele>
        <time>2020-03-03T19:11:48Z</time>
      </trkpt>
      <trkpt lat="44.58857" lon="6.56026">
        <ele>1459.569</ele>
        <time>2020-03-03T19:12:08Z</time>
      </trkpt>
      <trkpt lat="44.58896" lon="6.5602">
        <ele>1461.196</ele>
        <time>2020-03-03T19:12:28Z</time>
      </trkpt>
      <trkpt lat="44.58947" lon="6.56044">
        <ele>1471.825</ele>
        <time>2020-03-03T19:12:48Z</time>
      </trkpt>
      <trkpt lat="44.58989" lon="6.56096">
        <ele>1479.063</ele>
        <time>2020-03-03T19:13:08Z</time>
      </trkpt>
      <trkpt lat="44.59024" lon="6.56127">
        <ele>1480.164</ele>
        <time>2020-03-03T19:13:28Z</time>
      </trkpt>
      <trkpt lat="44.59057" lon="6.56132">
        <ele>1481.386</ele>
        <time>2020-03-03T19:13:48Z</time>
      </trkpt>
      <trkpt lat="44.59131" lon="6.56172">
        <ele>1489.132</ele>
        <time>2020-03-03T19:14:08Z</time>
      </trkpt>
      <trkpt lat="44.5915" lon="6.56173">
        <ele>1488.136</ele>
        <time>2020-03-03T19:14:28Z</time>
      </trkpt>
      <trkpt lat="44.59199" lon="6.56168">
        <ele>1490.817</ele>
        <time>2020-03-03T19:14:48Z</time>
      </trkpt>
      <trkpt lat="44.59258" lon="6.56205">
        <ele>1498.918</ele>
        <time>2020-03-03T19:15:08Z</time>
      </trkpt>
      <trkpt lat="44.59284" lon="6.56205">
        <ele>1498.708</ele>
        <time>2020-03-03T19:15:28Z</time>
      </trkpt>
      <trkpt lat="44.59356" lon="6.56176">
        <ele>1503.977</ele>
        <time>2020-03-03T19:15:48Z</time>
      </trkpt>
      <trkpt lat="44.59385" lon="6.56154">
        <ele>1504.09</ele>
        <time>2020-03-03T19:16:08Z</time>
      </trkpt>
      <trkpt lat="44.5941" lon="6.56173">
        <ele>1511.597</ele>
        <time>2020-03-03T19:16:28Z</time>
      </trkpt>
      <trkpt lat="44.59453" lon="6.56187">
        <ele>1514.276</ele>
        <time>2020-03-03T19:16:48Z</time>
      </trkpt>
      <trkpt lat="44.59508" lon="6.56261">
        <ele>1526.334</ele>
        <time>2020-03-03T19:17:08Z</time>
      </trkpt>
      <trkpt lat="44.59547" lon="6.56292">
        <ele>1529.395</ele>
        <time>2020-03-03T19:17:28Z</time>
      </trkpt>
      <trkpt lat="44.59564" lon="6.56292">
        <ele>1529.727</ele>
        <time>2020-03-03T19:17:48Z</time>
      </trkpt>
      <trkpt lat="44.5959" lon="6.56281">
        <ele>1528.493</ele>
        <time>2020-03-03T19:18:08Z</time>
      </trkpt>
      <trkpt lat="44.59609" lon="6.56281">
        <ele>1530.163</ele>
        <time>2020-03-03T19:18:28Z</time>
      </trkpt>
      <trkpt lat="44.59653" lon="6.56301">
        <ele>1537.544</ele>
        <time>2020-03-03T19:18:48Z</time>
      </trkpt>
      <trkpt lat="44.59709" lon="6.56311">
        <ele>1544.018</ele>
        <time>2020-03-03T19:19:08Z</time>
      </trkpt>
      <trkpt lat="44.59741" lon="6.56311">
        <ele>1546.408</ele>
        <time>2020-03-03T19:19:28Z</time>
      </trkpt>
      <trkpt lat="44.59771" lon="6.56297">
        <ele>1545.11</ele>
        <time>2020-03-03T19:19:48Z</time>
      </trkpt>
      <trkpt lat="44.59836" lon="6.56319">
        <ele>1555.033</ele>
        <time>2020-03-03T19:20:08Z</time>
      </trkpt>
      <trkpt lat="44.59876" lon="6.56345">
        <ele>1562.22</ele>
        <time>2020-03-03T19:20:28Z</time>
      </trkpt>
      <trkpt lat="44.59908" lon="6.56348">
        <ele>1558.549</ele>
        <time>2020-03-03T19:20:48Z</time>
      </trkpt>
      <trkpt lat="44.59935" lon="6.56374">
        <ele>1565.997</ele>
        <time>2020-03-03T19:21:08Z</time>
      </trkpt>
      <trkpt lat="44.59967" lon="6.56383">
        <ele>1567.338</ele>
        <time>2020-03-03T19:21:28Z</time>
      </trkpt>
      <trkpt lat="44.59995" lon="6.56386">
        <ele>1566.51</ele>
        <time>2020-03-03T19:21:48Z</time>
      </trkpt>
      <trkpt lat="44.60013" lon="6.56419">
        <ele>1572.876</ele>
        <time>2020-03-03T19:22:08Z</time>
      </trkpt>
      <trkpt lat="44.60035" lon="6.56434">
        <ele>1574.423</ele>
        <time>2020-03-03T19:22:28Z</time>
      </trkpt>
      <trkpt lat="44.60068" lon="6.5642">
        <ele>1569.583</ele>
        <time>2020-03-03T19:22:48Z</time>
      </trkpt>
      <trkpt lat="44.60075" lon="6.56435">
        <ele>1570.511</ele>
        <time>2020-03-03T19:23:08Z</time>
      </trkpt>
      <trkpt lat="44.60058" lon="6.56456">
        <ele>1576.708</ele>
        <time>2020-03-03T19:23:28Z</time>
      </trkpt>
      <trkpt lat="44.60022" lon="6.56445">
        <ele>1580.476</ele>
        <time>2020-03-03T19:23:48Z</time>
      </trkpt>
      <trkpt lat="44.60004" lon="6.56434">
        <ele>1581.329</ele>
        <time>2020-03-03T19:24:08Z</time>
      </trkpt>
      <trkpt lat="44.59922" lon="6.56423">
        <ele>1592.356</ele>
        <time>2020-03-03T19:24:28Z</time>
      </trkpt>
      <trkpt lat="44.5987" lon="6.56404">
        <ele>1597.035</ele>
        <time>2020-03-03T19:24:48Z</time>
      </trkpt>
      <trkpt lat="44.59825" lon="6.5639">
        <ele>1593.813</ele>
        <time>2020-03-03T19:25:08Z</time>
      </trkpt>
      <trkpt lat="44.59793" lon="6.56415">
        <ele>1597.734</ele>
        <time>2020-03-03T19:25:28Z</time>
      </trkpt>
      <trkpt lat="44.59758" lon="6.5643">
        <ele>1601.736</ele>
        <time>2020-03-03T19:25:48Z</time>
      </trkpt>
      <trkpt lat="44.59734" lon="6.56446">
        <ele>1607.442</ele>
        <time>2020-03-03T19:26:08Z</time>
      </trkpt>
      <trkpt lat="44.59705" lon="6.56455">
        <ele>1612.042</ele>
        <time>2020-03-03T19:26:28Z</time>
      </trkpt>
      <trkpt lat="44.59667" lon="6.5646">
        <ele>1612.822</ele>
        <time>2020-03-03T19:26:48Z</time>
      </trkpt>
      <trkpt lat="44.5963" lon="6.56475">
        <ele>1614.814</ele>
        <time>2020-03-03T19:27:08Z</time>
      </trkpt>
      <trkpt lat="44.59594" lon="6.56489">
        <ele>1620.008</ele>
        <time>2020-03-03T19:27:28Z</time>
      </trkpt>
      <trkpt lat="44.59551" lon="6.56495">
        <ele>1623.158</ele>
        <time>2020-03-03T19:27:48Z</time>
      </trkpt>
      <trkpt lat="44.595" lon="6.56493">
        <ele>1621.821</ele>
        <time>2020-03-03T19:28:08Z</time>
      </trkpt>
      <trkpt lat="44.59404" lon="6.56517">
        <ele>1628.218</ele>
        <time>2020-03-03T19:28:28Z</time>
      </trkpt>
      <trkpt lat="44.59355" lon="6.56533">
        <ele>1638.427</ele>
        <time>2020-03-03T19:28:48Z</time>
      </trkpt>
      <trkpt lat="44.59286" lon="6.5654">
        <ele>1644.815</ele>
        <time>2020-03-03T19:29:08Z</time>
      </trkpt>
      <trkpt lat="44.59212" lon="6.56554">
        <ele>1654.776</ele>
        <time>2020-03-03T19:29:28Z</time>
      </trkpt>
      <trkpt lat="44.59182" lon="6.5655">
        <ele>1655.498</ele>
        <time>2020-03-03T19:29:48Z</time>
      </trkpt>
      <trkpt lat="44.59155" lon="6.56561">
        <ele>1665.084</ele>
        <time>2020-03-03T19:30:08Z</time>
      </trkpt>
      <trkpt lat="44.59132" lon="6.56543">
        <ele>1665.012</ele>
        <time>2020-03-03T19:30:28Z</time>
      </trkpt>
      <trkpt lat="44.59105" lon="6.56535">
        <ele>1669.732</ele>
        <time>2020-03-03T19:30:48Z</time>
      </trkpt>
      <trkpt lat="44.59073" lon="6.56514">
        <ele>1664.605</ele>
        <time>2020-03-03T19:31:08Z</time>
      </trkpt>
      <trkpt lat="44.59034" lon="6.56537">
        <ele>1673.208</ele>
        <time>2020-03-03T19:31:28Z</time>
      </trkpt>
      <trkpt lat="44.58968" lon="6.56528">
        <ele>1681.035</ele>
        <time>2020-03-03T19:31:48Z</time>
      </trkpt>
      <trkpt lat="44.58894" lon="6.56515">
        <ele>1693.428</ele>
        <time>2020-03-03T19:32:08Z</time>
      </trkpt>
      <trkpt lat="44.58867" lon="6.565">
        <ele>1691.155</ele>
        <time>2020-03-03T19:32:28Z</time>
      </trkpt>
      <trkpt lat="44.58821" lon="6.56494">
        <ele>1695.424</ele>
        <time>2020-03-03T19:32:48Z</time>
      </trkpt>
      <trkpt lat="44.58762" lon="6.565">
        <ele>1707.912</ele>
        <time>2020-03-03T19:33:08Z</time>
      </trkpt>
      <trkpt lat="44.58743" lon="6.56489">
        <ele>1711.413</ele>
        <time>2020-03-03T19:33:28Z</time>
      </trkpt>
      <trkpt lat="44.58724" lon="6.56441">
        <ele>1706.675</ele>
        <time>2020-03-03T19:33:48Z</time>
      </trkpt>
      <trkpt lat="44.58701" lon="6.56439">
        <ele>1711.891</ele>
        <time>2020-03-03T19:34:08Z</time>
      </trkpt>
      <trkpt lat="44.58696" lon="6.56458">
        <ele>1718.574</ele>
        <time>2020-03-03T19:34:28Z</time>
      </trkpt>
      <trkpt lat="44.58721" lon="6.5648">
        <ele>1716.056</ele>
        <time>2020-03-03T19:34:48Z</time>
      </trkpt>
      <trkpt lat="44.58742" lon="6.56525">
        <ele>1722.321</ele>
        <time>2020-03-03T19:35:08Z</time>
      </trkpt>
      <trkpt lat="44.58764" lon="6.56536">
        <ele>1721.608</ele>
        <time>2020-03-03T19:35:28Z</time>
      </trkpt>
      <trkpt lat="44.58803" lon="6.56539">
        <ele>1721.051</ele>
        <time>2020-03-03T19:35:48Z</time>
      </trkpt>
      <trkpt lat="44.58833" lon="6.56557">
        <ele>1727.434</ele>
        <time>2020-03-03T19:36:08Z</time>
      </trkpt>
      <trkpt lat="44.58865" lon="6.56596">
        <ele>1734.411</ele>
        <time>2020-03-03T19:36:28Z</time>
      </trkpt>
      <trkpt lat="44.58895" lon="6.56605">
        <ele>1732.08</ele>
        <time>2020-03-03T19:36:48Z</time>
      </trkpt>
      <trkpt lat="44.58923" lon="6.56625">
        <ele>1737.558</ele>
        <time>2020-03-03T19:37:08Z</time>
      </trkpt>
      <trkpt lat="44.58949" lon="6.56655">
        <ele>1747.279</ele>
        <time>2020-03-03T19:37:28Z</time>
      </trkpt>
      <trkpt lat="44.58982" lon="6.56662">
        <ele>1745.521</ele>
        <time>2020-03-03T19:37:48Z</time>
      </trkpt>
      <trkpt lat="44.59012" lon="6.56681">
        <ele>1750.127</ele>
        <time>2020-03-03T19:38:08Z</time>
      </trkpt>
      <trkpt lat="44.5904" lon="6.56715">
        <ele>1756.419</ele>
        <time>2020-03-03T19:38:28Z</time>
      </trkpt>
      <trkpt lat="44.59115" lon="6.56745">
        <ele>1762.409</ele>
        <time>2020-03-03T19:38:48Z</time>
      </trkpt>
      <trkpt lat="44.59132" lon="6.56761">
        <ele>1766.719</ele>
        <time>2020-03-03T19:39:08Z</time>
      </trkpt>
      <trkpt lat="44.59151" lon="6.56787">
        <ele>1770.708</ele>
        <time>2020-03-03T19:39:28Z</time>
      </trkpt>
      <trkpt lat="44.59184" lon="6.56809">
        <ele>1773.045</ele>
        <time>2020-03-03T19:39:48Z</time>
      </trkpt>
      <trkpt lat="44.59205" lon="6.56811">
        <ele>1771.568</ele>
        <time>2020-03-03T19:40:08Z</time>
      </trkpt>
      <trkpt lat="44.59253" lon="6.56846">
        <ele>1781.335</ele>
        <time>2020-03-03T19:40:28Z</time>
      </trkpt>
      <trkpt lat="44.59309" lon="6.56876">
        <ele>1785.194</ele>
        <time>2020-03-03T19:40:48Z</time>
      </trkpt>
      <trkpt lat="44.59354" lon="6.56907">
        <ele>1787.192</ele>
        <time>2020-03-03T19:41:08Z</time>
      </trkpt>
      <trkpt lat="44.5936" lon="6.56924">
        <ele>1789.333</ele>
        <time>2020-03-03T19:41:28Z</time>
      </trkpt>
      <trkpt lat="44.59343" lon="6.56934">
        <ele>1789.955</ele>
        <time>2020-03-03T19:41:48Z</time>
      </trkpt>
      <trkpt lat="44.59333" lon="6.56965">
        <ele>1790.941</ele>
        <time>2020-03-03T19:42:08Z</time>
      </trkpt>
      <trkpt lat="44.59312" lon="6.56992">
        <ele>1797.639</ele>
        <time>2020-03-03T19:42:28Z</time>
      </trkpt>
      <trkpt lat="44.59328" lon="6.57045">
        <ele>1797.701</ele>
        <time>2020-03-03T19:42:48Z</time>
      </trkpt>
      <trkpt lat="44.5934" lon="6.57066">
        <ele>1799.021</ele>
        <time>2020-03-03T19:43:08Z</time>
      </trkpt>
      <trkpt lat="44.59365" lon="6.5708">
        <ele>1799.108</ele>
        <time>2020-03-03T19:43:28Z</time>
      </trkpt>
      <trkpt lat="44.5939" lon="6.57084">
        <ele>1801.277</ele>
        <time>2020-03-03T19:43:48Z</time>
      </trkpt>
      <trkpt lat="44.59467" lon="6.57131">
        <ele>1803.66</ele>
        <time>2020-03-03T19:44:08Z</time>
      </trkpt>
      <trkpt lat="44.59474" lon="6.57164">
        <ele>1808.157</ele>
        <time>2020-03-03T19:44:28Z</time>
      </trkpt>
      <trkpt lat="44.59471" lon="6.57249">
        <ele>1812.446</ele>
        <time>2020-03-03T19:44:48Z</time>
      </trkpt>
      <trkpt lat="44.59471" lon="6.57268">
        <ele>1811.984</ele>
        <time>2020-03-03T19:45:08Z</time>
      </trkpt>
      <trkpt lat="44.59446" lon="6.57324">
        <ele>1815.795</ele>
        <time>2020-03-03T19:45:28Z</time>
      </trkpt>
      <trkpt lat="44.59435" lon="6.57353">
        <ele>1813.887</ele>
        <time>2020-03-03T19:45:48Z</time>
      </trkpt>
      <trkpt lat="44.59407" lon="6.57367">
        <ele>1817.973</ele>
        <time>2020-03-03T19:46:08Z</time>
      </trkpt>
      <trkpt lat="44.59385" lon="6.57411">
        <ele>1814.961</ele>
        <time>2020-03-03T19:46:28Z</time>
      </trkpt>
      <trkpt lat="44.59369" lon="6.5742">
        <ele>1812.521</ele>
        <time>2020-03-03T19:46:48Z</time>
      </trkpt>
      <trkpt lat="44.5935" lon="6.57395">
        <ele>1810.913</ele>
        <time>2020-03-03T19:47:08Z</time>
      </trkpt>
      <trkpt lat="44.59347" lon="6.57373">
        <ele>1813.208</ele>
        <time>2020-03-03T19:47:28Z</time>
      </trkpt>
      <trkpt lat="44.59342" lon="6.5733">
        <ele>1820.77</ele>
        <time>2020-03-03T19:47:48Z</time>
      </trkpt>
      <trkpt lat="44.5933" lon="6.57317">
        <ele>1822.453</ele>
        <time>2020-03-03T19:48:08Z</time>
      </trkpt>
      <trkpt lat="44.59318" lon="6.57318">
        <ele>1824.24</ele>
        <time>2020-03-03T19:48:28Z</time>
      </trkpt>
      <trkpt lat="44.59305" lon="6.57333">
        <ele>1824.299</ele>
        <time>2020-03-03T19:48:48Z</time>
      </trkpt>
      <trkpt lat="44.59286" lon="6.57373">
        <ele>1819.977</ele>
        <time>2020-03-03T19:49:08Z</time>
      </trkpt>
      <trkpt lat="44.59263" lon="6.57382">
        <ele>1821.898</ele>
        <time>2020-03-03T19:49:28Z</time>
      </trkpt>
      <trkpt lat="44.59178" lon="6.57375">
        <ele>1826.78</ele>
        <time>2020-03-03T19:49:48Z</time>
      </trkpt>
      <trkpt lat="44.5916" lon="6.57372">
        <ele>1829.576</ele>
        <time>2020-03-03T19:50:08Z</time>
      </trkpt>
      <trkpt lat="44.59142" lon="6.57397">
        <ele>1832.891</ele>
        <time>2020-03-03T19:50:28Z</time>
      </trkpt>
      <trkpt lat="44.59124" lon="6.57452">
        <ele>1840.181</ele>
        <time>2020-03-03T19:50:48Z</time>
      </trkpt>
      <trkpt lat="44.59121" lon="6.57478">
        <ele>1837.819</ele>
        <time>2020-03-03T19:51:08Z</time>
      </trkpt>
      <trkpt lat="44.59104" lon="6.57537">
        <ele>1844.108</ele>
        <time>2020-03-03T19:51:28Z</time>
      </trkpt>
      <trkpt lat="44.59102" lon="6.57665">
        <ele>1847.533</ele>
        <time>2020-03-03T19:51:48Z</time>
      </trkpt>
      <trkpt lat="44.59119" lon="6.57765">
        <ele>1844.296</ele>
        <time>2020-03-03T19:52:08Z</time>
      </trkpt>
      <trkpt lat="44.59124" lon="6.57815">
        <ele>1848.543</ele>
        <time>2020-03-03T19:52:28Z</time>
      </trkpt>
      <trkpt lat="44.59153" lon="6.57996">
        <ele>1850.862</ele>
        <time>2020-03-03T19:52:48Z</time>
      </trkpt>
      <trkpt lat="44.5915" lon="6.58021">
        <ele>1850.15</ele>
        <time>2020-03-03T19:53:08Z</time>
      </trkpt>
      <trkpt lat="44.59128" lon="6.58064">
        <ele>1857.121</ele>
        <time>2020-03-03T19:53:28Z</time>
      </trkpt>
      <trkpt lat="44.59123" lon="6.58117">
        <ele>1854.623</ele>
        <time>2020-03-03T19:53:48Z</time>
      </trkpt>
      <trkpt lat="44.59112" lon="6.58163">
        <ele>1855.759</ele>
        <time>2020-03-03T19:54:08Z</time>
      </trkpt>
      <trkpt lat="44.59093" lon="6.58192">
        <ele>1857.572</ele>
        <time>2020-03-03T19:54:28Z</time>
      </trkpt>
      <trkpt lat="44.5905" lon="6.58249">
        <ele>1859.513</ele>
        <time>2020-03-03T19:54:48Z</time>
      </trkpt>
      <trkpt lat="44.59028" lon="6.58288">
        <ele>1860.214</ele>
        <time>2020-03-03T19:55:08Z</time>
      </trkpt>
      <trkpt lat="44.59008" lon="6.58339">
        <ele>1863.208</ele>
        <time>2020-03-03T19:55:28Z</time>
      </trkpt>
      <trkpt lat="44.59006" lon="6.58395">
        <ele>1863.731</ele>
        <time>2020-03-03T19:55:48Z</time>
      </trkpt>
      <trkpt lat="44.59013" lon="6.58451">
        <ele>1862.664</ele>
        <time>2020-03-03T19:56:08Z</time>
      </trkpt>
      <trkpt lat="44.59008" lon="6.5851">
        <ele>1862.391</ele>
        <time>2020-03-03T19:56:28Z</time>
      </trkpt>
      <trkpt lat="44.58985" lon="6.5855">
        <ele>1868.31</ele>
        <time>2020-03-03T19:56:48Z</time>
      </trkpt>
      <trkpt lat="44.58993" lon="6.58603">
        <ele>1864.928</ele>
        <time>2020-03-03T19:57:08Z</time>
      </trkpt>
      <trkpt lat="44.5899" lon="6.58694">
        <ele>1866.069</ele>
        <time>2020-03-03T19:57:28Z</time>
      </trkpt>
      <trkpt lat="44.58983" lon="6.58722">
        <ele>1866.511</ele>
        <time>2020-03-03T19:57:48Z</time>
      </trkpt>
      <trkpt lat="44.58971" lon="6.58762">
        <ele>1868.297</ele>
        <time>2020-03-03T19:58:08Z</time>
      </trkpt>
      <trkpt lat="44.58956" lon="6.58804">
        <ele>1867.325</ele>
        <time>2020-03-03T19:58:28Z</time>
      </trkpt>
      <trkpt lat="44.58934" lon="6.5885">
        <ele>1868.626</ele>
        <time>2020-03-03T19:58:48Z</time>
      </trkpt>
      <trkpt lat="44.5892" lon="6.58875">
        <ele>1867.208</ele>
        <time>2020-03-03T19:59:08Z</time>
      </trkpt>
      <trkpt lat="44.58894" lon="6.58902">
        <ele>1870.908</ele>
        <time>2020-03-03T19:59:28Z</time>
      </trkpt>
      <trkpt lat="44.58882" lon="6.5894">
        <ele>1872.776</ele>
        <time>2020-03-03T19:59:48Z</time>
      </trkpt>
      <trkpt lat="44.58881" lon="6.58989">
        <ele>1875.339</ele>
        <time>2020-03-03T20:00:08Z</time>
      </trkpt>
      <trkpt lat="44.58891" lon="6.59033">
        <ele>1876.226</ele>
        <time>2020-03-03T20:00:28Z</time>
      </trkpt>
      <trkpt lat="44.58916" lon="6.59072">
        <ele>1872.245</ele>
        <time>2020-03-03T20:00:48Z</time>
      </trkpt>
      <trkpt lat="44.58955" lon="6.59156">
        <ele>1873.343</ele>
        <time>2020-03-03T20:01:08Z</time>
      </trkpt>
      <trkpt lat="44.58951" lon="6.5917">
        <ele>1875.874</ele>
        <time>2020-03-03T20:01:28Z</time>
      </trkpt>
      <trkpt lat="44.58937" lon="6.59206">
        <ele>1879.056</ele>
        <time>2020-03-03T20:01:48Z</time>
      </trkpt>
      <trkpt lat="44.58931" lon="6.59226">
        <ele>1880.132</ele>
        <time>2020-03-03T20:02:08Z</time>
      </trkpt>
      <trkpt lat="44.58932" lon="6.59265">
        <ele>1877.286</ele>
        <time>2020-03-03T20:02:28Z</time>
      </trkpt>
      <trkpt lat="44.58926" lon="6.59308">
        <ele>1879.36</ele>
        <time>2020-03-03T20:02:48Z</time>
      </trkpt>
      <trkpt lat="44.58928" lon="6.59348">
        <ele>1879.326</ele>
        <time>2020-03-03T20:03:08Z</time>
      </trkpt>
      <trkpt lat="44.58949" lon="6.59372">
        <ele>1876.608</ele>
        <time>2020-03-03T20:03:28Z</time>
      </trkpt>
      <trkpt lat="44.58954" lon="6.59391">
        <ele>1877.042</ele>
        <time>2020-03-03T20:03:48Z</time>
      </trkpt>
      <trkpt lat="44.58933" lon="6.59448">
        <ele>1878.735</ele>
        <time>2020-03-03T20:04:08Z</time>
      </trkpt>
      <trkpt lat="44.58911" lon="6.59465">
        <ele>1881.322</ele>
        <time>2020-03-03T20:04:28Z</time>
      </trkpt>
      <trkpt lat="44.58884" lon="6.59536">
        <ele>1877.831</ele>
        <time>2020-03-03T20:04:48Z</time>
      </trkpt>
      <trkpt lat="44.58822" lon="6.5963">
        <ele>1883.449</ele>
        <time>2020-03-03T20:05:08Z</time>
      </trkpt>
      <trkpt lat="44.58787" lon="6.5965">
        <ele>1889.59</ele>
        <time>2020-03-03T20:05:28Z</time>
      </trkpt>
      <trkpt lat="44.58767" lon="6.59684">
        <ele>1885.292</ele>
        <time>2020-03-03T20:05:48Z</time>
      </trkpt>
      <trkpt lat="44.58745" lon="6.59698">
        <ele>1885.868</ele>
        <time>2020-03-03T20:06:08Z</time>
      </trkpt>
      <trkpt lat="44.58704" lon="6.59703">
        <ele>1890.975</ele>
        <time>2020-03-03T20:06:28Z</time>
      </trkpt>
      <trkpt lat="44.58676" lon="6.59717">
        <ele>1889.128</ele>
        <time>2020-03-03T20:06:48Z</time>
      </trkpt>
      <trkpt lat="44.58621" lon="6.597">
        <ele>1895.72</ele>
        <time>2020-03-03T20:07:08Z</time>
      </trkpt>
      <trkpt lat="44.58594" lon="6.59694">
        <ele>1898.108</ele>
        <time>2020-03-03T20:07:28Z</time>
      </trkpt>
      <trkpt lat="44.58559" lon="6.59695">
        <ele>1898.821</ele>
        <time>2020-03-03T20:07:48Z</time>
      </trkpt>
      <trkpt lat="44.58536" lon="6.59703">
        <ele>1898.414</ele>
        <time>2020-03-03T20:08:08Z</time>
      </trkpt>
      <trkpt lat="44.58499" lon="6.59695">
        <ele>1901.791</ele>
        <time>2020-03-03T20:08:28Z</time>
      </trkpt>
      <trkpt lat="44.58465" lon="6.59692">
        <ele>1901.87</ele>
        <time>2020-03-03T20:08:48Z</time>
      </trkpt>
      <trkpt lat="44.58438" lon="6.59675">
        <ele>1905.998</ele>
        <time>2020-03-03T20:09:08Z</time>
      </trkpt>
      <trkpt lat="44.58413" lon="6.59684">
        <ele>1907.659</ele>
        <time>2020-03-03T20:09:28Z</time>
      </trkpt>
      <trkpt lat="44.58388" lon="6.59706">
        <ele>1908.231</ele>
        <time>2020-03-03T20:09:48Z</time>
      </trkpt>
      <trkpt lat="44.58389" lon="6.59739">
        <ele>1906.437</ele>
        <time>2020-03-03T20:10:08Z</time>
      </trkpt>
      <trkpt lat="44.58402" lon="6.59768">
        <ele>1903.369</ele>
        <time>2020-03-03T20:10:28Z</time>
      </trkpt>
      <trkpt lat="44.58404" lon="6.59835">
        <ele>1910.104</ele>
        <time>2020-03-03T20:10:48Z</time>
      </trkpt>
      <trkpt lat="44.58427" lon="6.59865">
        <ele>1912.324</ele>
        <time>2020-03-03T20:11:08Z</time>
      </trkpt>
      <trkpt lat="44.5846" lon="6.59894">
        <ele>1912.908</ele>
        <time>2020-03-03T20:11:28Z</time>
      </trkpt>
      <trkpt lat="44.5849" lon="6.59954">
        <ele>1917.09</ele>
        <time>2020-03-03T20:11:48Z</time>
      </trkpt>
      <trkpt lat="44.5851" lon="6.5998">
        <ele>1917.513</ele>
        <time>2020-03-03T20:12:08Z</time>
      </trkpt>
      <trkpt lat="44.58545" lon="6.60038">
        <ele>1925.33</ele>
        <time>2020-03-03T20:12:28Z</time>
      </trkpt>
      <trkpt lat="44.58573" lon="6.60064">
        <ele>1925.389</ele>
        <time>2020-03-03T20:12:48Z</time>
      </trkpt>
      <trkpt lat="44.58598" lon="6.60116">
        <ele>1933.617</ele>
        <time>2020-03-03T20:13:08Z</time>
      </trkpt>
      <trkpt lat="44.58684" lon="6.60159">
        <ele>1940.218</ele>
        <time>2020-03-03T20:13:28Z</time>
      </trkpt>
      <trkpt lat="44.58704" lon="6.60177">
        <ele>1944.68</ele>
        <time>2020-03-03T20:13:48Z</time>
      </trkpt>
      <trkpt lat="44.58733" lon="6.60203">
        <ele>1946.776</ele>
        <time>2020-03-03T20:14:08Z</time>
      </trkpt>
      <trkpt lat="44.58768" lon="6.60246">
        <ele>1949.568</ele>
        <time>2020-03-03T20:14:28Z</time>
      </trkpt>
      <trkpt lat="44.58811" lon="6.60315">
        <ele>1951.742</ele>
        <time>2020-03-03T20:14:48Z</time>
      </trkpt>
      <trkpt lat="44.58843" lon="6.60374">
        <ele>1959.126</ele>
        <time>2020-03-03T20:15:08Z</time>
      </trkpt>
      <trkpt lat="44.58879" lon="6.60419">
        <ele>1959.108</ele>
        <time>2020-03-03T20:15:28Z</time>
      </trkpt>
      <trkpt lat="44.58898" lon="6.60443">
        <ele>1961.83</ele>
        <time>2020-03-03T20:15:48Z</time>
      </trkpt>
      <trkpt lat="44.58923" lon="6.6045">
        <ele>1957.113</ele>
        <time>2020-03-03T20:16:08Z</time>
      </trkpt>
      <trkpt lat="44.58933" lon="6.60468">
        <ele>1960.55</ele>
        <time>2020-03-03T20:16:28Z</time>
      </trkpt>
      <trkpt lat="44.58962" lon="6.60535">
        <ele>1963.559</ele>
        <time>2020-03-03T20:16:48Z</time>
      </trkpt>
      <trkpt lat="44.58963" lon="6.60565">
        <ele>1965.577</ele>
        <time>2020-03-03T20:17:08Z</time>
      </trkpt>
      <trkpt lat="44.58955" lon="6.60599">
        <ele>1969.538</ele>
        <time>2020-03-03T20:17:28Z</time>
      </trkpt>
      <trkpt lat="44.58956" lon="6.60631">
        <ele>1965.96</ele>
        <time>2020-03-03T20:17:48Z</time>
      </trkpt>
      <trkpt lat="44.5892" lon="6.60718">
        <ele>1963.036</ele>
        <time>2020-03-03T20:18:08Z</time>
      </trkpt>
      <trkpt lat="44.58881" lon="6.60753">
        <ele>1967.283</ele>
        <time>2020-03-03T20:18:28Z</time>
      </trkpt>
      <trkpt lat="44.58862" lon="6.60802">
        <ele>1964.225</ele>
        <time>2020-03-03T20:18:48Z</time>
      </trkpt>
      <trkpt lat="44.58821" lon="6.60838">
        <ele>1968.017</ele>
        <time>2020-03-03T20:19:08Z</time>
      </trkpt>
      <trkpt lat="44.58793" lon="6.60893">
        <ele>1968.108</ele>
        <time>2020-03-03T20:19:28Z</time>
      </trkpt>
      <trkpt lat="44.58788" lon="6.60922">
        <ele>1964.642</ele>
        <time>2020-03-03T20:19:48Z</time>
      </trkpt>
      <trkpt lat="44.58737" lon="6.60942">
        <ele>1966.235</ele>
        <time>2020-03-03T20:20:08Z</time>
      </trkpt>
      <trkpt lat="44.58691" lon="6.60936">
        <ele>1971.162</ele>
        <time>2020-03-03T20:20:28Z</time>
      </trkpt>
      <trkpt lat="44.58641" lon="6.60956">
        <ele>1971.321</ele>
        <time>2020-03-03T20:20:48Z</time>
      </trkpt>
      <trkpt lat="44.58599" lon="6.60952">
        <ele>1973.179</ele>
        <time>2020-03-03T20:21:08Z</time>
      </trkpt>
      <trkpt lat="44.58568" lon="6.60945">
        <ele>1977.58</ele>
        <time>2020-03-03T20:21:28Z</time>
      </trkpt>
      <trkpt lat="44.58565" lon="6.60954">
        <ele>1977.152</ele>
        <time>2020-03-03T20:21:48Z</time>
      </trkpt>
      <trkpt lat="44.58571" lon="6.61004">
        <ele>1972.668</ele>
        <time>2020-03-03T20:22:08Z</time>
      </trkpt>
      <trkpt lat="44.58565" lon="6.6103">
        <ele>1975.996</ele>
        <time>2020-03-03T20:22:28Z</time>
      </trkpt>
      <trkpt lat="44.58577" lon="6.6106">
        <ele>1977.531</ele>
        <time>2020-03-03T20:22:48Z</time>
      </trkpt>
      <trkpt lat="44.58599" lon="6.61095">
        <ele>1978.324</ele>
        <time>2020-03-03T20:23:08Z</time>
      </trkpt>
      <trkpt lat="44.58635" lon="6.61176">
        <ele>1981.908</ele>
        <time>2020-03-03T20:23:28Z</time>
      </trkpt>
      <trkpt lat="44.58658" lon="6.61216">
        <ele>1985.473</ele>
        <time>2020-03-03T20:23:48Z</time>
      </trkpt>
      <trkpt lat="44.58672" lon="6.61236">
        <ele>1986.286</ele>
        <time>2020-03-03T20:24:08Z</time>
      </trkpt>
      <trkpt lat="44.58702" lon="6.61302">
        <ele>1991.723</ele>
        <time>2020-03-03T20:24:28Z</time>
      </trkpt>
      <trkpt lat="44.58715" lon="6.61337">
        <ele>1999.542</ele>
        <time>2020-03-03T20:24:48Z</time>
      </trkpt>
      <trkpt lat="44.58739" lon="6.61368">
        <ele>1999.43</ele>
        <time>2020-03-03T20:25:08Z</time>
      </trkpt>
      <trkpt lat="44.58739" lon="6.61402">
        <ele>2008.061</ele>
        <time>2020-03-03T20:25:28Z</time>
      </trkpt>
      <trkpt lat="44.58745" lon="6.61431">
        <ele>2007.853</ele>
        <time>2020-03-03T20:25:48Z</time>
      </trkpt>
      <trkpt lat="44.58748" lon="6.61469">
        <ele>2011.229</ele>
        <time>2020-03-03T20:26:08Z</time>
      </trkpt>
      <trkpt lat="44.58753" lon="6.61487">
        <ele>2011.415</ele>
        <time>2020-03-03T20:26:28Z</time>
      </trkpt>
      <trkpt lat="44.58767" lon="6.61562">
        <ele>2018.265</ele>
        <time>2020-03-03T20:26:48Z</time>
      </trkpt>
      <trkpt lat="44.58767" lon="6.6162">
        <ele>2030.211</ele>
        <time>2020-03-03T20:27:08Z</time>
      </trkpt>
      <trkpt lat="44.58782" lon="6.61677">
        <ele>2027.108</ele>
        <time>2020-03-03T20:27:28Z</time>
      </trkpt>
      <trkpt lat="44.58765" lon="6.61743">
        <ele>2032.815</ele>
        <time>2020-03-03T20:27:48Z</time>
      </trkpt>
      <trkpt lat="44.58753" lon="6.61765">
        <ele>2039.888</ele>
        <time>2020-03-03T20:28:08Z</time>
      </trkpt>
      <trkpt lat="44.58769" lon="6.61786">
        <ele>2038.235</ele>
        <time>2020-03-03T20:28:28Z</time>
      </trkpt>
      <trkpt lat="44.58788" lon="6.61804">
        <ele>2038.744</ele>
        <time>2020-03-03T20:28:48Z</time>
      </trkpt>
      <trkpt lat="44.58794" lon="6.6182">
        <ele>2040.292</ele>
        <time>2020-03-03T20:29:08Z</time>
      </trkpt>
      <trkpt lat="44.58793" lon="6.61853">
        <ele>2046.553</ele>
        <time>2020-03-03T20:29:28Z</time>
      </trkpt>
      <trkpt lat="44.58805" lon="6.61892">
        <ele>2050.985</ele>
        <time>2020-03-03T20:29:48Z</time>
      </trkpt>
      <trkpt lat="44.58817" lon="6.61945">
        <ele>2050.361</ele>
        <time>2020-03-03T20:30:08Z</time>
      </trkpt>
      <trkpt lat="44.58811" lon="6.61961">
        <ele>2046.599</ele>
        <time>2020-03-03T20:30:28Z</time>
      </trkpt>
      <trkpt lat="44.58786" lon="6.61957">
        <ele>2050.107</ele>
        <time>2020-03-03T20:30:48Z</time>
      </trkpt>
      <trkpt lat="44.58767" lon="6.61949">
        <ele>2054.427</ele>
        <time>2020-03-03T20:31:08Z</time>
      </trkpt>
      <trkpt lat="44.58704" lon="6.61949">
        <ele>2063.708</ele>
        <time>2020-03-03T20:31:28Z</time>
      </trkpt>
      <trkpt lat="44.58643" lon="6.61978">
        <ele>2072.463</ele>
        <time>2020-03-03T20:31:48Z</time>
      </trkpt>
      <trkpt lat="44.58613" lon="6.61991">
        <ele>2076.696</ele>
        <time>2020-03-03T20:32:08Z</time>
      </trkpt>
      <trkpt lat="44.58597" lon="6.62023">
        <ele>2078.543</ele>
        <time>2020-03-03T20:32:28Z</time>
      </trkpt>
      <trkpt lat="44.58589" lon="6.62042">
        <ele>2080.712</ele>
        <time>2020-03-03T20:32:48Z</time>
      </trkpt>
      <trkpt lat="44.5857" lon="6.62068">
        <ele>2086.87</ele>
        <time>2020-03-03T20:33:08Z</time>
      </trkpt>
      <trkpt lat="44.58576" lon="6.62095">
        <ele>2086.031</ele>
        <time>2020-03-03T20:33:28Z</time>
      </trkpt>
      <trkpt lat="44.5859" lon="6.62137">
        <ele>2087.763</ele>
        <time>2020-03-03T20:33:48Z</time>
      </trkpt>
      <trkpt lat="44.58604" lon="6.62153">
        <ele>2089.099</ele>
        <time>2020-03-03T20:34:08Z</time>
      </trkpt>
      <trkpt lat="44.5863" lon="6.62204">
        <ele>2097.225</ele>
        <time>2020-03-03T20:34:28Z</time>
      </trkpt>
      <trkpt lat="44.58663" lon="6.62216">
        <ele>2096.326</ele>
        <time>2020-03-03T20:34:48Z</time>
      </trkpt>
      <trkpt lat="44.58683" lon="6.62267">
        <ele>2105.308</ele>
        <time>2020-03-03T20:35:08Z</time>
      </trkpt>
      <trkpt lat="44.58736" lon="6.62288">
        <ele>2112.208</ele>
        <time>2020-03-03T20:35:28Z</time>
      </trkpt>
      <trkpt lat="44.58756" lon="6.62291">
        <ele>2112.036</ele>
        <time>2020-03-03T20:35:48Z</time>
      </trkpt>
      <trkpt lat="44.58811" lon="6.6236">
        <ele>2110.349</ele>
        <time>2020-03-03T20:36:08Z</time>
      </trkpt>
      <trkpt lat="44.58863" lon="6.62413">
        <ele>2114.516</ele>
        <time>2020-03-03T20:36:28Z</time>
      </trkpt>
      <trkpt lat="44.58904" lon="6.62433">
        <ele>2118.375</ele>
        <time>2020-03-03T20:36:48Z</time>
      </trkpt>
      <trkpt lat="44.58952" lon="6.62444">
        <ele>2120.833</ele>
        <time>2020-03-03T20:37:08Z</time>
      </trkpt>
      <trkpt lat="44.58964" lon="6.62466">
        <ele>2122.634</ele>
        <time>2020-03-03T20:37:28Z</time>
      </trkpt>
      <trkpt lat="44.5897" lon="6.62493">
        <ele>2123.276</ele>
        <time>2020-03-03T20:37:48Z</time>
      </trkpt>
      <trkpt lat="44.58966" lon="6.62549">
        <ele>2129.482</ele>
        <time>2020-03-03T20:38:08Z</time>
      </trkpt>
      <trkpt lat="44.58973" lon="6.62591">
        <ele>2130.354</ele>
        <time>2020-03-03T20:38:28Z</time>
      </trkpt>
      <trkpt lat="44.58968" lon="6.62622">
        <ele>2134.256</ele>
        <time>2020-03-03T20:38:48Z</time>
      </trkpt>
      <trkpt lat="44.5896" lon="6.62682">
        <ele>2140.111</ele>
        <time>2020-03-03T20:39:08Z</time>
      </trkpt>
      <trkpt lat="44.58965" lon="6.62716">
        <ele>2140.108</ele>
        <time>2020-03-03T20:39:28Z</time>
      </trkpt>
      <trkpt lat="44.58948" lon="6.6275">
        <ele>2148.729</ele>
        <time>2020-03-03T20:39:48Z</time>
      </trkpt>
      <trkpt lat="44.58946" lon="6.62769">
        <ele>2147.522</ele>
        <time>2020-03-03T20:40:08Z</time>
      </trkpt>
      <trkpt lat="44.5893" lon="6.62801">
        <ele>2155.889</ele>
        <time>2020-03-03T20:40:28Z</time>
      </trkpt>
      <trkpt lat="44.58948" lon="6.62834">
        <ele>2154.438</ele>
        <time>2020-03-03T20:40:48Z</time>
      </trkpt>
      <trkpt lat="44.58955" lon="6.62906">
        <ele>2157.466</ele>
        <time>2020-03-03T20:41:08Z</time>
      </trkpt>
      <trkpt lat="44.58952" lon="6.62942">
        <ele>2163.467</ele>
        <time>2020-03-03T20:41:28Z</time>
      </trkpt>
      <trkpt lat="44.58959" lon="6.62988">
        <ele>2165.719</ele>
        <time>2020-03-03T20:41:48Z</time>
      </trkpt>
      <trkpt lat="44.58964" lon="6.63045">
        <ele>2171.315</ele>
        <time>2020-03-03T20:42:08Z</time>
      </trkpt>
      <trkpt lat="44.58964" lon="6.63094">
        <ele>2176.528</ele>
        <time>2020-03-03T20:42:28Z</time>
      </trkpt>
      <trkpt lat="44.58972" lon="6.63114">
        <ele>2178.289</ele>
        <time>2020-03-03T20:42:48Z</time>
      </trkpt>
      <trkpt lat="44.59012" lon="6.63133">
        <ele>2175.817</ele>
        <time>2020-03-03T20:43:08Z</time>
      </trkpt>
      <trkpt lat="44.58991" lon="6.63213">
        <ele>2185.008</ele>
        <time>2020-03-03T20:43:28Z</time>
      </trkpt>
      <trkpt lat="44.58995" lon="6.63225">
        <ele>2184.176</ele>
        <time>2020-03-03T20:43:48Z</time>
      </trkpt>
      <trkpt lat="44.59007" lon="6.63234">
        <ele>2182.559</ele>
        <time>2020-03-03T20:44:08Z</time>
      </trkpt>
      <trkpt lat="44.59009" lon="6.63261">
        <ele>2183.956</ele>
        <time>2020-03-03T20:44:28Z</time>
      </trkpt>
      <trkpt lat="44.58997" lon="6.63295">
        <ele>2185.325</ele>
        <time>2020-03-03T20:44:48Z</time>
      </trkpt>
      <trkpt lat="44.58981" lon="6.63311">
        <ele>2187.063</ele>
        <time>2020-03-03T20:45:08Z</time>
      </trkpt>
      <trkpt lat="44.58968" lon="6.63307">
        <ele>2190.274</ele>
        <time>2020-03-03T20:45:28Z</time>
      </trkpt>
      <trkpt lat="44.58973" lon="6.63266">
        <ele>2191.216</ele>
        <time>2020-03-03T20:45:48Z</time>
      </trkpt>
      <trkpt lat="44.58962" lon="6.63234">
        <ele>2195.362</ele>
        <time>2020-03-03T20:46:08Z</time>
      </trkpt>
      <trkpt lat="44.58965" lon="6.63182">
        <ele>2192.963</ele>
        <time>2020-03-03T20:46:28Z</time>
      </trkpt>
      <trkpt lat="44.58959" lon="6.63171">
        <ele>2194.144</ele>
        <time>2020-03-03T20:46:48Z</time>
      </trkpt>
      <trkpt lat="44.58946" lon="6.63173">
        <ele>2197.918</ele>
        <time>2020-03-03T20:47:08Z</time>
      </trkpt>
      <trkpt lat="44.58939" lon="6.63195">
        <ele>2202.508</ele>
        <time>2020-03-03T20:47:28Z</time>
      </trkpt>
      <trkpt lat="44.58938" lon="6.63219">
        <ele>2203.01</ele>
        <time>2020-03-03T20:47:48Z</time>
      </trkpt>
      <trkpt lat="44.5892" lon="6.63252">
        <ele>2207.723</ele>
        <time>2020-03-03T20:48:08Z</time>
      </trkpt>
      <trkpt lat="44.58923" lon="6.63282">
        <ele>2205.62</ele>
        <time>2020-03-03T20:48:28Z</time>
      </trkpt>
      <trkpt lat="44.58892" lon="6.63366">
        <ele>2215.099</ele>
        <time>2020-03-03T20:48:48Z</time>
      </trkpt>
      <trkpt lat="44.58852" lon="6.63401">
        <ele>2226.347</ele>
        <time>2020-03-03T20:49:08Z</time>
      </trkpt>
      <trkpt lat="44.58826" lon="6.63458">
        <ele>2231.948</ele>
        <time>2020-03-03T20:49:28Z</time>
      </trkpt>
      <trkpt lat="44.58804" lon="6.63525">
        <ele>2239.82</ele>
        <time>2020-03-03T20:49:48Z</time>
      </trkpt>
      <trkpt lat="44.58825" lon="6.63557">
        <ele>2237.776</ele>
        <time>2020-03-03T20:50:08Z</time>
      </trkpt>
      <trkpt lat="44.58823" lon="6.63586">
        <ele>2242.942</ele>
        <time>2020-03-03T20:50:28Z</time>
      </trkpt>
      <trkpt lat="44.58838" lon="6.6361">
        <ele>2244.122</ele>
        <time>2020-03-03T20:50:48Z</time>
      </trkpt>
      <trkpt lat="44.58819" lon="6.63634">
        <ele>2247.614</ele>
        <time>2020-03-03T20:51:08Z</time>
      </trkpt>
      <trkpt lat="44.58791" lon="6.63678">
        <ele>2248.908</ele>
        <time>2020-03-03T20:51:28Z</time>
      </trkpt>
      <trkpt lat="44.58748" lon="6.63746">
        <ele>2251.528</ele>
        <time>2020-03-03T20:51:48Z</time>
      </trkpt>
      <trkpt lat="44.58718" lon="6.63751">
        <ele>2253.891</ele>
        <time>2020-03-03T20:52:08Z</time>
      </trkpt>
      <trkpt lat="44.58683" lon="6.63796">
        <ele>2257.918</ele>
        <time>2020-03-03T20:52:28Z</time>
      </trkpt>
      <trkpt lat="44.58688" lon="6.63817">
        <ele>2257.667</ele>
        <time>2020-03-03T20:52:48Z</time>
      </trkpt>
      <trkpt lat="44.58708" lon="6.63851">
        <ele>2257.225</ele>
        <time>2020-03-03T20:53:08Z</time>
      </trkpt>
      <trkpt lat="44.58721" lon="6.63901">
        <ele>2260.356</ele>
        <time>2020-03-03T20:53:28Z</time>
      </trkpt>
      <trkpt lat="44.58757" lon="6.63974">
        <ele>2265.498</ele>
        <time>2020-03-03T20:53:48Z</time>
      </trkpt>
      <trkpt lat="44.58778" lon="6.64026">
        <ele>2264.924</ele>
        <time>2020-03-03T20:54:08Z</time>
      </trkpt>
      <trkpt lat="44.58743" lon="6.64094">
        <ele>2267.642</ele>
        <time>2020-03-03T20:54:28Z</time>
      </trkpt>
      <trkpt lat="44.5873" lon="6.6413">
        <ele>2268.822</ele>
        <time>2020-03-03T20:54:48Z</time>
      </trkpt>
      <trkpt lat="44.58721" lon="6.64152">
        <ele>2270.014</ele>
        <time>2020-03-03T20:55:08Z</time>
      </trkpt>
      <trkpt lat="44.58754" lon="6.64163">
        <ele>2269.208</ele>
        <time>2020-03-03T20:55:28Z</time>
      </trkpt>
      <trkpt lat="44.58779" lon="6.64165">
        <ele>2271.648</ele>
        <time>2020-03-03T20:55:48Z</time>
      </trkpt>
      <trkpt lat="44.58802" lon="6.64152">
        <ele>2269.651</ele>
        <time>2020-03-03T20:56:08Z</time>
      </trkpt>
      <trkpt lat="44.58835" lon="6.64172">
        <ele>2272.068</ele>
        <time>2020-03-03T20:56:28Z</time>
      </trkpt>
      <trkpt lat="44.58876" lon="6.64182">
        <ele>2276.187</ele>
        <time>2020-03-03T20:56:48Z</time>
      </trkpt>
      <trkpt lat="44.58884" lon="6.64161">
        <ele>2275.315</ele>
        <time>2020-03-03T20:57:08Z</time>
      </trkpt>
      <trkpt lat="44.58897" lon="6.64115">
        <ele>2272.646</ele>
        <time>2020-03-03T20:57:28Z</time>
      </trkpt>
      <trkpt lat="44.58912" lon="6.64115">
        <ele>2276.348</ele>
        <time>2020-03-03T20:57:48Z</time>
      </trkpt>
      <trkpt lat="44.58932" lon="6.64121">
        <ele>2280.474</ele>
        <time>2020-03-03T20:58:08Z</time>
      </trkpt>
      <trkpt lat="44.58966" lon="6.64107">
        <ele>2282.233</ele>
        <time>2020-03-03T20:58:28Z</time>
      </trkpt>
      <trkpt lat="44.58997" lon="6.64082">
        <ele>2283.223</ele>
        <time>2020-03-03T20:58:48Z</time>
      </trkpt>
      <trkpt lat="44.59024" lon="6.64078">
        <ele>2285.215</ele>
        <time>2020-03-03T20:59:08Z</time>
      </trkpt>
      <trkpt lat="44.59057" lon="6.64081">
        <ele>2287.608</ele>
        <time>2020-03-03T20:59:28Z</time>
      </trkpt>
      <trkpt lat="44.59089" lon="6.64073">
        <ele>2291.487</ele>
        <time>2020-03-03T20:59:48Z</time>
      </trkpt>
      <trkpt lat="44.5911" lon="6.64051">
        <ele>2293.52</ele>
        <time>2020-03-03T21:00:08Z</time>
      </trkpt>
      <trkpt lat="44.59113" lon="6.64025">
        <ele>2292.017</ele>
        <time>2020-03-03T21:00:28Z</time>
      </trkpt>
      <trkpt lat="44.59131" lon="6.64005">
        <ele>2293.696</ele>
        <time>2020-03-03T21:00:48Z</time>
      </trkpt>
      <trkpt lat="44.59174" lon="6.63945">
        <ele>2294.124</ele>
        <time>2020-03-03T21:01:08Z</time>
      </trkpt>
      <trkpt lat="44.59192" lon="6.63942">
        <ele>2296.265</ele>
        <time>2020-03-03T21:01:28Z</time>
      </trkpt>
      <trkpt lat="44.5921" lon="6.63966">
        <ele>2301.777</ele>
        <time>2020-03-03T21:01:48Z</time>
      </trkpt>
      <trkpt lat="44.59224" lon="6.63964">
        <ele>2303.113</ele>
        <time>2020-03-03T21:02:08Z</time>
      </trkpt>
      <trkpt lat="44.59262" lon="6.63915">
        <ele>2305.249</ele>
        <time>2020-03-03T21:02:28Z</time>
      </trkpt>
      <trkpt lat="44.59279" lon="6.63915">
        <ele>2306.702</ele>
        <time>2020-03-03T21:02:48Z</time>
      </trkpt>
      <trkpt lat="44.59287" lon="6.63932">
        <ele>2307.522</ele>
        <time>2020-03-03T21:03:08Z</time>
      </trkpt>
      <trkpt lat="44.59284" lon="6.6396">
        <ele>2310.208</ele>
        <time>2020-03-03T21:03:28Z</time>
      </trkpt>
      <trkpt lat="44.59261" lon="6.63982">
        <ele>2309.948</ele>
        <time>2020-03-03T21:03:48Z</time>
      </trkpt>
      <trkpt lat="44.5927" lon="6.64019">
        <ele>2314.421</ele>
        <time>2020-03-03T21:04:08Z</time>
      </trkpt>
      <trkpt lat="44.59317" lon="6.6405">
        <ele>2323.998</ele>
        <time>2020-03-03T21:04:28Z</time>
      </trkpt>
      <trkpt lat="44.5934" lon="6.64038">
        <ele>2324.717</ele>
        <time>2020-03-03T21:04:48Z</time>
      </trkpt>
      <trkpt lat="44.59364" lon="6.63995">
        <ele>2326.555</ele>
        <time>2020-03-03T21:05:08Z</time>
      </trkpt>
      <trkpt lat="44.59376" lon="6.63991">
        <ele>2327.536</ele>
        <time>2020-03-03T21:05:28Z</time>
      </trkpt>
      <trkpt lat="44.59399" lon="6.63997">
        <ele>2332.848</ele>
        <time>2020-03-03T21:05:48Z</time>
      </trkpt>
      <trkpt lat="44.59452" lon="6.63984">
        <ele>2341.254</ele>
        <time>2020-03-03T21:06:08Z</time>
      </trkpt>
      <trkpt lat="44.59472" lon="6.63934">
        <ele>2338.271</ele>
        <time>2020-03-03T21:06:28Z</time>
      </trkpt>
      <trkpt lat="44.59489" lon="6.63916">
        <ele>2341.441</ele>
        <time>2020-03-03T21:06:48Z</time>
      </trkpt>
      <trkpt lat="44.59565" lon="6.63897">
        <ele>2353.015</ele>
        <time>2020-03-03T21:07:08Z</time>
      </trkpt>
      <trkpt lat="44.5957" lon="6.63907">
        <ele>2356.308</ele>
        <time>2020-03-03T21:07:28Z</time>
      </trkpt>
      <trkpt lat="44.5952" lon="6.63955">
        <ele>2359.751</ele>
        <time>2020-03-03T21:07:48Z</time>
      </trkpt>
      <trkpt lat="44.59526" lon="6.63962">
        <ele>2362.214</ele>
        <time>2020-03-03T21:08:08Z</time>
      </trkpt>
      <trkpt lat="44.59609" lon="6.63926">
        <ele>2372.911</ele>
        <time>2020-03-03T21:08:28Z</time>
      </trkpt>
      <trkpt lat="44.59632" lon="6.63886">
        <ele>2371.48</ele>
        <time>2020-03-03T21:08:48Z</time>
      </trkpt>
      <trkpt lat="44.59656" lon="6.63851">
        <ele>2376.888</ele>
        <time>2020-03-03T21:09:08Z</time>
      </trkpt>
      <trkpt lat="44.59674" lon="6.63818">
        <ele>2378.049</ele>
        <time>2020-03-03T21:09:28Z</time>
      </trkpt>
      <trkpt lat="44.59683" lon="6.63796">
        <ele>2380.061</ele>
        <time>2020-03-03T21:09:48Z</time>
      </trkpt>
      <trkpt lat="44.59684" lon="6.63814">
        <ele>2379.397</ele>
        <time>2020-03-03T21:10:08Z</time>
      </trkpt>
      <trkpt lat="44.59671" lon="6.63884">
        <ele>2384.514</ele>
        <time>2020-03-03T21:10:28Z</time>
      </trkpt>
      <trkpt lat="44.59671" lon="6.63933">
        <ele>2393.554</ele>
        <time>2020-03-03T21:10:48Z</time>
      </trkpt>
      <trkpt lat="44.5966" lon="6.63967">
        <ele>2399.109</ele>
        <time>2020-03-03T21:11:08Z</time>
      </trkpt>
      <trkpt lat="44.5961" lon="6.6403">
        <ele>2404.208</ele>
        <time>2020-03-03T21:11:28Z</time>
      </trkpt>
      <trkpt lat="44.59576" lon="6.64071">
        <ele>2405.935</ele>
        <time>2020-03-03T21:11:48Z</time>
      </trkpt>
      <trkpt lat="44.59567" lon="6.64095">
        <ele>2405.888</ele>
        <time>2020-03-03T21:12:08Z</time>
      </trkpt>
      <trkpt lat="44.5958" lon="6.64128">
        <ele>2407.145</ele>
        <time>2020-03-03T21:12:28Z</time>
      </trkpt>
      <trkpt lat="44.59581" lon="6.64165">
        <ele>2410.494</ele>
        <time>2020-03-03T21:12:48Z</time>
      </trkpt>
      <trkpt lat="44.59568" lon="6.64219">
        <ele>2415.792</ele>
        <time>2020-03-03T21:13:08Z</time>
      </trkpt>
      <trkpt lat="44.5954" lon="6.64275">
        <ele>2421.493</ele>
        <time>2020-03-03T21:13:28Z</time>
      </trkpt>
      <trkpt lat="44.59493" lon="6.64339">
        <ele>2424.235</ele>
        <time>2020-03-03T21:13:48Z</time>
      </trkpt>
      <trkpt lat="44.59461" lon="6.64371">
        <ele>2425.591</ele>
        <time>2020-03-03T21:14:08Z</time>
      </trkpt>
      <trkpt lat="44.59441" lon="6.64401">
        <ele>2428.499</ele>
        <time>2020-03-03T21:14:28Z</time>
      </trkpt>
      <trkpt lat="44.59376" lon="6.64422">
        <ele>2433.307</ele>
        <time>2020-03-03T21:14:48Z</time>
      </trkpt>
      <trkpt lat="44.59336" lon="6.64432">
        <ele>2432.227</ele>
        <time>2020-03-03T21:15:08Z</time>
      </trkpt>
      <trkpt lat="44.5931" lon="6.64466">
        <ele>2434.308</ele>
        <time>2020-03-03T21:15:28Z</time>
      </trkpt>
      <trkpt lat="44.59293" lon="6.64516">
        <ele>2437.963</ele>
        <time>2020-03-03T21:15:48Z</time>
      </trkpt>
      <trkpt lat="44.59286" lon="6.64573">
        <ele>2441.826</ele>
        <time>2020-03-03T21:16:08Z</time>
      </trkpt>
      <trkpt lat="44.59288" lon="6.6462">
        <ele>2445.823</ele>
        <time>2020-03-03T21:16:28Z</time>
      </trkpt>
      <trkpt lat="44.59249" lon="6.64728">
        <ele>2456.012</ele>
        <time>2020-03-03T21:16:48Z</time>
      </trkpt>
      <trkpt lat="44.59205" lon="6.64778">
        <ele>2464.21</ele>
        <time>2020-03-03T21:17:08Z</time>
      </trkpt>
      <trkpt lat="44.5916" lon="6.64804">
        <ele>2463.841</ele>
        <time>2020-03-03T21:17:28Z</time>
      </trkpt>
      <trkpt lat="44.59114" lon="6.64864">
        <ele>2468.083</ele>
        <time>2020-03-03T21:17:48Z</time>
      </trkpt>
      <trkpt lat="44.59074" lon="6.64898">
        <ele>2466.479</ele>
        <time>2020-03-03T21:18:08Z</time>
      </trkpt>
      <trkpt lat="44.59067" lon="6.64909">
        <ele>2464.511</ele>
        <time>2020-03-03T21:18:28Z</time>
      </trkpt>
      <trkpt lat="44.59019" lon="6.6493">
        <ele>2464.321</ele>
        <time>2020-03-03T21:18:48Z</time>
      </trkpt>
      <trkpt lat="44.5898" lon="6.64959">
        <ele>2467.403</ele>
        <time>2020-03-03T21:19:08Z</time>
      </trkpt>
      <trkpt lat="44.5896" lon="6.64979">
        <ele>2471.108</ele>
        <time>2020-03-03T21:19:28Z</time>
      </trkpt>
      <trkpt lat="44.58951" lon="6.64974">
        <ele>2474.045</ele>
        <time>2020-03-03T21:19:48Z</time>
      </trkpt>
      <trkpt lat="44.58943" lon="6.64955">
        <ele>2472.488</ele>
        <time>2020-03-03T21:20:08Z</time>
      </trkpt>
      <trkpt lat="44.58905" lon="6.64954">
        <ele>2472.475</ele>
        <time>2020-03-03T21:20:28Z</time>
      </trkpt>
      <trkpt lat="44.58847" lon="6.64967">
        <ele>2471.994</ele>
        <time>2020-03-03T21:20:48Z</time>
      </trkpt>
      <trkpt lat="44.588" lon="6.64956">
        <ele>2466.752</ele>
        <time>2020-03-03T21:21:08Z</time>
      </trkpt>
      <trkpt lat="44.5874" lon="6.64958">
        <ele>2465.043</ele>
        <time>2020-03-03T21:21:28Z</time>
      </trkpt>
      <trkpt lat="44.58715" lon="6.64942">
        <ele>2459.365</ele>
        <time>2020-03-03T21:21:48Z</time>
      </trkpt>
      <trkpt lat="44.58668" lon="6.64952">
        <ele>2458.011</ele>
        <time>2020-03-03T21:22:08Z</time>
      </trkpt>
      <trkpt lat="44.58642" lon="6.6495">
        <ele>2456.282</ele>
        <time>2020-03-03T21:22:28Z</time>
      </trkpt>
      <trkpt lat="44.58609" lon="6.64937">
        <ele>2454.043</ele>
        <time>2020-03-03T21:22:48Z</time>
      </trkpt>
      <trkpt lat="44.58587" lon="6.64944">
        <ele>2451.517</ele>
        <time>2020-03-03T21:23:08Z</time>
      </trkpt>
      <trkpt lat="44.5855" lon="6.64981">
        <ele>2451.608</ele>
        <time>2020-03-03T21:23:28Z</time>
      </trkpt>
      <trkpt lat="44.58513" lon="6.64987">
        <ele>2448.422</ele>
        <time>2020-03-03T21:23:48Z</time>
      </trkpt>
      <trkpt lat="44.58488" lon="6.64996">
        <ele>2449.375</ele>
        <time>2020-03-03T21:24:08Z</time>
      </trkpt>
      <trkpt lat="44.58445" lon="6.6499">
        <ele>2445.052</ele>
        <time>2020-03-03T21:24:28Z</time>
      </trkpt>
      <trkpt lat="44.58417" lon="6.64968">
        <ele>2442.441</ele>
        <time>2020-03-03T21:24:48Z</time>
      </trkpt>
      <trkpt lat="44.58361" lon="6.64967">
        <ele>2440.559</ele>
        <time>2020-03-03T21:25:08Z</time>
      </trkpt>
      <trkpt lat="44.58401" lon="6.64994">
        <ele>2447.52</ele>
        <time>2020-03-03T21:25:28Z</time>
      </trkpt>
      <trkpt lat="44.58433" lon="6.65014">
        <ele>2454.312</ele>
        <time>2020-03-03T21:25:48Z</time>
      </trkpt>
      <trkpt lat="44.58478" lon="6.65027">
        <ele>2462.128</ele>
        <time>2020-03-03T21:26:08Z</time>
      </trkpt>
      <trkpt lat="44.58501" lon="6.6504">
        <ele>2467.067</ele>
        <time>2020-03-03T21:26:28Z</time>
      </trkpt>
      <trkpt lat="44.58532" lon="6.65055">
        <ele>2470.981</ele>
        <time>2020-03-03T21:26:48Z</time>
      </trkpt>
      <trkpt lat="44.58608" lon="6.65049">
        <ele>2480.019</ele>
        <time>2020-03-03T21:27:08Z</time>
      </trkpt>
      <trkpt lat="44.58647" lon="6.65055">
        <ele>2489.508</ele>
        <time>2020-03-03T21:27:28Z</time>
      </trkpt>
      <trkpt lat="44.58682" lon="6.65045">
        <ele>2495.44</ele>
        <time>2020-03-03T21:27:48Z</time>
      </trkpt>
      <trkpt lat="44.58719" lon="6.65044">
        <ele>2499.733</ele>
        <time>2020-03-03T21:28:08Z</time>
      </trkpt>
      <trkpt lat="44.58776" lon="6.65056">
        <ele>2504.44</ele>
        <time>2020-03-03T21:28:28Z</time>
      </trkpt>
      <trkpt lat="44.58813" lon="6.65047">
        <ele>2506.639</ele>
        <time>2020-03-03T21:28:48Z</time>
      </trkpt>
      <trkpt lat="44.58842" lon="6.65066">
        <ele>2508.727</ele>
        <time>2020-03-03T21:29:08Z</time>
      </trkpt>
      <trkpt lat="44.58831" lon="6.65192">
        <ele>2512.638</ele>
        <time>2020-03-03T21:29:28Z</time>
      </trkpt>
      <trkpt lat="44.58807" lon="6.65255">
        <ele>2523.31</ele>
        <time>2020-03-03T21:29:48Z</time>
      </trkpt>
      <trkpt lat="44.58804" lon="6.65321">
        <ele>2524.096</ele>
        <time>2020-03-03T21:30:08Z</time>
      </trkpt>
      <trkpt lat="44.58756" lon="6.65446">
        <ele>2533.816</ele>
        <time>2020-03-03T21:30:28Z</time>
      </trkpt>
      <trkpt lat="44.58764" lon="6.65367">
        <ele>2535.376</ele>
        <time>2020-03-03T21:30:48Z</time>
      </trkpt>
      <trkpt lat="44.58774" lon="6.65316">
        <ele>2540.813</ele>
        <time>2020-03-03T21:31:08Z</time>
      </trkpt>
      <trkpt lat="44.58747" lon="6.65225">
        <ele>2554.208</ele>
        <time>2020-03-03T21:31:28Z</time>
      </trkpt>
      <trkpt lat="44.58719" lon="6.65236">
        <ele>2562.665</ele>
        <time>2020-03-03T21:31:48Z</time>
      </trkpt>
      <trkpt lat="44.58686" lon="6.6529">
        <ele>2562.918</ele>
        <time>2020-03-03T21:32:08Z</time>
      </trkpt>
      <trkpt lat="44.58692" lon="6.65328">
        <ele>2567.675</ele>
        <time>2020-03-03T21:32:28Z</time>
      </trkpt>
      <trkpt lat="44.58689" lon="6.65328">
        <ele>2567.074</ele>
        <time>2020-03-03T21:32:48Z</time>
      </trkpt>
      <trkpt lat="44.58683" lon="6.65287">
        <ele>2561.572</ele>
        <time>2020-03-03T21:33:08Z</time>
      </trkpt>
      <trkpt lat="44.58717" lon="6.65231">
        <ele>2561.353</ele>
        <time>2020-03-03T21:33:28Z</time>
      </trkpt>
      <trkpt lat="44.58749" lon="6.65219">
        <ele>2553.445</ele>
        <time>2020-03-03T21:33:48Z</time>
      </trkpt>
      <trkpt lat="44.58776" lon="6.65316">
        <ele>2539.441</ele>
        <time>2020-03-03T21:34:08Z</time>
      </trkpt>
      <trkpt lat="44.58766" lon="6.65367">
        <ele>2534.325</ele>
        <time>2020-03-03T21:34:28Z</time>
      </trkpt>
      <trkpt lat="44.58759" lon="6.65429">
        <ele>2534.226</ele>
        <time>2020-03-03T21:34:48Z</time>
      </trkpt>
      <trkpt lat="44.58801" lon="6.6532">
        <ele>2525.308</ele>
        <time>2020-03-03T21:35:08Z</time>
      </trkpt>
      <trkpt lat="44.58805" lon="6.65252">
        <ele>2524.108</ele>
        <time>2020-03-03T21:35:28Z</time>
      </trkpt>
      <trkpt lat="44.58828" lon="6.6519">
        <ele>2513.846</ele>
        <time>2020-03-03T21:35:48Z</time>
      </trkpt>
      <trkpt lat="44.5884" lon="6.6507">
        <ele>2510.379</ele>
        <time>2020-03-03T21:36:08Z</time>
      </trkpt>
      <trkpt lat="44.58813" lon="6.65052">
        <ele>2508.386</ele>
        <time>2020-03-03T21:36:28Z</time>
      </trkpt>
      <trkpt lat="44.58776" lon="6.65059">
        <ele>2505.735</ele>
        <time>2020-03-03T21:36:48Z</time>
      </trkpt>
      <trkpt lat="44.58717" lon="6.65046">
        <ele>2500.723</ele>
        <time>2020-03-03T21:37:08Z</time>
      </trkpt>
      <trkpt lat="44.58684" lon="6.65049">
        <ele>2498.174</ele>
        <time>2020-03-03T21:37:28Z</time>
      </trkpt>
      <trkpt lat="44.58645" lon="6.6506">
        <ele>2490.046</ele>
        <time>2020-03-03T21:37:48Z</time>
      </trkpt>
      <trkpt lat="44.58604" lon="6.65054">
        <ele>2480.112</ele>
        <time>2020-03-03T21:38:08Z</time>
      </trkpt>
      <trkpt lat="44.58531" lon="6.65058">
        <ele>2471.756</ele>
        <time>2020-03-03T21:38:28Z</time>
      </trkpt>
      <trkpt lat="44.58477" lon="6.6503">
        <ele>2462.859</ele>
        <time>2020-03-03T21:38:48Z</time>
      </trkpt>
      <trkpt lat="44.58427" lon="6.65017">
        <ele>2455.514</ele>
        <time>2020-03-03T21:39:08Z</time>
      </trkpt>
      <trkpt lat="44.58355" lon="6.64968">
        <ele>2439.108</ele>
        <time>2020-03-03T21:39:28Z</time>
      </trkpt>
      <trkpt lat="44.58292" lon="6.64968">
        <ele>2429.539</ele>
        <time>2020-03-03T21:39:48Z</time>
      </trkpt>
      <trkpt lat="44.58274" lon="6.64965">
        <ele>2427.762</ele>
        <time>2020-03-03T21:40:08Z</time>
      </trkpt>
      <trkpt lat="44.58259" lon="6.64942">
        <ele>2422.359</ele>
        <time>2020-03-03T21:40:28Z</time>
      </trkpt>
      <trkpt lat="44.58235" lon="6.64924">
        <ele>2416.678</ele>
        <time>2020-03-03T21:40:48Z</time>
      </trkpt>
      <trkpt lat="44.58217" lon="6.64919">
        <ele>2415.266</ele>
        <time>2020-03-03T21:41:08Z</time>
      </trkpt>
      <trkpt lat="44.582" lon="6.64929">
        <ele>2415.317</ele>
        <time>2020-03-03T21:41:28Z</time>
      </trkpt>
      <trkpt lat="44.58176" lon="6.64944">
        <ele>2413.789</ele>
        <time>2020-03-03T21:41:48Z</time>
      </trkpt>
      <trkpt lat="44.5815" lon="6.64937">
        <ele>2407.995</ele>
        <time>2020-03-03T21:42:08Z</time>
      </trkpt>
      <trkpt lat="44.58133" lon="6.64912">
        <ele>2403.466</ele>
        <time>2020-03-03T21:42:28Z</time>
      </trkpt>
      <trkpt lat="44.58115" lon="6.64901">
        <ele>2399.929</ele>
        <time>2020-03-03T21:42:48Z</time>
      </trkpt>
      <trkpt lat="44.58088" lon="6.64896">
        <ele>2397.621</ele>
        <time>2020-03-03T21:43:08Z</time>
      </trkpt>
      <trkpt lat="44.58067" lon="6.64884">
        <ele>2394.108</ele>
        <time>2020-03-03T21:43:28Z</time>
      </trkpt>
      <trkpt lat="44.58041" lon="6.64879">
        <ele>2392.29</ele>
        <time>2020-03-03T21:43:48Z</time>
      </trkpt>
      <trkpt lat="44.58028" lon="6.64887">
        <ele>2389.513</ele>
        <time>2020-03-03T21:44:08Z</time>
      </trkpt>
      <trkpt lat="44.58018" lon="6.64904">
        <ele>2389.99</ele>
        <time>2020-03-03T21:44:28Z</time>
      </trkpt>
      <trkpt lat="44.58001" lon="6.64938">
        <ele>2385.089</ele>
        <time>2020-03-03T21:44:48Z</time>
      </trkpt>
      <trkpt lat="44.57979" lon="6.6495">
        <ele>2381.597</ele>
        <time>2020-03-03T21:45:08Z</time>
      </trkpt>
      <trkpt lat="44.57942" lon="6.64957">
        <ele>2378.588</ele>
        <time>2020-03-03T21:45:28Z</time>
      </trkpt>
      <trkpt lat="44.57922" lon="6.64958">
        <ele>2377.42</ele>
        <time>2020-03-03T21:45:48Z</time>
      </trkpt>
      <trkpt lat="44.5788" lon="6.64969">
        <ele>2375.396</ele>
        <time>2020-03-03T21:46:08Z</time>
      </trkpt>
      <trkpt lat="44.57847" lon="6.64969">
        <ele>2372.581</ele>
        <time>2020-03-03T21:46:28Z</time>
      </trkpt>
      <trkpt lat="44.57826" lon="6.64957">
        <ele>2372.761</ele>
        <time>2020-03-03T21:46:48Z</time>
      </trkpt>
      <trkpt lat="44.57815" lon="6.64949">
        <ele>2371.617</ele>
        <time>2020-03-03T21:47:08Z</time>
      </trkpt>
      <trkpt lat="44.57802" lon="6.64948">
        <ele>2369.308</ele>
        <time>2020-03-03T21:47:28Z</time>
      </trkpt>
      <trkpt lat="44.57765" lon="6.64948">
        <ele>2365.082</ele>
        <time>2020-03-03T21:47:48Z</time>
      </trkpt>
      <trkpt lat="44.57712" lon="6.64907">
        <ele>2357.325</ele>
        <time>2020-03-03T21:48:08Z</time>
      </trkpt>
      <trkpt lat="44.57686" lon="6.64901">
        <ele>2353.852</ele>
        <time>2020-03-03T21:48:28Z</time>
      </trkpt>
      <trkpt lat="44.57645" lon="6.64894">
        <ele>2352.871</ele>
        <time>2020-03-03T21:48:48Z</time>
      </trkpt>
      <trkpt lat="44.5762" lon="6.64905">
        <ele>2349.049</ele>
        <time>2020-03-03T21:49:08Z</time>
      </trkpt>
      <trkpt lat="44.57525" lon="6.64906">
        <ele>2340.81</ele>
        <time>2020-03-03T21:49:28Z</time>
      </trkpt>
      <trkpt lat="44.57485" lon="6.64914">
        <ele>2336.492</ele>
        <time>2020-03-03T21:49:48Z</time>
      </trkpt>
      <trkpt lat="44.57361" lon="6.64994">
        <ele>2321.018</ele>
        <time>2020-03-03T21:50:08Z</time>
      </trkpt>
      <trkpt lat="44.57333" lon="6.65027">
        <ele>2319.237</ele>
        <time>2020-03-03T21:50:28Z</time>
      </trkpt>
      <trkpt lat="44.57304" lon="6.65045">
        <ele>2320.349</ele>
        <time>2020-03-03T21:50:48Z</time>
      </trkpt>
      <trkpt lat="44.57273" lon="6.65107">
        <ele>2317.213</ele>
        <time>2020-03-03T21:51:08Z</time>
      </trkpt>
      <trkpt lat="44.57256" lon="6.65166">
        <ele>2313.308</ele>
        <time>2020-03-03T21:51:28Z</time>
      </trkpt>
      <trkpt lat="44.57204" lon="6.65272">
        <ele>2306.127</ele>
        <time>2020-03-03T21:51:48Z</time>
      </trkpt>
      <trkpt lat="44.57155" lon="6.65385">
        <ele>2298.92</ele>
        <time>2020-03-03T21:52:08Z</time>
      </trkpt>
      <trkpt lat="44.57163" lon="6.65453">
        <ele>2291.877</ele>
        <time>2020-03-03T21:52:28Z</time>
      </trkpt>
      <trkpt lat="44.57155" lon="6.6549">
        <ele>2286.976</ele>
        <time>2020-03-03T21:52:48Z</time>
      </trkpt>
      <trkpt lat="44.57145" lon="6.6553">
        <ele>2284.584</ele>
        <time>2020-03-03T21:53:08Z</time>
      </trkpt>
      <trkpt lat="44.57148" lon="6.65578">
        <ele>2278.825</ele>
        <time>2020-03-03T21:53:28Z</time>
      </trkpt>
      <trkpt lat="44.57115" lon="6.65625">
        <ele>2272.667</ele>
        <time>2020-03-03T21:53:48Z</time>
      </trkpt>
      <trkpt lat="44.57052" lon="6.65662">
        <ele>2266.463</ele>
        <time>2020-03-03T21:54:08Z</time>
      </trkpt>
      <trkpt lat="44.57017" lon="6.65668">
        <ele>2263.113</ele>
        <time>2020-03-03T21:54:28Z</time>
      </trkpt>
      <trkpt lat="44.56985" lon="6.65689">
        <ele>2259.543</ele>
        <time>2020-03-03T21:54:48Z</time>
      </trkpt>
      <trkpt lat="44.56955" lon="6.65733">
        <ele>2252.107</ele>
        <time>2020-03-03T21:55:08Z</time>
      </trkpt>
      <trkpt lat="44.56926" lon="6.65805">
        <ele>2251.308</ele>
        <time>2020-03-03T21:55:28Z</time>
      </trkpt>
      <trkpt lat="44.56923" lon="6.65852">
        <ele>2248.585</ele>
        <time>2020-03-03T21:55:48Z</time>
      </trkpt>
      <trkpt lat="44.56866" lon="6.66006">
        <ele>2237.598</ele>
        <time>2020-03-03T21:56:08Z</time>
      </trkpt>
      <trkpt lat="44.5687" lon="6.66054">
        <ele>2232.525</ele>
        <time>2020-03-03T21:56:28Z</time>
      </trkpt>
      <trkpt lat="44.56861" lon="6.66066">
        <ele>2231.014</ele>
        <time>2020-03-03T21:56:48Z</time>
      </trkpt>
      <trkpt lat="44.5682" lon="6.66052">
        <ele>2225.082</ele>
        <time>2020-03-03T21:57:08Z</time>
      </trkpt>
      <trkpt lat="44.56786" lon="6.66064">
        <ele>2219.783</ele>
        <time>2020-03-03T21:57:28Z</time>
      </trkpt>
      <trkpt lat="44.56798" lon="6.66106">
        <ele>2212.735</ele>
        <time>2020-03-03T21:57:48Z</time>
      </trkpt>
      <trkpt lat="44.56815" lon="6.66246">
        <ele>2206.671</ele>
        <time>2020-03-03T21:58:08Z</time>
      </trkpt>
      <trkpt lat="44.56806" lon="6.6628">
        <ele>2204.913</ele>
        <time>2020-03-03T21:58:28Z</time>
      </trkpt>
      <trkpt lat="44.56771" lon="6.66344">
        <ele>2192.243</ele>
        <time>2020-03-03T21:58:48Z</time>
      </trkpt>
      <trkpt lat="44.56762" lon="6.6639">
        <ele>2184.207</ele>
        <time>2020-03-03T21:59:08Z</time>
      </trkpt>
      <trkpt lat="44.56767" lon="6.66417">
        <ele>2181.608</ele>
        <time>2020-03-03T21:59:28Z</time>
      </trkpt>
      <trkpt lat="44.56867" lon="6.66479">
        <ele>2179.385</ele>
        <time>2020-03-03T21:59:48Z</time>
      </trkpt>
      <trkpt lat="44.56882" lon="6.66516">
        <ele>2176.858</ele>
        <time>2020-03-03T22:00:08Z</time>
      </trkpt>
      <trkpt lat="44.5693" lon="6.6658">
        <ele>2172.155</ele>
        <time>2020-03-03T22:00:28Z</time>
      </trkpt>
      <trkpt lat="44.56935" lon="6.66597">
        <ele>2168.864</ele>
        <time>2020-03-03T22:00:48Z</time>
      </trkpt>
      <trkpt lat="44.56919" lon="6.66611">
        <ele>2163.492</ele>
        <time>2020-03-03T22:01:08Z</time>
      </trkpt>
      <trkpt lat="44.56895" lon="6.66609">
        <ele>2159.693</ele>
        <time>2020-03-03T22:01:28Z</time>
      </trkpt>
      <trkpt lat="44.56873" lon="6.66592">
        <ele>2160.625</ele>
        <time>2020-03-03T22:01:48Z</time>
      </trkpt>
      <trkpt lat="44.56832" lon="6.66597">
        <ele>2155.891</ele>
        <time>2020-03-03T22:02:08Z</time>
      </trkpt>
      <trkpt lat="44.56795" lon="6.66603">
        <ele>2148.746</ele>
        <time>2020-03-03T22:02:28Z</time>
      </trkpt>
      <trkpt lat="44.56811" lon="6.66651">
        <ele>2140.588</ele>
        <time>2020-03-03T22:02:48Z</time>
      </trkpt>
      <trkpt lat="44.56835" lon="6.66673">
        <ele>2139.016</ele>
        <time>2020-03-03T22:03:08Z</time>
      </trkpt>
      <trkpt lat="44.56871" lon="6.66679">
        <ele>2135.208</ele>
        <time>2020-03-03T22:03:28Z</time>
      </trkpt>
      <trkpt lat="44.56908" lon="6.66725">
        <ele>2128.028</ele>
        <time>2020-03-03T22:03:48Z</time>
      </trkpt>
      <trkpt lat="44.56936" lon="6.66741">
        <ele>2126.111</ele>
        <time>2020-03-03T22:04:08Z</time>
      </trkpt>
      <trkpt lat="44.56926" lon="6.66749">
        <ele>2125.498</ele>
        <time>2020-03-03T22:04:28Z</time>
      </trkpt>
      <trkpt lat="44.5689" lon="6.66737">
        <ele>2125.447</ele>
        <time>2020-03-03T22:04:48Z</time>
      </trkpt>
      <trkpt lat="44.56881" lon="6.66753">
        <ele>2121.735</ele>
        <time>2020-03-03T22:05:08Z</time>
      </trkpt>
      <trkpt lat="44.5689" lon="6.66845">
        <ele>2108.246</ele>
        <time>2020-03-03T22:05:28Z</time>
      </trkpt>
      <trkpt lat="44.5694" lon="6.66999">
        <ele>2094.698</ele>
        <time>2020-03-03T22:05:48Z</time>
      </trkpt>
      <trkpt lat="44.5695" lon="6.67033">
        <ele>2090.714</ele>
        <time>2020-03-03T22:06:08Z</time>
      </trkpt>
      <trkpt lat="44.5697" lon="6.67056">
        <ele>2088.626</ele>
        <time>2020-03-03T22:06:28Z</time>
      </trkpt>
      <trkpt lat="44.56978" lon="6.67081">
        <ele>2083.947</ele>
        <time>2020-03-03T22:06:48Z</time>
      </trkpt>
      <trkpt lat="44.56943" lon="6.67106">
        <ele>2078.511</ele>
        <time>2020-03-03T22:07:08Z</time>
      </trkpt>
      <trkpt lat="44.56938" lon="6.67138">
        <ele>2073.208</ele>
        <time>2020-03-03T22:07:28Z</time>
      </trkpt>
      <trkpt lat="44.56951" lon="6.67174">
        <ele>2067.416</ele>
        <time>2020-03-03T22:07:48Z</time>
      </trkpt>
      <trkpt lat="44.56976" lon="6.67201">
        <ele>2062.989</ele>
        <time>2020-03-03T22:08:08Z</time>
      </trkpt>
      <trkpt lat="44.57002" lon="6.67213">
        <ele>2061.186</ele>
        <time>2020-03-03T22:08:28Z</time>
      </trkpt>
      <trkpt lat="44.57006" lon="6.67234">
        <ele>2057.925</ele>
        <time>2020-03-03T22:08:48Z</time>
      </trkpt>
      <trkpt lat="44.56981" lon="6.6727">
        <ele>2049.183</ele>
        <time>2020-03-03T22:09:08Z</time>
      </trkpt>
      <trkpt lat="44.56989" lon="6.67286">
        <ele>2045.744</ele>
        <time>2020-03-03T22:09:28Z</time>
      </trkpt>
      <trkpt lat="44.5702" lon="6.67298">
        <ele>2045.336</ele>
        <time>2020-03-03T22:09:48Z</time>
      </trkpt>
      <trkpt lat="44.57023" lon="6.67313">
        <ele>2041.262</ele>
        <time>2020-03-03T22:10:08Z</time>
      </trkpt>
      <trkpt lat="44.56982" lon="6.67325">
        <ele>2030.123</ele>
        <time>2020-03-03T22:10:28Z</time>
      </trkpt>
      <trkpt lat="44.56888" lon="6.67285">
        <ele>2022.483</ele>
        <time>2020-03-03T22:10:48Z</time>
      </trkpt>
      <trkpt lat="44.5687" lon="6.6731">
        <ele>2023.111</ele>
        <time>2020-03-03T22:11:08Z</time>
      </trkpt>
      <trkpt lat="44.56848" lon="6.6737">
        <ele>2018.008</ele>
        <time>2020-03-03T22:11:28Z</time>
      </trkpt>
      <trkpt lat="44.5682" lon="6.674">
        <ele>2012.586</ele>
        <time>2020-03-03T22:11:48Z</time>
      </trkpt>
      <trkpt lat="44.56788" lon="6.67425">
        <ele>2007.719</ele>
        <time>2020-03-03T22:12:08Z</time>
      </trkpt>
      <trkpt lat="44.56784" lon="6.6746">
        <ele>2005.966</ele>
        <time>2020-03-03T22:12:28Z</time>
      </trkpt>
      <trkpt lat="44.56796" lon="6.67515">
        <ele>2005.455</ele>
        <time>2020-03-03T22:12:48Z</time>
      </trkpt>
      <trkpt lat="44.56794" lon="6.67566">
        <ele>2004.093</ele>
        <time>2020-03-03T22:13:08Z</time>
      </trkpt>
      <trkpt lat="44.56768" lon="6.67663">
        <ele>1995.334</ele>
        <time>2020-03-03T22:13:28Z</time>
      </trkpt>
      <trkpt lat="44.56755" lon="6.67729">
        <ele>1989.896</ele>
        <time>2020-03-03T22:13:48Z</time>
      </trkpt>
      <trkpt lat="44.56754" lon="6.67762">
        <ele>1984.592</ele>
        <time>2020-03-03T22:14:08Z</time>
      </trkpt>
      <trkpt lat="44.56725" lon="6.67838">
        <ele>1979.167</ele>
        <time>2020-03-03T22:14:28Z</time>
      </trkpt>
      <trkpt lat="44.56673" lon="6.67931">
        <ele>1968.281</ele>
        <time>2020-03-03T22:14:48Z</time>
      </trkpt>
      <trkpt lat="44.56608" lon="6.68002">
        <ele>1958.419</ele>
        <time>2020-03-03T22:15:08Z</time>
      </trkpt>
      <trkpt lat="44.56587" lon="6.68044">
        <ele>1958.208</ele>
        <time>2020-03-03T22:15:28Z</time>
      </trkpt>
      <trkpt lat="44.56589" lon="6.68092">
        <ele>1954.15</ele>
        <time>2020-03-03T22:15:48Z</time>
      </trkpt>
      <trkpt lat="44.56581" lon="6.6813">
        <ele>1953.363</ele>
        <time>2020-03-03T22:16:08Z</time>
      </trkpt>
      <trkpt lat="44.56572" lon="6.68161">
        <ele>1955.27</ele>
        <time>2020-03-03T22:16:28Z</time>
      </trkpt>
      <trkpt lat="44.56588" lon="6.68216">
        <ele>1950.539</ele>
        <time>2020-03-03T22:16:48Z</time>
      </trkpt>
      <trkpt lat="44.56616" lon="6.68299">
        <ele>1940.617</ele>
        <time>2020-03-03T22:17:08Z</time>
      </trkpt>
      <trkpt lat="44.5664" lon="6.68329">
        <ele>1936.638</ele>
        <time>2020-03-03T22:17:28Z</time>
      </trkpt>
      <trkpt lat="44.56681" lon="6.6836">
        <ele>1929.88</ele>
        <time>2020-03-03T22:17:48Z</time>
      </trkpt>
      <trkpt lat="44.56702" lon="6.68392">
        <ele>1930.586</ele>
        <time>2020-03-03T22:18:08Z</time>
      </trkpt>
      <trkpt lat="44.56729" lon="6.68403">
        <ele>1926.443</ele>
        <time>2020-03-03T22:18:28Z</time>
      </trkpt>
      <trkpt lat="44.56755" lon="6.6842">
        <ele>1923.464</ele>
        <time>2020-03-03T22:18:48Z</time>
      </trkpt>
      <trkpt lat="44.56742" lon="6.68475">
        <ele>1925.11</ele>
        <time>2020-03-03T22:19:08Z</time>
      </trkpt>
      <trkpt lat="44.56713" lon="6.68487">
        <ele>1928.508</ele>
        <time>2020-03-03T22:19:28Z</time>
      </trkpt>
      <trkpt lat="44.56712" lon="6.685">
        <ele>1928.458</ele>
        <time>2020-03-03T22:19:48Z</time>
      </trkpt>
      <trkpt lat="44.56685" lon="6.68528">
        <ele>1929.071</ele>
        <time>2020-03-03T22:20:08Z</time>
      </trkpt>
      <trkpt lat="44.56645" lon="6.6859">
        <ele>1930.958</ele>
        <time>2020-03-03T22:20:28Z</time>
      </trkpt>
      <trkpt lat="44.56565" lon="6.68669">
        <ele>1931.417</ele>
        <time>2020-03-03T22:20:48Z</time>
      </trkpt>
      <trkpt lat="44.56504" lon="6.68748">
        <ele>1936.825</ele>
        <time>2020-03-03T22:21:08Z</time>
      </trkpt>
      <trkpt lat="44.56417" lon="6.6877">
        <ele>1942.296</ele>
        <time>2020-03-03T22:21:28Z</time>
      </trkpt>
      <trkpt lat="44.5635" lon="6.68855">
        <ele>1951.828</ele>
        <time>2020-03-03T22:21:48Z</time>
      </trkpt>
      <trkpt lat="44.56292" lon="6.68931">
        <ele>1949.994</ele>
        <time>2020-03-03T22:22:08Z</time>
      </trkpt>
      <trkpt lat="44.56178" lon="6.68974">
        <ele>1946.693</ele>
        <time>2020-03-03T22:22:28Z</time>
      </trkpt>
      <trkpt lat="44.56045" lon="6.69084">
        <ele>1952.865</ele>
        <time>2020-03-03T22:22:48Z</time>
      </trkpt>
      <trkpt lat="44.5602" lon="6.69166">
        <ele>1959.821</ele>
        <time>2020-03-03T22:23:08Z</time>
      </trkpt>
      <trkpt lat="44.55993" lon="6.69213">
        <ele>1969.208</ele>
        <time>2020-03-03T22:23:28Z</time>
      </trkpt>
      <trkpt lat="44.55912" lon="6.6929">
        <ele>1980.493</ele>
        <time>2020-03-03T22:23:48Z</time>
      </trkpt>
      <trkpt lat="44.55745" lon="6.69424">
        <ele>1990.056</ele>
        <time>2020-03-03T22:24:08Z</time>
      </trkpt>
      <trkpt lat="44.55699" lon="6.69519">
        <ele>1986.633</ele>
        <time>2020-03-03T22:24:28Z</time>
      </trkpt>
      <trkpt lat="44.55637" lon="6.69732">
        <ele>1989.272</ele>
        <time>2020-03-03T22:24:48Z</time>
      </trkpt>
      <trkpt lat="44.55571" lon="6.69826">
        <ele>1991.85</ele>
        <time>2020-03-03T22:25:08Z</time>
      </trkpt>
      <trkpt lat="44.55517" lon="6.69869">
        <ele>1994.321</ele>
        <time>2020-03-03T22:25:28Z</time>
      </trkpt>
      <trkpt lat="44.55333" lon="6.69916">
        <ele>1998.973</ele>
        <time>2020-03-03T22:25:48Z</time>
      </trkpt>
      <trkpt lat="44.55286" lon="6.69955">
        <ele>2004.829</ele>
        <time>2020-03-03T22:26:08Z</time>
      </trkpt>
      <trkpt lat="44.55243" lon="6.70049">
        <ele>2008.341</ele>
        <time>2020-03-03T22:26:28Z</time>
      </trkpt>
      <trkpt lat="44.55152" lon="6.7004">
        <ele>2015.381</ele>
        <time>2020-03-03T22:26:48Z</time>
      </trkpt>
      <trkpt lat="44.55123" lon="6.70046">
        <ele>2018.109</ele>
        <time>2020-03-03T22:27:08Z</time>
      </trkpt>
      <trkpt lat="44.55049" lon="6.70106">
        <ele>2020.508</ele>
        <time>2020-03-03T22:27:28Z</time>
      </trkpt>
      <trkpt lat="44.54964" lon="6.70154">
        <ele>2030.088</ele>
        <time>2020-03-03T22:27:48Z</time>
      </trkpt>
      <trkpt lat="44.5488" lon="6.70219">
        <ele>2047.591</ele>
        <time>2020-03-03T22:28:08Z</time>
      </trkpt>
      <trkpt lat="44.54802" lon="6.70283">
        <ele>2051.148</ele>
        <time>2020-03-03T22:28:28Z</time>
      </trkpt>
      <trkpt lat="44.54728" lon="6.70248">
        <ele>2051.677</ele>
        <time>2020-03-03T22:28:48Z</time>
      </trkpt>
      <trkpt lat="44.54689" lon="6.70235">
        <ele>2055.395</ele>
        <time>2020-03-03T22:29:08Z</time>
      </trkpt>
      <trkpt lat="44.54607" lon="6.70225">
        <ele>2061.216</ele>
        <time>2020-03-03T22:29:28Z</time>
      </trkpt>
      <trkpt lat="44.54542" lon="6.70217">
        <ele>2068.698</ele>
        <time>2020-03-03T22:29:48Z</time>
      </trkpt>
      <trkpt lat="44.54441" lon="6.70249">
        <ele>2077.354</ele>
        <time>2020-03-03T22:30:08Z</time>
      </trkpt>
      <trkpt lat="44.54399" lon="6.70243">
        <ele>2079.325</ele>
        <time>2020-03-03T22:30:28Z</time>
      </trkpt>
      <trkpt lat="44.54342" lon="6.70272">
        <ele>2079.826</ele>
        <time>2020-03-03T22:30:48Z</time>
      </trkpt>
      <trkpt lat="44.54296" lon="6.70269">
        <ele>2080.408</ele>
        <time>2020-03-03T22:31:08Z</time>
      </trkpt>
      <trkpt lat="44.54236" lon="6.70292">
        <ele>2082.308</ele>
        <time>2020-03-03T22:31:28Z</time>
      </trkpt>
      <trkpt lat="44.54153" lon="6.70251">
        <ele>2086.636</ele>
        <time>2020-03-03T22:31:48Z</time>
      </trkpt>
      <trkpt lat="44.54051" lon="6.70249">
        <ele>2091.139</ele>
        <time>2020-03-03T22:32:08Z</time>
      </trkpt>
      <trkpt lat="44.54011" lon="6.70221">
        <ele>2097.026</ele>
        <time>2020-03-03T22:32:28Z</time>
      </trkpt>
      <trkpt lat="44.53942" lon="6.70233">
        <ele>2107.445</ele>
        <time>2020-03-03T22:32:48Z</time>
      </trkpt>
      <trkpt lat="44.53868" lon="6.70298">
        <ele>2107.783</ele>
        <time>2020-03-03T22:33:08Z</time>
      </trkpt>
      <trkpt lat="44.538" lon="6.70301">
        <ele>2102.354</ele>
        <time>2020-03-03T22:33:28Z</time>
      </trkpt>
      <trkpt lat="44.53746" lon="6.70301">
        <ele>2098.916</ele>
        <time>2020-03-03T22:33:48Z</time>
      </trkpt>
      <trkpt lat="44.53687" lon="6.70326">
        <ele>2089.352</ele>
        <time>2020-03-03T22:34:08Z</time>
      </trkpt>
      <trkpt lat="44.53603" lon="6.70351">
        <ele>2081.883</ele>
        <time>2020-03-03T22:34:28Z</time>
      </trkpt>
      <trkpt lat="44.53536" lon="6.70467">
        <ele>2074.125</ele>
        <time>2020-03-03T22:34:48Z</time>
      </trkpt>
      <trkpt lat="44.53491" lon="6.70488">
        <ele>2070.117</ele>
        <time>2020-03-03T22:35:08Z</time>
      </trkpt>
      <trkpt lat="44.53456" lon="6.70476">
        <ele>2065.008</ele>
        <time>2020-03-03T22:35:28Z</time>
      </trkpt>
      <trkpt lat="44.53404" lon="6.70448">
        <ele>2059.572</ele>
        <time>2020-03-03T22:35:48Z</time>
      </trkpt>
      <trkpt lat="44.53335" lon="6.70473">
        <ele>2048.915</ele>
        <time>2020-03-03T22:36:08Z</time>
      </trkpt>
      <trkpt lat="44.53301" lon="6.70455">
        <ele>2045.212</ele>
        <time>2020-03-03T22:36:28Z</time>
      </trkpt>
      <trkpt lat="44.53275" lon="6.70344">
        <ele>2040.131</ele>
        <time>2020-03-03T22:36:48Z</time>
      </trkpt>
      <trkpt lat="44.53242" lon="6.70285">
        <ele>2034.969</ele>
        <time>2020-03-03T22:37:08Z</time>
      </trkpt>
      <trkpt lat="44.53202" lon="6.70135">
        <ele>2034.01</ele>
        <time>2020-03-03T22:37:28Z</time>
      </trkpt>
      <trkpt lat="44.53174" lon="6.70153">
        <ele>2022.172</ele>
        <time>2020-03-03T22:37:48Z</time>
      </trkpt>
      <trkpt lat="44.53214" lon="6.70275">
        <ele>2020.028</ele>
        <time>2020-03-03T22:38:08Z</time>
      </trkpt>
      <trkpt lat="44.53217" lon="6.7035">
        <ele>2015.434</ele>
        <time>2020-03-03T22:38:28Z</time>
      </trkpt>
      <trkpt lat="44.53205" lon="6.70459">
        <ele>2002.255</ele>
        <time>2020-03-03T22:38:48Z</time>
      </trkpt>
      <trkpt lat="44.53231" lon="6.70531">
        <ele>2004.21</ele>
        <time>2020-03-03T22:39:08Z</time>
      </trkpt>
      <trkpt lat="44.53234" lon="6.70734">
        <ele>1988.708</ele>
        <time>2020-03-03T22:39:28Z</time>
      </trkpt>
      <trkpt lat="44.53255" lon="6.70769">
        <ele>1987.787</ele>
        <time>2020-03-03T22:39:48Z</time>
      </trkpt>
      <trkpt lat="44.53292" lon="6.70792">
        <ele>1984.82</ele>
        <time>2020-03-03T22:40:08Z</time>
      </trkpt>
      <trkpt lat="44.53292" lon="6.70845">
        <ele>1980.017</ele>
        <time>2020-03-03T22:40:28Z</time>
      </trkpt>
      <trkpt lat="44.53265" lon="6.70889">
        <ele>1969.956</ele>
        <time>2020-03-03T22:40:48Z</time>
      </trkpt>
      <trkpt lat="44.53225" lon="6.70964">
        <ele>1961.594</ele>
        <time>2020-03-03T22:41:08Z</time>
      </trkpt>
      <trkpt lat="44.53133" lon="6.71042">
        <ele>1944.475</ele>
        <time>2020-03-03T22:41:28Z</time>
      </trkpt>
      <trkpt lat="44.53107" lon="6.71119">
        <ele>1943.687</ele>
        <time>2020-03-03T22:41:48Z</time>
      </trkpt>
      <trkpt lat="44.53114" lon="6.71193">
        <ele>1943.623</ele>
        <time>2020-03-03T22:42:08Z</time>
      </trkpt>
      <trkpt lat="44.53143" lon="6.71269">
        <ele>1941.193</ele>
        <time>2020-03-03T22:42:28Z</time>
      </trkpt>
      <trkpt lat="44.53121" lon="6.71317">
        <ele>1935.465</ele>
        <time>2020-03-03T22:42:48Z</time>
      </trkpt>
      <trkpt lat="44.53087" lon="6.71297">
        <ele>1927.221</ele>
        <time>2020-03-03T22:43:08Z</time>
      </trkpt>
      <trkpt lat="44.53035" lon="6.71157">
        <ele>1913.008</ele>
        <time>2020-03-03T22:43:28Z</time>
      </trkpt>
      <trkpt lat="44.53045" lon="6.71085">
        <ele>1908.713</ele>
        <time>2020-03-03T22:43:48Z</time>
      </trkpt>
      <trkpt lat="44.53084" lon="6.71015">
        <ele>1912.226</ele>
        <time>2020-03-03T22:44:08Z</time>
      </trkpt>
      <trkpt lat="44.53076" lon="6.70986">
        <ele>1913.023</ele>
        <time>2020-03-03T22:44:28Z</time>
      </trkpt>
      <trkpt lat="44.53056" lon="6.70992">
        <ele>1905.922</ele>
        <time>2020-03-03T22:44:48Z</time>
      </trkpt>
      <trkpt lat="44.53037" lon="6.71051">
        <ele>1899.26</ele>
        <time>2020-03-03T22:45:08Z</time>
      </trkpt>
      <trkpt lat="44.52967" lon="6.71161">
        <ele>1889.421</ele>
        <time>2020-03-03T22:45:28Z</time>
      </trkpt>
      <trkpt lat="44.52949" lon="6.7124">
        <ele>1886.243</ele>
        <time>2020-03-03T22:45:48Z</time>
      </trkpt>
      <trkpt lat="44.52949" lon="6.71286">
        <ele>1883.669</ele>
        <time>2020-03-03T22:46:08Z</time>
      </trkpt>
      <trkpt lat="44.52964" lon="6.7135">
        <ele>1878.777</ele>
        <time>2020-03-03T22:46:28Z</time>
      </trkpt>
      <trkpt lat="44.52947" lon="6.71448">
        <ele>1872.661</ele>
        <time>2020-03-03T22:46:48Z</time>
      </trkpt>
      <trkpt lat="44.5293" lon="6.71612">
        <ele>1855.527</ele>
        <time>2020-03-03T22:47:08Z</time>
      </trkpt>
      <trkpt lat="44.52941" lon="6.71706">
        <ele>1847.908</ele>
        <time>2020-03-03T22:47:28Z</time>
      </trkpt>
      <trkpt lat="44.52897" lon="6.72057">
        <ele>1820.161</ele>
        <time>2020-03-03T22:47:48Z</time>
      </trkpt>
      <trkpt lat="44.52882" lon="6.7216">
        <ele>1811.644</ele>
        <time>2020-03-03T22:48:08Z</time>
      </trkpt>
      <trkpt lat="44.52885" lon="6.72222">
        <ele>1811.881</ele>
        <time>2020-03-03T22:48:28Z</time>
      </trkpt>
      <trkpt lat="44.52865" lon="6.7222">
        <ele>1804.31</ele>
        <time>2020-03-03T22:48:48Z</time>
      </trkpt>
      <trkpt lat="44.52864" lon="6.72165">
        <ele>1802.368</ele>
        <time>2020-03-03T22:49:08Z</time>
      </trkpt>
      <trkpt lat="44.52831" lon="6.71944">
        <ele>1782.229</ele>
        <time>2020-03-03T22:49:28Z</time>
      </trkpt>
      <trkpt lat="44.52803" lon="6.71822">
        <ele>1770.671</ele>
        <time>2020-03-03T22:49:48Z</time>
      </trkpt>
      <trkpt lat="44.52808" lon="6.71749">
        <ele>1767.977</ele>
        <time>2020-03-03T22:50:08Z</time>
      </trkpt>
      <trkpt lat="44.52767" lon="6.7168">
        <ele>1760.517</ele>
        <time>2020-03-03T22:50:28Z</time>
      </trkpt>
      <trkpt lat="44.52719" lon="6.71555">
        <ele>1749.787</ele>
        <time>2020-03-03T22:50:48Z</time>
      </trkpt>
      <trkpt lat="44.52715" lon="6.71504">
        <ele>1750.715</ele>
        <time>2020-03-03T22:51:08Z</time>
      </trkpt>
      <trkpt lat="44.52692" lon="6.71501">
        <ele>1740.208</ele>
        <time>2020-03-03T22:51:28Z</time>
      </trkpt>
      <trkpt lat="44.52697" lon="6.71552">
        <ele>1739.325</ele>
        <time>2020-03-03T22:51:48Z</time>
      </trkpt>
      <trkpt lat="44.52695" lon="6.71652">
        <ele>1731.338</ele>
        <time>2020-03-03T22:52:08Z</time>
      </trkpt>
      <trkpt lat="44.52687" lon="6.71747">
        <ele>1721.725</ele>
        <time>2020-03-03T22:52:28Z</time>
      </trkpt>
      <trkpt lat="44.52716" lon="6.71775">
        <ele>1724.264</ele>
        <time>2020-03-03T22:52:48Z</time>
      </trkpt>
      <trkpt lat="44.52712" lon="6.718">
        <ele>1717.212</ele>
        <time>2020-03-03T22:53:08Z</time>
      </trkpt>
      <trkpt lat="44.5267" lon="6.71842">
        <ele>1704.513</ele>
        <time>2020-03-03T22:53:28Z</time>
      </trkpt>
      <trkpt lat="44.5265" lon="6.71946">
        <ele>1698.495</ele>
        <time>2020-03-03T22:53:48Z</time>
      </trkpt>
      <trkpt lat="44.52618" lon="6.72018">
        <ele>1690.041</ele>
        <time>2020-03-03T22:54:08Z</time>
      </trkpt>
      <trkpt lat="44.52575" lon="6.72161">
        <ele>1680.185</ele>
        <time>2020-03-03T22:54:28Z</time>
      </trkpt>
      <trkpt lat="44.52565" lon="6.72218">
        <ele>1675.989</ele>
        <time>2020-03-03T22:54:48Z</time>
      </trkpt>
      <trkpt lat="44.52553" lon="6.72249">
        <ele>1670.817</ele>
        <time>2020-03-03T22:55:08Z</time>
      </trkpt>
      <trkpt lat="44.52536" lon="6.72381">
        <ele>1661.408</ele>
        <time>2020-03-03T22:55:28Z</time>
      </trkpt>
      <trkpt lat="44.52547" lon="6.72469">
        <ele>1657.072</ele>
        <time>2020-03-03T22:55:48Z</time>
      </trkpt>
      <trkpt lat="44.5254" lon="6.72505">
        <ele>1661.445</ele>
        <time>2020-03-03T22:56:08Z</time>
      </trkpt>
      <trkpt lat="44.52559" lon="6.72582">
        <ele>1670.382</ele>
        <time>2020-03-03T22:56:28Z</time>
      </trkpt>
      <trkpt lat="44.52593" lon="6.72607">
        <ele>1674.491</ele>
        <time>2020-03-03T22:56:48Z</time>
      </trkpt>
      <trkpt lat="44.52631" lon="6.72605">
        <ele>1672.849</ele>
        <time>2020-03-03T22:57:08Z</time>
      </trkpt>
      <trkpt lat="44.52636" lon="6.72629">
        <ele>1662.57</ele>
        <time>2020-03-03T22:57:28Z</time>
      </trkpt>
      <trkpt lat="44.52609" lon="6.72674">
        <ele>1658.752</ele>
        <time>2020-03-03T22:57:48Z</time>
      </trkpt>
      <trkpt lat="44.52548" lon="6.72696">
        <ele>1658.928</ele>
        <time>2020-03-03T22:58:08Z</time>
      </trkpt>
      <trkpt lat="44.52533" lon="6.72737">
        <ele>1661.431</ele>
        <time>2020-03-03T22:58:28Z</time>
      </trkpt>
      <trkpt lat="44.52527" lon="6.72796">
        <ele>1663.861</ele>
        <time>2020-03-03T22:58:48Z</time>
      </trkpt>
      <trkpt lat="44.52503" lon="6.72865">
        <ele>1657.807</ele>
        <time>2020-03-03T22:59:08Z</time>
      </trkpt>
      <trkpt lat="44.5251" lon="6.73029">
        <ele>1661.208</ele>
        <time>2020-03-03T22:59:28Z</time>
      </trkpt>
      <trkpt lat="44.52492" lon="6.73125">
        <ele>1657.087</ele>
        <time>2020-03-03T22:59:48Z</time>
      </trkpt>
      <trkpt lat="44.5249" lon="6.73211">
        <ele>1646.09</ele>
        <time>2020-03-03T23:00:08Z</time>
      </trkpt>
      <trkpt lat="44.52458" lon="6.73245">
        <ele>1654.077</ele>
        <time>2020-03-03T23:00:28Z</time>
      </trkpt>
      <trkpt lat="44.52391" lon="6.73272">
        <ele>1646.356</ele>
        <time>2020-03-03T23:00:48Z</time>
      </trkpt>
      <trkpt lat="44.52347" lon="6.73337">
        <ele>1642.754</ele>
        <time>2020-03-03T23:01:08Z</time>
      </trkpt>
      <trkpt lat="44.52325" lon="6.73397">
        <ele>1636.185</ele>
        <time>2020-03-03T23:01:28Z</time>
      </trkpt>
      <trkpt lat="44.52327" lon="6.73462">
        <ele>1633.997</ele>
        <time>2020-03-03T23:01:48Z</time>
      </trkpt>
      <trkpt lat="44.52338" lon="6.73506">
        <ele>1634.813</ele>
        <time>2020-03-03T23:02:08Z</time>
      </trkpt>
      <trkpt lat="44.52327" lon="6.73581">
        <ele>1627.622</ele>
        <time>2020-03-03T23:02:28Z</time>
      </trkpt>
      <trkpt lat="44.52293" lon="6.73734">
        <ele>1621.862</ele>
        <time>2020-03-03T23:02:48Z</time>
      </trkpt>
      <trkpt lat="44.52314" lon="6.7383">
        <ele>1617.308</ele>
        <time>2020-03-03T23:03:08Z</time>
      </trkpt>
      <trkpt lat="44.52311" lon="6.73875">
        <ele>1611.708</ele>
        <time>2020-03-03T23:03:28Z</time>
      </trkpt>
      <trkpt lat="44.52289" lon="6.73927">
        <ele>1606.196</ele>
        <time>2020-03-03T23:03:48Z</time>
      </trkpt>
      <trkpt lat="44.52196" lon="6.73962">
        <ele>1600.739</ele>
        <time>2020-03-03T23:04:08Z</time>
      </trkpt>
      <trkpt lat="44.52136" lon="6.74066">
        <ele>1583.236</ele>
        <time>2020-03-03T23:04:28Z</time>
      </trkpt>
      <trkpt lat="44.52048" lon="6.74047">
        <ele>1583.095</ele>
        <time>2020-03-03T23:04:48Z</time>
      </trkpt>
      <trkpt lat="44.52018" lon="6.74071">
        <ele>1586.863</ele>
        <time>2020-03-03T23:05:08Z</time>
      </trkpt>
      <trkpt lat="44.52007" lon="6.74123">
        <ele>1585.734</ele>
        <time>2020-03-03T23:05:28Z</time>
      </trkpt>
      <trkpt lat="44.5203" lon="6.74215">
        <ele>1582.846</ele>
        <time>2020-03-03T23:05:48Z</time>
      </trkpt>
      <trkpt lat="44.52037" lon="6.74306">
        <ele>1577.932</ele>
        <time>2020-03-03T23:06:08Z</time>
      </trkpt>
      <trkpt lat="44.52017" lon="6.74369">
        <ele>1573.168</ele>
        <time>2020-03-03T23:06:28Z</time>
      </trkpt>
      <trkpt lat="44.51951" lon="6.74446">
        <ele>1564.242</ele>
        <time>2020-03-03T23:06:48Z</time>
      </trkpt>
      <trkpt lat="44.51816" lon="6.74569">
        <ele>1548.426</ele>
        <time>2020-03-03T23:07:08Z</time>
      </trkpt>
      <trkpt lat="44.51749" lon="6.74692">
        <ele>1535.708</ele>
        <time>2020-03-03T23:07:28Z</time>
      </trkpt>
      <trkpt lat="44.51714" lon="6.74784">
        <ele>1527.68</ele>
        <time>2020-03-03T23:07:48Z</time>
      </trkpt>
      <trkpt lat="44.51709" lon="6.74877">
        <ele>1519.873</ele>
        <time>2020-03-03T23:08:08Z</time>
      </trkpt>
      <trkpt lat="44.51726" lon="6.74965">
        <ele>1515.94</ele>
        <time>2020-03-03T23:08:28Z</time>
      </trkpt>
      <trkpt lat="44.51802" lon="6.75174">
        <ele>1504.919</ele>
        <time>2020-03-03T23:08:48Z</time>
      </trkpt>
      <trkpt lat="44.51809" lon="6.75248">
        <ele>1505.797</ele>
        <time>2020-03-03T23:09:08Z</time>
      </trkpt>
      <trkpt lat="44.51784" lon="6.75282">
        <ele>1500.698</ele>
        <time>2020-03-03T23:09:28Z</time>
      </trkpt>
      <trkpt lat="44.51794" lon="6.75306">
        <ele>1499.97</ele>
        <time>2020-03-03T23:09:48Z</time>
      </trkpt>
      <trkpt lat="44.51836" lon="6.75381">
        <ele>1497.816</ele>
        <time>2020-03-03T23:10:08Z</time>
      </trkpt>
      <trkpt lat="44.51836" lon="6.75415">
        <ele>1493.734</ele>
        <time>2020-03-03T23:10:28Z</time>
      </trkpt>
      <trkpt lat="44.51816" lon="6.75494">
        <ele>1485.055</ele>
        <time>2020-03-03T23:10:48Z</time>
      </trkpt>
      <trkpt lat="44.51809" lon="6.75536">
        <ele>1484.91</ele>
        <time>2020-03-03T23:11:08Z</time>
      </trkpt>
      <trkpt lat="44.51806" lon="6.75558">
        <ele>1485.508</ele>
        <time>2020-03-03T23:11:28Z</time>
      </trkpt>
      <trkpt lat="44.51802" lon="6.75552">
        <ele>1484.297</ele>
        <time>2020-03-03T23:11:48Z</time>
      </trkpt>
      <trkpt lat="44.51801" lon="6.75515">
        <ele>1480.95</ele>
        <time>2020-03-03T23:12:08Z</time>
      </trkpt>
      <trkpt lat="44.51806" lon="6.75485">
        <ele>1479.437</ele>
        <time>2020-03-03T23:12:28Z</time>
      </trkpt>
      <trkpt lat="44.51795" lon="6.75489">
        <ele>1477.216</ele>
        <time>2020-03-03T23:12:48Z</time>
      </trkpt>
      <trkpt lat="44.51756" lon="6.75539">
        <ele>1473.644</ele>
        <time>2020-03-03T23:13:08Z</time>
      </trkpt>
      <trkpt lat="44.51749" lon="6.75573">
        <ele>1475.775</ele>
        <time>2020-03-03T23:13:28Z</time>
      </trkpt>
      <trkpt lat="44.5174" lon="6.7559">
        <ele>1474.697</ele>
        <time>2020-03-03T23:13:48Z</time>
      </trkpt>
      <trkpt lat="44.51741" lon="6.75629">
        <ele>1473.833</ele>
        <time>2020-03-03T23:14:08Z</time>
      </trkpt>
      <trkpt lat="44.51762" lon="6.75693">
        <ele>1472.977</ele>
        <time>2020-03-03T23:14:28Z</time>
      </trkpt>
      <trkpt lat="44.51768" lon="6.75715">
        <ele>1472.161</ele>
        <time>2020-03-03T23:14:48Z</time>
      </trkpt>
      <trkpt lat="44.51758" lon="6.75728">
        <ele>1469.427</ele>
        <time>2020-03-03T23:15:08Z</time>
      </trkpt>
      <trkpt lat="44.51735" lon="6.75721">
        <ele>1465.408</ele>
        <time>2020-03-03T23:15:28Z</time>
      </trkpt>
      <trkpt lat="44.51786" lon="6.75782">
        <ele>1467.121</ele>
        <time>2020-03-03T23:15:48Z</time>
      </trkpt>
      <trkpt lat="44.5183" lon="6.75819">
        <ele>1468.354</ele>
        <time>2020-03-03T23:16:08Z</time>
      </trkpt>
      <trkpt lat="44.51888" lon="6.75842">
        <ele>1473.211</ele>
        <time>2020-03-03T23:16:28Z</time>
      </trkpt>
      <trkpt lat="44.51924" lon="6.75869">
        <ele>1468.08</ele>
        <time>2020-03-03T23:16:48Z</time>
      </trkpt>
      <trkpt lat="44.51974" lon="6.75933">
        <ele>1469.788</ele>
        <time>2020-03-03T23:17:08Z</time>
      </trkpt>
      <trkpt lat="44.52045" lon="6.76035">
        <ele>1472.699</ele>
        <time>2020-03-03T23:17:28Z</time>
      </trkpt>
      <trkpt lat="44.52075" lon="6.76103">
        <ele>1471.561</ele>
        <time>2020-03-03T23:17:48Z</time>
      </trkpt>
      <trkpt lat="44.52101" lon="6.76151">
        <ele>1473.677</ele>
        <time>2020-03-03T23:18:08Z</time>
      </trkpt>
      <trkpt lat="44.52134" lon="6.76176">
        <ele>1479.313</ele>
        <time>2020-03-03T23:18:28Z</time>
      </trkpt>
      <trkpt lat="44.52145" lon="6.76231">
        <ele>1473.343</ele>
        <time>2020-03-03T23:18:48Z</time>
      </trkpt>
      <trkpt lat="44.52187" lon="6.76316">
        <ele>1475.007</ele>
        <time>2020-03-03T23:19:08Z</time>
      </trkpt>
      <trkpt lat="44.52226" lon="6.76334">
        <ele>1481.708</ele>
        <time>2020-03-03T23:19:28Z</time>
      </trkpt>
      <trkpt lat="44.52238" lon="6.76381">
        <ele>1475.815</ele>
        <time>2020-03-03T23:19:48Z</time>
      </trkpt>
      <trkpt lat="44.52252" lon="6.76401">
        <ele>1477.548</ele>
        <time>2020-03-03T23:20:08Z</time>
      </trkpt>
      <trkpt lat="44.52281" lon="6.76416">
        <ele>1491.015</ele>
        <time>2020-03-03T23:20:28Z</time>
      </trkpt>
      <trkpt lat="44.52305" lon="6.76468">
        <ele>1486.244</ele>
        <time>2020-03-03T23:20:48Z</time>
      </trkpt>
      <trkpt lat="44.5233" lon="6.76493">
        <ele>1490.252</ele>
        <time>2020-03-03T23:21:08Z</time>
      </trkpt>
      <trkpt lat="44.52358" lon="6.76512">
        <ele>1492.553</ele>
        <time>2020-03-03T23:21:28Z</time>
      </trkpt>
      <trkpt lat="44.52378" lon="6.76558">
        <ele>1487.055</ele>
        <time>2020-03-03T23:21:48Z</time>
      </trkpt>
      <trkpt lat="44.52402" lon="6.76635">
        <ele>1488.171</ele>
        <time>2020-03-03T23:22:08Z</time>
      </trkpt>
      <trkpt lat="44.52422" lon="6.76665">
        <ele>1490.252</ele>
        <time>2020-03-03T23:22:28Z</time>
      </trkpt>
      <trkpt lat="44.5249" lon="6.76742">
        <ele>1499.453</ele>
        <time>2020-03-03T23:22:48Z</time>
      </trkpt>
      <trkpt lat="44.52517" lon="6.76806">
        <ele>1502.008</ele>
        <time>2020-03-03T23:23:08Z</time>
      </trkpt>
      <trkpt lat="44.52562" lon="6.76883">
        <ele>1498.408</ele>
        <time>2020-03-03T23:23:28Z</time>
      </trkpt>
      <trkpt lat="44.5256" lon="6.76922">
        <ele>1494.339</ele>
        <time>2020-03-03T23:23:48Z</time>
      </trkpt>
      <trkpt lat="44.52578" lon="6.7696">
        <ele>1503.062</ele>
        <time>2020-03-03T23:24:08Z</time>
      </trkpt>
      <trkpt lat="44.52621" lon="6.77013">
        <ele>1509.469</ele>
        <time>2020-03-03T23:24:28Z</time>
      </trkpt>
      <trkpt lat="44.52641" lon="6.77058">
        <ele>1507.468</ele>
        <time>2020-03-03T23:24:48Z</time>
      </trkpt>
      <trkpt lat="44.52659" lon="6.77128">
        <ele>1506.256</ele>
        <time>2020-03-03T23:25:08Z</time>
      </trkpt>
      <trkpt lat="44.52692" lon="6.77144">
        <ele>1509.817</ele>
        <time>2020-03-03T23:25:28Z</time>
      </trkpt>
      <trkpt lat="44.52746" lon="6.77154">
        <ele>1514.199</ele>
        <time>2020-03-03T23:25:48Z</time>
      </trkpt>
      <trkpt lat="44.52766" lon="6.77186">
        <ele>1515.015</ele>
        <time>2020-03-03T23:26:08Z</time>
      </trkpt>
      <trkpt lat="44.52776" lon="6.77251">
        <ele>1513.876</ele>
        <time>2020-03-03T23:26:28Z</time>
      </trkpt>
      <trkpt lat="44.5281" lon="6.77316">
        <ele>1513.19</ele>
        <time>2020-03-03T23:26:48Z</time>
      </trkpt>
      <trkpt lat="44.5286" lon="6.77384">
        <ele>1513.319</ele>
        <time>2020-03-03T23:27:08Z</time>
      </trkpt>
      <trkpt lat="44.52885" lon="6.77433">
        <ele>1513.608</ele>
        <time>2020-03-03T23:27:28Z</time>
      </trkpt>
      <trkpt lat="44.52909" lon="6.77505">
        <ele>1518.391</ele>
        <time>2020-03-03T23:27:48Z</time>
      </trkpt>
      <trkpt lat="44.52965" lon="6.77538">
        <ele>1524.784</ele>
        <time>2020-03-03T23:28:08Z</time>
      </trkpt>
      <trkpt lat="44.53026" lon="6.77541">
        <ele>1529.481</ele>
        <time>2020-03-03T23:28:28Z</time>
      </trkpt>
      <trkpt lat="44.53041" lon="6.77527">
        <ele>1532.36</ele>
        <time>2020-03-03T23:28:48Z</time>
      </trkpt>
      <trkpt lat="44.53061" lon="6.77544">
        <ele>1530.618</ele>
        <time>2020-03-03T23:29:08Z</time>
      </trkpt>
      <trkpt lat="44.53064" lon="6.7757">
        <ele>1528.889</ele>
        <time>2020-03-03T23:29:28Z</time>
      </trkpt>
      <trkpt lat="44.53044" lon="6.77603">
        <ele>1522.741</ele>
        <time>2020-03-03T23:29:48Z</time>
      </trkpt>
      <trkpt lat="44.53049" lon="6.77633">
        <ele>1525.987</ele>
        <time>2020-03-03T23:30:08Z</time>
      </trkpt>
      <trkpt lat="44.53079" lon="6.77688">
        <ele>1530.738</ele>
        <time>2020-03-03T23:30:28Z</time>
      </trkpt>
      <trkpt lat="44.53116" lon="6.77736">
        <ele>1533.07</ele>
        <time>2020-03-03T23:30:48Z</time>
      </trkpt>
      <trkpt lat="44.53127" lon="6.77762">
        <ele>1532.317</ele>
        <time>2020-03-03T23:31:08Z</time>
      </trkpt>
      <trkpt lat="44.53161" lon="6.77808">
        <ele>1535.508</ele>
        <time>2020-03-03T23:31:28Z</time>
      </trkpt>
      <trkpt lat="44.53178" lon="6.77866">
        <ele>1535.247</ele>
        <time>2020-03-03T23:31:48Z</time>
      </trkpt>
      <trkpt lat="44.53195" lon="6.77891">
        <ele>1536.81</ele>
        <time>2020-03-03T23:32:08Z</time>
      </trkpt>
      <trkpt lat="44.53254" lon="6.77954">
        <ele>1546.087</ele>
        <time>2020-03-03T23:32:28Z</time>
      </trkpt>
      <trkpt lat="44.53323" lon="6.78012">
        <ele>1549.026</ele>
        <time>2020-03-03T23:32:48Z</time>
      </trkpt>
      <trkpt lat="44.53378" lon="6.78051">
        <ele>1557.414</ele>
        <time>2020-03-03T23:33:08Z</time>
      </trkpt>
      <trkpt lat="44.53472" lon="6.78118">
        <ele>1566.955</ele>
        <time>2020-03-03T23:33:28Z</time>
      </trkpt>
      <trkpt lat="44.53531" lon="6.78161">
        <ele>1569.717</ele>
        <time>2020-03-03T23:33:48Z</time>
      </trkpt>
      <trkpt lat="44.53587" lon="6.7819">
        <ele>1574.963</ele>
        <time>2020-03-03T23:34:08Z</time>
      </trkpt>
      <trkpt lat="44.53631" lon="6.78207">
        <ele>1579.923</ele>
        <time>2020-03-03T23:34:28Z</time>
      </trkpt>
      <trkpt lat="44.53633" lon="6.78236">
        <ele>1573.183</ele>
        <time>2020-03-03T23:34:48Z</time>
      </trkpt>
      <trkpt lat="44.53627" lon="6.78244">
        <ele>1571.911</ele>
        <time>2020-03-03T23:35:08Z</time>
      </trkpt>
      <trkpt lat="44.53599" lon="6.78258">
        <ele>1570.608</ele>
        <time>2020-03-03T23:35:28Z</time>
      </trkpt>
      <trkpt lat="44.53555" lon="6.78256">
        <ele>1568.746</ele>
        <time>2020-03-03T23:35:48Z</time>
      </trkpt>
      <trkpt lat="44.53552" lon="6.78272">
        <ele>1570.819</ele>
        <time>2020-03-03T23:36:08Z</time>
      </trkpt>
      <trkpt lat="44.53557" lon="6.78282">
        <ele>1572.626</ele>
        <time>2020-03-03T23:36:28Z</time>
      </trkpt>
      <trkpt lat="44.53589" lon="6.7829">
        <ele>1573.025</ele>
        <time>2020-03-03T23:36:48Z</time>
      </trkpt>
      <trkpt lat="44.53616" lon="6.78311">
        <ele>1578.683</ele>
        <time>2020-03-03T23:37:08Z</time>
      </trkpt>
      <trkpt lat="44.53654" lon="6.78331">
        <ele>1581.364</ele>
        <time>2020-03-03T23:37:28Z</time>
      </trkpt>
      <trkpt lat="44.53692" lon="6.78338">
        <ele>1586.616</ele>
        <time>2020-03-03T23:37:48Z</time>
      </trkpt>
      <trkpt lat="44.53737" lon="6.78322">
        <ele>1595.252</ele>
        <time>2020-03-03T23:38:08Z</time>
      </trkpt>
      <trkpt lat="44.53766" lon="6.78293">
        <ele>1596.512</ele>
        <time>2020-03-03T23:38:28Z</time>
      </trkpt>
      <trkpt lat="44.53765" lon="6.78305">
        <ele>1599.432</ele>
        <time>2020-03-03T23:38:48Z</time>
      </trkpt>
      <trkpt lat="44.53711" lon="6.78361">
        <ele>1600.905</ele>
        <time>2020-03-03T23:39:08Z</time>
      </trkpt>
      <trkpt lat="44.53688" lon="6.78386">
        <ele>1605.708</ele>
        <time>2020-03-03T23:39:28Z</time>
      </trkpt>
      <trkpt lat="44.53661" lon="6.784">
        <ele>1605.145</ele>
        <time>2020-03-03T23:39:48Z</time>
      </trkpt>
      <trkpt lat="44.53638" lon="6.78437">
        <ele>1612.238</ele>
        <time>2020-03-03T23:40:08Z</time>
      </trkpt>
      <trkpt lat="44.53642" lon="6.78466">
        <ele>1625.445</ele>
        <time>2020-03-03T23:40:28Z</time>
      </trkpt>
      <trkpt lat="44.53654" lon="6.78475">
        <ele>1629.734</ele>
        <time>2020-03-03T23:40:48Z</time>
      </trkpt>
      <trkpt lat="44.53662" lon="6.78485">
        <ele>1630.952</ele>
        <time>2020-03-03T23:41:08Z</time>
      </trkpt>
      <trkpt lat="44.53656" lon="6.78515">
        <ele>1626.093</ele>
        <time>2020-03-03T23:41:28Z</time>
      </trkpt>
      <trkpt lat="44.53643" lon="6.78537">
        <ele>1607.745</ele>
        <time>2020-03-03T23:41:48Z</time>
      </trkpt>
      <trkpt lat="44.53646" lon="6.78559">
        <ele>1595.471</ele>
        <time>2020-03-03T23:42:08Z</time>
      </trkpt>
      <trkpt lat="44.5363" lon="6.78576">
        <ele>1558.388</ele>
        <time>2020-03-03T23:42:28Z</time>
      </trkpt>
      <trkpt lat="44.53617" lon="6.78577">
        <ele>1560.324</ele>
        <time>2020-03-03T23:42:48Z</time>
      </trkpt>
      <trkpt lat="44.53601" lon="6.78581">
        <ele>1576.426</ele>
        <time>2020-03-03T23:43:08Z</time>
      </trkpt>
      <trkpt lat="44.53576" lon="6.78603">
        <ele>1627.708</ele>
        <time>2020-03-03T23:43:28Z</time>
      </trkpt>
      <trkpt lat="44.53544" lon="6.78568">
        <ele>1608.662</ele>
        <time>2020-03-03T23:43:48Z</time>
      </trkpt>
      <trkpt lat="44.53513" lon="6.78568">
        <ele>1620.695</ele>
        <time>2020-03-03T23:44:08Z</time>
      </trkpt>
      <trkpt lat="44.53463" lon="6.7859">
        <ele>1631.992</ele>
        <time>2020-03-03T23:44:28Z</time>
      </trkpt>
      <trkpt lat="44.5344" lon="6.78614">
        <ele>1638.341</ele>
        <time>2020-03-03T23:44:48Z</time>
      </trkpt>
      <trkpt lat="44.53404" lon="6.78672">
        <ele>1645.579</ele>
        <time>2020-03-03T23:45:08Z</time>
      </trkpt>
      <trkpt lat="44.53384" lon="6.78706">
        <ele>1650.55</ele>
        <time>2020-03-03T23:45:28Z</time>
      </trkpt>
      <trkpt lat="44.5335" lon="6.78738">
        <ele>1651.632</ele>
        <time>2020-03-03T23:45:48Z</time>
      </trkpt>
      <trkpt lat="44.53304" lon="6.7883">
        <ele>1665.338</ele>
        <time>2020-03-03T23:46:08Z</time>
      </trkpt>
      <trkpt lat="44.53287" lon="6.7883">
        <ele>1665.022</ele>
        <time>2020-03-03T23:46:28Z</time>
      </trkpt>
      <trkpt lat="44.53254" lon="6.78809">
        <ele>1663.462</ele>
        <time>2020-03-03T23:46:48Z</time>
      </trkpt>
      <trkpt lat="44.53237" lon="6.78808">
        <ele>1667.108</ele>
        <time>2020-03-03T23:47:08Z</time>
      </trkpt>
      <trkpt lat="44.53197" lon="6.78811">
        <ele>1675.808</ele>
        <time>2020-03-03T23:47:28Z</time>
      </trkpt>
      <trkpt lat="44.53137" lon="6.78779">
        <ele>1679.226</ele>
        <time>2020-03-03T23:47:48Z</time>
      </trkpt>
      <trkpt lat="44.53081" lon="6.78749">
        <ele>1689.119</ele>
        <time>2020-03-03T23:48:08Z</time>
      </trkpt>
      <trkpt lat="44.53054" lon="6.78742">
        <ele>1691.386</ele>
        <time>2020-03-03T23:48:28Z</time>
      </trkpt>
      <trkpt lat="44.52971" lon="6.78786">
        <ele>1700.315</ele>
        <time>2020-03-03T23:48:48Z</time>
      </trkpt>
      <trkpt lat="44.52951" lon="6.78819">
        <ele>1704.883</ele>
        <time>2020-03-03T23:49:08Z</time>
      </trkpt>
      <trkpt lat="44.52927" lon="6.78846">
        <ele>1710.114</ele>
        <time>2020-03-03T23:49:28Z</time>
      </trkpt>
      <trkpt lat="44.5294" lon="6.78847">
        <ele>1713.196</ele>
        <time>2020-03-03T23:49:48Z</time>
      </trkpt>
      <trkpt lat="44.52972" lon="6.78809">
        <ele>1710.142</ele>
        <time>2020-03-03T23:50:08Z</time>
      </trkpt>
      <trkpt lat="44.53013" lon="6.78805">
        <ele>1717.384</ele>
        <time>2020-03-03T23:50:28Z</time>
      </trkpt>
      <trkpt lat="44.53046" lon="6.78798">
        <ele>1715.207</ele>
        <time>2020-03-03T23:50:48Z</time>
      </trkpt>
      <trkpt lat="44.53062" lon="6.78805">
        <ele>1716.117</ele>
        <time>2020-03-03T23:51:08Z</time>
      </trkpt>
      <trkpt lat="44.53058" lon="6.78814">
        <ele>1719.608</ele>
        <time>2020-03-03T23:51:28Z</time>
      </trkpt>
      <trkpt lat="44.53033" lon="6.78814">
        <ele>1721.122</ele>
        <time>2020-03-03T23:51:48Z</time>
      </trkpt>
      <trkpt lat="44.52975" lon="6.78845">
        <ele>1722.755</ele>
        <time>2020-03-03T23:52:08Z</time>
      </trkpt>
      <trkpt lat="44.5296" lon="6.78875">
        <ele>1728.842</ele>
        <time>2020-03-03T23:52:28Z</time>
      </trkpt>
      <trkpt lat="44.52957" lon="6.789">
        <ele>1736.711</ele>
        <time>2020-03-03T23:52:48Z</time>
      </trkpt>
      <trkpt lat="44.52932" lon="6.78926">
        <ele>1734.869</ele>
        <time>2020-03-03T23:53:08Z</time>
      </trkpt>
      <trkpt lat="44.52908" lon="6.78967">
        <ele>1739.97</ele>
        <time>2020-03-03T23:53:28Z</time>
      </trkpt>
      <trkpt lat="44.52914" lon="6.78978">
        <ele>1745.232</ele>
        <time>2020-03-03T23:53:48Z</time>
      </trkpt>
      <trkpt lat="44.52935" lon="6.78943">
        <ele>1741.928</ele>
        <time>2020-03-03T23:54:08Z</time>
      </trkpt>
      <trkpt lat="44.52952" lon="6.78923">
        <ele>1743.196</ele>
        <time>2020-03-03T23:54:28Z</time>
      </trkpt>
      <trkpt lat="44.5297" lon="6.78912">
        <ele>1748.331</ele>
        <time>2020-03-03T23:54:48Z</time>
      </trkpt>
      <trkpt lat="44.5299" lon="6.78893">
        <ele>1746.324</ele>
        <time>2020-03-03T23:55:08Z</time>
      </trkpt>
      <trkpt lat="44.5303" lon="6.78892">
        <ele>1749.308</ele>
        <time>2020-03-03T23:55:28Z</time>
      </trkpt>
      <trkpt lat="44.53067" lon="6.78912">
        <ele>1751.543</ele>
        <time>2020-03-03T23:55:48Z</time>
      </trkpt>
      <trkpt lat="44.53079" lon="6.7893">
        <ele>1755.676</ele>
        <time>2020-03-03T23:56:08Z</time>
      </trkpt>
      <trkpt lat="44.53071" lon="6.78937">
        <ele>1761.073</ele>
        <time>2020-03-03T23:56:28Z</time>
      </trkpt>
      <trkpt lat="44.5303" lon="6.78925">
        <ele>1762.182</ele>
        <time>2020-03-03T23:56:48Z</time>
      </trkpt>
      <trkpt lat="44.53012" lon="6.78931">
        <ele>1764.13</ele>
        <time>2020-03-03T23:57:08Z</time>
      </trkpt>
      <trkpt lat="44.52957" lon="6.7897">
        <ele>1764.181</ele>
        <time>2020-03-03T23:57:28Z</time>
      </trkpt>
      <trkpt lat="44.52918" lon="6.79095">
        <ele>1790.623</ele>
        <time>2020-03-03T23:57:48Z</time>
      </trkpt>
      <trkpt lat="44.52897" lon="6.79133">
        <ele>1792.069</ele>
        <time>2020-03-03T23:58:08Z</time>
      </trkpt>
      <trkpt lat="44.52873" lon="6.79169">
        <ele>1794.865</ele>
        <time>2020-03-03T23:58:28Z</time>
      </trkpt>
      <trkpt lat="44.52859" lon="6.79206">
        <ele>1800.968</ele>
        <time>2020-03-03T23:58:48Z</time>
      </trkpt>
      <trkpt lat="44.52834" lon="6.79207">
        <ele>1797.114</ele>
        <time>2020-03-03T23:59:08Z</time>
      </trkpt>
      <trkpt lat="44.52773" lon="6.79182">
        <ele>1799.308</ele>
        <time>2020-03-03T23:59:28Z</time>
      </trkpt>
      <trkpt lat="44.52737" lon="6.79206">
        <ele>1811.51</ele>
        <time>2020-03-03T23:59:48Z</time>
      </trkpt>
      <trkpt lat="44.52713" lon="6.79232">
        <ele>1816.983</ele>
        <time>2020-03-04T00:00:08Z</time>
      </trkpt>
      <trkpt lat="44.52674" lon="6.79237">
        <ele>1812.21</ele>
        <time>2020-03-04T00:00:28Z</time>
      </trkpt>
      <trkpt lat="44.52633" lon="6.79265">
        <ele>1822.349</ele>
        <time>2020-03-04T00:00:48Z</time>
      </trkpt>
      <trkpt lat="44.5261" lon="6.79309">
        <ele>1832.697</ele>
        <time>2020-03-04T00:01:08Z</time>
      </trkpt>
      <trkpt lat="44.52598" lon="6.79353">
        <ele>1839.848</ele>
        <time>2020-03-04T00:01:28Z</time>
      </trkpt>
      <trkpt lat="44.52564" lon="6.79429">
        <ele>1845.03</ele>
        <time>2020-03-04T00:01:48Z</time>
      </trkpt>
      <trkpt lat="44.52546" lon="6.79481">
        <ele>1851.686</ele>
        <time>2020-03-04T00:02:08Z</time>
      </trkpt>
      <trkpt lat="44.52508" lon="6.79547">
        <ele>1855.837</ele>
        <time>2020-03-04T00:02:28Z</time>
      </trkpt>
      <trkpt lat="44.52474" lon="6.79584">
        <ele>1860.349</ele>
        <time>2020-03-04T00:02:48Z</time>
      </trkpt>
      <trkpt lat="44.52457" lon="6.79625">
        <ele>1862.213</ele>
        <time>2020-03-04T00:03:08Z</time>
      </trkpt>
      <trkpt lat="44.52461" lon="6.79678">
        <ele>1870.808</ele>
        <time>2020-03-04T00:03:28Z</time>
      </trkpt>
      <trkpt lat="44.52487" lon="6.7974">
        <ele>1880.747</ele>
        <time>2020-03-04T00:03:48Z</time>
      </trkpt>
      <trkpt lat="44.525" lon="6.79777">
        <ele>1885.03</ele>
        <time>2020-03-04T00:04:08Z</time>
      </trkpt>
      <trkpt lat="44.52509" lon="6.79832">
        <ele>1885.557</ele>
        <time>2020-03-04T00:04:28Z</time>
      </trkpt>
      <trkpt lat="44.52513" lon="6.79855">
        <ele>1886.426</ele>
        <time>2020-03-04T00:04:48Z</time>
      </trkpt>
      <trkpt lat="44.52526" lon="6.79894">
        <ele>1891.084</ele>
        <time>2020-03-04T00:05:08Z</time>
      </trkpt>
      <trkpt lat="44.5254" lon="6.79977">
        <ele>1891.755</ele>
        <time>2020-03-04T00:05:28Z</time>
      </trkpt>
      <trkpt lat="44.5255" lon="6.80016">
        <ele>1893.767</ele>
        <time>2020-03-04T00:05:48Z</time>
      </trkpt>
      <trkpt lat="44.52545" lon="6.80089">
        <ele>1890.153</ele>
        <time>2020-03-04T00:06:08Z</time>
      </trkpt>
      <trkpt lat="44.5255" lon="6.80129">
        <ele>1891.663</ele>
        <time>2020-03-04T00:06:28Z</time>
      </trkpt>
      <trkpt lat="44.52557" lon="6.80161">
        <ele>1895.244</ele>
        <time>2020-03-04T00:06:48Z</time>
      </trkpt>
      <trkpt lat="44.52564" lon="6.80178">
        <ele>1898.318</ele>
        <time>2020-03-04T00:07:08Z</time>
      </trkpt>
      <trkpt lat="44.52572" lon="6.8021">
        <ele>1899.308</ele>
        <time>2020-03-04T00:07:28Z</time>
      </trkpt>
      <trkpt lat="44.52587" lon="6.80253">
        <ele>1901.82</ele>
        <time>2020-03-04T00:07:48Z</time>
      </trkpt>
      <trkpt lat="44.52598" lon="6.80297">
        <ele>1901.493</ele>
        <time>2020-03-04T00:08:08Z</time>
      </trkpt>
      <trkpt lat="44.52596" lon="6.80327">
        <ele>1896.64</ele>
        <time>2020-03-04T00:08:28Z</time>
      </trkpt>
      <trkpt lat="44.526" lon="6.80365">
        <ele>1897.029</ele>
        <time>2020-03-04T00:08:48Z</time>
      </trkpt>
      <trkpt lat="44.52598" lon="6.80414">
        <ele>1896.557</ele>
        <time>2020-03-04T00:09:08Z</time>
      </trkpt>
      <trkpt lat="44.52602" lon="6.80429">
        <ele>1899.018</ele>
        <time>2020-03-04T00:09:28Z</time>
      </trkpt>
      <trkpt lat="44.52583" lon="6.80506">
        <ele>1900.07</ele>
        <time>2020-03-04T00:09:48Z</time>
      </trkpt>
      <trkpt lat="44.52573" lon="6.80531">
        <ele>1900.926</ele>
        <time>2020-03-04T00:10:08Z</time>
      </trkpt>
      <trkpt lat="44.52563" lon="6.80579">
        <ele>1903.452</ele>
        <time>2020-03-04T00:10:28Z</time>
      </trkpt>
      <trkpt lat="44.52563" lon="6.80613">
        <ele>1905.253</ele>
        <time>2020-03-04T00:10:48Z</time>
      </trkpt>
      <trkpt lat="44.52548" lon="6.80686">
        <ele>1909.108</ele>
        <time>2020-03-04T00:11:08Z</time>
      </trkpt>
      <trkpt lat="44.52529" lon="6.80741">
        <ele>1909.808</ele>
        <time>2020-03-04T00:11:28Z</time>
      </trkpt>
      <trkpt lat="44.52506" lon="6.80768">
        <ele>1910.929</ele>
        <time>2020-03-04T00:11:48Z</time>
      </trkpt>
      <trkpt lat="44.52478" lon="6.80791">
        <ele>1915.672</ele>
        <time>2020-03-04T00:12:08Z</time>
      </trkpt>
      <trkpt lat="44.5247" lon="6.80804">
        <ele>1917.079</ele>
        <time>2020-03-04T00:12:28Z</time>
      </trkpt>
      <trkpt lat="44.52457" lon="6.80824">
        <ele>1919.038</ele>
        <time>2020-03-04T00:12:48Z</time>
      </trkpt>
      <trkpt lat="44.52439" lon="6.80835">
        <ele>1919.676</ele>
        <time>2020-03-04T00:13:08Z</time>
      </trkpt>
      <trkpt lat="44.52411" lon="6.80846">
        <ele>1922.427</ele>
        <time>2020-03-04T00:13:28Z</time>
      </trkpt>
      <trkpt lat="44.52396" lon="6.80862">
        <ele>1925.219</ele>
        <time>2020-03-04T00:13:48Z</time>
      </trkpt>
      <trkpt lat="44.5238" lon="6.80891">
        <ele>1928.645</ele>
        <time>2020-03-04T00:14:08Z</time>
      </trkpt>
      <trkpt lat="44.52376" lon="6.8093">
        <ele>1933.744</ele>
        <time>2020-03-04T00:14:28Z</time>
      </trkpt>
      <trkpt lat="44.52375" lon="6.80943">
        <ele>1936.305</ele>
        <time>2020-03-04T00:14:48Z</time>
      </trkpt>
      <trkpt lat="44.52371" lon="6.80952">
        <ele>1937.215</ele>
        <time>2020-03-04T00:15:08Z</time>
      </trkpt>
      <trkpt lat="44.5237" lon="6.80964">
        <ele>1939.008</ele>
        <time>2020-03-04T00:15:28Z</time>
      </trkpt>
      <trkpt lat="44.52359" lon="6.80991">
        <ele>1943.268</ele>
        <time>2020-03-04T00:15:48Z</time>
      </trkpt>
      <trkpt lat="44.52345" lon="6.81004">
        <ele>1945.151</ele>
        <time>2020-03-04T00:16:08Z</time>
      </trkpt>
      <trkpt lat="44.52334" lon="6.81047">
        <ele>1953.368</ele>
        <time>2020-03-04T00:16:28Z</time>
      </trkpt>
      <trkpt lat="44.52323" lon="6.8108">
        <ele>1957.717</ele>
        <time>2020-03-04T00:16:48Z</time>
      </trkpt>
      <trkpt lat="44.52308" lon="6.81109">
        <ele>1962.955</ele>
        <time>2020-03-04T00:17:08Z</time>
      </trkpt>
      <trkpt lat="44.52293" lon="6.8114">
        <ele>1968.976</ele>
        <time>2020-03-04T00:17:28Z</time>
      </trkpt>
      <trkpt lat="44.52274" lon="6.81173">
        <ele>1976.678</ele>
        <time>2020-03-04T00:17:48Z</time>
      </trkpt>
      <trkpt lat="44.52245" lon="6.81211">
        <ele>1980.694</ele>
        <time>2020-03-04T00:18:08Z</time>
      </trkpt>
      <trkpt lat="44.52225" lon="6.81234">
        <ele>1985.944</ele>
        <time>2020-03-04T00:18:28Z</time>
      </trkpt>
      <trkpt lat="44.52219" lon="6.81249">
        <ele>1989.005</ele>
        <time>2020-03-04T00:18:48Z</time>
      </trkpt>
      <trkpt lat="44.52195" lon="6.81271">
        <ele>1990.715</ele>
        <time>2020-03-04T00:19:08Z</time>
      </trkpt>
      <trkpt lat="44.52179" lon="6.81307">
        <ele>1995.508</ele>
        <time>2020-03-04T00:19:28Z</time>
      </trkpt>
      <trkpt lat="44.5215" lon="6.81341">
        <ele>2001.798</ele>
        <time>2020-03-04T00:19:48Z</time>
      </trkpt>
      <trkpt lat="44.52125" lon="6.81356">
        <ele>2004.891</ele>
        <time>2020-03-04T00:20:08Z</time>
      </trkpt>
      <trkpt lat="44.5209" lon="6.81374">
        <ele>2009.288</ele>
        <time>2020-03-04T00:20:28Z</time>
      </trkpt>
      <trkpt lat="44.5206" lon="6.81401">
        <ele>2009.977</ele>
        <time>2020-03-04T00:20:48Z</time>
      </trkpt>
      <trkpt lat="44.52041" lon="6.81428">
        <ele>2011.255</ele>
        <time>2020-03-04T00:21:08Z</time>
      </trkpt>
      <trkpt lat="44.52033" lon="6.8146">
        <ele>2014.136</ele>
        <time>2020-03-04T00:21:28Z</time>
      </trkpt>
      <trkpt lat="44.52033" lon="6.81491">
        <ele>2015.988</ele>
        <time>2020-03-04T00:21:48Z</time>
      </trkpt>
      <trkpt lat="44.52018" lon="6.81567">
        <ele>2019.644</ele>
        <time>2020-03-04T00:22:08Z</time>
      </trkpt>
      <trkpt lat="44.52007" lon="6.81579">
        <ele>2022.749</ele>
        <time>2020-03-04T00:22:28Z</time>
      </trkpt>
      <trkpt lat="44.51985" lon="6.81576">
        <ele>2029.202</ele>
        <time>2020-03-04T00:22:48Z</time>
      </trkpt>
      <trkpt lat="44.51972" lon="6.81598">
        <ele>2035.122</ele>
        <time>2020-03-04T00:23:08Z</time>
      </trkpt>
      <trkpt lat="44.51957" lon="6.81601">
        <ele>2039.108</ele>
        <time>2020-03-04T00:23:28Z</time>
      </trkpt>
      <trkpt lat="44.51946" lon="6.81597">
        <ele>2041.668</ele>
        <time>2020-03-04T00:23:48Z</time>
      </trkpt>
      <trkpt lat="44.51948" lon="6.81609">
        <ele>2041.961</ele>
        <time>2020-03-04T00:24:08Z</time>
      </trkpt>
      <trkpt lat="44.5195" lon="6.81622">
        <ele>2042.238</ele>
        <time>2020-03-04T00:24:28Z</time>
      </trkpt>
      <trkpt lat="44.51929" lon="6.8162">
        <ele>2046.387</ele>
        <time>2020-03-04T00:24:48Z</time>
      </trkpt>
      <trkpt lat="44.51933" lon="6.81638">
        <ele>2047.475</ele>
        <time>2020-03-04T00:25:08Z</time>
      </trkpt>
      <trkpt lat="44.51914" lon="6.81642">
        <ele>2051.556</ele>
        <time>2020-03-04T00:25:28Z</time>
      </trkpt>
      <trkpt lat="44.51899" lon="6.81641">
        <ele>2052.058</ele>
        <time>2020-03-04T00:25:48Z</time>
      </trkpt>
      <trkpt lat="44.51896" lon="6.81652">
        <ele>2053.964</ele>
        <time>2020-03-04T00:26:08Z</time>
      </trkpt>
      <trkpt lat="44.51884" lon="6.81664">
        <ele>2056.118</ele>
        <time>2020-03-04T00:26:28Z</time>
      </trkpt>
      <trkpt lat="44.51896" lon="6.81682">
        <ele>2058.798</ele>
        <time>2020-03-04T00:26:48Z</time>
      </trkpt>
      <trkpt lat="44.51899" lon="6.81695">
        <ele>2060.317</ele>
        <time>2020-03-04T00:27:08Z</time>
      </trkpt>
      <trkpt lat="44.51904" lon="6.81707">
        <ele>2061.508</ele>
        <time>2020-03-04T00:27:28Z</time>
      </trkpt>
      <trkpt lat="44.51895" lon="6.81717">
        <ele>2065.585</ele>
        <time>2020-03-04T00:27:48Z</time>
      </trkpt>
      <trkpt lat="44.51885" lon="6.81714">
        <ele>2066.278</ele>
        <time>2020-03-04T00:28:08Z</time>
      </trkpt>
      <trkpt lat="44.51874" lon="6.8172">
        <ele>2068.165</ele>
        <time>2020-03-04T00:28:28Z</time>
      </trkpt>
      <trkpt lat="44.51872" lon="6.81754">
        <ele>2075.124</ele>
        <time>2020-03-04T00:28:48Z</time>
      </trkpt>
      <trkpt lat="44.51856" lon="6.81755">
        <ele>2076.752</ele>
        <time>2020-03-04T00:29:08Z</time>
      </trkpt>
      <trkpt lat="44.51839" lon="6.81754">
        <ele>2075.473</ele>
        <time>2020-03-04T00:29:28Z</time>
      </trkpt>
      <trkpt lat="44.51823" lon="6.81777">
        <ele>2078.285</ele>
        <time>2020-03-04T00:29:48Z</time>
      </trkpt>
      <trkpt lat="44.51825" lon="6.81785">
        <ele>2080.461</ele>
        <time>2020-03-04T00:30:08Z</time>
      </trkpt>
      <trkpt lat="44.5183" lon="6.81791">
        <ele>2082.746</ele>
        <time>2020-03-04T00:30:28Z</time>
      </trkpt>
      <trkpt lat="44.51827" lon="6.81808">
        <ele>2085.888</ele>
        <time>2020-03-04T00:30:48Z</time>
      </trkpt>
      <trkpt lat="44.5181" lon="6.81838">
        <ele>2091.116</ele>
        <time>2020-03-04T00:31:08Z</time>
      </trkpt>
      <trkpt lat="44.51799" lon="6.81857">
        <ele>2094.908</ele>
        <time>2020-03-04T00:31:28Z</time>
      </trkpt>
      <trkpt lat="44.51776" lon="6.81913">
        <ele>2105.258</ele>
        <time>2020-03-04T00:31:48Z</time>
      </trkpt>
      <trkpt lat="44.51762" lon="6.81935">
        <ele>2108.731</ele>
        <time>2020-03-04T00:32:08Z</time>
      </trkpt>
      <trkpt lat="44.51735" lon="6.81984">
        <ele>2117.088</ele>
        <time>2020-03-04T00:32:28Z</time>
      </trkpt>
      <trkpt lat="44.51717" lon="6.82021">
        <ele>2122.177</ele>
        <time>2020-03-04T00:32:48Z</time>
      </trkpt>
      <trkpt lat="44.51704" lon="6.82058">
        <ele>2126.365</ele>
        <time>2020-03-04T00:33:08Z</time>
      </trkpt>
      <trkpt lat="44.51697" lon="6.82078">
        <ele>2129.076</ele>
        <time>2020-03-04T00:33:28Z</time>
      </trkpt>
      <trkpt lat="44.51682" lon="6.82097">
        <ele>2132.098</ele>
        <time>2020-03-04T00:33:48Z</time>
      </trkpt>
      <trkpt lat="44.5168" lon="6.82132">
        <ele>2139.024</ele>
        <time>2020-03-04T00:34:08Z</time>
      </trkpt>
      <trkpt lat="44.51662" lon="6.82149">
        <ele>2141.398</ele>
        <time>2020-03-04T00:34:28Z</time>
      </trkpt>
      <trkpt lat="44.51647" lon="6.82173">
        <ele>2145.015</ele>
        <time>2020-03-04T00:34:48Z</time>
      </trkpt>
      <trkpt lat="44.51643" lon="6.82181">
        <ele>2146.926</ele>
        <time>2020-03-04T00:35:08Z</time>
      </trkpt>
      <trkpt lat="44.51629" lon="6.82194">
        <ele>2148.708</ele>
        <time>2020-03-04T00:35:28Z</time>
      </trkpt>
      <trkpt lat="44.51638" lon="6.822">
        <ele>2151.443</ele>
        <time>2020-03-04T00:35:48Z</time>
      </trkpt>
      <trkpt lat="44.5165" lon="6.82199">
        <ele>2151.656</ele>
        <time>2020-03-04T00:36:08Z</time>
      </trkpt>
      <trkpt lat="44.51657" lon="6.82204">
        <ele>2153.063</ele>
        <time>2020-03-04T00:36:28Z</time>
      </trkpt>
      <trkpt lat="44.51657" lon="6.82216">
        <ele>2155.732</ele>
        <time>2020-03-04T00:36:48Z</time>
      </trkpt>
      <trkpt lat="44.51653" lon="6.82227">
        <ele>2158.59</ele>
        <time>2020-03-04T00:37:08Z</time>
      </trkpt>
      <trkpt lat="44.51636" lon="6.82247">
        <ele>2163.581</ele>
        <time>2020-03-04T00:37:28Z</time>
      </trkpt>
      <trkpt lat="44.51624" lon="6.82264">
        <ele>2167.673</ele>
        <time>2020-03-04T00:37:48Z</time>
      </trkpt>
      <trkpt lat="44.51603" lon="6.82279">
        <ele>2172.549</ele>
        <time>2020-03-04T00:38:08Z</time>
      </trkpt>
      <trkpt lat="44.51592" lon="6.82285">
        <ele>2174.046</ele>
        <time>2020-03-04T00:38:28Z</time>
      </trkpt>
      <trkpt lat="44.51579" lon="6.82303">
        <ele>2178.188</ele>
        <time>2020-03-04T00:38:48Z</time>
      </trkpt>
      <trkpt lat="44.51568" lon="6.82314">
        <ele>2179.116</ele>
        <time>2020-03-04T00:39:08Z</time>
      </trkpt>
      <trkpt lat="44.51567" lon="6.82335">
        <ele>2180.908</ele>
        <time>2020-03-04T00:39:28Z</time>
      </trkpt>
      <trkpt lat="44.51559" lon="6.82364">
        <ele>2183.988</ele>
        <time>2020-03-04T00:39:48Z</time>
      </trkpt>
      <trkpt lat="44.51546" lon="6.82394">
        <ele>2188.411</ele>
        <time>2020-03-04T00:40:08Z</time>
      </trkpt>
      <trkpt lat="44.51539" lon="6.8241">
        <ele>2190.928</ele>
        <time>2020-03-04T00:40:28Z</time>
      </trkpt>
      <trkpt lat="44.5154" lon="6.82425">
        <ele>2193.247</ele>
        <time>2020-03-04T00:40:48Z</time>
      </trkpt>
      <trkpt lat="44.51535" lon="6.82435">
        <ele>2195.415</ele>
        <time>2020-03-04T00:41:08Z</time>
      </trkpt>
      <trkpt lat="44.51526" lon="6.82448">
        <ele>2197.476</ele>
        <time>2020-03-04T00:41:28Z</time>
      </trkpt>
      <trkpt lat="44.51539" lon="6.82463">
        <ele>2199.948</ele>
        <time>2020-03-04T00:41:48Z</time>
      </trkpt>
      <trkpt lat="44.5154" lon="6.82478">
        <ele>2202.424</ele>
        <time>2020-03-04T00:42:08Z</time>
      </trkpt>
      <trkpt lat="44.51539" lon="6.82499">
        <ele>2205.449</ele>
        <time>2020-03-04T00:42:28Z</time>
      </trkpt>
      <trkpt lat="44.51538" lon="6.82512">
        <ele>2206.802</ele>
        <time>2020-03-04T00:42:48Z</time>
      </trkpt>
      <trkpt lat="44.51532" lon="6.82519">
        <ele>2207.422</ele>
        <time>2020-03-04T00:43:08Z</time>
      </trkpt>
      <trkpt lat="44.51529" lon="6.82517">
        <ele>2207.208</ele>
        <time>2020-03-04T00:43:28Z</time>
      </trkpt>
      <trkpt lat="44.51536" lon="6.82509">
        <ele>2206.538</ele>
        <time>2020-03-04T00:43:48Z</time>
      </trkpt>
      <trkpt lat="44.51538" lon="6.82481">
        <ele>2202.731</ele>
        <time>2020-03-04T00:44:08Z</time>
      </trkpt>
      <trkpt lat="44.51536" lon="6.82465">
        <ele>2200.198</ele>
        <time>2020-03-04T00:44:28Z</time>
      </trkpt>
      <trkpt lat="44.51524" lon="6.82448">
        <ele>2197.187</ele>
        <time>2020-03-04T00:44:48Z</time>
      </trkpt>
      <trkpt lat="44.51538" lon="6.82424">
        <ele>2193.315</ele>
        <time>2020-03-04T00:45:08Z</time>
      </trkpt>
      <trkpt lat="44.51538" lon="6.82408">
        <ele>2190.726</ele>
        <time>2020-03-04T00:45:28Z</time>
      </trkpt>
      <trkpt lat="44.51556" lon="6.82365">
        <ele>2184.338</ele>
        <time>2020-03-04T00:45:48Z</time>
      </trkpt>
      <trkpt lat="44.51564" lon="6.82334">
        <ele>2181.194</ele>
        <time>2020-03-04T00:46:08Z</time>
      </trkpt>
      <trkpt lat="44.51566" lon="6.82312">
        <ele>2178.995</ele>
        <time>2020-03-04T00:46:28Z</time>
      </trkpt>
      <trkpt lat="44.51579" lon="6.82299">
        <ele>2177.349</ele>
        <time>2020-03-04T00:46:48Z</time>
      </trkpt>
      <trkpt lat="44.51591" lon="6.82281">
        <ele>2173.223</ele>
        <time>2020-03-04T00:47:08Z</time>
      </trkpt>
      <trkpt lat="44.51622" lon="6.82262">
        <ele>2167.308</ele>
        <time>2020-03-04T00:47:28Z</time>
      </trkpt>
      <trkpt lat="44.5165" lon="6.82227">
        <ele>2158.643</ele>
        <time>2020-03-04T00:47:48Z</time>
      </trkpt>
      <trkpt lat="44.51655" lon="6.82216">
        <ele>2155.956</ele>
        <time>2020-03-04T00:48:08Z</time>
      </trkpt>
      <trkpt lat="44.51654" lon="6.82207">
        <ele>2153.583</ele>
        <time>2020-03-04T00:48:28Z</time>
      </trkpt>
      <trkpt lat="44.5165" lon="6.82202">
        <ele>2152.242</ele>
        <time>2020-03-04T00:48:48Z</time>
      </trkpt>
      <trkpt lat="44.51637" lon="6.82203">
        <ele>2152.21</ele>
        <time>2020-03-04T00:49:08Z</time>
      </trkpt>
      <trkpt lat="44.51625" lon="6.82193">
        <ele>2148.111</ele>
        <time>2020-03-04T00:49:28Z</time>
      </trkpt>
      <trkpt lat="44.51641" lon="6.82178">
        <ele>2146.023</ele>
        <time>2020-03-04T00:49:48Z</time>
      </trkpt>
      <trkpt lat="44.51646" lon="6.82169">
        <ele>2144.149</ele>
        <time>2020-03-04T00:50:08Z</time>
      </trkpt>
      <trkpt lat="44.5166" lon="6.82147">
        <ele>2140.854</ele>
        <time>2020-03-04T00:50:28Z</time>
      </trkpt>
      <trkpt lat="44.51678" lon="6.82129">
        <ele>2138.356</ele>
        <time>2020-03-04T00:50:48Z</time>
      </trkpt>
      <trkpt lat="44.51679" lon="6.82095">
        <ele>2131.611</ele>
        <time>2020-03-04T00:51:08Z</time>
      </trkpt>
      <trkpt lat="44.51695" lon="6.82075">
        <ele>2128.808</ele>
        <time>2020-03-04T00:51:28Z</time>
      </trkpt>
      <trkpt lat="44.51715" lon="6.82022">
        <ele>2122.029</ele>
        <time>2020-03-04T00:51:48Z</time>
      </trkpt>
      <trkpt lat="44.51734" lon="6.8198">
        <ele>2116.532</ele>
        <time>2020-03-04T00:52:08Z</time>
      </trkpt>
      <trkpt lat="44.51774" lon="6.81911">
        <ele>2104.849</ele>
        <time>2020-03-04T00:52:28Z</time>
      </trkpt>
      <trkpt lat="44.51799" lon="6.81853">
        <ele>2093.958</ele>
        <time>2020-03-04T00:52:48Z</time>
      </trkpt>
      <trkpt lat="44.51822" lon="6.81813">
        <ele>2086.146</ele>
        <time>2020-03-04T00:53:08Z</time>
      </trkpt>
      <trkpt lat="44.51826" lon="6.81805">
        <ele>2085.017</ele>
        <time>2020-03-04T00:53:28Z</time>
      </trkpt>
      <trkpt lat="44.51828" lon="6.81791">
        <ele>2082.459</ele>
        <time>2020-03-04T00:53:48Z</time>
      </trkpt>
      <trkpt lat="44.51823" lon="6.81787">
        <ele>2080.545</ele>
        <time>2020-03-04T00:54:08Z</time>
      </trkpt>
      <trkpt lat="44.51821" lon="6.81776">
        <ele>2077.484</ele>
        <time>2020-03-04T00:54:28Z</time>
      </trkpt>
      <trkpt lat="44.5184" lon="6.8175">
        <ele>2074.407</ele>
        <time>2020-03-04T00:54:48Z</time>
      </trkpt>
      <trkpt lat="44.51855" lon="6.81753">
        <ele>2076.217</ele>
        <time>2020-03-04T00:55:08Z</time>
      </trkpt>
      <trkpt lat="44.5187" lon="6.81751">
        <ele>2075.008</ele>
        <time>2020-03-04T00:55:28Z</time>
      </trkpt>
      <trkpt lat="44.51872" lon="6.81719">
        <ele>2067.762</ele>
        <time>2020-03-04T00:55:48Z</time>
      </trkpt>
      <trkpt lat="44.51885" lon="6.81711">
        <ele>2065.665</ele>
        <time>2020-03-04T00:56:08Z</time>
      </trkpt>
      <trkpt lat="44.51894" lon="6.81715">
        <ele>2065.142</ele>
        <time>2020-03-04T00:56:28Z</time>
      </trkpt>
      <trkpt lat="44.51901" lon="6.81708">
        <ele>2062.391</ele>
        <time>2020-03-04T00:56:48Z</time>
      </trkpt>
      <trkpt lat="44.51897" lon="6.81698">
        <ele>2061.299</ele>
        <time>2020-03-04T00:57:08Z</time>
      </trkpt>
      <trkpt lat="44.51895" lon="6.81684">
        <ele>2059.23</ele>
        <time>2020-03-04T00:57:28Z</time>
      </trkpt>
      <trkpt lat="44.51881" lon="6.81661">
        <ele>2055.592</ele>
        <time>2020-03-04T00:57:48Z</time>
      </trkpt>
      <trkpt lat="44.51895" lon="6.8165">
        <ele>2053.668</ele>
        <time>2020-03-04T00:58:08Z</time>
      </trkpt>
      <trkpt lat="44.51897" lon="6.81637">
        <ele>2051.482</ele>
        <time>2020-03-04T00:58:28Z</time>
      </trkpt>
      <trkpt lat="44.51917" lon="6.81639">
        <ele>2051.043</ele>
        <time>2020-03-04T00:58:48Z</time>
      </trkpt>
      <trkpt lat="44.51929" lon="6.81636">
        <ele>2047.917</ele>
        <time>2020-03-04T00:59:08Z</time>
      </trkpt>
      <trkpt lat="44.51926" lon="6.81617">
        <ele>2046.408</ele>
        <time>2020-03-04T00:59:28Z</time>
      </trkpt>
      <trkpt lat="44.51948" lon="6.8162">
        <ele>2042.652</ele>
        <time>2020-03-04T00:59:48Z</time>
      </trkpt>
      <trkpt lat="44.51943" lon="6.81594">
        <ele>2041.955</ele>
        <time>2020-03-04T01:00:08Z</time>
      </trkpt>
      <trkpt lat="44.51956" lon="6.81597">
        <ele>2039.092</ele>
        <time>2020-03-04T01:00:28Z</time>
      </trkpt>
      <trkpt lat="44.5197" lon="6.81595">
        <ele>2035.471</ele>
        <time>2020-03-04T01:00:48Z</time>
      </trkpt>
      <trkpt lat="44.51985" lon="6.81569">
        <ele>2028.529</ele>
        <time>2020-03-04T01:01:08Z</time>
      </trkpt>
      <trkpt lat="44.52005" lon="6.81575">
        <ele>2023.14</ele>
        <time>2020-03-04T01:01:28Z</time>
      </trkpt>
      <trkpt lat="44.52016" lon="6.81565">
        <ele>2019.912</ele>
        <time>2020-03-04T01:01:48Z</time>
      </trkpt>
      <trkpt lat="44.52032" lon="6.81488">
        <ele>2016.058</ele>
        <time>2020-03-04T01:02:08Z</time>
      </trkpt>
      <trkpt lat="44.52031" lon="6.81458">
        <ele>2014.425</ele>
        <time>2020-03-04T01:02:28Z</time>
      </trkpt>
      <trkpt lat="44.52038" lon="6.81427">
        <ele>2011.326</ele>
        <time>2020-03-04T01:02:48Z</time>
      </trkpt>
      <trkpt lat="44.5206" lon="6.81395">
        <ele>2009.908</ele>
        <time>2020-03-04T01:03:08Z</time>
      </trkpt>
      <trkpt lat="44.52091" lon="6.8137">
        <ele>2009.108</ele>
        <time>2020-03-04T01:03:28Z</time>
      </trkpt>
      <trkpt lat="44.52148" lon="6.81341">
        <ele>2002.016</ele>
        <time>2020-03-04T01:03:48Z</time>
      </trkpt>
      <trkpt lat="44.52176" lon="6.81305">
        <ele>1995.979</ele>
        <time>2020-03-04T01:04:08Z</time>
      </trkpt>
      <trkpt lat="44.52195" lon="6.81266">
        <ele>1990.516</ele>
        <time>2020-03-04T01:04:28Z</time>
      </trkpt>
      <trkpt lat="44.52217" lon="6.81247">
        <ele>1988.885</ele>
        <time>2020-03-04T01:04:48Z</time>
      </trkpt>
      <trkpt lat="44.52225" lon="6.81232">
        <ele>1985.853</ele>
        <time>2020-03-04T01:05:08Z</time>
      </trkpt>
      <trkpt lat="44.52271" lon="6.81172">
        <ele>1976.614</ele>
        <time>2020-03-04T01:05:28Z</time>
      </trkpt>
      <trkpt lat="44.52292" lon="6.81135">
        <ele>1968.256</ele>
        <time>2020-03-04T01:05:48Z</time>
      </trkpt>
      <trkpt lat="44.52322" lon="6.81078">
        <ele>1957.332</ele>
        <time>2020-03-04T01:06:08Z</time>
      </trkpt>
      <trkpt lat="44.52345" lon="6.80999">
        <ele>1944.264</ele>
        <time>2020-03-04T01:06:28Z</time>
      </trkpt>
      <trkpt lat="44.52357" lon="6.8099">
        <ele>1943.006</ele>
        <time>2020-03-04T01:06:48Z</time>
      </trkpt>
      <trkpt lat="44.52369" lon="6.8096">
        <ele>1938.416</ele>
        <time>2020-03-04T01:07:08Z</time>
      </trkpt>
      <trkpt lat="44.52369" lon="6.80952">
        <ele>1937.008</ele>
        <time>2020-03-04T01:07:28Z</time>
      </trkpt>
      <trkpt lat="44.52373" lon="6.80942">
        <ele>1935.73</ele>
        <time>2020-03-04T01:07:48Z</time>
      </trkpt>
      <trkpt lat="44.52378" lon="6.80891">
        <ele>1928.613</ele>
        <time>2020-03-04T01:08:08Z</time>
      </trkpt>
      <trkpt lat="44.52395" lon="6.80858">
        <ele>1925.17</ele>
        <time>2020-03-04T01:08:28Z</time>
      </trkpt>
      <trkpt lat="44.52409" lon="6.80845">
        <ele>1922.819</ele>
        <time>2020-03-04T01:08:48Z</time>
      </trkpt>
      <trkpt lat="44.52439" lon="6.80833">
        <ele>1919.447</ele>
        <time>2020-03-04T01:09:08Z</time>
      </trkpt>
      <trkpt lat="44.52456" lon="6.80821">
        <ele>1918.988</ele>
        <time>2020-03-04T01:09:28Z</time>
      </trkpt>
      <trkpt lat="44.52477" lon="6.80789">
        <ele>1915.57</ele>
        <time>2020-03-04T01:09:48Z</time>
      </trkpt>
      <trkpt lat="44.52507" lon="6.80762">
        <ele>1910.436</ele>
        <time>2020-03-04T01:10:08Z</time>
      </trkpt>
      <trkpt lat="44.52527" lon="6.80739">
        <ele>1909.661</ele>
        <time>2020-03-04T01:10:28Z</time>
      </trkpt>
      <trkpt lat="44.52546" lon="6.80684">
        <ele>1908.521</ele>
        <time>2020-03-04T01:10:48Z</time>
      </trkpt>
      <trkpt lat="44.52561" lon="6.80616">
        <ele>1904.713</ele>
        <time>2020-03-04T01:11:08Z</time>
      </trkpt>
      <trkpt lat="44.52561" lon="6.8058">
        <ele>1902.708</ele>
        <time>2020-03-04T01:11:28Z</time>
      </trkpt>
      <trkpt lat="44.52572" lon="6.80526">
        <ele>1900.06</ele>
        <time>2020-03-04T01:11:48Z</time>
      </trkpt>
      <trkpt lat="44.52581" lon="6.80505">
        <ele>1899.283</ele>
        <time>2020-03-04T01:12:08Z</time>
      </trkpt>
      <trkpt lat="44.526" lon="6.8043">
        <ele>1897.96</ele>
        <time>2020-03-04T01:12:28Z</time>
      </trkpt>
      <trkpt lat="44.52596" lon="6.80413">
        <ele>1895.339</ele>
        <time>2020-03-04T01:12:48Z</time>
      </trkpt>
      <trkpt lat="44.52597" lon="6.80361">
        <ele>1895.667</ele>
        <time>2020-03-04T01:13:08Z</time>
      </trkpt>
      <trkpt lat="44.52594" lon="6.80329">
        <ele>1895.498</ele>
        <time>2020-03-04T01:13:28Z</time>
      </trkpt>
      <trkpt lat="44.52596" lon="6.80296">
        <ele>1900.37</ele>
        <time>2020-03-04T01:13:48Z</time>
      </trkpt>
      <trkpt lat="44.52584" lon="6.80252">
        <ele>1900.346</ele>
        <time>2020-03-04T01:14:08Z</time>
      </trkpt>
      <trkpt lat="44.52571" lon="6.80211">
        <ele>1898.768</ele>
        <time>2020-03-04T01:14:28Z</time>
      </trkpt>
      <trkpt lat="44.52562" lon="6.80177">
        <ele>1897.342</ele>
        <time>2020-03-04T01:14:48Z</time>
      </trkpt>
      <trkpt lat="44.52553" lon="6.80161">
        <ele>1893.726</ele>
        <time>2020-03-04T01:15:08Z</time>
      </trkpt>
      <trkpt lat="44.52543" lon="6.80089">
        <ele>1889.308</ele>
        <time>2020-03-04T01:15:28Z</time>
      </trkpt>
      <trkpt lat="44.52549" lon="6.80016">
        <ele>1893.28</ele>
        <time>2020-03-04T01:15:48Z</time>
      </trkpt>
      <trkpt lat="44.52536" lon="6.79973">
        <ele>1890.783</ele>
        <time>2020-03-04T01:16:08Z</time>
      </trkpt>
      <trkpt lat="44.52524" lon="6.79896">
        <ele>1889.97</ele>
        <time>2020-03-04T01:16:28Z</time>
      </trkpt>
      <trkpt lat="44.5251" lon="6.79854">
        <ele>1885.099</ele>
        <time>2020-03-04T01:16:48Z</time>
      </trkpt>
      <trkpt lat="44.52497" lon="6.79778">
        <ele>1883.197</ele>
        <time>2020-03-04T01:17:08Z</time>
      </trkpt>
      <trkpt lat="44.52458" lon="6.79672">
        <ele>1868.948</ele>
        <time>2020-03-04T01:17:28Z</time>
      </trkpt>
      <trkpt lat="44.52456" lon="6.79622">
        <ele>1861.48</ele>
        <time>2020-03-04T01:17:48Z</time>
      </trkpt>
      <trkpt lat="44.52473" lon="6.79581">
        <ele>1859.466</ele>
        <time>2020-03-04T01:18:08Z</time>
      </trkpt>
      <trkpt lat="44.52506" lon="6.79543">
        <ele>1854.647</ele>
        <time>2020-03-04T01:18:28Z</time>
      </trkpt>
      <trkpt lat="44.52545" lon="6.7948">
        <ele>1850.829</ele>
        <time>2020-03-04T01:18:48Z</time>
      </trkpt>
      <trkpt lat="44.52562" lon="6.79427">
        <ele>1844.121</ele>
        <time>2020-03-04T01:19:08Z</time>
      </trkpt>
      <trkpt lat="44.52596" lon="6.79348">
        <ele>1838.008</ele>
        <time>2020-03-04T01:19:28Z</time>
      </trkpt>
      <trkpt lat="44.52609" lon="6.79303">
        <ele>1830.378</ele>
        <time>2020-03-04T01:19:48Z</time>
      </trkpt>
      <trkpt lat="44.52633" lon="6.79261">
        <ele>1820.441</ele>
        <time>2020-03-04T01:20:08Z</time>
      </trkpt>
      <trkpt lat="44.52673" lon="6.79232">
        <ele>1808.848</ele>
        <time>2020-03-04T01:20:28Z</time>
      </trkpt>
      <trkpt lat="44.52712" lon="6.79228">
        <ele>1814.327</ele>
        <time>2020-03-04T01:20:48Z</time>
      </trkpt>
      <trkpt lat="44.52738" lon="6.79201">
        <ele>1809.175</ele>
        <time>2020-03-04T01:21:08Z</time>
      </trkpt>
      <trkpt lat="44.52773" lon="6.79177">
        <ele>1796.586</ele>
        <time>2020-03-04T01:21:28Z</time>
      </trkpt>
      <trkpt lat="44.52835" lon="6.79204">
        <ele>1795.868</ele>
        <time>2020-03-04T01:21:48Z</time>
      </trkpt>
      <trkpt lat="44.52859" lon="6.79202">
        <ele>1799.914</ele>
        <time>2020-03-04T01:22:08Z</time>
      </trkpt>
      <trkpt lat="44.52872" lon="6.79164">
        <ele>1793.259</ele>
        <time>2020-03-04T01:22:28Z</time>
      </trkpt>
      <trkpt lat="44.52914" lon="6.79097">
        <ele>1789.103</ele>
        <time>2020-03-04T01:22:48Z</time>
      </trkpt>
      <trkpt lat="44.52955" lon="6.78966">
        <ele>1761.223</ele>
        <time>2020-03-04T01:23:08Z</time>
      </trkpt>
      <trkpt lat="44.53014" lon="6.78926">
        <ele>1762.208</ele>
        <time>2020-03-04T01:23:28Z</time>
      </trkpt>
      <trkpt lat="44.53033" lon="6.78922">
        <ele>1760.789</ele>
        <time>2020-03-04T01:23:48Z</time>
      </trkpt>
      <trkpt lat="44.53071" lon="6.78934">
        <ele>1759.412</ele>
        <time>2020-03-04T01:24:08Z</time>
      </trkpt>
      <trkpt lat="44.53075" lon="6.78931">
        <ele>1757.189</ele>
        <time>2020-03-04T01:24:28Z</time>
      </trkpt>
      <trkpt lat="44.53066" lon="6.78916">
        <ele>1753.558</ele>
        <time>2020-03-04T01:24:48Z</time>
      </trkpt>
      <trkpt lat="44.53028" lon="6.78896">
        <ele>1750.686</ele>
        <time>2020-03-04T01:25:08Z</time>
      </trkpt>
      <trkpt lat="44.5299" lon="6.78898">
        <ele>1747.967</ele>
        <time>2020-03-04T01:25:28Z</time>
      </trkpt>
      <trkpt lat="44.52975" lon="6.78914">
        <ele>1750.439</ele>
        <time>2020-03-04T01:25:48Z</time>
      </trkpt>
      <trkpt lat="44.52952" lon="6.78927">
        <ele>1744.075</ele>
        <time>2020-03-04T01:26:08Z</time>
      </trkpt>
      <trkpt lat="44.5293" lon="6.78958">
        <ele>1744.939</ele>
        <time>2020-03-04T01:26:28Z</time>
      </trkpt>
      <trkpt lat="44.52913" lon="6.78986">
        <ele>1748.301</ele>
        <time>2020-03-04T01:26:48Z</time>
      </trkpt>
      <trkpt lat="44.52905" lon="6.78968">
        <ele>1739.421</ele>
        <time>2020-03-04T01:27:08Z</time>
      </trkpt>
      <trkpt lat="44.52929" lon="6.78923">
        <ele>1732.908</ele>
        <time>2020-03-04T01:27:28Z</time>
      </trkpt>
      <trkpt lat="44.52955" lon="6.78897">
        <ele>1734.827</ele>
        <time>2020-03-04T01:27:48Z</time>
      </trkpt>
      <trkpt lat="44.52959" lon="6.78873">
        <ele>1727.77</ele>
        <time>2020-03-04T01:28:08Z</time>
      </trkpt>
      <trkpt lat="44.52973" lon="6.78841">
        <ele>1721.547</ele>
        <time>2020-03-04T01:28:28Z</time>
      </trkpt>
      <trkpt lat="44.53035" lon="6.7881">
        <ele>1720.156</ele>
        <time>2020-03-04T01:28:48Z</time>
      </trkpt>
      <trkpt lat="44.53058" lon="6.78811">
        <ele>1719.074</ele>
        <time>2020-03-04T01:29:08Z</time>
      </trkpt>
      <trkpt lat="44.53058" lon="6.78805">
        <ele>1717.285</ele>
        <time>2020-03-04T01:29:28Z</time>
      </trkpt>
      <trkpt lat="44.53046" lon="6.78801">
        <ele>1716.557</ele>
        <time>2020-03-04T01:29:48Z</time>
      </trkpt>
      <trkpt lat="44.53012" lon="6.78809">
        <ele>1718.163</ele>
        <time>2020-03-04T01:30:08Z</time>
      </trkpt>
      <trkpt lat="44.52971" lon="6.78811">
        <ele>1710.784</ele>
        <time>2020-03-04T01:30:28Z</time>
      </trkpt>
      <trkpt lat="44.52938" lon="6.78853">
        <ele>1714.807</ele>
        <time>2020-03-04T01:30:48Z</time>
      </trkpt>
      <trkpt lat="44.52922" lon="6.78846">
        <ele>1709.017</ele>
        <time>2020-03-04T01:31:08Z</time>
      </trkpt>
      <trkpt lat="44.52947" lon="6.78818">
        <ele>1703.008</ele>
        <time>2020-03-04T01:31:28Z</time>
      </trkpt>
      <trkpt lat="44.52971" lon="6.78784">
        <ele>1699.222</ele>
        <time>2020-03-04T01:31:48Z</time>
      </trkpt>
      <trkpt lat="44.53056" lon="6.78738">
        <ele>1690.035</ele>
        <time>2020-03-04T01:32:08Z</time>
      </trkpt>
      <trkpt lat="44.53092" lon="6.7875">
        <ele>1685.842</ele>
        <time>2020-03-04T01:32:28Z</time>
      </trkpt>
      <trkpt lat="44.53197" lon="6.78808">
        <ele>1674.611</ele>
        <time>2020-03-04T01:32:48Z</time>
      </trkpt>
      <trkpt lat="44.5324" lon="6.78803">
        <ele>1664.849</ele>
        <time>2020-03-04T01:33:08Z</time>
      </trkpt>
      <trkpt lat="44.53258" lon="6.78808">
        <ele>1662.32</ele>
        <time>2020-03-04T01:33:28Z</time>
      </trkpt>
      <trkpt lat="44.53287" lon="6.78827">
        <ele>1664.472</ele>
        <time>2020-03-04T01:33:48Z</time>
      </trkpt>
      <trkpt lat="44.53301" lon="6.78826">
        <ele>1664.478</ele>
        <time>2020-03-04T01:34:08Z</time>
      </trkpt>
      <trkpt lat="44.53351" lon="6.78734">
        <ele>1649.737</ele>
        <time>2020-03-04T01:34:28Z</time>
      </trkpt>
      <trkpt lat="44.53383" lon="6.78703">
        <ele>1648.549</ele>
        <time>2020-03-04T01:34:48Z</time>
      </trkpt>
      <trkpt lat="44.53441" lon="6.78608">
        <ele>1636.513</ele>
        <time>2020-03-04T01:35:08Z</time>
      </trkpt>
      <trkpt lat="44.53464" lon="6.78584">
        <ele>1630.308</ele>
        <time>2020-03-04T01:35:28Z</time>
      </trkpt>
      <trkpt lat="44.53514" lon="6.78566">
        <ele>1619.017</ele>
        <time>2020-03-04T01:35:48Z</time>
      </trkpt>
      <trkpt lat="44.53548" lon="6.78567">
        <ele>1606.05</ele>
        <time>2020-03-04T01:36:08Z</time>
      </trkpt>
      <trkpt lat="44.53575" lon="6.78599">
        <ele>1624.457</ele>
        <time>2020-03-04T01:36:28Z</time>
      </trkpt>
      <trkpt lat="44.53605" lon="6.78575">
        <ele>1564.916</ele>
        <time>2020-03-04T01:36:48Z</time>
      </trkpt>
      <trkpt lat="44.53629" lon="6.78575">
        <ele>1559.244</ele>
        <time>2020-03-04T01:37:08Z</time>
      </trkpt>
      <trkpt lat="44.53643" lon="6.78558">
        <ele>1591.835</ele>
        <time>2020-03-04T01:37:28Z</time>
      </trkpt>
      <trkpt lat="44.5364" lon="6.78535">
        <ele>1604.667</ele>
        <time>2020-03-04T01:37:48Z</time>
      </trkpt>
      <trkpt lat="44.53655" lon="6.78513">
        <ele>1625.093</ele>
        <time>2020-03-04T01:38:08Z</time>
      </trkpt>
      <trkpt lat="44.53658" lon="6.78487">
        <ele>1629.215</ele>
        <time>2020-03-04T01:38:28Z</time>
      </trkpt>
      <trkpt lat="44.5365" lon="6.78476">
        <ele>1628.765</ele>
        <time>2020-03-04T01:38:48Z</time>
      </trkpt>
      <trkpt lat="44.5364" lon="6.7847">
        <ele>1626.411</ele>
        <time>2020-03-04T01:39:08Z</time>
      </trkpt>
      <trkpt lat="44.53635" lon="6.78437">
        <ele>1608.908</ele>
        <time>2020-03-04T01:39:28Z</time>
      </trkpt>
      <trkpt lat="44.5366" lon="6.78395">
        <ele>1603.075</ele>
        <time>2020-03-04T01:39:48Z</time>
      </trkpt>
      <trkpt lat="44.53686" lon="6.78383">
        <ele>1603.898</ele>
        <time>2020-03-04T01:40:08Z</time>
      </trkpt>
      <trkpt lat="44.53763" lon="6.78304">
        <ele>1598.315</ele>
        <time>2020-03-04T01:40:28Z</time>
      </trkpt>
      <trkpt lat="44.53763" lon="6.783">
        <ele>1597.084</ele>
        <time>2020-03-04T01:40:48Z</time>
      </trkpt>
      <trkpt lat="44.53736" lon="6.78327">
        <ele>1596.362</ele>
        <time>2020-03-04T01:41:08Z</time>
      </trkpt>
      <trkpt lat="44.53689" lon="6.78343">
        <ele>1588.163</ele>
        <time>2020-03-04T01:41:28Z</time>
      </trkpt>
      <trkpt lat="44.53651" lon="6.78334">
        <ele>1581.685</ele>
        <time>2020-03-04T01:41:48Z</time>
      </trkpt>
      <trkpt lat="44.5361" lon="6.7831">
        <ele>1578.391</ele>
        <time>2020-03-04T01:42:08Z</time>
      </trkpt>
      <trkpt lat="44.53586" lon="6.78295">
        <ele>1573.112</ele>
        <time>2020-03-04T01:42:28Z</time>
      </trkpt>
      <trkpt lat="44.53553" lon="6.78285">
        <ele>1572.732</ele>
        <time>2020-03-04T01:42:48Z</time>
      </trkpt>
      <trkpt lat="44.5355" lon="6.78275">
        <ele>1571.005</ele>
        <time>2020-03-04T01:43:08Z</time>
      </trkpt>
      <trkpt lat="44.53554" lon="6.78249">
        <ele>1567.608</ele>
        <time>2020-03-04T01:43:28Z</time>
      </trkpt>
      <trkpt lat="44.53599" lon="6.78255">
        <ele>1570.415</ele>
        <time>2020-03-04T01:43:48Z</time>
      </trkpt>
      <trkpt lat="44.53626" lon="6.78242">
        <ele>1571.978</ele>
        <time>2020-03-04T01:44:08Z</time>
      </trkpt>
      <trkpt lat="44.5363" lon="6.78235">
        <ele>1572.795</ele>
        <time>2020-03-04T01:44:28Z</time>
      </trkpt>
      <trkpt lat="44.5363" lon="6.78212">
        <ele>1577.864</ele>
        <time>2020-03-04T01:44:48Z</time>
      </trkpt>
      <trkpt lat="44.53575" lon="6.78188">
        <ele>1572.712</ele>
        <time>2020-03-04T01:45:08Z</time>
      </trkpt>
      <trkpt lat="44.53525" lon="6.78163">
        <ele>1567.363</ele>
        <time>2020-03-04T01:45:28Z</time>
      </trkpt>
      <trkpt lat="44.53421" lon="6.78086">
        <ele>1562.495</ele>
        <time>2020-03-04T01:45:48Z</time>
      </trkpt>
      <trkpt lat="44.53308" lon="6.78007">
        <ele>1546.381</ele>
        <time>2020-03-04T01:46:08Z</time>
      </trkpt>
      <trkpt lat="44.53248" lon="6.77953">
        <ele>1544.712</ele>
        <time>2020-03-04T01:46:28Z</time>
      </trkpt>
      <trkpt lat="44.53196" lon="6.77896">
        <ele>1536.532</ele>
        <time>2020-03-04T01:46:48Z</time>
      </trkpt>
      <trkpt lat="44.53175" lon="6.77865">
        <ele>1534.405</ele>
        <time>2020-03-04T01:47:08Z</time>
      </trkpt>
      <trkpt lat="44.53159" lon="6.77812">
        <ele>1534.408</ele>
        <time>2020-03-04T01:47:28Z</time>
      </trkpt>
      <trkpt lat="44.53125" lon="6.77764">
        <ele>1531.575</ele>
        <time>2020-03-04T01:47:48Z</time>
      </trkpt>
      <trkpt lat="44.53077" lon="6.7769">
        <ele>1530.248</ele>
        <time>2020-03-04T01:48:08Z</time>
      </trkpt>
      <trkpt lat="44.53046" lon="6.77635">
        <ele>1525.415</ele>
        <time>2020-03-04T01:48:28Z</time>
      </trkpt>
      <trkpt lat="44.53042" lon="6.776">
        <ele>1522.234</ele>
        <time>2020-03-04T01:48:48Z</time>
      </trkpt>
      <trkpt lat="44.53061" lon="6.77571">
        <ele>1527.892</ele>
        <time>2020-03-04T01:49:08Z</time>
      </trkpt>
      <trkpt lat="44.53059" lon="6.77547">
        <ele>1529.773</ele>
        <time>2020-03-04T01:49:28Z</time>
      </trkpt>
      <trkpt lat="44.5304" lon="6.77533">
        <ele>1531.195</ele>
        <time>2020-03-04T01:49:48Z</time>
      </trkpt>
      <trkpt lat="44.53025" lon="6.77544">
        <ele>1528.071</ele>
        <time>2020-03-04T01:50:08Z</time>
      </trkpt>
      <trkpt lat="44.52962" lon="6.77542">
        <ele>1522.955</ele>
        <time>2020-03-04T01:50:28Z</time>
      </trkpt>
      <trkpt lat="44.52904" lon="6.77505">
        <ele>1515.207</ele>
        <time>2020-03-04T01:50:48Z</time>
      </trkpt>
      <trkpt lat="44.52884" lon="6.77434">
        <ele>1513.117</ele>
        <time>2020-03-04T01:51:08Z</time>
      </trkpt>
      <trkpt lat="44.52859" lon="6.7739">
        <ele>1512.508</ele>
        <time>2020-03-04T01:51:28Z</time>
      </trkpt>
      <trkpt lat="44.52812" lon="6.77322">
        <ele>1513.089</ele>
        <time>2020-03-04T01:51:48Z</time>
      </trkpt>
      <trkpt lat="44.52773" lon="6.7725">
        <ele>1513.632</ele>
        <time>2020-03-04T01:52:08Z</time>
      </trkpt>
      <trkpt lat="44.52764" lon="6.77189">
        <ele>1514.569</ele>
        <time>2020-03-04T01:52:28Z</time>
      </trkpt>
      <trkpt lat="44.52744" lon="6.77158">
        <ele>1513.088</ele>
        <time>2020-03-04T01:52:48Z</time>
      </trkpt>
      <trkpt lat="44.52688" lon="6.77148">
        <ele>1508.666</ele>
        <time>2020-03-04T01:53:08Z</time>
      </trkpt>
      <trkpt lat="44.52657" lon="6.7713">
        <ele>1505.087</ele>
        <time>2020-03-04T01:53:28Z</time>
      </trkpt>
      <trkpt lat="44.52638" lon="6.77057">
        <ele>1506.519</ele>
        <time>2020-03-04T01:53:48Z</time>
      </trkpt>
      <trkpt lat="44.52617" lon="6.77014">
        <ele>1507.225</ele>
        <time>2020-03-04T01:54:08Z</time>
      </trkpt>
      <trkpt lat="44.52576" lon="6.76962">
        <ele>1501.811</ele>
        <time>2020-03-04T01:54:28Z</time>
      </trkpt>
      <trkpt lat="44.52556" lon="6.76921">
        <ele>1492.621</ele>
        <time>2020-03-04T01:54:48Z</time>
      </trkpt>
      <trkpt lat="44.52559" lon="6.76884">
        <ele>1496.703</ele>
        <time>2020-03-04T01:55:08Z</time>
      </trkpt>
      <trkpt lat="44.52515" lon="6.76808">
        <ele>1500.508</ele>
        <time>2020-03-04T01:55:28Z</time>
      </trkpt>
      <trkpt lat="44.52488" lon="6.76745">
        <ele>1497.115</ele>
        <time>2020-03-04T01:55:48Z</time>
      </trkpt>
      <trkpt lat="44.52418" lon="6.76667">
        <ele>1487.428</ele>
        <time>2020-03-04T01:56:08Z</time>
      </trkpt>
      <trkpt lat="44.52397" lon="6.76631">
        <ele>1485.315</ele>
        <time>2020-03-04T01:56:28Z</time>
      </trkpt>
      <trkpt lat="44.52373" lon="6.76556">
        <ele>1484.914</ele>
        <time>2020-03-04T01:56:48Z</time>
      </trkpt>
      <trkpt lat="44.52356" lon="6.76516">
        <ele>1489.752</ele>
        <time>2020-03-04T01:57:08Z</time>
      </trkpt>
      <trkpt lat="44.52303" lon="6.7647">
        <ele>1483.933</ele>
        <time>2020-03-04T01:57:28Z</time>
      </trkpt>
      <trkpt lat="44.52279" lon="6.76417">
        <ele>1489.535</ele>
        <time>2020-03-04T01:57:48Z</time>
      </trkpt>
      <trkpt lat="44.52251" lon="6.76403">
        <ele>1476.481</ele>
        <time>2020-03-04T01:58:08Z</time>
      </trkpt>
      <trkpt lat="44.52233" lon="6.7638">
        <ele>1474.355</ele>
        <time>2020-03-04T01:58:28Z</time>
      </trkpt>
      <trkpt lat="44.52223" lon="6.76339">
        <ele>1479.907</ele>
        <time>2020-03-04T01:58:48Z</time>
      </trkpt>
      <trkpt lat="44.52185" lon="6.76321">
        <ele>1473.017</ele>
        <time>2020-03-04T01:59:08Z</time>
      </trkpt>
      <trkpt lat="44.52141" lon="6.76226">
        <ele>1472.808</ele>
        <time>2020-03-04T01:59:28Z</time>
      </trkpt>
      <trkpt lat="44.5213" lon="6.76177">
        <ele>1478.059</ele>
        <time>2020-03-04T01:59:48Z</time>
      </trkpt>
      <trkpt lat="44.52101" lon="6.76152">
        <ele>1473.292</ele>
        <time>2020-03-04T02:00:08Z</time>
      </trkpt>
      <trkpt lat="44.52073" lon="6.76104">
        <ele>1470.479</ele>
        <time>2020-03-04T02:00:28Z</time>
      </trkpt>
      <trkpt lat="44.52045" lon="6.76037">
        <ele>1472.028</ele>
        <time>2020-03-04T02:00:48Z</time>
      </trkpt>
      <trkpt lat="44.51958" lon="6.75923">
        <ele>1468.296</ele>
        <time>2020-03-04T02:01:08Z</time>
      </trkpt>
      <trkpt lat="44.51921" lon="6.75872">
        <ele>1467.397</ele>
        <time>2020-03-04T02:01:28Z</time>
      </trkpt>
      <trkpt lat="44.51885" lon="6.75844">
        <ele>1472.049</ele>
        <time>2020-03-04T02:01:48Z</time>
      </trkpt>
      <trkpt lat="44.51828" lon="6.75823">
        <ele>1466.765</ele>
        <time>2020-03-04T02:02:08Z</time>
      </trkpt>
      <trkpt lat="44.51784" lon="6.75786">
        <ele>1465.337</ele>
        <time>2020-03-04T02:02:28Z</time>
      </trkpt>
      <trkpt lat="44.51734" lon="6.7572">
        <ele>1465.249</ele>
        <time>2020-03-04T02:02:48Z</time>
      </trkpt>
      <trkpt lat="44.51699" lon="6.75649">
        <ele>1461.313</ele>
        <time>2020-03-04T02:03:08Z</time>
      </trkpt>
      <trkpt lat="44.51674" lon="6.75592">
        <ele>1456.108</ele>
        <time>2020-03-04T02:03:28Z</time>
      </trkpt>
      <trkpt lat="44.51675" lon="6.75506">
        <ele>1457.417</ele>
        <time>2020-03-04T02:03:48Z</time>
      </trkpt>
      <trkpt lat="44.51659" lon="6.75473">
        <ele>1459.64</ele>
        <time>2020-03-04T02:04:08Z</time>
      </trkpt>
      <trkpt lat="44.51577" lon="6.75407">
        <ele>1458.577</ele>
        <time>2020-03-04T02:04:28Z</time>
      </trkpt>
      <trkpt lat="44.51554" lon="6.75328">
        <ele>1459.676</ele>
        <time>2020-03-04T02:04:48Z</time>
      </trkpt>
      <trkpt lat="44.51541" lon="6.753">
        <ele>1456.834</ele>
        <time>2020-03-04T02:05:08Z</time>
      </trkpt>
      <trkpt lat="44.51515" lon="6.75204">
        <ele>1461.575</ele>
        <time>2020-03-04T02:05:28Z</time>
      </trkpt>
      <trkpt lat="44.51479" lon="6.75144">
        <ele>1456.867</ele>
        <time>2020-03-04T02:05:48Z</time>
      </trkpt>
      <trkpt lat="44.51478" lon="6.75109">
        <ele>1458.833</ele>
        <time>2020-03-04T02:06:08Z</time>
      </trkpt>
      <trkpt lat="44.51457" lon="6.75048">
        <ele>1460.037</ele>
        <time>2020-03-04T02:06:28Z</time>
      </trkpt>
      <trkpt lat="44.51459" lon="6.7502">
        <ele>1461.749</ele>
        <time>2020-03-04T02:06:48Z</time>
      </trkpt>
      <trkpt lat="44.51484" lon="6.74991">
        <ele>1465.713</ele>
        <time>2020-03-04T02:07:08Z</time>
      </trkpt>
      <trkpt lat="44.51456" lon="6.74882">
        <ele>1461.508</ele>
        <time>2020-03-04T02:07:28Z</time>
      </trkpt>
      <trkpt lat="44.51459" lon="6.74815">
        <ele>1460.647</ele>
        <time>2020-03-04T02:07:48Z</time>
      </trkpt>
      <trkpt lat="44.5148" lon="6.74672">
        <ele>1455.42</ele>
        <time>2020-03-04T02:08:08Z</time>
      </trkpt>
      <trkpt lat="44.51536" lon="6.74558">
        <ele>1457.697</ele>
        <time>2020-03-04T02:08:28Z</time>
      </trkpt>
      <trkpt lat="44.51564" lon="6.74444">
        <ele>1451.766</ele>
        <time>2020-03-04T02:08:48Z</time>
      </trkpt>
      <trkpt lat="44.51539" lon="6.74402">
        <ele>1466.814</ele>
        <time>2020-03-04T02:09:08Z</time>
      </trkpt>
      <trkpt lat="44.51328" lon="6.74421">
        <ele>1455.165</ele>
        <time>2020-03-04T02:09:28Z</time>
      </trkpt>
      <trkpt lat="44.51212" lon="6.74434">
        <ele>1452.167</ele>
        <time>2020-03-04T02:09:48Z</time>
      </trkpt>
      <trkpt lat="44.51142" lon="6.74418">
        <ele>1445.953</ele>
        <time>2020-03-04T02:10:08Z</time>
      </trkpt>
      <trkpt lat="44.51092" lon="6.74451">
        <ele>1442.075</ele>
        <time>2020-03-04T02:10:28Z</time>
      </trkpt>
      <trkpt lat="44.5104" lon="6.74533">
        <ele>1439.328</ele>
        <time>2020-03-04T02:10:48Z</time>
      </trkpt>
      <trkpt lat="44.51021" lon="6.74641">
        <ele>1430.02</ele>
        <time>2020-03-04T02:11:08Z</time>
      </trkpt>
      <trkpt lat="44.50986" lon="6.74676">
        <ele>1423.508</ele>
        <time>2020-03-04T02:11:28Z</time>
      </trkpt>
      <trkpt lat="44.50909" lon="6.74646">
        <ele>1419.441</ele>
        <time>2020-03-04T02:11:48Z</time>
      </trkpt>
      <trkpt lat="44.5065" lon="6.74553">
        <ele>1407.634</ele>
        <time>2020-03-04T02:12:08Z</time>
      </trkpt>
      <trkpt lat="44.50499" lon="6.74497">
        <ele>1422.891</ele>
        <time>2020-03-04T02:12:28Z</time>
      </trkpt>
      <trkpt lat="44.50468" lon="6.74444">
        <ele>1409.92</ele>
        <time>2020-03-04T02:12:48Z</time>
      </trkpt>
      <trkpt lat="44.50455" lon="6.74367">
        <ele>1445.398</ele>
        <time>2020-03-04T02:13:08Z</time>
      </trkpt>
      <trkpt lat="44.50426" lon="6.74343">
        <ele>1441.619</ele>
        <time>2020-03-04T02:13:28Z</time>
      </trkpt>
      <trkpt lat="44.50378" lon="6.74334">
        <ele>1415.231</ele>
        <time>2020-03-04T02:13:48Z</time>
      </trkpt>
      <trkpt lat="44.50341" lon="6.74306">
        <ele>1409.577</ele>
        <time>2020-03-04T02:14:08Z</time>
      </trkpt>
      <trkpt lat="44.50306" lon="6.74294">
        <ele>1397.279</ele>
        <time>2020-03-04T02:14:28Z</time>
      </trkpt>
      <trkpt lat="44.50273" lon="6.74126">
        <ele>1381.205</ele>
        <time>2020-03-04T02:14:48Z</time>
      </trkpt>
      <trkpt lat="44.50219" lon="6.74064">
        <ele>1380.025</ele>
        <time>2020-03-04T02:15:08Z</time>
      </trkpt>
      <trkpt lat="44.50089" lon="6.74055">
        <ele>1381.408</ele>
        <time>2020-03-04T02:15:28Z</time>
      </trkpt>
      <trkpt lat="44.5003" lon="6.74018">
        <ele>1381.841</ele>
        <time>2020-03-04T02:15:48Z</time>
      </trkpt>
      <trkpt lat="44.49945" lon="6.73942">
        <ele>1378.194</ele>
        <time>2020-03-04T02:16:08Z</time>
      </trkpt>
      <trkpt lat="44.49837" lon="6.73915">
        <ele>1376.641</ele>
        <time>2020-03-04T02:16:28Z</time>
      </trkpt>
      <trkpt lat="44.49736" lon="6.73966">
        <ele>1377.62</ele>
        <time>2020-03-04T02:16:48Z</time>
      </trkpt>
      <trkpt lat="44.49639" lon="6.74054">
        <ele>1373.258</ele>
        <time>2020-03-04T02:17:08Z</time>
      </trkpt>
      <trkpt lat="44.49518" lon="6.74102">
        <ele>1369.029</ele>
        <time>2020-03-04T02:17:28Z</time>
      </trkpt>
      <trkpt lat="44.49374" lon="6.74147">
        <ele>1367.521</ele>
        <time>2020-03-04T02:17:48Z</time>
      </trkpt>
      <trkpt lat="44.49293" lon="6.742">
        <ele>1363.717</ele>
        <time>2020-03-04T02:18:08Z</time>
      </trkpt>
      <trkpt lat="44.49263" lon="6.74209">
        <ele>1362.351</ele>
        <time>2020-03-04T02:18:28Z</time>
      </trkpt>
      <trkpt lat="44.49155" lon="6.74211">
        <ele>1355.701</ele>
        <time>2020-03-04T02:18:48Z</time>
      </trkpt>
      <trkpt lat="44.49116" lon="6.74226">
        <ele>1359.011</ele>
        <time>2020-03-04T02:19:08Z</time>
      </trkpt>
      <trkpt lat="44.49059" lon="6.74298">
        <ele>1354.208</ele>
        <time>2020-03-04T02:19:28Z</time>
      </trkpt>
      <trkpt lat="44.49021" lon="6.74317">
        <ele>1353.199</ele>
        <time>2020-03-04T02:19:48Z</time>
      </trkpt>
      <trkpt lat="44.48948" lon="6.74342">
        <ele>1349.482</ele>
        <time>2020-03-04T02:20:08Z</time>
      </trkpt>
      <trkpt lat="44.48905" lon="6.74394">
        <ele>1347.919</ele>
        <time>2020-03-04T02:20:28Z</time>
      </trkpt>
      <trkpt lat="44.48859" lon="6.74484">
        <ele>1345.228</ele>
        <time>2020-03-04T02:20:48Z</time>
      </trkpt>
      <trkpt lat="44.48791" lon="6.74555">
        <ele>1340.686</ele>
        <time>2020-03-04T02:21:08Z</time>
      </trkpt>
      <trkpt lat="44.48702" lon="6.7461">
        <ele>1340.057</ele>
        <time>2020-03-04T02:21:28Z</time>
      </trkpt>
      <trkpt lat="44.48636" lon="6.74709">
        <ele>1337.899</ele>
        <time>2020-03-04T02:21:48Z</time>
      </trkpt>
      <trkpt lat="44.48598" lon="6.74759">
        <ele>1336.355</ele>
        <time>2020-03-04T02:22:08Z</time>
      </trkpt>
      <trkpt lat="44.48527" lon="6.74775">
        <ele>1336.332</ele>
        <time>2020-03-04T02:22:28Z</time>
      </trkpt>
      <trkpt lat="44.48433" lon="6.74845">
        <ele>1334.692</ele>
        <time>2020-03-04T02:22:48Z</time>
      </trkpt>
      <trkpt lat="44.48387" lon="6.74902">
        <ele>1333.511</ele>
        <time>2020-03-04T02:23:08Z</time>
      </trkpt>
      <trkpt lat="44.48324" lon="6.74987">
        <ele>1331.308</ele>
        <time>2020-03-04T02:23:28Z</time>
      </trkpt>
      <trkpt lat="44.48167" lon="6.75162">
        <ele>1327.797</ele>
        <time>2020-03-04T02:23:48Z</time>
      </trkpt>
      <trkpt lat="44.48061" lon="6.7532">
        <ele>1326.21</ele>
        <time>2020-03-04T02:24:08Z</time>
      </trkpt>
      <trkpt lat="44.48025" lon="6.75492">
        <ele>1320.037</ele>
        <time>2020-03-04T02:24:28Z</time>
      </trkpt>
      <trkpt lat="44.4797" lon="6.75614">
        <ele>1321.196</ele>
        <time>2020-03-04T02:24:48Z</time>
      </trkpt>
      <trkpt lat="44.47854" lon="6.75725">
        <ele>1313.464</ele>
        <time>2020-03-04T02:25:08Z</time>
      </trkpt>
      <trkpt lat="44.47778" lon="6.75838">
        <ele>1311.065</ele>
        <time>2020-03-04T02:25:28Z</time>
      </trkpt>
      <trkpt lat="44.47713" lon="6.75989">
        <ele>1310.047</ele>
        <time>2020-03-04T02:25:48Z</time>
      </trkpt>
      <trkpt lat="44.47714" lon="6.75997">
        <ele>1310.043</ele>
        <time>2020-03-04T02:26:08Z</time>
      </trkpt>
      <trkpt lat="44.4769" lon="6.76052">
        <ele>1310.026</ele>
        <time>2020-03-04T02:26:28Z</time>
      </trkpt>
      <trkpt lat="44.47675" lon="6.76075">
        <ele>1310.947</ele>
        <time>2020-03-04T02:26:48Z</time>
      </trkpt>
      <trkpt lat="44.47633" lon="6.76121">
        <ele>1309.111</ele>
        <time>2020-03-04T02:27:08Z</time>
      </trkpt>
      <trkpt lat="44.47611" lon="6.76182">
        <ele>1309.608</ele>
        <time>2020-03-04T02:27:28Z</time>
      </trkpt>
      <trkpt lat="44.47606" lon="6.76202">
        <ele>1310.386</ele>
        <time>2020-03-04T02:27:48Z</time>
      </trkpt>
      <trkpt lat="44.47597" lon="6.76248">
        <ele>1313.419</ele>
        <time>2020-03-04T02:28:08Z</time>
      </trkpt>
      <trkpt lat="44.47592" lon="6.76277">
        <ele>1315.386</ele>
        <time>2020-03-04T02:28:28Z</time>
      </trkpt>
      <trkpt lat="44.47597" lon="6.76307">
        <ele>1315.535</ele>
        <time>2020-03-04T02:28:48Z</time>
      </trkpt>
      <trkpt lat="44.47606" lon="6.76377">
        <ele>1317.543</ele>
        <time>2020-03-04T02:29:08Z</time>
      </trkpt>
      <trkpt lat="44.47602" lon="6.76436">
        <ele>1318.744</ele>
        <time>2020-03-04T02:29:28Z</time>
      </trkpt>
      <trkpt lat="44.47602" lon="6.76476">
        <ele>1319.216</ele>
        <time>2020-03-04T02:29:48Z</time>
      </trkpt>
      <trkpt lat="44.47599" lon="6.76518">
        <ele>1321.632</ele>
        <time>2020-03-04T02:30:08Z</time>
      </trkpt>
      <trkpt lat="44.47654" lon="6.76464">
        <ele>1324.996</ele>
        <time>2020-03-04T02:30:28Z</time>
      </trkpt>
      <trkpt lat="44.47671" lon="6.76374">
        <ele>1324.531</ele>
        <time>2020-03-04T02:30:48Z</time>
      </trkpt>
      <trkpt lat="44.47728" lon="6.76263">
        <ele>1330.924</ele>
        <time>2020-03-04T02:31:08Z</time>
      </trkpt>
      <trkpt lat="44.47796" lon="6.76161">
        <ele>1335.308</ele>
        <time>2020-03-04T02:31:28Z</time>
      </trkpt>
      <trkpt lat="44.47847" lon="6.76116">
        <ele>1340.963</ele>
        <time>2020-03-04T02:31:48Z</time>
      </trkpt>
      <trkpt lat="44.47886" lon="6.76013">
        <ele>1341.076</ele>
        <time>2020-03-04T02:32:08Z</time>
      </trkpt>
      <trkpt lat="44.47942" lon="6.75949">
        <ele>1346.023</ele>
        <time>2020-03-04T02:32:28Z</time>
      </trkpt>
      <trkpt lat="44.47997" lon="6.75843">
        <ele>1345.772</ele>
        <time>2020-03-04T02:32:48Z</time>
      </trkpt>
      <trkpt lat="44.48019" lon="6.75844">
        <ele>1349.78</ele>
        <time>2020-03-04T02:33:08Z</time>
      </trkpt>
      <trkpt lat="44.47956" lon="6.7598">
        <ele>1354.791</ele>
        <time>2020-03-04T02:33:28Z</time>
      </trkpt>
      <trkpt lat="44.47913" lon="6.76102">
        <ele>1361.233</ele>
        <time>2020-03-04T02:33:48Z</time>
      </trkpt>
      <trkpt lat="44.47844" lon="6.76328">
        <ele>1371.969</ele>
        <time>2020-03-04T02:34:08Z</time>
      </trkpt>
      <trkpt lat="44.47773" lon="6.76494">
        <ele>1379.476</ele>
        <time>2020-03-04T02:34:28Z</time>
      </trkpt>
      <trkpt lat="44.47741" lon="6.7661">
        <ele>1385.09</ele>
        <time>2020-03-04T02:34:48Z</time>
      </trkpt>
      <trkpt lat="44.47698" lon="6.767">
        <ele>1387.319</ele>
        <time>2020-03-04T02:35:08Z</time>
      </trkpt>
      <trkpt lat="44.47633" lon="6.7684">
        <ele>1387.808</ele>
        <time>2020-03-04T02:35:28Z</time>
      </trkpt>
      <trkpt lat="44.47604" lon="6.76946">
        <ele>1391.541</ele>
        <time>2020-03-04T02:35:48Z</time>
      </trkpt>
      <trkpt lat="44.47623" lon="6.77046">
        <ele>1401.474</ele>
        <time>2020-03-04T02:36:08Z</time>
      </trkpt>
      <trkpt lat="44.47652" lon="6.77115">
        <ele>1407.431</ele>
        <time>2020-03-04T02:36:28Z</time>
      </trkpt>
      <trkpt lat="44.4767" lon="6.77186">
        <ele>1411.29</ele>
        <time>2020-03-04T02:36:48Z</time>
      </trkpt>
      <trkpt lat="44.47664" lon="6.77241">
        <ele>1409.928</ele>
        <time>2020-03-04T02:37:08Z</time>
      </trkpt>
      <trkpt lat="44.47638" lon="6.77322">
        <ele>1411.079</ele>
        <time>2020-03-04T02:37:28Z</time>
      </trkpt>
      <trkpt lat="44.47642" lon="6.77505">
        <ele>1424.141</ele>
        <time>2020-03-04T02:37:48Z</time>
      </trkpt>
      <trkpt lat="44.47673" lon="6.77576">
        <ele>1428.977</ele>
        <time>2020-03-04T02:38:08Z</time>
      </trkpt>
      <trkpt lat="44.47667" lon="6.77608">
        <ele>1424.054</ele>
        <time>2020-03-04T02:38:28Z</time>
      </trkpt>
      <trkpt lat="44.47643" lon="6.77649">
        <ele>1424.756</ele>
        <time>2020-03-04T02:38:48Z</time>
      </trkpt>
      <trkpt lat="44.47664" lon="6.77756">
        <ele>1433.611</ele>
        <time>2020-03-04T02:39:08Z</time>
      </trkpt>
      <trkpt lat="44.47661" lon="6.77856">
        <ele>1432.808</ele>
        <time>2020-03-04T02:39:28Z</time>
      </trkpt>
      <trkpt lat="44.47665" lon="6.77948">
        <ele>1437.779</ele>
        <time>2020-03-04T02:39:48Z</time>
      </trkpt>
      <trkpt lat="44.47651" lon="6.78002">
        <ele>1434.762</ele>
        <time>2020-03-04T02:40:08Z</time>
      </trkpt>
      <trkpt lat="44.47651" lon="6.78052">
        <ele>1436.849</ele>
        <time>2020-03-04T02:40:28Z</time>
      </trkpt>
      <trkpt lat="44.47644" lon="6.781">
        <ele>1436.398</ele>
        <time>2020-03-04T02:40:48Z</time>
      </trkpt>
      <trkpt lat="44.47654" lon="6.78185">
        <ele>1442.346</ele>
        <time>2020-03-04T02:41:08Z</time>
      </trkpt>
      <trkpt lat="44.47646" lon="6.78255">
        <ele>1442.197</ele>
        <time>2020-03-04T02:41:28Z</time>
      </trkpt>
      <trkpt lat="44.47659" lon="6.78329">
        <ele>1446.739</ele>
        <time>2020-03-04T02:41:48Z</time>
      </trkpt>
      <trkpt lat="44.47663" lon="6.78436">
        <ele>1448.245</ele>
        <time>2020-03-04T02:42:08Z</time>
      </trkpt>
      <trkpt lat="44.47673" lon="6.78473">
        <ele>1458.047</ele>
        <time>2020-03-04T02:42:28Z</time>
      </trkpt>
      <trkpt lat="44.4767" lon="6.78536">
        <ele>1460.629</ele>
        <time>2020-03-04T02:42:48Z</time>
      </trkpt>
      <trkpt lat="44.47703" lon="6.7862">
        <ele>1471.421</ele>
        <time>2020-03-04T02:43:08Z</time>
      </trkpt>
      <trkpt lat="44.47727" lon="6.78703">
        <ele>1467.708</ele>
        <time>2020-03-04T02:43:28Z</time>
      </trkpt>
      <trkpt lat="44.47737" lon="6.78795">
        <ele>1466.478</ele>
        <time>2020-03-04T02:43:48Z</time>
      </trkpt>
      <trkpt lat="44.47768" lon="6.78874">
        <ele>1473.551</ele>
        <time>2020-03-04T02:44:08Z</time>
      </trkpt>
      <trkpt lat="44.47791" lon="6.78959">
        <ele>1475.228</ele>
        <time>2020-03-04T02:44:28Z</time>
      </trkpt>
      <trkpt lat="44.47791" lon="6.78996">
        <ele>1475.317</ele>
        <time>2020-03-04T02:44:48Z</time>
      </trkpt>
      <trkpt lat="44.47786" lon="6.79067">
        <ele>1477.865</ele>
        <time>2020-03-04T02:45:08Z</time>
      </trkpt>
      <trkpt lat="44.47807" lon="6.79128">
        <ele>1481.026</ele>
        <time>2020-03-04T02:45:28Z</time>
      </trkpt>
      <trkpt lat="44.47848" lon="6.79211">
        <ele>1487.558</ele>
        <time>2020-03-04T02:45:48Z</time>
      </trkpt>
      <trkpt lat="44.47815" lon="6.79271">
        <ele>1484.124</ele>
        <time>2020-03-04T02:46:08Z</time>
      </trkpt>
      <trkpt lat="44.47773" lon="6.79299">
        <ele>1484.994</ele>
        <time>2020-03-04T02:46:28Z</time>
      </trkpt>
      <trkpt lat="44.47725" lon="6.79327">
        <ele>1484.957</ele>
        <time>2020-03-04T02:46:48Z</time>
      </trkpt>
      <trkpt lat="44.47668" lon="6.7938">
        <ele>1487.622</ele>
        <time>2020-03-04T02:47:08Z</time>
      </trkpt>
      <trkpt lat="44.47634" lon="6.79433">
        <ele>1491.108</ele>
        <time>2020-03-04T02:47:28Z</time>
      </trkpt>
      <trkpt lat="44.47616" lon="6.79489">
        <ele>1493.863</ele>
        <time>2020-03-04T02:47:48Z</time>
      </trkpt>
      <trkpt lat="44.47588" lon="6.7962">
        <ele>1501.026</ele>
        <time>2020-03-04T02:48:08Z</time>
      </trkpt>
      <trkpt lat="44.47604" lon="6.79626">
        <ele>1504.993</ele>
        <time>2020-03-04T02:48:28Z</time>
      </trkpt>
      <trkpt lat="44.47619" lon="6.79587">
        <ele>1505.352</ele>
        <time>2020-03-04T02:48:48Z</time>
      </trkpt>
      <trkpt lat="44.47646" lon="6.79543">
        <ele>1509.17</ele>
        <time>2020-03-04T02:49:08Z</time>
      </trkpt>
      <trkpt lat="44.47672" lon="6.7948">
        <ele>1509.791</ele>
        <time>2020-03-04T02:49:28Z</time>
      </trkpt>
      <trkpt lat="44.47686" lon="6.79494">
        <ele>1513.653</ele>
        <time>2020-03-04T02:49:48Z</time>
      </trkpt>
      <trkpt lat="44.47668" lon="6.79539">
        <ele>1515.039</ele>
        <time>2020-03-04T02:50:08Z</time>
      </trkpt>
      <trkpt lat="44.47663" lon="6.79678">
        <ele>1519.217</ele>
        <time>2020-03-04T02:50:28Z</time>
      </trkpt>
      <trkpt lat="44.47652" lon="6.797">
        <ele>1519.787</ele>
        <time>2020-03-04T02:50:48Z</time>
      </trkpt>
      <trkpt lat="44.47649" lon="6.79715">
        <ele>1521.315</ele>
        <time>2020-03-04T02:51:08Z</time>
      </trkpt>
      <trkpt lat="44.47621" lon="6.79747">
        <ele>1522.508</ele>
        <time>2020-03-04T02:51:28Z</time>
      </trkpt>
      <trkpt lat="44.47615" lon="6.79783">
        <ele>1527.355</ele>
        <time>2020-03-04T02:51:48Z</time>
      </trkpt>
      <trkpt lat="44.47618" lon="6.79929">
        <ele>1531.288</ele>
        <time>2020-03-04T02:52:08Z</time>
      </trkpt>
      <trkpt lat="44.47626" lon="6.79936">
        <ele>1533.165</ele>
        <time>2020-03-04T02:52:28Z</time>
      </trkpt>
      <trkpt lat="44.47646" lon="6.79919">
        <ele>1538.054</ele>
        <time>2020-03-04T02:52:48Z</time>
      </trkpt>
      <trkpt lat="44.47651" lon="6.79904">
        <ele>1540.272</ele>
        <time>2020-03-04T02:53:08Z</time>
      </trkpt>
      <trkpt lat="44.47653" lon="6.79868">
        <ele>1540.883</ele>
        <time>2020-03-04T02:53:28Z</time>
      </trkpt>
      <trkpt lat="44.4766" lon="6.79858">
        <ele>1541.675</ele>
        <time>2020-03-04T02:53:48Z</time>
      </trkpt>
      <trkpt lat="44.47673" lon="6.79857">
        <ele>1544.081</ele>
        <time>2020-03-04T02:54:08Z</time>
      </trkpt>
      <trkpt lat="44.47681" lon="6.79849">
        <ele>1544.938</ele>
        <time>2020-03-04T02:54:28Z</time>
      </trkpt>
      <trkpt lat="44.47695" lon="6.79828">
        <ele>1545.57</ele>
        <time>2020-03-04T02:54:48Z</time>
      </trkpt>
      <trkpt lat="44.47704" lon="6.7979">
        <ele>1543.717</ele>
        <time>2020-03-04T02:55:08Z</time>
      </trkpt>
      <trkpt lat="44.47718" lon="6.79768">
        <ele>1544.508</ele>
        <time>2020-03-04T02:55:28Z</time>
      </trkpt>
      <trkpt lat="44.47724" lon="6.79754">
        <ele>1544.757</ele>
        <time>2020-03-04T02:55:48Z</time>
      </trkpt>
      <trkpt lat="44.47729" lon="6.79735">
        <ele>1544.16</ele>
        <time>2020-03-04T02:56:08Z</time>
      </trkpt>
      <trkpt lat="44.47732" lon="6.7974">
        <ele>1545.797</ele>
        <time>2020-03-04T02:56:28Z</time>
      </trkpt>
      <trkpt lat="44.47733" lon="6.79753">
        <ele>1546.936</ele>
        <time>2020-03-04T02:56:48Z</time>
      </trkpt>
      <trkpt lat="44.47737" lon="6.79777">
        <ele>1550.114</ele>
        <time>2020-03-04T02:57:08Z</time>
      </trkpt>
      <trkpt lat="44.47732" lon="6.79795">
        <ele>1550.715</ele>
        <time>2020-03-04T02:57:28Z</time>
      </trkpt>
      <trkpt lat="44.47725" lon="6.79813">
        <ele>1551.047</ele>
        <time>2020-03-04T02:57:48Z</time>
      </trkpt>
      <trkpt lat="44.47725" lon="6.79842">
        <ele>1554.443</ele>
        <time>2020-03-04T02:58:08Z</time>
      </trkpt>
      <trkpt lat="44.47728" lon="6.79868">
        <ele>1556.496</ele>
        <time>2020-03-04T02:58:28Z</time>
      </trkpt>
      <trkpt lat="44.47749" lon="6.79899">
        <ele>1560.431</ele>
        <time>2020-03-04T02:58:48Z</time>
      </trkpt>
      <trkpt lat="44.47755" lon="6.79926">
        <ele>1561.824</ele>
        <time>2020-03-04T02:59:08Z</time>
      </trkpt>
      <trkpt lat="44.47753" lon="6.79953">
        <ele>1562.408</ele>
        <time>2020-03-04T02:59:28Z</time>
      </trkpt>
      <trkpt lat="44.47739" lon="6.79992">
        <ele>1561.933</ele>
        <time>2020-03-04T02:59:48Z</time>
      </trkpt>
      <trkpt lat="44.47746" lon="6.80019">
        <ele>1563.926</ele>
        <time>2020-03-04T03:00:08Z</time>
      </trkpt>
      <trkpt lat="44.4776" lon="6.80046">
        <ele>1568.573</ele>
        <time>2020-03-04T03:00:28Z</time>
      </trkpt>
      <trkpt lat="44.47763" lon="6.80081">
        <ele>1570.892</ele>
        <time>2020-03-04T03:00:48Z</time>
      </trkpt>
      <trkpt lat="44.47768" lon="6.80114">
        <ele>1574.34</ele>
        <time>2020-03-04T03:01:08Z</time>
      </trkpt>
      <trkpt lat="44.47758" lon="6.80129">
        <ele>1574.551</ele>
        <time>2020-03-04T03:01:28Z</time>
      </trkpt>
      <trkpt lat="44.47738" lon="6.80149">
        <ele>1572.273</ele>
        <time>2020-03-04T03:01:48Z</time>
      </trkpt>
      <trkpt lat="44.47731" lon="6.80184">
        <ele>1577.069</ele>
        <time>2020-03-04T03:02:08Z</time>
      </trkpt>
      <trkpt lat="44.47713" lon="6.80211">
        <ele>1578.927</ele>
        <time>2020-03-04T03:02:28Z</time>
      </trkpt>
      <trkpt lat="44.477" lon="6.80257">
        <ele>1583.768</ele>
        <time>2020-03-04T03:02:48Z</time>
      </trkpt>
      <trkpt lat="44.47687" lon="6.80283">
        <ele>1585.814</ele>
        <time>2020-03-04T03:03:08Z</time>
      </trkpt>
      <trkpt lat="44.47675" lon="6.80312">
        <ele>1589.908</ele>
        <time>2020-03-04T03:03:28Z</time>
      </trkpt>
      <trkpt lat="44.47662" lon="6.80322">
        <ele>1590.576</ele>
        <time>2020-03-04T03:03:48Z</time>
      </trkpt>
      <trkpt lat="44.47645" lon="6.80315">
        <ele>1588.579</ele>
        <time>2020-03-04T03:04:08Z</time>
      </trkpt>
      <trkpt lat="44.47605" lon="6.80322">
        <ele>1592.196</ele>
        <time>2020-03-04T03:04:28Z</time>
      </trkpt>
      <trkpt lat="44.47603" lon="6.80338">
        <ele>1597.145</ele>
        <time>2020-03-04T03:04:48Z</time>
      </trkpt>
      <trkpt lat="44.47615" lon="6.80345">
        <ele>1598.153</ele>
        <time>2020-03-04T03:05:08Z</time>
      </trkpt>
      <trkpt lat="44.47634" lon="6.80351">
        <ele>1598.484</ele>
        <time>2020-03-04T03:05:28Z</time>
      </trkpt>
      <trkpt lat="44.47661" lon="6.80353">
        <ele>1597.466</ele>
        <time>2020-03-04T03:05:48Z</time>
      </trkpt>
      <trkpt lat="44.47678" lon="6.80374">
        <ele>1600.972</ele>
        <time>2020-03-04T03:06:08Z</time>
      </trkpt>
      <trkpt lat="44.4769" lon="6.80383">
        <ele>1602.121</ele>
        <time>2020-03-04T03:06:28Z</time>
      </trkpt>
      <trkpt lat="44.47708" lon="6.80364">
        <ele>1603.241</ele>
        <time>2020-03-04T03:06:48Z</time>
      </trkpt>
      <trkpt lat="44.47713" lon="6.80341">
        <ele>1603.105</ele>
        <time>2020-03-04T03:07:08Z</time>
      </trkpt>
      <trkpt lat="44.47717" lon="6.8032">
        <ele>1601.308</ele>
        <time>2020-03-04T03:07:28Z</time>
      </trkpt>
      <trkpt lat="44.47729" lon="6.80312">
        <ele>1602.496</ele>
        <time>2020-03-04T03:07:48Z</time>
      </trkpt>
      <trkpt lat="44.47737" lon="6.80322">
        <ele>1605.999</ele>
        <time>2020-03-04T03:08:08Z</time>
      </trkpt>
      <trkpt lat="44.47737" lon="6.80335">
        <ele>1607.956</ele>
        <time>2020-03-04T03:08:28Z</time>
      </trkpt>
      <trkpt lat="44.47721" lon="6.80363">
        <ele>1606.935</ele>
        <time>2020-03-04T03:08:48Z</time>
      </trkpt>
      <trkpt lat="44.47706" lon="6.80413">
        <ele>1613.233</ele>
        <time>2020-03-04T03:09:08Z</time>
      </trkpt>
      <trkpt lat="44.47686" lon="6.80422">
        <ele>1611.854</ele>
        <time>2020-03-04T03:09:28Z</time>
      </trkpt>
      <trkpt lat="44.47673" lon="6.80433">
        <ele>1612.926</ele>
        <time>2020-03-04T03:09:48Z</time>
      </trkpt>
      <trkpt lat="44.47664" lon="6.80451">
        <ele>1614.812</ele>
        <time>2020-03-04T03:10:08Z</time>
      </trkpt>
      <trkpt lat="44.47665" lon="6.8047">
        <ele>1617.432</ele>
        <time>2020-03-04T03:10:28Z</time>
      </trkpt>
      <trkpt lat="44.47681" lon="6.80473">
        <ele>1620.792</ele>
        <time>2020-03-04T03:10:48Z</time>
      </trkpt>
      <trkpt lat="44.47697" lon="6.80464">
        <ele>1622.611</ele>
        <time>2020-03-04T03:11:08Z</time>
      </trkpt>
      <trkpt lat="44.47723" lon="6.80432">
        <ele>1622.008</ele>
        <time>2020-03-04T03:11:28Z</time>
      </trkpt>
      <trkpt lat="44.47739" lon="6.80428">
        <ele>1623.057</ele>
        <time>2020-03-04T03:11:48Z</time>
      </trkpt>
      <trkpt lat="44.47767" lon="6.80418">
        <ele>1626.05</ele>
        <time>2020-03-04T03:12:08Z</time>
      </trkpt>
      <trkpt lat="44.47793" lon="6.80392">
        <ele>1626.497</ele>
        <time>2020-03-04T03:12:28Z</time>
      </trkpt>
      <trkpt lat="44.4782" lon="6.80375">
        <ele>1631.686</ele>
        <time>2020-03-04T03:12:48Z</time>
      </trkpt>
      <trkpt lat="44.47827" lon="6.80345">
        <ele>1630.694</ele>
        <time>2020-03-04T03:13:08Z</time>
      </trkpt>
      <trkpt lat="44.47849" lon="6.80307">
        <ele>1634.295</ele>
        <time>2020-03-04T03:13:28Z</time>
      </trkpt>
      <trkpt lat="44.47865" lon="6.80275">
        <ele>1635.327</ele>
        <time>2020-03-04T03:13:48Z</time>
      </trkpt>
      <trkpt lat="44.47884" lon="6.80251">
        <ele>1639.293</ele>
        <time>2020-03-04T03:14:08Z</time>
      </trkpt>
      <trkpt lat="44.47907" lon="6.80203">
        <ele>1636.452</ele>
        <time>2020-03-04T03:14:28Z</time>
      </trkpt>
      <trkpt lat="44.47923" lon="6.80192">
        <ele>1639.453</ele>
        <time>2020-03-04T03:14:48Z</time>
      </trkpt>
      <trkpt lat="44.47932" lon="6.80171">
        <ele>1638.308</ele>
        <time>2020-03-04T03:15:08Z</time>
      </trkpt>
      <trkpt lat="44.47955" lon="6.80152">
        <ele>1642.308</ele>
        <time>2020-03-04T03:15:28Z</time>
      </trkpt>
      <trkpt lat="44.47968" lon="6.80133">
        <ele>1642.789</ele>
        <time>2020-03-04T03:15:48Z</time>
      </trkpt>
      <trkpt lat="44.47987" lon="6.80123">
        <ele>1647.432</ele>
        <time>2020-03-04T03:16:08Z</time>
      </trkpt>
      <trkpt lat="44.47994" lon="6.80105">
        <ele>1647.939</ele>
        <time>2020-03-04T03:16:28Z</time>
      </trkpt>
      <trkpt lat="44.48006" lon="6.80061">
        <ele>1647.338</ele>
        <time>2020-03-04T03:16:48Z</time>
      </trkpt>
      <trkpt lat="44.48016" lon="6.80051">
        <ele>1648.956</ele>
        <time>2020-03-04T03:17:08Z</time>
      </trkpt>
      <trkpt lat="44.48028" lon="6.80042">
        <ele>1651.437</ele>
        <time>2020-03-04T03:17:28Z</time>
      </trkpt>
      <trkpt lat="44.48047" lon="6.80032">
        <ele>1656.469</ele>
        <time>2020-03-04T03:17:48Z</time>
      </trkpt>
      <trkpt lat="44.48055" lon="6.80008">
        <ele>1654.615</ele>
        <time>2020-03-04T03:18:08Z</time>
      </trkpt>
      <trkpt lat="44.48064" lon="6.79995">
        <ele>1654.732</ele>
        <time>2020-03-04T03:18:28Z</time>
      </trkpt>
      <trkpt lat="44.48077" lon="6.79998">
        <ele>1659.792</ele>
        <time>2020-03-04T03:18:48Z</time>
      </trkpt>
      <trkpt lat="44.48076" lon="6.80015">
        <ele>1662.011</ele>
        <time>2020-03-04T03:19:08Z</time>
      </trkpt>
      <trkpt lat="44.4807" lon="6.8003">
        <ele>1663.008</ele>
        <time>2020-03-04T03:19:28Z</time>
      </trkpt>
      <trkpt lat="44.48054" lon="6.80057">
        <ele>1661.767</ele>
        <time>2020-03-04T03:19:48Z</time>
      </trkpt>
      <trkpt lat="44.48047" lon="6.80082">
        <ele>1663.22</ele>
        <time>2020-03-04T03:20:08Z</time>
      </trkpt>
      <trkpt lat="44.48045" lon="6.80119">
        <ele>1666.157</ele>
        <time>2020-03-04T03:20:28Z</time>
      </trkpt>
      <trkpt lat="44.48043" lon="6.80158">
        <ele>1670.746</ele>
        <time>2020-03-04T03:20:48Z</time>
      </trkpt>
      <trkpt lat="44.48036" lon="6.80173">
        <ele>1671.374</ele>
        <time>2020-03-04T03:21:08Z</time>
      </trkpt>
      <trkpt lat="44.47999" lon="6.802">
        <ele>1668.995</ele>
        <time>2020-03-04T03:21:28Z</time>
      </trkpt>
      <trkpt lat="44.47976" lon="6.80218">
        <ele>1667.567</ele>
        <time>2020-03-04T03:21:48Z</time>
      </trkpt>
      <trkpt lat="44.4797" lon="6.80236">
        <ele>1670.453</ele>
        <time>2020-03-04T03:22:08Z</time>
      </trkpt>
      <trkpt lat="44.47984" lon="6.8029">
        <ele>1681.523</ele>
        <time>2020-03-04T03:22:28Z</time>
      </trkpt>
      <trkpt lat="44.47998" lon="6.80339">
        <ele>1685.783</ele>
        <time>2020-03-04T03:22:48Z</time>
      </trkpt>
      <trkpt lat="44.48" lon="6.80381">
        <ele>1686.611</ele>
        <time>2020-03-04T03:23:08Z</time>
      </trkpt>
      <trkpt lat="44.4798" lon="6.80441">
        <ele>1686.508</ele>
        <time>2020-03-04T03:23:28Z</time>
      </trkpt>
      <trkpt lat="44.47962" lon="6.80504">
        <ele>1690.626</ele>
        <time>2020-03-04T03:23:48Z</time>
      </trkpt>
      <trkpt lat="44.4792" lon="6.80566">
        <ele>1696.589</ele>
        <time>2020-03-04T03:24:08Z</time>
      </trkpt>
      <trkpt lat="44.47916" lon="6.80594">
        <ele>1700.956</ele>
        <time>2020-03-04T03:24:28Z</time>
      </trkpt>
      <trkpt lat="44.47914" lon="6.80627">
        <ele>1704.595</ele>
        <time>2020-03-04T03:24:48Z</time>
      </trkpt>
      <trkpt lat="44.47901" lon="6.80656">
        <ele>1704.133</ele>
        <time>2020-03-04T03:25:08Z</time>
      </trkpt>
      <trkpt lat="44.47895" lon="6.80682">
        <ele>1708.234</ele>
        <time>2020-03-04T03:25:28Z</time>
      </trkpt>
      <trkpt lat="44.47879" lon="6.80694">
        <ele>1708.976</ele>
        <time>2020-03-04T03:25:48Z</time>
      </trkpt>
      <trkpt lat="44.47841" lon="6.80686">
        <ele>1708.192</ele>
        <time>2020-03-04T03:26:08Z</time>
      </trkpt>
      <trkpt lat="44.47819" lon="6.80714">
        <ele>1711.052</ele>
        <time>2020-03-04T03:26:28Z</time>
      </trkpt>
      <trkpt lat="44.47789" lon="6.80725">
        <ele>1712.753</ele>
        <time>2020-03-04T03:26:48Z</time>
      </trkpt>
      <trkpt lat="44.47783" lon="6.80748">
        <ele>1718.408</ele>
        <time>2020-03-04T03:27:08Z</time>
      </trkpt>
      <trkpt lat="44.47847" lon="6.80797">
        <ele>1727.508</ele>
        <time>2020-03-04T03:27:28Z</time>
      </trkpt>
      <trkpt lat="44.4787" lon="6.80791">
        <ele>1729.729</ele>
        <time>2020-03-04T03:27:48Z</time>
      </trkpt>
      <trkpt lat="44.47904" lon="6.80756">
        <ele>1733.962</ele>
        <time>2020-03-04T03:28:08Z</time>
      </trkpt>
      <trkpt lat="44.47916" lon="6.80735">
        <ele>1734.969</ele>
        <time>2020-03-04T03:28:28Z</time>
      </trkpt>
      <trkpt lat="44.47929" lon="6.80722">
        <ele>1738.378</ele>
        <time>2020-03-04T03:28:48Z</time>
      </trkpt>
      <trkpt lat="44.47939" lon="6.80699">
        <ele>1737.666</ele>
        <time>2020-03-04T03:29:08Z</time>
      </trkpt>
      <trkpt lat="44.47951" lon="6.8068">
        <ele>1737.457</ele>
        <time>2020-03-04T03:29:28Z</time>
      </trkpt>
      <trkpt lat="44.47967" lon="6.80671">
        <ele>1738.139</ele>
        <time>2020-03-04T03:29:48Z</time>
      </trkpt>
      <trkpt lat="44.47984" lon="6.80671">
        <ele>1742.255</ele>
        <time>2020-03-04T03:30:08Z</time>
      </trkpt>
      <trkpt lat="44.48004" lon="6.80666">
        <ele>1746.027</ele>
        <time>2020-03-04T03:30:28Z</time>
      </trkpt>
      <trkpt lat="44.48027" lon="6.80653">
        <ele>1747.868</ele>
        <time>2020-03-04T03:30:48Z</time>
      </trkpt>
      <trkpt lat="44.48046" lon="6.80633">
        <ele>1744.914</ele>
        <time>2020-03-04T03:31:08Z</time>
      </trkpt>
      <trkpt lat="44.48083" lon="6.80633">
        <ele>1751.908</ele>
        <time>2020-03-04T03:31:28Z</time>
      </trkpt>
      <trkpt lat="44.48155" lon="6.80606">
        <ele>1759.666</ele>
        <time>2020-03-04T03:31:48Z</time>
      </trkpt>
      <trkpt lat="44.48181" lon="6.80581">
        <ele>1762.419</ele>
        <time>2020-03-04T03:32:08Z</time>
      </trkpt>
      <trkpt lat="44.48224" lon="6.80541">
        <ele>1767.576</ele>
        <time>2020-03-04T03:32:28Z</time>
      </trkpt>
      <trkpt lat="44.4825" lon="6.8053">
        <ele>1768.215</ele>
        <time>2020-03-04T03:32:48Z</time>
      </trkpt>
      <trkpt lat="44.48263" lon="6.80525">
        <ele>1769.313</ele>
        <time>2020-03-04T03:33:08Z</time>
      </trkpt>
      <trkpt lat="44.48277" lon="6.805">
        <ele>1770.974</ele>
        <time>2020-03-04T03:33:28Z</time>
      </trkpt>
      <trkpt lat="44.48279" lon="6.80435">
        <ele>1774.596</ele>
        <time>2020-03-04T03:33:48Z</time>
      </trkpt>
      <trkpt lat="44.48289" lon="6.80429">
        <ele>1776.762</ele>
        <time>2020-03-04T03:34:08Z</time>
      </trkpt>
      <trkpt lat="44.4833" lon="6.8045">
        <ele>1783.064</ele>
        <time>2020-03-04T03:34:28Z</time>
      </trkpt>
      <trkpt lat="44.48348" lon="6.8047">
        <ele>1784.706</ele>
        <time>2020-03-04T03:34:48Z</time>
      </trkpt>
      <trkpt lat="44.48359" lon="6.80514">
        <ele>1784.916</ele>
        <time>2020-03-04T03:35:08Z</time>
      </trkpt>
      <trkpt lat="44.48362" lon="6.80565">
        <ele>1786.508</ele>
        <time>2020-03-04T03:35:28Z</time>
      </trkpt>
      <trkpt lat="44.48379" lon="6.80603">
        <ele>1790.81</ele>
        <time>2020-03-04T03:35:48Z</time>
      </trkpt>
      <trkpt lat="44.48388" lon="6.80655">
        <ele>1794.073</ele>
        <time>2020-03-04T03:36:08Z</time>
      </trkpt>
      <trkpt lat="44.4838" lon="6.8069">
        <ele>1794.82</ele>
        <time>2020-03-04T03:36:28Z</time>
      </trkpt>
      <trkpt lat="44.48379" lon="6.80741">
        <ele>1799.639</ele>
        <time>2020-03-04T03:36:48Z</time>
      </trkpt>
      <trkpt lat="44.48367" lon="6.80776">
        <ele>1800.387</ele>
        <time>2020-03-04T03:37:08Z</time>
      </trkpt>
      <trkpt lat="44.48341" lon="6.80849">
        <ele>1804.388</ele>
        <time>2020-03-04T03:37:28Z</time>
      </trkpt>
      <trkpt lat="44.48339" lon="6.80897">
        <ele>1809.94</ele>
        <time>2020-03-04T03:37:48Z</time>
      </trkpt>
      <trkpt lat="44.48336" lon="6.80943">
        <ele>1813.496</ele>
        <time>2020-03-04T03:38:08Z</time>
      </trkpt>
      <trkpt lat="44.48353" lon="6.81001">
        <ele>1819.645</ele>
        <time>2020-03-04T03:38:28Z</time>
      </trkpt>
      <trkpt lat="44.48357" lon="6.81039">
        <ele>1821.647</ele>
        <time>2020-03-04T03:38:48Z</time>
      </trkpt>
      <trkpt lat="44.48356" lon="6.81109">
        <ele>1825.611</ele>
        <time>2020-03-04T03:39:08Z</time>
      </trkpt>
      <trkpt lat="44.48349" lon="6.81129">
        <ele>1826.208</ele>
        <time>2020-03-04T03:39:28Z</time>
      </trkpt>
      <trkpt lat="44.48321" lon="6.81165">
        <ele>1827.328</ele>
        <time>2020-03-04T03:39:48Z</time>
      </trkpt>
      <trkpt lat="44.48229" lon="6.81239">
        <ele>1832.251</ele>
        <time>2020-03-04T03:40:08Z</time>
      </trkpt>
      <trkpt lat="44.48178" lon="6.81258">
        <ele>1834.828</ele>
        <time>2020-03-04T03:40:28Z</time>
      </trkpt>
      <trkpt lat="44.48151" lon="6.81253">
        <ele>1835.447</ele>
        <time>2020-03-04T03:40:48Z</time>
      </trkpt>
      <trkpt lat="44.48111" lon="6.8126">
        <ele>1839.875</ele>
        <time>2020-03-04T03:41:08Z</time>
      </trkpt>
      <trkpt lat="44.4808" lon="6.81307">
        <ele>1843.846</ele>
        <time>2020-03-04T03:41:28Z</time>
      </trkpt>
      <trkpt lat="44.48056" lon="6.81353">
        <ele>1850.068</ele>
        <time>2020-03-04T03:41:48Z</time>
      </trkpt>
      <trkpt lat="44.48015" lon="6.81364">
        <ele>1849.464</ele>
        <time>2020-03-04T03:42:08Z</time>
      </trkpt>
      <trkpt lat="44.47989" lon="6.81416">
        <ele>1860.955</ele>
        <time>2020-03-04T03:42:28Z</time>
      </trkpt>
      <trkpt lat="44.47963" lon="6.81423">
        <ele>1860.307</ele>
        <time>2020-03-04T03:42:48Z</time>
      </trkpt>
      <trkpt lat="44.47949" lon="6.81446">
        <ele>1865.717</ele>
        <time>2020-03-04T03:43:08Z</time>
      </trkpt>
      <trkpt lat="44.47936" lon="6.8147">
        <ele>1870.308</ele>
        <time>2020-03-04T03:43:28Z</time>
      </trkpt>
      <trkpt lat="44.47833" lon="6.81549">
        <ele>1872.099</ele>
        <time>2020-03-04T03:43:48Z</time>
      </trkpt>
      <trkpt lat="44.47801" lon="6.81579">
        <ele>1873.662</ele>
        <time>2020-03-04T03:44:08Z</time>
      </trkpt>
      <trkpt lat="44.47723" lon="6.81637">
        <ele>1878.599</ele>
        <time>2020-03-04T03:44:28Z</time>
      </trkpt>
      <trkpt lat="44.47684" lon="6.8166">
        <ele>1875.828</ele>
        <time>2020-03-04T03:44:48Z</time>
      </trkpt>
      <trkpt lat="44.47667" lon="6.81689">
        <ele>1877.976</ele>
        <time>2020-03-04T03:45:08Z</time>
      </trkpt>
      <trkpt lat="44.47664" lon="6.81712">
        <ele>1878.957</ele>
        <time>2020-03-04T03:45:28Z</time>
      </trkpt>
      <trkpt lat="44.47654" lon="6.81736">
        <ele>1874.939</ele>
        <time>2020-03-04T03:45:48Z</time>
      </trkpt>
      <trkpt lat="44.47641" lon="6.81796">
        <ele>1869.715</ele>
        <time>2020-03-04T03:46:08Z</time>
      </trkpt>
      <trkpt lat="44.47641" lon="6.81855">
        <ele>1867.626</ele>
        <time>2020-03-04T03:46:28Z</time>
      </trkpt>
      <trkpt lat="44.47645" lon="6.81885">
        <ele>1867.047</ele>
        <time>2020-03-04T03:46:48Z</time>
      </trkpt>
      <trkpt lat="44.47661" lon="6.81908">
        <ele>1868.211</ele>
        <time>2020-03-04T03:47:08Z</time>
      </trkpt>
      <trkpt lat="44.47679" lon="6.81909">
        <ele>1873.808</ele>
        <time>2020-03-04T03:47:28Z</time>
      </trkpt>
      <trkpt lat="44.47712" lon="6.81924">
        <ele>1879.716</ele>
        <time>2020-03-04T03:47:48Z</time>
      </trkpt>
      <trkpt lat="44.47726" lon="6.81961">
        <ele>1876.019</ele>
        <time>2020-03-04T03:48:08Z</time>
      </trkpt>
      <trkpt lat="44.47723" lon="6.82004">
        <ele>1871.656</ele>
        <time>2020-03-04T03:48:28Z</time>
      </trkpt>
      <trkpt lat="44.47725" lon="6.8203">
        <ele>1873.955</ele>
        <time>2020-03-04T03:48:48Z</time>
      </trkpt>
      <trkpt lat="44.47723" lon="6.82053">
        <ele>1873.273</ele>
        <time>2020-03-04T03:49:08Z</time>
      </trkpt>
      <trkpt lat="44.47745" lon="6.82077">
        <ele>1877.044</ele>
        <time>2020-03-04T03:49:28Z</time>
      </trkpt>
      <trkpt lat="44.47772" lon="6.8208">
        <ele>1877.846</ele>
        <time>2020-03-04T03:49:48Z</time>
      </trkpt>
      <trkpt lat="44.47794" lon="6.82064">
        <ele>1886.112</ele>
        <time>2020-03-04T03:50:08Z</time>
      </trkpt>
      <trkpt lat="44.47807" lon="6.82067">
        <ele>1885.621</ele>
        <time>2020-03-04T03:50:28Z</time>
      </trkpt>
      <trkpt lat="44.47811" lon="6.82087">
        <ele>1882.141</ele>
        <time>2020-03-04T03:50:48Z</time>
      </trkpt>
      <trkpt lat="44.47802" lon="6.82153">
        <ele>1879.805</ele>
        <time>2020-03-04T03:51:08Z</time>
      </trkpt>
      <trkpt lat="44.4778" lon="6.82201">
        <ele>1877.608</ele>
        <time>2020-03-04T03:51:28Z</time>
      </trkpt>
      <trkpt lat="44.47785" lon="6.82245">
        <ele>1884.366</ele>
        <time>2020-03-04T03:51:48Z</time>
      </trkpt>
      <trkpt lat="44.47793" lon="6.82295">
        <ele>1884.759</ele>
        <time>2020-03-04T03:52:08Z</time>
      </trkpt>
      <trkpt lat="44.47796" lon="6.82337">
        <ele>1883.336</ele>
        <time>2020-03-04T03:52:28Z</time>
      </trkpt>
      <trkpt lat="44.47799" lon="6.82372">
        <ele>1884.515</ele>
        <time>2020-03-04T03:52:48Z</time>
      </trkpt>
      <trkpt lat="44.47809" lon="6.82423">
        <ele>1888.993</ele>
        <time>2020-03-04T03:53:08Z</time>
      </trkpt>
      <trkpt lat="44.47809" lon="6.82493">
        <ele>1886.064</ele>
        <time>2020-03-04T03:53:28Z</time>
      </trkpt>
      <trkpt lat="44.47814" lon="6.82531">
        <ele>1887.436</ele>
        <time>2020-03-04T03:53:48Z</time>
      </trkpt>
      <trkpt lat="44.47821" lon="6.8255">
        <ele>1891.212</ele>
        <time>2020-03-04T03:54:08Z</time>
      </trkpt>
      <trkpt lat="44.47806" lon="6.82566">
        <ele>1886.553</ele>
        <time>2020-03-04T03:54:28Z</time>
      </trkpt>
      <trkpt lat="44.47802" lon="6.82589">
        <ele>1889.104</ele>
        <time>2020-03-04T03:54:48Z</time>
      </trkpt>
      <trkpt lat="44.478" lon="6.82629">
        <ele>1894.414</ele>
        <time>2020-03-04T03:55:08Z</time>
      </trkpt>
      <trkpt lat="44.47806" lon="6.82655">
        <ele>1898.908</ele>
        <time>2020-03-04T03:55:28Z</time>
      </trkpt>
      <trkpt lat="44.47813" lon="6.82672">
        <ele>1903.389</ele>
        <time>2020-03-04T03:55:48Z</time>
      </trkpt>
      <trkpt lat="44.47802" lon="6.82694">
        <ele>1900.172</ele>
        <time>2020-03-04T03:56:08Z</time>
      </trkpt>
      <trkpt lat="44.47783" lon="6.8269">
        <ele>1899.689</ele>
        <time>2020-03-04T03:56:28Z</time>
      </trkpt>
      <trkpt lat="44.47758" lon="6.82677">
        <ele>1898.578</ele>
        <time>2020-03-04T03:56:48Z</time>
      </trkpt>
      <trkpt lat="44.47713" lon="6.82665">
        <ele>1904.936</ele>
        <time>2020-03-04T03:57:08Z</time>
      </trkpt>
      <trkpt lat="44.47679" lon="6.82665">
        <ele>1913.687</ele>
        <time>2020-03-04T03:57:28Z</time>
      </trkpt>
      <trkpt lat="44.47665" lon="6.82644">
        <ele>1911.299</ele>
        <time>2020-03-04T03:57:48Z</time>
      </trkpt>
      <trkpt lat="44.47658" lon="6.82623">
        <ele>1909.695</ele>
        <time>2020-03-04T03:58:08Z</time>
      </trkpt>
      <trkpt lat="44.47634" lon="6.82605">
        <ele>1914.372</ele>
        <time>2020-03-04T03:58:28Z</time>
      </trkpt>
      <trkpt lat="44.47636" lon="6.82614">
        <ele>1915.813</ele>
        <time>2020-03-04T03:58:48Z</time>
      </trkpt>
      <trkpt lat="44.47652" lon="6.82645">
        <ele>1917.014</ele>
        <time>2020-03-04T03:59:08Z</time>
      </trkpt>
      <trkpt lat="44.47673" lon="6.82694">
        <ele>1925.708</ele>
        <time>2020-03-04T03:59:28Z</time>
      </trkpt>
      <trkpt lat="44.47706" lon="6.82709">
        <ele>1926.251</ele>
        <time>2020-03-04T03:59:48Z</time>
      </trkpt>
      <trkpt lat="44.47714" lon="6.82719">
        <ele>1929.374</ele>
        <time>2020-03-04T04:00:08Z</time>
      </trkpt>
      <trkpt lat="44.47694" lon="6.8275">
        <ele>1940.031</ele>
        <time>2020-03-04T04:00:28Z</time>
      </trkpt>
      <trkpt lat="44.47675" lon="6.82771">
        <ele>1942.84</ele>
        <time>2020-03-04T04:00:48Z</time>
      </trkpt>
      <trkpt lat="44.47678" lon="6.82782">
        <ele>1944.758</ele>
        <time>2020-03-04T04:01:08Z</time>
      </trkpt>
      <trkpt lat="44.47695" lon="6.82792">
        <ele>1946.669</ele>
        <time>2020-03-04T04:01:28Z</time>
      </trkpt>
      <trkpt lat="44.47718" lon="6.82793">
        <ele>1948.821</ele>
        <time>2020-03-04T04:01:48Z</time>
      </trkpt>
      <trkpt lat="44.47735" lon="6.82797">
        <ele>1949.387</ele>
        <time>2020-03-04T04:02:08Z</time>
      </trkpt>
      <trkpt lat="44.47752" lon="6.82798">
        <ele>1947.851</ele>
        <time>2020-03-04T04:02:28Z</time>
      </trkpt>
      <trkpt lat="44.47754" lon="6.82808">
        <ele>1950.401</ele>
        <time>2020-03-04T04:02:48Z</time>
      </trkpt>
      <trkpt lat="44.47736" lon="6.82829">
        <ele>1956.911</ele>
        <time>2020-03-04T04:03:08Z</time>
      </trkpt>
      <trkpt lat="44.47722" lon="6.8285">
        <ele>1960.908</ele>
        <time>2020-03-04T04:03:28Z</time>
      </trkpt>
      <trkpt lat="44.47672" lon="6.82875">
        <ele>1962.499</ele>
        <time>2020-03-04T04:03:48Z</time>
      </trkpt>
      <trkpt lat="44.47675" lon="6.82886">
        <ele>1965.082</ele>
        <time>2020-03-04T04:04:08Z</time>
      </trkpt>
      <trkpt lat="44.47694" lon="6.82882">
        <ele>1965.689</ele>
        <time>2020-03-04T04:04:28Z</time>
      </trkpt>
      <trkpt lat="44.4771" lon="6.82887">
        <ele>1967.818</ele>
        <time>2020-03-04T04:04:48Z</time>
      </trkpt>
      <trkpt lat="44.47742" lon="6.82903">
        <ele>1973.646</ele>
        <time>2020-03-04T04:05:08Z</time>
      </trkpt>
      <trkpt lat="44.47762" lon="6.82902">
        <ele>1973.957</ele>
        <time>2020-03-04T04:05:28Z</time>
      </trkpt>
      <trkpt lat="44.47785" lon="6.82911">
        <ele>1974.279</ele>
        <time>2020-03-04T04:05:48Z</time>
      </trkpt>
      <trkpt lat="44.47801" lon="6.82929">
        <ele>1974.135</ele>
        <time>2020-03-04T04:06:08Z</time>
      </trkpt>
      <trkpt lat="44.47804" lon="6.82959">
        <ele>1979.562</ele>
        <time>2020-03-04T04:06:28Z</time>
      </trkpt>
      <trkpt lat="44.47807" lon="6.82982">
        <ele>1984.383</ele>
        <time>2020-03-04T04:06:48Z</time>
      </trkpt>
      <trkpt lat="44.47814" lon="6.82982">
        <ele>1985.011</ele>
        <time>2020-03-04T04:07:08Z</time>
      </trkpt>
      <trkpt lat="44.47827" lon="6.82957">
        <ele>1979.708</ele>
        <time>2020-03-04T04:07:28Z</time>
      </trkpt>
      <trkpt lat="44.4784" lon="6.82953">
        <ele>1978.09</ele>
        <time>2020-03-04T04:07:48Z</time>
      </trkpt>
      <trkpt lat="44.47851" lon="6.82963">
        <ele>1979.393</ele>
        <time>2020-03-04T04:08:08Z</time>
      </trkpt>
      <trkpt lat="44.47856" lon="6.82971">
        <ele>1980.63</ele>
        <time>2020-03-04T04:08:28Z</time>
      </trkpt>
      <trkpt lat="44.47857" lon="6.82996">
        <ele>1985.289</ele>
        <time>2020-03-04T04:08:48Z</time>
      </trkpt>
      <trkpt lat="44.47869" lon="6.83004">
        <ele>1983.617</ele>
        <time>2020-03-04T04:09:08Z</time>
      </trkpt>
      <trkpt lat="44.47882" lon="6.83016">
        <ele>1983.868</ele>
        <time>2020-03-04T04:09:28Z</time>
      </trkpt>
      <trkpt lat="44.47925" lon="6.8306">
        <ele>1989.78</ele>
        <time>2020-03-04T04:09:48Z</time>
      </trkpt>
      <trkpt lat="44.47952" lon="6.83093">
        <ele>1994.416</ele>
        <time>2020-03-04T04:10:08Z</time>
      </trkpt>
      <trkpt lat="44.47964" lon="6.83106">
        <ele>1997.133</ele>
        <time>2020-03-04T04:10:28Z</time>
      </trkpt>
      <trkpt lat="44.47973" lon="6.83113">
        <ele>1997.823</ele>
        <time>2020-03-04T04:10:48Z</time>
      </trkpt>
      <trkpt lat="44.47979" lon="6.83112">
        <ele>1999.815</ele>
        <time>2020-03-04T04:11:08Z</time>
      </trkpt>
      <trkpt lat="44.47989" lon="6.83099">
        <ele>2003.108</ele>
        <time>2020-03-04T04:11:28Z</time>
      </trkpt>
      <trkpt lat="44.47989" lon="6.83056">
        <ele>2005.757</ele>
        <time>2020-03-04T04:11:48Z</time>
      </trkpt>
      <trkpt lat="44.47978" lon="6.82996">
        <ele>2006.09</ele>
        <time>2020-03-04T04:12:08Z</time>
      </trkpt>
      <trkpt lat="44.47979" lon="6.82972">
        <ele>2007.697</ele>
        <time>2020-03-04T04:12:28Z</time>
      </trkpt>
      <trkpt lat="44.47986" lon="6.82945">
        <ele>2011.816</ele>
        <time>2020-03-04T04:12:48Z</time>
      </trkpt>
      <trkpt lat="44.47986" lon="6.82926">
        <ele>2011.074</ele>
        <time>2020-03-04T04:13:08Z</time>
      </trkpt>
      <trkpt lat="44.4799" lon="6.8291">
        <ele>2012.515</ele>
        <time>2020-03-04T04:13:28Z</time>
      </trkpt>
      <trkpt lat="44.47996" lon="6.82917">
        <ele>2016.537</ele>
        <time>2020-03-04T04:13:48Z</time>
      </trkpt>
      <trkpt lat="44.47991" lon="6.82937">
        <ele>2014.963</ele>
        <time>2020-03-04T04:14:08Z</time>
      </trkpt>
      <trkpt lat="44.47994" lon="6.82958">
        <ele>2017.183</ele>
        <time>2020-03-04T04:14:28Z</time>
      </trkpt>
      <trkpt lat="44.47995" lon="6.82984">
        <ele>2017.825</ele>
        <time>2020-03-04T04:14:48Z</time>
      </trkpt>
      <trkpt lat="44.48003" lon="6.82999">
        <ele>2021.817</ele>
        <time>2020-03-04T04:15:08Z</time>
      </trkpt>
      <trkpt lat="44.48013" lon="6.83013">
        <ele>2025.008</ele>
        <time>2020-03-04T04:15:28Z</time>
      </trkpt>
      <trkpt lat="44.48023" lon="6.83035">
        <ele>2027.842</ele>
        <time>2020-03-04T04:15:48Z</time>
      </trkpt>
      <trkpt lat="44.4802" lon="6.82999">
        <ele>2030.395</ele>
        <time>2020-03-04T04:16:08Z</time>
      </trkpt>
      <trkpt lat="44.48017" lon="6.82982">
        <ele>2030.122</ele>
        <time>2020-03-04T04:16:28Z</time>
      </trkpt>
      <trkpt lat="44.48023" lon="6.82955">
        <ele>2034.621</ele>
        <time>2020-03-04T04:16:48Z</time>
      </trkpt>
      <trkpt lat="44.48029" lon="6.82958">
        <ele>2038.699</ele>
        <time>2020-03-04T04:17:08Z</time>
      </trkpt>
      <trkpt lat="44.48028" lon="6.82975">
        <ele>2037.04</ele>
        <time>2020-03-04T04:17:28Z</time>
      </trkpt>
      <trkpt lat="44.48046" lon="6.83008">
        <ele>2044.462</ele>
        <time>2020-03-04T04:17:48Z</time>
      </trkpt>
      <trkpt lat="44.48057" lon="6.83041">
        <ele>2046.588</ele>
        <time>2020-03-04T04:18:08Z</time>
      </trkpt>
      <trkpt lat="44.48077" lon="6.83069">
        <ele>2051.223</ele>
        <time>2020-03-04T04:18:28Z</time>
      </trkpt>
      <trkpt lat="44.48081" lon="6.83093">
        <ele>2050.183</ele>
        <time>2020-03-04T04:18:48Z</time>
      </trkpt>
      <trkpt lat="44.48093" lon="6.83104">
        <ele>2053.711</ele>
        <time>2020-03-04T04:19:08Z</time>
      </trkpt>
      <trkpt lat="44.48093" lon="6.83083">
        <ele>2055.708</ele>
        <time>2020-03-04T04:19:28Z</time>
      </trkpt>
      <trkpt lat="44.48091" lon="6.83057">
        <ele>2059.546</ele>
        <time>2020-03-04T04:19:48Z</time>
      </trkpt>
      <trkpt lat="44.48085" lon="6.83034">
        <ele>2061.039</ele>
        <time>2020-03-04T04:20:08Z</time>
      </trkpt>
      <trkpt lat="44.48095" lon="6.83042">
        <ele>2064.426</ele>
        <time>2020-03-04T04:20:28Z</time>
      </trkpt>
      <trkpt lat="44.48102" lon="6.83057">
        <ele>2064.425</ele>
        <time>2020-03-04T04:20:48Z</time>
      </trkpt>
      <trkpt lat="44.48113" lon="6.83073">
        <ele>2066.143</ele>
        <time>2020-03-04T04:21:08Z</time>
      </trkpt>
      <trkpt lat="44.48133" lon="6.8309">
        <ele>2070.474</ele>
        <time>2020-03-04T04:21:28Z</time>
      </trkpt>
      <trkpt lat="44.48144" lon="6.83105">
        <ele>2071.866</ele>
        <time>2020-03-04T04:21:48Z</time>
      </trkpt>
      <trkpt lat="44.4816" lon="6.83117">
        <ele>2075.492</ele>
        <time>2020-03-04T04:22:08Z</time>
      </trkpt>
      <trkpt lat="44.48188" lon="6.83132">
        <ele>2081.718</ele>
        <time>2020-03-04T04:22:28Z</time>
      </trkpt>
      <trkpt lat="44.48198" lon="6.83147">
        <ele>2081.798</ele>
        <time>2020-03-04T04:22:48Z</time>
      </trkpt>
      <trkpt lat="44.48204" lon="6.8316">
        <ele>2082.217</ele>
        <time>2020-03-04T04:23:08Z</time>
      </trkpt>
      <trkpt lat="44.48214" lon="6.83169">
        <ele>2085.108</ele>
        <time>2020-03-04T04:23:28Z</time>
      </trkpt>
      <trkpt lat="44.48226" lon="6.83216">
        <ele>2086.995</ele>
        <time>2020-03-04T04:23:48Z</time>
      </trkpt>
      <trkpt lat="44.48231" lon="6.83232">
        <ele>2088.638</ele>
        <time>2020-03-04T04:24:08Z</time>
      </trkpt>
      <trkpt lat="44.48237" lon="6.83275">
        <ele>2093.015</ele>
        <time>2020-03-04T04:24:28Z</time>
      </trkpt>
      <trkpt lat="44.48236" lon="6.83315">
        <ele>2096.374</ele>
        <time>2020-03-04T04:24:48Z</time>
      </trkpt>
      <trkpt lat="44.48247" lon="6.83292">
        <ele>2099.062</ele>
        <time>2020-03-04T04:25:08Z</time>
      </trkpt>
      <trkpt lat="44.4826" lon="6.83266">
        <ele>2102.633</ele>
        <time>2020-03-04T04:25:28Z</time>
      </trkpt>
      <trkpt lat="44.48264" lon="6.83242">
        <ele>2103.895</ele>
        <time>2020-03-04T04:25:48Z</time>
      </trkpt>
      <trkpt lat="44.48268" lon="6.83254">
        <ele>2105.441</ele>
        <time>2020-03-04T04:26:08Z</time>
      </trkpt>
      <trkpt lat="44.48269" lon="6.83277">
        <ele>2107.171</ele>
        <time>2020-03-04T04:26:28Z</time>
      </trkpt>
      <trkpt lat="44.48267" lon="6.83306">
        <ele>2108.641</ele>
        <time>2020-03-04T04:26:48Z</time>
      </trkpt>
      <trkpt lat="44.4827" lon="6.83328">
        <ele>2110.715</ele>
        <time>2020-03-04T04:27:08Z</time>
      </trkpt>
      <trkpt lat="44.48275" lon="6.83312">
        <ele>2112.108</ele>
        <time>2020-03-04T04:27:28Z</time>
      </trkpt>
      <trkpt lat="44.48286" lon="6.83286">
        <ele>2115.651</ele>
        <time>2020-03-04T04:27:48Z</time>
      </trkpt>
      <trkpt lat="44.48295" lon="6.83272">
        <ele>2119.294</ele>
        <time>2020-03-04T04:28:08Z</time>
      </trkpt>
      <trkpt lat="44.483" lon="6.83251">
        <ele>2121.191</ele>
        <time>2020-03-04T04:28:28Z</time>
      </trkpt>
      <trkpt lat="44.48304" lon="6.83264">
        <ele>2123.04</ele>
        <time>2020-03-04T04:28:48Z</time>
      </trkpt>
      <trkpt lat="44.48299" lon="6.8329">
        <ele>2122.088</ele>
        <time>2020-03-04T04:29:08Z</time>
      </trkpt>
      <trkpt lat="44.48307" lon="6.83315">
        <ele>2126.659</ele>
        <time>2020-03-04T04:29:28Z</time>
      </trkpt>
      <trkpt lat="44.48302" lon="6.83339">
        <ele>2124.981</ele>
        <time>2020-03-04T04:29:48Z</time>
      </trkpt>
      <trkpt lat="44.48304" lon="6.83353">
        <ele>2126.827</ele>
        <time>2020-03-04T04:30:08Z</time>
      </trkpt>
      <trkpt lat="44.48303" lon="6.83369">
        <ele>2127.586</ele>
        <time>2020-03-04T04:30:28Z</time>
      </trkpt>
      <trkpt lat="44.4831" lon="6.83382">
        <ele>2131.86</ele>
        <time>2020-03-04T04:30:48Z</time>
      </trkpt>
      <trkpt lat="44.48313" lon="6.83363">
        <ele>2131.426</ele>
        <time>2020-03-04T04:31:08Z</time>
      </trkpt>
      <trkpt lat="44.48318" lon="6.83349">
        <ele>2132.508</ele>
        <time>2020-03-04T04:31:28Z</time>
      </trkpt>
      <trkpt lat="44.48332" lon="6.83319">
        <ele>2137.872</ele>
        <time>2020-03-04T04:31:48Z</time>
      </trkpt>
      <trkpt lat="44.48333" lon="6.83303">
        <ele>2138.725</ele>
        <time>2020-03-04T04:32:08Z</time>
      </trkpt>
      <trkpt lat="44.48335" lon="6.8328">
        <ele>2139.832</ele>
        <time>2020-03-04T04:32:28Z</time>
      </trkpt>
      <trkpt lat="44.48344" lon="6.83313">
        <ele>2145.551</ele>
        <time>2020-03-04T04:32:48Z</time>
      </trkpt>
      <trkpt lat="44.48348" lon="6.83369">
        <ele>2150.719</ele>
        <time>2020-03-04T04:33:08Z</time>
      </trkpt>
      <trkpt lat="44.48348" lon="6.83395">
        <ele>2152.13</ele>
        <time>2020-03-04T04:33:28Z</time>
      </trkpt>
      <trkpt lat="44.48361" lon="6.83432">
        <ele>2156.542</ele>
        <time>2020-03-04T04:33:48Z</time>
      </trkpt>
      <trkpt lat="44.48382" lon="6.83452">
        <ele>2162.848</ele>
        <time>2020-03-04T04:34:08Z</time>
      </trkpt>
      <trkpt lat="44.48397" lon="6.83479">
        <ele>2166.297</ele>
        <time>2020-03-04T04:34:28Z</time>
      </trkpt>
      <trkpt lat="44.48392" lon="6.83441">
        <ele>2169.323</ele>
        <time>2020-03-04T04:34:48Z</time>
      </trkpt>
      <trkpt lat="44.48382" lon="6.83421">
        <ele>2168.225</ele>
        <time>2020-03-04T04:35:08Z</time>
      </trkpt>
      <trkpt lat="44.4839" lon="6.83424">
        <ele>2171.308</ele>
        <time>2020-03-04T04:35:28Z</time>
      </trkpt>
      <trkpt lat="44.48417" lon="6.83462">
        <ele>2178.183</ele>
        <time>2020-03-04T04:35:48Z</time>
      </trkpt>
      <trkpt lat="44.48444" lon="6.83513">
        <ele>2182.716</ele>
        <time>2020-03-04T04:36:08Z</time>
      </trkpt>
      <trkpt lat="44.4845" lon="6.83556">
        <ele>2184.423</ele>
        <time>2020-03-04T04:36:28Z</time>
      </trkpt>
      <trkpt lat="44.48489" lon="6.83623">
        <ele>2196.622</ele>
        <time>2020-03-04T04:36:48Z</time>
      </trkpt>
      <trkpt lat="44.48506" lon="6.83645">
        <ele>2201.37</ele>
        <time>2020-03-04T04:37:08Z</time>
      </trkpt>
      <trkpt lat="44.48514" lon="6.83675">
        <ele>2204.171</ele>
        <time>2020-03-04T04:37:28Z</time>
      </trkpt>
      <trkpt lat="44.48519" lon="6.83758">
        <ele>2210.223</ele>
        <time>2020-03-04T04:37:48Z</time>
      </trkpt>
      <trkpt lat="44.48539" lon="6.83801">
        <ele>2215.529</ele>
        <time>2020-03-04T04:38:08Z</time>
      </trkpt>
      <trkpt lat="44.48557" lon="6.83834">
        <ele>2217.778</ele>
        <time>2020-03-04T04:38:28Z</time>
      </trkpt>
      <trkpt lat="44.48572" lon="6.83863">
        <ele>2221.333</ele>
        <time>2020-03-04T04:38:48Z</time>
      </trkpt>
      <trkpt lat="44.48575" lon="6.83888">
        <ele>2220.626</ele>
        <time>2020-03-04T04:39:08Z</time>
      </trkpt>
      <trkpt lat="44.4858" lon="6.83906">
        <ele>2221.008</ele>
        <time>2020-03-04T04:39:28Z</time>
      </trkpt>
      <trkpt lat="44.48573" lon="6.83916">
        <ele>2219.971</ele>
        <time>2020-03-04T04:39:48Z</time>
      </trkpt>
      <trkpt lat="44.48561" lon="6.83911">
        <ele>2218.524</ele>
        <time>2020-03-04T04:40:08Z</time>
      </trkpt>
      <trkpt lat="44.48554" lon="6.8389">
        <ele>2217.041</ele>
        <time>2020-03-04T04:40:28Z</time>
      </trkpt>
      <trkpt lat="44.48524" lon="6.8388">
        <ele>2216.67</ele>
        <time>2020-03-04T04:40:48Z</time>
      </trkpt>
      <trkpt lat="44.48498" lon="6.8386">
        <ele>2219.628</ele>
        <time>2020-03-04T04:41:08Z</time>
      </trkpt>
      <trkpt lat="44.48473" lon="6.83834">
        <ele>2224.039</ele>
        <time>2020-03-04T04:41:28Z</time>
      </trkpt>
      <trkpt lat="44.4847" lon="6.8385">
        <ele>2226.961</ele>
        <time>2020-03-04T04:41:48Z</time>
      </trkpt>
      <trkpt lat="44.48475" lon="6.83877">
        <ele>2229.397</ele>
        <time>2020-03-04T04:42:08Z</time>
      </trkpt>
      <trkpt lat="44.48478" lon="6.8392">
        <ele>2233.913</ele>
        <time>2020-03-04T04:42:28Z</time>
      </trkpt>
      <trkpt lat="44.48481" lon="6.83954">
        <ele>2236.943</ele>
        <time>2020-03-04T04:42:48Z</time>
      </trkpt>
      <trkpt lat="44.48494" lon="6.83993">
        <ele>2238.307</ele>
        <time>2020-03-04T04:43:08Z</time>
      </trkpt>
      <trkpt lat="44.48503" lon="6.84042">
        <ele>2244.608</ele>
        <time>2020-03-04T04:43:28Z</time>
      </trkpt>
      <trkpt lat="44.4852" lon="6.8407">
        <ele>2248.875</ele>
        <time>2020-03-04T04:43:48Z</time>
      </trkpt>
      <trkpt lat="44.48539" lon="6.84093">
        <ele>2251.868</ele>
        <time>2020-03-04T04:44:08Z</time>
      </trkpt>
      <trkpt lat="44.48553" lon="6.84108">
        <ele>2252.855</ele>
        <time>2020-03-04T04:44:28Z</time>
      </trkpt>
      <trkpt lat="44.48557" lon="6.84159">
        <ele>2260.794</ele>
        <time>2020-03-04T04:44:48Z</time>
      </trkpt>
      <trkpt lat="44.48559" lon="6.8421">
        <ele>2266.262</ele>
        <time>2020-03-04T04:45:08Z</time>
      </trkpt>
      <trkpt lat="44.4855" lon="6.84222">
        <ele>2269.013</ele>
        <time>2020-03-04T04:45:28Z</time>
      </trkpt>
      <trkpt lat="44.48515" lon="6.84225">
        <ele>2275.015</ele>
        <time>2020-03-04T04:45:48Z</time>
      </trkpt>
      <trkpt lat="44.485" lon="6.84201">
        <ele>2275.431</ele>
        <time>2020-03-04T04:46:08Z</time>
      </trkpt>
      <trkpt lat="44.48495" lon="6.84222">
        <ele>2278.671</ele>
        <time>2020-03-04T04:46:28Z</time>
      </trkpt>
      <trkpt lat="44.48495" lon="6.84254">
        <ele>2280.641</ele>
        <time>2020-03-04T04:46:48Z</time>
      </trkpt>
      <trkpt lat="44.48506" lon="6.84271">
        <ele>2280.015</ele>
        <time>2020-03-04T04:47:08Z</time>
      </trkpt>
      <trkpt lat="44.48524" lon="6.8432">
        <ele>2287.408</ele>
        <time>2020-03-04T04:47:28Z</time>
      </trkpt>
      <trkpt lat="44.4854" lon="6.84324">
        <ele>2286.361</ele>
        <time>2020-03-04T04:47:48Z</time>
      </trkpt>
      <trkpt lat="44.48548" lon="6.84335">
        <ele>2287.324</ele>
        <time>2020-03-04T04:48:08Z</time>
      </trkpt>
      <trkpt lat="44.48554" lon="6.84348">
        <ele>2287.831</ele>
        <time>2020-03-04T04:48:28Z</time>
      </trkpt>
      <trkpt lat="44.48545" lon="6.84386">
        <ele>2295.18</ele>
        <time>2020-03-04T04:48:48Z</time>
      </trkpt>
      <trkpt lat="44.48541" lon="6.84416">
        <ele>2298.268</ele>
        <time>2020-03-04T04:49:08Z</time>
      </trkpt>
      <trkpt lat="44.48543" lon="6.84454">
        <ele>2301.169</ele>
        <time>2020-03-04T04:49:28Z</time>
      </trkpt>
      <trkpt lat="44.48543" lon="6.84494">
        <ele>2305.571</ele>
        <time>2020-03-04T04:49:48Z</time>
      </trkpt>
      <trkpt lat="44.48534" lon="6.84565">
        <ele>2312.897</ele>
        <time>2020-03-04T04:50:08Z</time>
      </trkpt>
      <trkpt lat="44.48523" lon="6.84513">
        <ele>2313.723</ele>
        <time>2020-03-04T04:50:28Z</time>
      </trkpt>
      <trkpt lat="44.48508" lon="6.84503">
        <ele>2318.583</ele>
        <time>2020-03-04T04:50:48Z</time>
      </trkpt>
      <trkpt lat="44.48504" lon="6.84494">
        <ele>2319.011</ele>
        <time>2020-03-04T04:51:08Z</time>
      </trkpt>
      <trkpt lat="44.48489" lon="6.84482">
        <ele>2323.608</ele>
        <time>2020-03-04T04:51:28Z</time>
      </trkpt>
      <trkpt lat="44.48485" lon="6.84454">
        <ele>2323.566</ele>
        <time>2020-03-04T04:51:48Z</time>
      </trkpt>
      <trkpt lat="44.48473" lon="6.84399">
        <ele>2326.659</ele>
        <time>2020-03-04T04:52:08Z</time>
      </trkpt>
      <trkpt lat="44.4847" lon="6.84424">
        <ele>2329.126</ele>
        <time>2020-03-04T04:52:28Z</time>
      </trkpt>
      <trkpt lat="44.48467" lon="6.84439">
        <ele>2331.085</ele>
        <time>2020-03-04T04:52:48Z</time>
      </trkpt>
      <trkpt lat="44.48448" lon="6.84472">
        <ele>2337.873</ele>
        <time>2020-03-04T04:53:08Z</time>
      </trkpt>
      <trkpt lat="44.48447" lon="6.84486">
        <ele>2337.674</ele>
        <time>2020-03-04T04:53:28Z</time>
      </trkpt>
      <trkpt lat="44.4845" lon="6.845">
        <ele>2336.336</ele>
        <time>2020-03-04T04:53:48Z</time>
      </trkpt>
      <trkpt lat="44.48457" lon="6.84552">
        <ele>2340.482</ele>
        <time>2020-03-04T04:54:08Z</time>
      </trkpt>
      <trkpt lat="44.48413" lon="6.8464">
        <ele>2354.223</ele>
        <time>2020-03-04T04:54:28Z</time>
      </trkpt>
      <trkpt lat="44.48402" lon="6.84662">
        <ele>2356.983</ele>
        <time>2020-03-04T04:54:48Z</time>
      </trkpt>
      <trkpt lat="44.48372" lon="6.84704">
        <ele>2363.111</ele>
        <time>2020-03-04T04:55:08Z</time>
      </trkpt>
      <trkpt lat="44.48354" lon="6.84731">
        <ele>2365.808</ele>
        <time>2020-03-04T04:55:28Z</time>
      </trkpt>
      <trkpt lat="44.48296" lon="6.84767">
        <ele>2374.516</ele>
        <time>2020-03-04T04:55:48Z</time>
      </trkpt>
      <trkpt lat="44.4823" lon="6.84821">
        <ele>2381.729</ele>
        <time>2020-03-04T04:56:08Z</time>
      </trkpt>
      <trkpt lat="44.48196" lon="6.84823">
        <ele>2388.326</ele>
        <time>2020-03-04T04:56:28Z</time>
      </trkpt>
      <trkpt lat="44.48163" lon="6.84838">
        <ele>2393.575</ele>
        <time>2020-03-04T04:56:48Z</time>
      </trkpt>
      <trkpt lat="44.48149" lon="6.84841">
        <ele>2396.973</ele>
        <time>2020-03-04T04:57:08Z</time>
      </trkpt>
      <trkpt lat="44.48134" lon="6.84854">
        <ele>2397.874</ele>
        <time>2020-03-04T04:57:28Z</time>
      </trkpt>
      <trkpt lat="44.4811" lon="6.84859">
        <ele>2399.616</ele>
        <time>2020-03-04T04:57:48Z</time>
      </trkpt>
      <trkpt lat="44.48077" lon="6.84879">
        <ele>2400.942</ele>
        <time>2020-03-04T04:58:08Z</time>
      </trkpt>
      <trkpt lat="44.4804" lon="6.84908">
        <ele>2406.449</ele>
        <time>2020-03-04T04:58:28Z</time>
      </trkpt>
      <trkpt lat="44.48007" lon="6.84976">
        <ele>2414.802</ele>
        <time>2020-03-04T04:58:48Z</time>
      </trkpt>
      <trkpt lat="44.47973" lon="6.85">
        <ele>2420.022</ele>
        <time>2020-03-04T04:59:08Z</time>
      </trkpt>
      <trkpt lat="44.47952" lon="6.85014">
        <ele>2421.508</ele>
        <time>2020-03-04T04:59:28Z</time>
      </trkpt>
      <trkpt lat="44.47939" lon="6.85007">
        <ele>2422.368</ele>
        <time>2020-03-04T04:59:48Z</time>
      </trkpt>
      <trkpt lat="44.47915" lon="6.84978">
        <ele>2430.991</ele>
        <time>2020-03-04T05:00:08Z</time>
      </trkpt>
      <trkpt lat="44.47928" lon="6.84957">
        <ele>2429.218</ele>
        <time>2020-03-04T05:00:28Z</time>
      </trkpt>
      <trkpt lat="44.47932" lon="6.84942">
        <ele>2430.237</ele>
        <time>2020-03-04T05:00:48Z</time>
      </trkpt>
      <trkpt lat="44.47926" lon="6.84932">
        <ele>2432.065</ele>
        <time>2020-03-04T05:01:08Z</time>
      </trkpt>
      <trkpt lat="44.47915" lon="6.84927">
        <ele>2435.096</ele>
        <time>2020-03-04T05:01:28Z</time>
      </trkpt>
      <trkpt lat="44.47901" lon="6.84932">
        <ele>2438.758</ele>
        <time>2020-03-04T05:01:48Z</time>
      </trkpt>
      <trkpt lat="44.47879" lon="6.8497">
        <ele>2443.514</ele>
        <time>2020-03-04T05:02:08Z</time>
      </trkpt>
      <trkpt lat="44.47874" lon="6.85001">
        <ele>2443.486</ele>
        <time>2020-03-04T05:02:28Z</time>
      </trkpt>
      <trkpt lat="44.47875" lon="6.85037">
        <ele>2445.96</ele>
        <time>2020-03-04T05:02:48Z</time>
      </trkpt>
      <trkpt lat="44.47867" lon="6.8509">
        <ele>2449.926</ele>
        <time>2020-03-04T05:03:08Z</time>
      </trkpt>
      <trkpt lat="44.47808" lon="6.85127">
        <ele>2465.908</ele>
        <time>2020-03-04T05:03:28Z</time>
      </trkpt>
      <trkpt lat="44.47789" lon="6.85139">
        <ele>2467.242</ele>
        <time>2020-03-04T05:03:48Z</time>
      </trkpt>
      <trkpt lat="44.47747" lon="6.85199">
        <ele>2472.565</ele>
        <time>2020-03-04T05:04:08Z</time>
      </trkpt>
      <trkpt lat="44.47738" lon="6.8523">
        <ele>2475.662</ele>
        <time>2020-03-04T05:04:28Z</time>
      </trkpt>
      <trkpt lat="44.47737" lon="6.85185">
        <ele>2478.571</ele>
        <time>2020-03-04T05:04:48Z</time>
      </trkpt>
      <trkpt lat="44.47732" lon="6.85155">
        <ele>2484.119</ele>
        <time>2020-03-04T05:05:08Z</time>
      </trkpt>
      <trkpt lat="44.47726" lon="6.85171">
        <ele>2485.35</ele>
        <time>2020-03-04T05:05:28Z</time>
      </trkpt>
      <trkpt lat="44.47726" lon="6.85182">
        <ele>2484.852</ele>
        <time>2020-03-04T05:05:48Z</time>
      </trkpt>
      <trkpt lat="44.477" lon="6.85247">
        <ele>2490.238</ele>
        <time>2020-03-04T05:06:08Z</time>
      </trkpt>
      <trkpt lat="44.47689" lon="6.85272">
        <ele>2493.054</ele>
        <time>2020-03-04T05:06:28Z</time>
      </trkpt>
      <trkpt lat="44.47679" lon="6.8529">
        <ele>2496.456</ele>
        <time>2020-03-04T05:06:48Z</time>
      </trkpt>
      <trkpt lat="44.47639" lon="6.85328">
        <ele>2502.211</ele>
        <time>2020-03-04T05:07:08Z</time>
      </trkpt>
      <trkpt lat="44.47615" lon="6.85302">
        <ele>2506.508</ele>
        <time>2020-03-04T05:07:28Z</time>
      </trkpt>
      <trkpt lat="44.47623" lon="6.85296">
        <ele>2505.699</ele>
        <time>2020-03-04T05:07:48Z</time>
      </trkpt>
      <trkpt lat="44.47626" lon="6.853">
        <ele>2505.152</ele>
        <time>2020-03-04T05:08:08Z</time>
      </trkpt>
      <trkpt lat="44.4762" lon="6.85302">
        <ele>2505.869</ele>
        <time>2020-03-04T05:08:28Z</time>
      </trkpt>
      <trkpt lat="44.4764" lon="6.85323">
        <ele>2502.368</ele>
        <time>2020-03-04T05:08:48Z</time>
      </trkpt>
      <trkpt lat="44.47677" lon="6.85287">
        <ele>2496.776</ele>
        <time>2020-03-04T05:09:08Z</time>
      </trkpt>
      <trkpt lat="44.47723" lon="6.85182">
        <ele>2486.127</ele>
        <time>2020-03-04T05:09:28Z</time>
      </trkpt>
      <trkpt lat="44.47722" lon="6.8517">
        <ele>2486.939</ele>
        <time>2020-03-04T05:09:48Z</time>
      </trkpt>
      <trkpt lat="44.47733" lon="6.85148">
        <ele>2484.785</ele>
        <time>2020-03-04T05:10:08Z</time>
      </trkpt>
      <trkpt lat="44.47739" lon="6.85182">
        <ele>2477.931</ele>
        <time>2020-03-04T05:10:28Z</time>
      </trkpt>
      <trkpt lat="44.47741" lon="6.85215">
        <ele>2474.461</ele>
        <time>2020-03-04T05:10:48Z</time>
      </trkpt>
      <trkpt lat="44.47744" lon="6.85196">
        <ele>2473.907</ele>
        <time>2020-03-04T05:11:08Z</time>
      </trkpt>
      <trkpt lat="44.47788" lon="6.85135">
        <ele>2468.808</ele>
        <time>2020-03-04T05:11:28Z</time>
      </trkpt>
      <trkpt lat="44.47865" lon="6.85088">
        <ele>2450.597</ele>
        <time>2020-03-04T05:11:48Z</time>
      </trkpt>
      <trkpt lat="44.47872" lon="6.85037">
        <ele>2447.28</ele>
        <time>2020-03-04T05:12:08Z</time>
      </trkpt>
      <trkpt lat="44.47873" lon="6.85001">
        <ele>2444.087</ele>
        <time>2020-03-04T05:12:28Z</time>
      </trkpt>
      <trkpt lat="44.47877" lon="6.84968">
        <ele>2444.576</ele>
        <time>2020-03-04T05:12:48Z</time>
      </trkpt>
      <trkpt lat="44.47902" lon="6.84927">
        <ele>2438.844</ele>
        <time>2020-03-04T05:13:08Z</time>
      </trkpt>
      <trkpt lat="44.47917" lon="6.84925">
        <ele>2434.725</ele>
        <time>2020-03-04T05:13:28Z</time>
      </trkpt>
      <trkpt lat="44.47929" lon="6.84931">
        <ele>2431.267</ele>
        <time>2020-03-04T05:13:48Z</time>
      </trkpt>
      <trkpt lat="44.47935" lon="6.84942">
        <ele>2429.513</ele>
        <time>2020-03-04T05:14:08Z</time>
      </trkpt>
      <trkpt lat="44.47929" lon="6.84963">
        <ele>2428.183</ele>
        <time>2020-03-04T05:14:28Z</time>
      </trkpt>
      <trkpt lat="44.47918" lon="6.84978">
        <ele>2429.825</ele>
        <time>2020-03-04T05:14:48Z</time>
      </trkpt>
      <trkpt lat="44.47939" lon="6.85003">
        <ele>2421.817</ele>
        <time>2020-03-04T05:15:08Z</time>
      </trkpt>
      <trkpt lat="44.4795" lon="6.8501">
        <ele>2421.108</ele>
        <time>2020-03-04T05:15:28Z</time>
      </trkpt>
      <trkpt lat="44.48004" lon="6.84975">
        <ele>2414.912</ele>
        <time>2020-03-04T05:15:48Z</time>
      </trkpt>
      <trkpt lat="44.4804" lon="6.84905">
        <ele>2406.535</ele>
        <time>2020-03-04T05:16:08Z</time>
      </trkpt>
      <trkpt lat="44.48077" lon="6.84874">
        <ele>2401.182</ele>
        <time>2020-03-04T05:16:28Z</time>
      </trkpt>
      <trkpt lat="44.48112" lon="6.84855">
        <ele>2400.171</ele>
        <time>2020-03-04T05:16:48Z</time>
      </trkpt>
      <trkpt lat="44.48132" lon="6.84852">
        <ele>2398.669</ele>
        <time>2020-03-04T05:17:08Z</time>
      </trkpt>
      <trkpt lat="44.48149" lon="6.84837">
        <ele>2397.55</ele>
        <time>2020-03-04T05:17:28Z</time>
      </trkpt>
      <trkpt lat="44.48162" lon="6.84837">
        <ele>2393.822</ele>
        <time>2020-03-04T05:17:48Z</time>
      </trkpt>
      <trkpt lat="44.48198" lon="6.84819">
        <ele>2388.058</ele>
        <time>2020-03-04T05:18:08Z</time>
      </trkpt>
      <trkpt lat="44.48229" lon="6.84817">
        <ele>2381.476</ele>
        <time>2020-03-04T05:18:28Z</time>
      </trkpt>
      <trkpt lat="44.48297" lon="6.84763">
        <ele>2374.19</ele>
        <time>2020-03-04T05:18:48Z</time>
      </trkpt>
      <trkpt lat="44.48353" lon="6.84728">
        <ele>2365.919</ele>
        <time>2020-03-04T05:19:08Z</time>
      </trkpt>
      <trkpt lat="44.484" lon="6.84659">
        <ele>2357.608</ele>
        <time>2020-03-04T05:19:28Z</time>
      </trkpt>
      <trkpt lat="44.48454" lon="6.84552">
        <ele>2341.771</ele>
        <time>2020-03-04T05:19:48Z</time>
      </trkpt>
      <trkpt lat="44.48448" lon="6.84501">
        <ele>2337.034</ele>
        <time>2020-03-04T05:20:08Z</time>
      </trkpt>
      <trkpt lat="44.48444" lon="6.84486">
        <ele>2338.671</ele>
        <time>2020-03-04T05:20:28Z</time>
      </trkpt>
      <trkpt lat="44.48445" lon="6.84468">
        <ele>2339.09</ele>
        <time>2020-03-04T05:20:48Z</time>
      </trkpt>
      <trkpt lat="44.48466" lon="6.84439">
        <ele>2331.468</ele>
        <time>2020-03-04T05:21:08Z</time>
      </trkpt>
      <trkpt lat="44.48473" lon="6.84393">
        <ele>2326.099</ele>
        <time>2020-03-04T05:21:28Z</time>
      </trkpt>
      <trkpt lat="44.48488" lon="6.84456">
        <ele>2322.461</ele>
        <time>2020-03-04T05:21:48Z</time>
      </trkpt>
      <trkpt lat="44.4849" lon="6.8448">
        <ele>2322.937</ele>
        <time>2020-03-04T05:22:08Z</time>
      </trkpt>
      <trkpt lat="44.48507" lon="6.84493">
        <ele>2317.978</ele>
        <time>2020-03-04T05:22:28Z</time>
      </trkpt>
      <trkpt lat="44.4851" lon="6.84501">
        <ele>2317.533</ele>
        <time>2020-03-04T05:22:48Z</time>
      </trkpt>
      <trkpt lat="44.48528" lon="6.84512">
        <ele>2312.026</ele>
        <time>2020-03-04T05:23:08Z</time>
      </trkpt>
      <trkpt lat="44.48534" lon="6.84556">
        <ele>2312.308</ele>
        <time>2020-03-04T05:23:28Z</time>
      </trkpt>
      <trkpt lat="44.48541" lon="6.84497">
        <ele>2306.611</ele>
        <time>2020-03-04T05:23:48Z</time>
      </trkpt>
      <trkpt lat="44.48539" lon="6.84411">
        <ele>2299.054</ele>
        <time>2020-03-04T05:24:08Z</time>
      </trkpt>
      <trkpt lat="44.48544" lon="6.84382">
        <ele>2295.051</ele>
        <time>2020-03-04T05:24:28Z</time>
      </trkpt>
      <trkpt lat="44.48551" lon="6.84349">
        <ele>2288.69</ele>
        <time>2020-03-04T05:24:48Z</time>
      </trkpt>
      <trkpt lat="44.48545" lon="6.84337">
        <ele>2288.088</ele>
        <time>2020-03-04T05:25:08Z</time>
      </trkpt>
      <trkpt lat="44.48539" lon="6.84328">
        <ele>2287.229</ele>
        <time>2020-03-04T05:25:28Z</time>
      </trkpt>
      <trkpt lat="44.4852" lon="6.84321">
        <ele>2288.421</ele>
        <time>2020-03-04T05:25:48Z</time>
      </trkpt>
      <trkpt lat="44.48503" lon="6.84273">
        <ele>2280.467</ele>
        <time>2020-03-04T05:26:08Z</time>
      </trkpt>
      <trkpt lat="44.48493" lon="6.84254">
        <ele>2281.345</ele>
        <time>2020-03-04T05:26:28Z</time>
      </trkpt>
      <trkpt lat="44.48493" lon="6.84221">
        <ele>2279.147</ele>
        <time>2020-03-04T05:26:48Z</time>
      </trkpt>
      <trkpt lat="44.48499" lon="6.84198">
        <ele>2275.511</ele>
        <time>2020-03-04T05:27:08Z</time>
      </trkpt>
      <trkpt lat="44.48516" lon="6.84219">
        <ele>2274.508</ele>
        <time>2020-03-04T05:27:28Z</time>
      </trkpt>
      <trkpt lat="44.48549" lon="6.84219">
        <ele>2268.898</ele>
        <time>2020-03-04T05:27:48Z</time>
      </trkpt>
      <trkpt lat="44.48557" lon="6.84209">
        <ele>2266.421</ele>
        <time>2020-03-04T05:28:08Z</time>
      </trkpt>
      <trkpt lat="44.48552" lon="6.84112">
        <ele>2253.868</ele>
        <time>2020-03-04T05:28:28Z</time>
      </trkpt>
      <trkpt lat="44.48532" lon="6.8409">
        <ele>2252.117</ele>
        <time>2020-03-04T05:28:48Z</time>
      </trkpt>
      <trkpt lat="44.48502" lon="6.84046">
        <ele>2245.785</ele>
        <time>2020-03-04T05:29:08Z</time>
      </trkpt>
      <trkpt lat="44.48492" lon="6.83996">
        <ele>2239.246</ele>
        <time>2020-03-04T05:29:28Z</time>
      </trkpt>
      <trkpt lat="44.48479" lon="6.8395">
        <ele>2237.128</ele>
        <time>2020-03-04T05:29:48Z</time>
      </trkpt>
      <trkpt lat="44.48473" lon="6.83878">
        <ele>2230.124</ele>
        <time>2020-03-04T05:30:08Z</time>
      </trkpt>
      <trkpt lat="44.48468" lon="6.83845">
        <ele>2227.149</ele>
        <time>2020-03-04T05:30:28Z</time>
      </trkpt>
      <trkpt lat="44.48473" lon="6.83829">
        <ele>2223.102</ele>
        <time>2020-03-04T05:30:48Z</time>
      </trkpt>
      <trkpt lat="44.485" lon="6.83858">
        <ele>2218.422</ele>
        <time>2020-03-04T05:31:08Z</time>
      </trkpt>
      <trkpt lat="44.48524" lon="6.83876">
        <ele>2215.908</ele>
        <time>2020-03-04T05:31:28Z</time>
      </trkpt>
      <trkpt lat="44.48555" lon="6.83887">
        <ele>2216.998</ele>
        <time>2020-03-04T05:31:48Z</time>
      </trkpt>
      <trkpt lat="44.48564" lon="6.83908">
        <ele>2218.741</ele>
        <time>2020-03-04T05:32:08Z</time>
      </trkpt>
      <trkpt lat="44.48573" lon="6.83913">
        <ele>2219.968</ele>
        <time>2020-03-04T05:32:28Z</time>
      </trkpt>
      <trkpt lat="44.48578" lon="6.83906">
        <ele>2220.767</ele>
        <time>2020-03-04T05:32:48Z</time>
      </trkpt>
      <trkpt lat="44.48573" lon="6.83889">
        <ele>2220.175</ele>
        <time>2020-03-04T05:33:08Z</time>
      </trkpt>
      <trkpt lat="44.48571" lon="6.83864">
        <ele>2220.866</ele>
        <time>2020-03-04T05:33:28Z</time>
      </trkpt>
      <trkpt lat="44.48537" lon="6.83801">
        <ele>2214.688</ele>
        <time>2020-03-04T05:33:48Z</time>
      </trkpt>
      <trkpt lat="44.48518" lon="6.83758">
        <ele>2209.484</ele>
        <time>2020-03-04T05:34:08Z</time>
      </trkpt>
      <trkpt lat="44.48513" lon="6.83678">
        <ele>2203.449</ele>
        <time>2020-03-04T05:34:28Z</time>
      </trkpt>
      <trkpt lat="44.48505" lon="6.83649">
        <ele>2200.402</ele>
        <time>2020-03-04T05:34:48Z</time>
      </trkpt>
      <trkpt lat="44.48489" lon="6.83626">
        <ele>2196.122</ele>
        <time>2020-03-04T05:35:08Z</time>
      </trkpt>
      <trkpt lat="44.48448" lon="6.83557">
        <ele>2182.608</ele>
        <time>2020-03-04T05:35:28Z</time>
      </trkpt>
      <trkpt lat="44.48441" lon="6.83515">
        <ele>2181.648</ele>
        <time>2020-03-04T05:35:48Z</time>
      </trkpt>
      <trkpt lat="44.48416" lon="6.83468">
        <ele>2176.641</ele>
        <time>2020-03-04T05:36:08Z</time>
      </trkpt>
      <trkpt lat="44.48389" lon="6.83426">
        <ele>2170.558</ele>
        <time>2020-03-04T05:36:28Z</time>
      </trkpt>
      <trkpt lat="44.48387" lon="6.83426">
        <ele>2169.487</ele>
        <time>2020-03-04T05:36:48Z</time>
      </trkpt>
      <trkpt lat="44.48394" lon="6.8344">
        <ele>2170.355</ele>
        <time>2020-03-04T05:37:08Z</time>
      </trkpt>
      <trkpt lat="44.48399" lon="6.83483">
        <ele>2166.656</ele>
        <time>2020-03-04T05:37:28Z</time>
      </trkpt>
      <trkpt lat="44.48379" lon="6.83453">
        <ele>2161.498</ele>
        <time>2020-03-04T05:37:48Z</time>
      </trkpt>
      <trkpt lat="44.48361" lon="6.83435">
        <ele>2156.144</ele>
        <time>2020-03-04T05:38:08Z</time>
      </trkpt>
      <trkpt lat="44.48346" lon="6.83395">
        <ele>2151.266</ele>
        <time>2020-03-04T05:38:28Z</time>
      </trkpt>
      <trkpt lat="44.48346" lon="6.83365">
        <ele>2149.329</ele>
        <time>2020-03-04T05:38:48Z</time>
      </trkpt>
      <trkpt lat="44.48342" lon="6.83317">
        <ele>2144.321</ele>
        <time>2020-03-04T05:39:08Z</time>
      </trkpt>
      <trkpt lat="44.48336" lon="6.83294">
        <ele>2140.708</ele>
        <time>2020-03-04T05:39:28Z</time>
      </trkpt>
      <trkpt lat="44.48335" lon="6.8332">
        <ele>2139.34</ele>
        <time>2020-03-04T05:39:48Z</time>
      </trkpt>
      <trkpt lat="44.48316" lon="6.8336">
        <ele>2132.533</ele>
        <time>2020-03-04T05:40:08Z</time>
      </trkpt>
      <trkpt lat="44.48312" lon="6.83386">
        <ele>2133.09</ele>
        <time>2020-03-04T05:40:28Z</time>
      </trkpt>
      <trkpt lat="44.48302" lon="6.83369">
        <ele>2127.159</ele>
        <time>2020-03-04T05:40:48Z</time>
      </trkpt>
      <trkpt lat="44.48302" lon="6.83352">
        <ele>2125.837</ele>
        <time>2020-03-04T05:41:08Z</time>
      </trkpt>
      <trkpt lat="44.48301" lon="6.83339">
        <ele>2124.378</ele>
        <time>2020-03-04T05:41:28Z</time>
      </trkpt>
      <trkpt lat="44.48306" lon="6.83315">
        <ele>2126.24</ele>
        <time>2020-03-04T05:41:48Z</time>
      </trkpt>
      <trkpt lat="44.48299" lon="6.83292">
        <ele>2122.086</ele>
        <time>2020-03-04T05:42:08Z</time>
      </trkpt>
      <trkpt lat="44.48302" lon="6.83264">
        <ele>2122.336</ele>
        <time>2020-03-04T05:42:28Z</time>
      </trkpt>
      <trkpt lat="44.483" lon="6.83261">
        <ele>2121.417</ele>
        <time>2020-03-04T05:42:48Z</time>
      </trkpt>
      <trkpt lat="44.48296" lon="6.83276">
        <ele>2119.618</ele>
        <time>2020-03-04T05:43:08Z</time>
      </trkpt>
      <trkpt lat="44.48289" lon="6.83289">
        <ele>2116.908</ele>
        <time>2020-03-04T05:43:28Z</time>
      </trkpt>
      <trkpt lat="44.48276" lon="6.83315">
        <ele>2112.667</ele>
        <time>2020-03-04T05:43:48Z</time>
      </trkpt>
      <trkpt lat="44.48271" lon="6.83332">
        <ele>2111.37</ele>
        <time>2020-03-04T05:44:08Z</time>
      </trkpt>
      <trkpt lat="44.48266" lon="6.83308">
        <ele>2108.387</ele>
        <time>2020-03-04T05:44:28Z</time>
      </trkpt>
      <trkpt lat="44.48267" lon="6.83276">
        <ele>2106.236</ele>
        <time>2020-03-04T05:44:48Z</time>
      </trkpt>
      <trkpt lat="44.48267" lon="6.83256">
        <ele>2105.084</ele>
        <time>2020-03-04T05:45:08Z</time>
      </trkpt>
      <trkpt lat="44.48264" lon="6.83249">
        <ele>2103.795</ele>
        <time>2020-03-04T05:45:28Z</time>
      </trkpt>
      <trkpt lat="44.4826" lon="6.83268">
        <ele>2102.987</ele>
        <time>2020-03-04T05:45:48Z</time>
      </trkpt>
      <trkpt lat="44.48237" lon="6.8332">
        <ele>2096.743</ele>
        <time>2020-03-04T05:46:08Z</time>
      </trkpt>
      <trkpt lat="44.48235" lon="6.83279">
        <ele>2092.644</ele>
        <time>2020-03-04T05:46:28Z</time>
      </trkpt>
      <trkpt lat="44.4823" lon="6.83233">
        <ele>2088.105</ele>
        <time>2020-03-04T05:46:48Z</time>
      </trkpt>
      <trkpt lat="44.48214" lon="6.83172">
        <ele>2084.715</ele>
        <time>2020-03-04T05:47:08Z</time>
      </trkpt>
      <trkpt lat="44.48203" lon="6.83162">
        <ele>2081.208</ele>
        <time>2020-03-04T05:47:28Z</time>
      </trkpt>
      <trkpt lat="44.48188" lon="6.83137">
        <ele>2080.328</ele>
        <time>2020-03-04T05:47:48Z</time>
      </trkpt>
      <trkpt lat="44.48148" lon="6.83113">
        <ele>2071.521</ele>
        <time>2020-03-04T05:48:08Z</time>
      </trkpt>
      <trkpt lat="44.48131" lon="6.83092">
        <ele>2069.298</ele>
        <time>2020-03-04T05:48:28Z</time>
      </trkpt>
      <trkpt lat="44.4811" lon="6.83075">
        <ele>2064.277</ele>
        <time>2020-03-04T05:48:48Z</time>
      </trkpt>
      <trkpt lat="44.481" lon="6.83058">
        <ele>2063.295</ele>
        <time>2020-03-04T05:49:08Z</time>
      </trkpt>
      <trkpt lat="44.48094" lon="6.83043">
        <ele>2063.356</ele>
        <time>2020-03-04T05:49:28Z</time>
      </trkpt>
      <trkpt lat="44.48089" lon="6.8304">
        <ele>2061.728</ele>
        <time>2020-03-04T05:49:48Z</time>
      </trkpt>
      <trkpt lat="44.48093" lon="6.83058">
        <ele>2060.294</ele>
        <time>2020-03-04T05:50:08Z</time>
      </trkpt>
      <trkpt lat="44.48095" lon="6.83109">
        <ele>2053.645</ele>
        <time>2020-03-04T05:50:28Z</time>
      </trkpt>
      <trkpt lat="44.4808" lon="6.83095">
        <ele>2049.447</ele>
        <time>2020-03-04T05:50:48Z</time>
      </trkpt>
      <trkpt lat="44.48076" lon="6.8307">
        <ele>2050.511</ele>
        <time>2020-03-04T05:51:08Z</time>
      </trkpt>
      <trkpt lat="44.48055" lon="6.83045">
        <ele>2045.308</ele>
        <time>2020-03-04T05:51:28Z</time>
      </trkpt>
      <trkpt lat="44.48046" lon="6.83011">
        <ele>2043.788</ele>
        <time>2020-03-04T05:51:48Z</time>
      </trkpt>
      <trkpt lat="44.48025" lon="6.82972">
        <ele>2035.591</ele>
        <time>2020-03-04T05:52:08Z</time>
      </trkpt>
      <trkpt lat="44.48028" lon="6.8296">
        <ele>2037.648</ele>
        <time>2020-03-04T05:52:28Z</time>
      </trkpt>
      <trkpt lat="44.48024" lon="6.8296">
        <ele>2035.227</ele>
        <time>2020-03-04T05:52:48Z</time>
      </trkpt>
      <trkpt lat="44.4802" lon="6.82986">
        <ele>2031.545</ele>
        <time>2020-03-04T05:53:08Z</time>
      </trkpt>
      <trkpt lat="44.48023" lon="6.83003">
        <ele>2031.486</ele>
        <time>2020-03-04T05:53:28Z</time>
      </trkpt>
      <trkpt lat="44.48023" lon="6.83039">
        <ele>2027.618</ele>
        <time>2020-03-04T05:53:48Z</time>
      </trkpt>
      <trkpt lat="44.4801" lon="6.83013">
        <ele>2023.754</ele>
        <time>2020-03-04T05:54:08Z</time>
      </trkpt>
      <trkpt lat="44.47993" lon="6.82985">
        <ele>2016.656</ele>
        <time>2020-03-04T05:54:28Z</time>
      </trkpt>
      <trkpt lat="44.4799" lon="6.82937">
        <ele>2014.059</ele>
        <time>2020-03-04T05:54:48Z</time>
      </trkpt>
      <trkpt lat="44.47994" lon="6.82919">
        <ele>2015.514</ele>
        <time>2020-03-04T05:55:08Z</time>
      </trkpt>
      <trkpt lat="44.47992" lon="6.82915">
        <ele>2013.808</ele>
        <time>2020-03-04T05:55:28Z</time>
      </trkpt>
      <trkpt lat="44.47989" lon="6.82929">
        <ele>2012.779</ele>
        <time>2020-03-04T05:55:48Z</time>
      </trkpt>
      <trkpt lat="44.47988" lon="6.82947">
        <ele>2012.922</ele>
        <time>2020-03-04T05:56:08Z</time>
      </trkpt>
      <trkpt lat="44.47982" lon="6.82972">
        <ele>2009.859</ele>
        <time>2020-03-04T05:56:28Z</time>
      </trkpt>
      <trkpt lat="44.47981" lon="6.82994">
        <ele>2007.778</ele>
        <time>2020-03-04T05:56:48Z</time>
      </trkpt>
      <trkpt lat="44.47991" lon="6.83055">
        <ele>2006.966</ele>
        <time>2020-03-04T05:57:08Z</time>
      </trkpt>
      <trkpt lat="44.47991" lon="6.83105">
        <ele>2003.787</ele>
        <time>2020-03-04T05:57:28Z</time>
      </trkpt>
      <trkpt lat="44.47981" lon="6.83115">
        <ele>2001.049</ele>
        <time>2020-03-04T05:57:48Z</time>
      </trkpt>
      <trkpt lat="44.4797" lon="6.83113">
        <ele>1998.065</ele>
        <time>2020-03-04T05:58:08Z</time>
      </trkpt>
      <trkpt lat="44.47921" lon="6.83061">
        <ele>1990.459</ele>
        <time>2020-03-04T05:58:28Z</time>
      </trkpt>
      <trkpt lat="44.47867" lon="6.83008">
        <ele>1985.503</ele>
        <time>2020-03-04T05:58:48Z</time>
      </trkpt>
      <trkpt lat="44.47854" lon="6.82995">
        <ele>1985.723</ele>
        <time>2020-03-04T05:59:08Z</time>
      </trkpt>
      <trkpt lat="44.47853" lon="6.8297">
        <ele>1980.908</ele>
        <time>2020-03-04T05:59:28Z</time>
      </trkpt>
      <trkpt lat="44.47838" lon="6.82956">
        <ele>1979.249</ele>
        <time>2020-03-04T05:59:48Z</time>
      </trkpt>
      <trkpt lat="44.47829" lon="6.82961">
        <ele>1981.062</ele>
        <time>2020-03-04T06:00:08Z</time>
      </trkpt>
      <trkpt lat="44.47814" lon="6.82986">
        <ele>1986.049</ele>
        <time>2020-03-04T06:00:28Z</time>
      </trkpt>
      <trkpt lat="44.47805" lon="6.82983">
        <ele>1984.338</ele>
        <time>2020-03-04T06:00:48Z</time>
      </trkpt>
      <trkpt lat="44.47799" lon="6.82932">
        <ele>1975.316</ele>
        <time>2020-03-04T06:01:08Z</time>
      </trkpt>
      <trkpt lat="44.47784" lon="6.82914">
        <ele>1974.937</ele>
        <time>2020-03-04T06:01:28Z</time>
      </trkpt>
      <trkpt lat="44.47761" lon="6.82905">
        <ele>1974.619</ele>
        <time>2020-03-04T06:01:48Z</time>
      </trkpt>
      <trkpt lat="44.47738" lon="6.82906">
        <ele>1974.135</ele>
        <time>2020-03-04T06:02:08Z</time>
      </trkpt>
      <trkpt lat="44.47694" lon="6.82885">
        <ele>1966.197</ele>
        <time>2020-03-04T06:02:28Z</time>
      </trkpt>
      <trkpt lat="44.47674" lon="6.82889">
        <ele>1965.623</ele>
        <time>2020-03-04T06:02:48Z</time>
      </trkpt>
      <trkpt lat="44.47669" lon="6.82872">
        <ele>1961.525</ele>
        <time>2020-03-04T06:03:08Z</time>
      </trkpt>
      <trkpt lat="44.4772" lon="6.82847">
        <ele>1960.208</ele>
        <time>2020-03-04T06:03:28Z</time>
      </trkpt>
      <trkpt lat="44.47734" lon="6.82826">
        <ele>1956.273</ele>
        <time>2020-03-04T06:03:48Z</time>
      </trkpt>
      <trkpt lat="44.47751" lon="6.82808">
        <ele>1951.226</ele>
        <time>2020-03-04T06:04:08Z</time>
      </trkpt>
      <trkpt lat="44.47751" lon="6.82801">
        <ele>1949.333</ele>
        <time>2020-03-04T06:04:28Z</time>
      </trkpt>
      <trkpt lat="44.47734" lon="6.828">
        <ele>1950.122</ele>
        <time>2020-03-04T06:04:48Z</time>
      </trkpt>
      <trkpt lat="44.47715" lon="6.82797">
        <ele>1949.38</ele>
        <time>2020-03-04T06:05:08Z</time>
      </trkpt>
      <trkpt lat="44.47693" lon="6.82795">
        <ele>1947.011</ele>
        <time>2020-03-04T06:05:28Z</time>
      </trkpt>
      <trkpt lat="44.47675" lon="6.82784">
        <ele>1944.973</ele>
        <time>2020-03-04T06:05:48Z</time>
      </trkpt>
      <trkpt lat="44.47674" lon="6.82768">
        <ele>1942.379</ele>
        <time>2020-03-04T06:06:08Z</time>
      </trkpt>
      <trkpt lat="44.47695" lon="6.82746">
        <ele>1939.082</ele>
        <time>2020-03-04T06:06:28Z</time>
      </trkpt>
      <trkpt lat="44.47711" lon="6.82719">
        <ele>1929.743</ele>
        <time>2020-03-04T06:06:48Z</time>
      </trkpt>
      <trkpt lat="44.47703" lon="6.82712">
        <ele>1927.917</ele>
        <time>2020-03-04T06:07:08Z</time>
      </trkpt>
      <trkpt lat="44.47672" lon="6.82696">
        <ele>1926.408</ele>
        <time>2020-03-04T06:07:28Z</time>
      </trkpt>
      <trkpt lat="44.47629" lon="6.82601">
        <ele>1914.452</ele>
        <time>2020-03-04T06:07:48Z</time>
      </trkpt>
      <trkpt lat="44.47623" lon="6.82601">
        <ele>1915.245</ele>
        <time>2020-03-04T06:08:08Z</time>
      </trkpt>
      <trkpt lat="44.47614" lon="6.82653">
        <ele>1924.482</ele>
        <time>2020-03-04T06:08:28Z</time>
      </trkpt>
      <trkpt lat="44.47584" lon="6.8269">
        <ele>1923.321</ele>
        <time>2020-03-04T06:08:48Z</time>
      </trkpt>
      <trkpt lat="44.47568" lon="6.82701">
        <ele>1927.149</ele>
        <time>2020-03-04T06:09:08Z</time>
      </trkpt>
      <trkpt lat="44.47513" lon="6.82692">
        <ele>1926.51</ele>
        <time>2020-03-04T06:09:28Z</time>
      </trkpt>
      <trkpt lat="44.47481" lon="6.82705">
        <ele>1930.592</ele>
        <time>2020-03-04T06:09:48Z</time>
      </trkpt>
      <trkpt lat="44.47452" lon="6.8273">
        <ele>1940.498</ele>
        <time>2020-03-04T06:10:08Z</time>
      </trkpt>
      <trkpt lat="44.47423" lon="6.82731">
        <ele>1945.671</ele>
        <time>2020-03-04T06:10:28Z</time>
      </trkpt>
      <trkpt lat="44.47403" lon="6.82698">
        <ele>1946.241</ele>
        <time>2020-03-04T06:10:48Z</time>
      </trkpt>
      <trkpt lat="44.47397" lon="6.82675">
        <ele>1948.215</ele>
        <time>2020-03-04T06:11:08Z</time>
      </trkpt>
      <trkpt lat="44.47387" lon="6.82629">
        <ele>1947.608</ele>
        <time>2020-03-04T06:11:28Z</time>
      </trkpt>
      <trkpt lat="44.47329" lon="6.8266">
        <ele>1963.221</ele>
        <time>2020-03-04T06:11:48Z</time>
      </trkpt>
      <trkpt lat="44.473" lon="6.82679">
        <ele>1971.674</ele>
        <time>2020-03-04T06:12:08Z</time>
      </trkpt>
      <trkpt lat="44.47283" lon="6.82701">
        <ele>1979.311</ele>
        <time>2020-03-04T06:12:28Z</time>
      </trkpt>
      <trkpt lat="44.47245" lon="6.82727">
        <ele>1987.59</ele>
        <time>2020-03-04T06:12:48Z</time>
      </trkpt>
      <trkpt lat="44.47209" lon="6.82753">
        <ele>1995.168</ele>
        <time>2020-03-04T06:13:08Z</time>
      </trkpt>
      <trkpt lat="44.47179" lon="6.8278">
        <ele>2001.029</ele>
        <time>2020-03-04T06:13:28Z</time>
      </trkpt>
      <trkpt lat="44.47132" lon="6.828">
        <ele>2010.951</ele>
        <time>2020-03-04T06:13:48Z</time>
      </trkpt>
      <trkpt lat="44.47123" lon="6.82811">
        <ele>2014.227</ele>
        <time>2020-03-04T06:14:08Z</time>
      </trkpt>
      <trkpt lat="44.47102" lon="6.82874">
        <ele>2026.243</ele>
        <time>2020-03-04T06:14:28Z</time>
      </trkpt>
      <trkpt lat="44.47081" lon="6.8291">
        <ele>2032.164</ele>
        <time>2020-03-04T06:14:48Z</time>
      </trkpt>
      <trkpt lat="44.47038" lon="6.8299">
        <ele>2045.01</ele>
        <time>2020-03-04T06:15:08Z</time>
      </trkpt>
      <trkpt lat="44.47007" lon="6.8307">
        <ele>2052.108</ele>
        <time>2020-03-04T06:15:28Z</time>
      </trkpt>
      <trkpt lat="44.46993" lon="6.83106">
        <ele>2054.148</ele>
        <time>2020-03-04T06:15:48Z</time>
      </trkpt>
      <trkpt lat="44.46955" lon="6.8317">
        <ele>2055.711</ele>
        <time>2020-03-04T06:16:08Z</time>
      </trkpt>
      <trkpt lat="44.46923" lon="6.83134">
        <ele>2047.748</ele>
        <time>2020-03-04T06:16:28Z</time>
      </trkpt>
      <trkpt lat="44.46924" lon="6.8313">
        <ele>2047.017</ele>
        <time>2020-03-04T06:16:48Z</time>
      </trkpt>
      <trkpt lat="44.46953" lon="6.83164">
        <ele>2055.185</ele>
        <time>2020-03-04T06:17:08Z</time>
      </trkpt>
      <trkpt lat="44.46991" lon="6.83107">
        <ele>2054.046</ele>
        <time>2020-03-04T06:17:28Z</time>
      </trkpt>
      <trkpt lat="44.47035" lon="6.82991">
        <ele>2045.278</ele>
        <time>2020-03-04T06:17:48Z</time>
      </trkpt>
      <trkpt lat="44.47099" lon="6.82872">
        <ele>2026.094</ele>
        <time>2020-03-04T06:18:08Z</time>
      </trkpt>
      <trkpt lat="44.47123" lon="6.82805">
        <ele>2013.299</ele>
        <time>2020-03-04T06:18:28Z</time>
      </trkpt>
      <trkpt lat="44.4713" lon="6.82798">
        <ele>2010.607</ele>
        <time>2020-03-04T06:18:48Z</time>
      </trkpt>
      <trkpt lat="44.4718" lon="6.82775">
        <ele>1999.727</ele>
        <time>2020-03-04T06:19:08Z</time>
      </trkpt>
      <trkpt lat="44.47281" lon="6.82697">
        <ele>1978.508</ele>
        <time>2020-03-04T06:19:28Z</time>
      </trkpt>
      <trkpt lat="44.47298" lon="6.82674">
        <ele>1970.293</ele>
        <time>2020-03-04T06:19:48Z</time>
      </trkpt>
      <trkpt lat="44.47389" lon="6.82625">
        <ele>1946.666</ele>
        <time>2020-03-04T06:20:08Z</time>
      </trkpt>
      <trkpt lat="44.47398" lon="6.82673">
        <ele>1947.423</ele>
        <time>2020-03-04T06:20:28Z</time>
      </trkpt>
      <trkpt lat="44.47406" lon="6.82699">
        <ele>1945.342</ele>
        <time>2020-03-04T06:20:48Z</time>
      </trkpt>
      <trkpt lat="44.47424" lon="6.82726">
        <ele>1944.15</ele>
        <time>2020-03-04T06:21:08Z</time>
      </trkpt>
      <trkpt lat="44.47451" lon="6.82726">
        <ele>1938.551</ele>
        <time>2020-03-04T06:21:28Z</time>
      </trkpt>
      <trkpt lat="44.47478" lon="6.82705">
        <ele>1930.143</ele>
        <time>2020-03-04T06:21:48Z</time>
      </trkpt>
      <trkpt lat="44.47513" lon="6.8269">
        <ele>1925.889</ele>
        <time>2020-03-04T06:22:08Z</time>
      </trkpt>
      <trkpt lat="44.47569" lon="6.82697">
        <ele>1925.732</ele>
        <time>2020-03-04T06:22:28Z</time>
      </trkpt>
      <trkpt lat="44.47585" lon="6.82686">
        <ele>1922.492</ele>
        <time>2020-03-04T06:22:48Z</time>
      </trkpt>
      <trkpt lat="44.47612" lon="6.82652">
        <ele>1924.311</ele>
        <time>2020-03-04T06:23:08Z</time>
      </trkpt>
      <trkpt lat="44.47622" lon="6.8259">
        <ele>1913.508</ele>
        <time>2020-03-04T06:23:28Z</time>
      </trkpt>
      <trkpt lat="44.47662" lon="6.82623">
        <ele>1908.237</ele>
        <time>2020-03-04T06:23:48Z</time>
      </trkpt>
      <trkpt lat="44.47667" lon="6.8264">
        <ele>1909.48</ele>
        <time>2020-03-04T06:24:08Z</time>
      </trkpt>
      <trkpt lat="44.47682" lon="6.82661">
        <ele>1911.597</ele>
        <time>2020-03-04T06:24:28Z</time>
      </trkpt>
      <trkpt lat="44.47716" lon="6.82662">
        <ele>1902.966</ele>
        <time>2020-03-04T06:24:48Z</time>
      </trkpt>
      <trkpt lat="44.4776" lon="6.82675">
        <ele>1897.424</ele>
        <time>2020-03-04T06:25:08Z</time>
      </trkpt>
      <trkpt lat="44.47783" lon="6.82686">
        <ele>1898.545</ele>
        <time>2020-03-04T06:25:28Z</time>
      </trkpt>
      <trkpt lat="44.47801" lon="6.82691">
        <ele>1899.917</ele>
        <time>2020-03-04T06:25:48Z</time>
      </trkpt>
      <trkpt lat="44.4781" lon="6.82673">
        <ele>1901.533</ele>
        <time>2020-03-04T06:26:08Z</time>
      </trkpt>
      <trkpt lat="44.47798" lon="6.8263">
        <ele>1893.782</ele>
        <time>2020-03-04T06:26:28Z</time>
      </trkpt>
      <trkpt lat="44.47805" lon="6.82562">
        <ele>1885.743</ele>
        <time>2020-03-04T06:26:48Z</time>
      </trkpt>
      <trkpt lat="44.47819" lon="6.8255">
        <ele>1890.117</ele>
        <time>2020-03-04T06:27:08Z</time>
      </trkpt>
      <trkpt lat="44.47813" lon="6.82532">
        <ele>1887.108</ele>
        <time>2020-03-04T06:27:28Z</time>
      </trkpt>
      <trkpt lat="44.47807" lon="6.82495">
        <ele>1884.812</ele>
        <time>2020-03-04T06:27:48Z</time>
      </trkpt>
      <trkpt lat="44.47808" lon="6.82426">
        <ele>1887.785</ele>
        <time>2020-03-04T06:28:08Z</time>
      </trkpt>
      <trkpt lat="44.47797" lon="6.82367">
        <ele>1883.352</ele>
        <time>2020-03-04T06:28:28Z</time>
      </trkpt>
      <trkpt lat="44.47791" lon="6.82293">
        <ele>1882.661</ele>
        <time>2020-03-04T06:28:48Z</time>
      </trkpt>
      <trkpt lat="44.47785" lon="6.82257">
        <ele>1883.159</ele>
        <time>2020-03-04T06:29:08Z</time>
      </trkpt>
      <trkpt lat="44.47777" lon="6.82203">
        <ele>1875.98</ele>
        <time>2020-03-04T06:29:28Z</time>
      </trkpt>
      <trkpt lat="44.47801" lon="6.82152">
        <ele>1878.562</ele>
        <time>2020-03-04T06:29:48Z</time>
      </trkpt>
      <trkpt lat="44.47809" lon="6.82088">
        <ele>1881.258</ele>
        <time>2020-03-04T06:30:08Z</time>
      </trkpt>
      <trkpt lat="44.47806" lon="6.82072">
        <ele>1884.089</ele>
        <time>2020-03-04T06:30:28Z</time>
      </trkpt>
      <trkpt lat="44.47795" lon="6.82068">
        <ele>1884.506</ele>
        <time>2020-03-04T06:30:48Z</time>
      </trkpt>
      <trkpt lat="44.4777" lon="6.82085">
        <ele>1875.626</ele>
        <time>2020-03-04T06:31:08Z</time>
      </trkpt>
      <trkpt lat="44.47743" lon="6.82079">
        <ele>1875.408</ele>
        <time>2020-03-04T06:31:28Z</time>
      </trkpt>
      <trkpt lat="44.47721" lon="6.82054">
        <ele>1871.882</ele>
        <time>2020-03-04T06:31:48Z</time>
      </trkpt>
      <trkpt lat="44.47724" lon="6.82031">
        <ele>1872.925</ele>
        <time>2020-03-04T06:32:08Z</time>
      </trkpt>
      <trkpt lat="44.47721" lon="6.82006">
        <ele>1870.532</ele>
        <time>2020-03-04T06:32:28Z</time>
      </trkpt>
      <trkpt lat="44.47723" lon="6.81963">
        <ele>1873.981</ele>
        <time>2020-03-04T06:32:48Z</time>
      </trkpt>
      <trkpt lat="44.47711" lon="6.81928">
        <ele>1877.999</ele>
        <time>2020-03-04T06:33:08Z</time>
      </trkpt>
      <trkpt lat="44.47677" lon="6.81911">
        <ele>1872.76</ele>
        <time>2020-03-04T06:33:28Z</time>
      </trkpt>
      <trkpt lat="44.47654" lon="6.8191">
        <ele>1865.542</ele>
        <time>2020-03-04T06:33:48Z</time>
      </trkpt>
      <trkpt lat="44.47635" lon="6.81882">
        <ele>1861.928</ele>
        <time>2020-03-04T06:34:08Z</time>
      </trkpt>
      <trkpt lat="44.4763" lon="6.8187">
        <ele>1859.893</ele>
        <time>2020-03-04T06:34:28Z</time>
      </trkpt>
      <trkpt lat="44.47624" lon="6.81806">
        <ele>1857.165</ele>
        <time>2020-03-04T06:34:48Z</time>
      </trkpt>
      <trkpt lat="44.47626" lon="6.8176">
        <ele>1858.521</ele>
        <time>2020-03-04T06:35:08Z</time>
      </trkpt>
      <trkpt lat="44.47616" lon="6.81725">
        <ele>1851.108</ele>
        <time>2020-03-04T06:35:28Z</time>
      </trkpt>
      <trkpt lat="44.47615" lon="6.81692">
        <ele>1847.483</ele>
        <time>2020-03-04T06:35:48Z</time>
      </trkpt>
      <trkpt lat="44.47607" lon="6.81656">
        <ele>1839.696</ele>
        <time>2020-03-04T06:36:08Z</time>
      </trkpt>
      <trkpt lat="44.47615" lon="6.81618">
        <ele>1837.063</ele>
        <time>2020-03-04T06:36:28Z</time>
      </trkpt>
      <trkpt lat="44.47633" lon="6.81567">
        <ele>1832.592</ele>
        <time>2020-03-04T06:36:48Z</time>
      </trkpt>
      <trkpt lat="44.47647" lon="6.81499">
        <ele>1824.86</ele>
        <time>2020-03-04T06:37:08Z</time>
      </trkpt>
      <trkpt lat="44.47662" lon="6.81473">
        <ele>1824.521</ele>
        <time>2020-03-04T06:37:28Z</time>
      </trkpt>
      <trkpt lat="44.47672" lon="6.8144">
        <ele>1821.543</ele>
        <time>2020-03-04T06:37:48Z</time>
      </trkpt>
      <trkpt lat="44.47685" lon="6.81402">
        <ele>1816.879</ele>
        <time>2020-03-04T06:38:08Z</time>
      </trkpt>
      <trkpt lat="44.477" lon="6.81384">
        <ele>1815.825</ele>
        <time>2020-03-04T06:38:28Z</time>
      </trkpt>
      <trkpt lat="44.47706" lon="6.81368">
        <ele>1813.926</ele>
        <time>2020-03-04T06:38:48Z</time>
      </trkpt>
      <trkpt lat="44.47732" lon="6.81343">
        <ele>1809.308</ele>
        <time>2020-03-04T06:39:08Z</time>
      </trkpt>
      <trkpt lat="44.47747" lon="6.81339">
        <ele>1806.808</ele>
        <time>2020-03-04T06:39:28Z</time>
      </trkpt>
      <trkpt lat="44.4776" lon="6.81338">
        <ele>1806.336</ele>
        <time>2020-03-04T06:39:48Z</time>
      </trkpt>
      <trkpt lat="44.47783" lon="6.81327">
        <ele>1803.339</ele>
        <time>2020-03-04T06:40:08Z</time>
      </trkpt>
      <trkpt lat="44.47812" lon="6.81315">
        <ele>1799.196</ele>
        <time>2020-03-04T06:40:28Z</time>
      </trkpt>
      <trkpt lat="44.47843" lon="6.81314">
        <ele>1797.735</ele>
        <time>2020-03-04T06:40:48Z</time>
      </trkpt>
      <trkpt lat="44.47869" lon="6.8131">
        <ele>1794.363</ele>
        <time>2020-03-04T06:41:08Z</time>
      </trkpt>
      <trkpt lat="44.47891" lon="6.81307">
        <ele>1793.834</ele>
        <time>2020-03-04T06:41:28Z</time>
      </trkpt>
      <trkpt lat="44.47908" lon="6.81294">
        <ele>1794.616</ele>
        <time>2020-03-04T06:41:48Z</time>
      </trkpt>
      <trkpt lat="44.47925" lon="6.8127">
        <ele>1792.172</ele>
        <time>2020-03-04T06:42:08Z</time>
      </trkpt>
      <trkpt lat="44.47937" lon="6.81248">
        <ele>1789.951</ele>
        <time>2020-03-04T06:42:28Z</time>
      </trkpt>
      <trkpt lat="44.47955" lon="6.81232">
        <ele>1790.701</ele>
        <time>2020-03-04T06:42:48Z</time>
      </trkpt>
      <trkpt lat="44.47957" lon="6.81206">
        <ele>1787.211</ele>
        <time>2020-03-04T06:43:08Z</time>
      </trkpt>
      <trkpt lat="44.47954" lon="6.81177">
        <ele>1782.508</ele>
        <time>2020-03-04T06:43:28Z</time>
      </trkpt>
      <trkpt lat="44.47958" lon="6.81165">
        <ele>1781.789</ele>
        <time>2020-03-04T06:43:48Z</time>
      </trkpt>
      <trkpt lat="44.4797" lon="6.81142">
        <ele>1780.152</ele>
        <time>2020-03-04T06:44:08Z</time>
      </trkpt>
      <trkpt lat="44.47979" lon="6.81113">
        <ele>1778.299</ele>
        <time>2020-03-04T06:44:28Z</time>
      </trkpt>
      <trkpt lat="44.47986" lon="6.81063">
        <ele>1774.588</ele>
        <time>2020-03-04T06:44:48Z</time>
      </trkpt>
      <trkpt lat="44.47981" lon="6.81047">
        <ele>1773.456</ele>
        <time>2020-03-04T06:45:08Z</time>
      </trkpt>
      <trkpt lat="44.47992" lon="6.8101">
        <ele>1775.847</ele>
        <time>2020-03-04T06:45:28Z</time>
      </trkpt>
      <trkpt lat="44.48009" lon="6.80939">
        <ele>1779.429</ele>
        <time>2020-03-04T06:45:48Z</time>
      </trkpt>
      <trkpt lat="44.48009" lon="6.80889">
        <ele>1777.635</ele>
        <time>2020-03-04T06:46:08Z</time>
      </trkpt>
      <trkpt lat="44.48023" lon="6.8083">
        <ele>1774.596</ele>
        <time>2020-03-04T06:46:28Z</time>
      </trkpt>
      <trkpt lat="44.48031" lon="6.8081">
        <ele>1774.231</ele>
        <time>2020-03-04T06:46:48Z</time>
      </trkpt>
      <trkpt lat="44.48019" lon="6.80798">
        <ele>1772.824</ele>
        <time>2020-03-04T06:47:08Z</time>
      </trkpt>
      <trkpt lat="44.47983" lon="6.80801">
        <ele>1769.108</ele>
        <time>2020-03-04T06:47:28Z</time>
      </trkpt>
      <trkpt lat="44.479" lon="6.80873">
        <ele>1762.993</ele>
        <time>2020-03-04T06:47:48Z</time>
      </trkpt>
      <trkpt lat="44.47899" lon="6.80959">
        <ele>1764.036</ele>
        <time>2020-03-04T06:48:08Z</time>
      </trkpt>
      <trkpt lat="44.4792" lon="6.81019">
        <ele>1763.273</ele>
        <time>2020-03-04T06:48:28Z</time>
      </trkpt>
      <trkpt lat="44.47912" lon="6.8103">
        <ele>1759.332</ele>
        <time>2020-03-04T06:48:48Z</time>
      </trkpt>
      <trkpt lat="44.47892" lon="6.81004">
        <ele>1757.98</ele>
        <time>2020-03-04T06:49:08Z</time>
      </trkpt>
      <trkpt lat="44.47853" lon="6.80956">
        <ele>1750.761</ele>
        <time>2020-03-04T06:49:28Z</time>
      </trkpt>
      <trkpt lat="44.47808" lon="6.80886">
        <ele>1742.773</ele>
        <time>2020-03-04T06:49:48Z</time>
      </trkpt>
      <trkpt lat="44.47797" lon="6.80858">
        <ele>1737.759</ele>
        <time>2020-03-04T06:50:08Z</time>
      </trkpt>
      <trkpt lat="44.47803" lon="6.80826">
        <ele>1734.398</ele>
        <time>2020-03-04T06:50:28Z</time>
      </trkpt>
      <trkpt lat="44.47824" lon="6.80811">
        <ele>1731.115</ele>
        <time>2020-03-04T06:50:48Z</time>
      </trkpt>
      <trkpt lat="44.47807" lon="6.80794">
        <ele>1727.826</ele>
        <time>2020-03-04T06:51:08Z</time>
      </trkpt>
      <trkpt lat="44.47784" lon="6.80787">
        <ele>1725.708</ele>
        <time>2020-03-04T06:51:28Z</time>
      </trkpt>
      <trkpt lat="44.47744" lon="6.80816">
        <ele>1722.263</ele>
        <time>2020-03-04T06:51:48Z</time>
      </trkpt>
      <trkpt lat="44.47736" lon="6.8087">
        <ele>1723.666</ele>
        <time>2020-03-04T06:52:08Z</time>
      </trkpt>
      <trkpt lat="44.47764" lon="6.8098">
        <ele>1715.483</ele>
        <time>2020-03-04T06:52:28Z</time>
      </trkpt>
      <trkpt lat="44.47774" lon="6.81013">
        <ele>1712.572</ele>
        <time>2020-03-04T06:52:48Z</time>
      </trkpt>
      <trkpt lat="44.47768" lon="6.8103">
        <ele>1709.51</ele>
        <time>2020-03-04T06:53:08Z</time>
      </trkpt>
      <trkpt lat="44.47737" lon="6.81011">
        <ele>1705.531</ele>
        <time>2020-03-04T06:53:28Z</time>
      </trkpt>
      <trkpt lat="44.47706" lon="6.80988">
        <ele>1700.093</ele>
        <time>2020-03-04T06:53:48Z</time>
      </trkpt>
      <trkpt lat="44.47694" lon="6.80927">
        <ele>1703.219</ele>
        <time>2020-03-04T06:54:08Z</time>
      </trkpt>
      <trkpt lat="44.47661" lon="6.80888">
        <ele>1692.158</ele>
        <time>2020-03-04T06:54:28Z</time>
      </trkpt>
      <trkpt lat="44.4766" lon="6.80767">
        <ele>1683.152</ele>
        <time>2020-03-04T06:54:48Z</time>
      </trkpt>
      <trkpt lat="44.47669" lon="6.8071">
        <ele>1676.217</ele>
        <time>2020-03-04T06:55:08Z</time>
      </trkpt>
      <trkpt lat="44.47685" lon="6.80671">
        <ele>1675.508</ele>
        <time>2020-03-04T06:55:28Z</time>
      </trkpt>
      <trkpt lat="44.47678" lon="6.80665">
        <ele>1671.699</ele>
        <time>2020-03-04T06:55:48Z</time>
      </trkpt>
      <trkpt lat="44.47646" lon="6.80693">
        <ele>1667.682</ele>
        <time>2020-03-04T06:56:08Z</time>
      </trkpt>
      <trkpt lat="44.47623" lon="6.80707">
        <ele>1663.929</ele>
        <time>2020-03-04T06:56:28Z</time>
      </trkpt>
      <trkpt lat="44.47605" lon="6.80756">
        <ele>1663.898</ele>
        <time>2020-03-04T06:56:48Z</time>
      </trkpt>
      <trkpt lat="44.47594" lon="6.80805">
        <ele>1659.476</ele>
        <time>2020-03-04T06:57:08Z</time>
      </trkpt>
      <trkpt lat="44.47563" lon="6.80829">
        <ele>1653.247</ele>
        <time>2020-03-04T06:57:28Z</time>
      </trkpt>
      <trkpt lat="44.47554" lon="6.80848">
        <ele>1653.079</ele>
        <time>2020-03-04T06:57:48Z</time>
      </trkpt>
      <trkpt lat="44.47525" lon="6.80763">
        <ele>1644.075</ele>
        <time>2020-03-04T06:58:08Z</time>
      </trkpt>
      <trkpt lat="44.47527" lon="6.80736">
        <ele>1642.971</ele>
        <time>2020-03-04T06:58:28Z</time>
      </trkpt>
      <trkpt lat="44.47549" lon="6.80686">
        <ele>1637.941</ele>
        <time>2020-03-04T06:58:48Z</time>
      </trkpt>
      <trkpt lat="44.47544" lon="6.80677">
        <ele>1635.815</ele>
        <time>2020-03-04T06:59:08Z</time>
      </trkpt>
      <trkpt lat="44.47504" lon="6.80676">
        <ele>1635.108</ele>
        <time>2020-03-04T06:59:28Z</time>
      </trkpt>
      <trkpt lat="44.47468" lon="6.80731">
        <ele>1632.031</ele>
        <time>2020-03-04T06:59:48Z</time>
      </trkpt>
      <trkpt lat="44.47469" lon="6.80754">
        <ele>1633.084</ele>
        <time>2020-03-04T07:00:08Z</time>
      </trkpt>
      <trkpt lat="44.47488" lon="6.80815">
        <ele>1632.051</ele>
        <time>2020-03-04T07:00:28Z</time>
      </trkpt>
      <trkpt lat="44.47491" lon="6.80872">
        <ele>1626.35</ele>
        <time>2020-03-04T07:00:48Z</time>
      </trkpt>
      <trkpt lat="44.47466" lon="6.80933">
        <ele>1619.968</ele>
        <time>2020-03-04T07:01:08Z</time>
      </trkpt>
      <trkpt lat="44.47443" lon="6.80935">
        <ele>1617.929</ele>
        <time>2020-03-04T07:01:28Z</time>
      </trkpt>
      <trkpt lat="44.47374" lon="6.80921">
        <ele>1608.921</ele>
        <time>2020-03-04T07:01:48Z</time>
      </trkpt>
      <trkpt lat="44.47328" lon="6.80955">
        <ele>1605.017</ele>
        <time>2020-03-04T07:02:08Z</time>
      </trkpt>
      <trkpt lat="44.47309" lon="6.80993">
        <ele>1603.994</ele>
        <time>2020-03-04T07:02:28Z</time>
      </trkpt>
      <trkpt lat="44.47282" lon="6.81028">
        <ele>1596.957</ele>
        <time>2020-03-04T07:02:48Z</time>
      </trkpt>
      <trkpt lat="44.47268" lon="6.81098">
        <ele>1592.522</ele>
        <time>2020-03-04T07:03:08Z</time>
      </trkpt>
      <trkpt lat="44.47261" lon="6.81145">
        <ele>1592.808</ele>
        <time>2020-03-04T07:03:28Z</time>
      </trkpt>
      <trkpt lat="44.47212" lon="6.81197">
        <ele>1582.823</ele>
        <time>2020-03-04T07:03:48Z</time>
      </trkpt>
      <trkpt lat="44.47207" lon="6.81244">
        <ele>1583.556</ele>
        <time>2020-03-04T07:04:08Z</time>
      </trkpt>
      <trkpt lat="44.47185" lon="6.8128">
        <ele>1579.963</ele>
        <time>2020-03-04T07:04:28Z</time>
      </trkpt>
      <trkpt lat="44.47156" lon="6.81317">
        <ele>1577.772</ele>
        <time>2020-03-04T07:04:48Z</time>
      </trkpt>
      <trkpt lat="44.47115" lon="6.8129">
        <ele>1572.23</ele>
        <time>2020-03-04T07:05:08Z</time>
      </trkpt>
      <trkpt lat="44.47097" lon="6.81241">
        <ele>1566.951</ele>
        <time>2020-03-04T07:05:28Z</time>
      </trkpt>
      <trkpt lat="44.47078" lon="6.81157">
        <ele>1558.823</ele>
        <time>2020-03-04T07:05:48Z</time>
      </trkpt>
      <trkpt lat="44.47062" lon="6.8111">
        <ele>1556.429</ele>
        <time>2020-03-04T07:06:08Z</time>
      </trkpt>
      <trkpt lat="44.47039" lon="6.81066">
        <ele>1550.882</ele>
        <time>2020-03-04T07:06:28Z</time>
      </trkpt>
      <trkpt lat="44.47066" lon="6.8089">
        <ele>1553.943</ele>
        <time>2020-03-04T07:06:48Z</time>
      </trkpt>
      <trkpt lat="44.47085" lon="6.80746">
        <ele>1556.917</ele>
        <time>2020-03-04T07:07:08Z</time>
      </trkpt>
      <trkpt lat="44.47114" lon="6.80671">
        <ele>1555.908</ele>
        <time>2020-03-04T07:07:28Z</time>
      </trkpt>
      <trkpt lat="44.47263" lon="6.80441">
        <ele>1551.512</ele>
        <time>2020-03-04T07:07:48Z</time>
      </trkpt>
      <trkpt lat="44.47345" lon="6.80278">
        <ele>1551.355</ele>
        <time>2020-03-04T07:08:08Z</time>
      </trkpt>
      <trkpt lat="44.47407" lon="6.80179">
        <ele>1540.042</ele>
        <time>2020-03-04T07:08:28Z</time>
      </trkpt>
      <trkpt lat="44.47477" lon="6.80093">
        <ele>1535.811</ele>
        <time>2020-03-04T07:08:48Z</time>
      </trkpt>
      <trkpt lat="44.4747" lon="6.80073">
        <ele>1527.189</ele>
        <time>2020-03-04T07:09:08Z</time>
      </trkpt>
      <trkpt lat="44.47452" lon="6.80078">
        <ele>1524.19</ele>
        <time>2020-03-04T07:09:28Z</time>
      </trkpt>
      <trkpt lat="44.47424" lon="6.80098">
        <ele>1522.392</ele>
        <time>2020-03-04T07:09:48Z</time>
      </trkpt>
      <trkpt lat="44.474" lon="6.80104">
        <ele>1516.258</ele>
        <time>2020-03-04T07:10:08Z</time>
      </trkpt>
      <trkpt lat="44.47373" lon="6.8013">
        <ele>1514.783</ele>
        <time>2020-03-04T07:10:28Z</time>
      </trkpt>
      <trkpt lat="44.47354" lon="6.80149">
        <ele>1514.925</ele>
        <time>2020-03-04T07:10:48Z</time>
      </trkpt>
      <trkpt lat="44.47321" lon="6.80163">
        <ele>1513.517</ele>
        <time>2020-03-04T07:11:08Z</time>
      </trkpt>
      <trkpt lat="44.47296" lon="6.8017">
        <ele>1512.608</ele>
        <time>2020-03-04T07:11:28Z</time>
      </trkpt>
      <trkpt lat="44.47279" lon="6.80164">
        <ele>1510.162</ele>
        <time>2020-03-04T07:11:48Z</time>
      </trkpt>
      <trkpt lat="44.47278" lon="6.8015">
        <ele>1510.045</ele>
        <time>2020-03-04T07:12:08Z</time>
      </trkpt>
      <trkpt lat="44.47292" lon="6.80114">
        <ele>1518.812</ele>
        <time>2020-03-04T07:12:28Z</time>
      </trkpt>
      <trkpt lat="44.47314" lon="6.80078">
        <ele>1522.771</ele>
        <time>2020-03-04T07:12:48Z</time>
      </trkpt>
      <trkpt lat="44.47319" lon="6.80044">
        <ele>1530.989</ele>
        <time>2020-03-04T07:13:08Z</time>
      </trkpt>
      <trkpt lat="44.47343" lon="6.79992">
        <ele>1532.98</ele>
        <time>2020-03-04T07:13:28Z</time>
      </trkpt>
      <trkpt lat="44.47352" lon="6.79956">
        <ele>1535.842</ele>
        <time>2020-03-04T07:13:48Z</time>
      </trkpt>
      <trkpt lat="44.4736" lon="6.79916">
        <ele>1541.698</ele>
        <time>2020-03-04T07:14:08Z</time>
      </trkpt>
      <trkpt lat="44.47357" lon="6.79889">
        <ele>1551.946</ele>
        <time>2020-03-04T07:14:28Z</time>
      </trkpt>
      <trkpt lat="44.47368" lon="6.7982">
        <ele>1555.588</ele>
        <time>2020-03-04T07:14:48Z</time>
      </trkpt>
      <trkpt lat="44.47357" lon="6.7984">
        <ele>1560.816</ele>
        <time>2020-03-04T07:15:08Z</time>
      </trkpt>
      <trkpt lat="44.47342" lon="6.79874">
        <ele>1567.508</ele>
        <time>2020-03-04T07:15:28Z</time>
      </trkpt>
      <trkpt lat="44.47327" lon="6.79923">
        <ele>1566.278</ele>
        <time>2020-03-04T07:15:48Z</time>
      </trkpt>
      <trkpt lat="44.47306" lon="6.79949">
        <ele>1571.581</ele>
        <time>2020-03-04T07:16:08Z</time>
      </trkpt>
      <trkpt lat="44.47282" lon="6.79962">
        <ele>1579.418</ele>
        <time>2020-03-04T07:16:28Z</time>
      </trkpt>
      <trkpt lat="44.47277" lon="6.79959">
        <ele>1582.697</ele>
        <time>2020-03-04T07:16:48Z</time>
      </trkpt>
      <trkpt lat="44.47292" lon="6.79946">
        <ele>1579.335</ele>
        <time>2020-03-04T07:17:08Z</time>
      </trkpt>
      <trkpt lat="44.47306" lon="6.79913">
        <ele>1582.266</ele>
        <time>2020-03-04T07:17:28Z</time>
      </trkpt>
      <trkpt lat="44.47317" lon="6.79878">
        <ele>1583.558</ele>
        <time>2020-03-04T07:17:48Z</time>
      </trkpt>
      <trkpt lat="44.47327" lon="6.79808">
        <ele>1592.384</ele>
        <time>2020-03-04T07:18:08Z</time>
      </trkpt>
      <trkpt lat="44.47319" lon="6.79749">
        <ele>1607.229</ele>
        <time>2020-03-04T07:18:28Z</time>
      </trkpt>
      <trkpt lat="44.47327" lon="6.79707">
        <ele>1608.9</ele>
        <time>2020-03-04T07:18:48Z</time>
      </trkpt>
      <trkpt lat="44.4734" lon="6.79667">
        <ele>1610.32</ele>
        <time>2020-03-04T07:19:08Z</time>
      </trkpt>
      <trkpt lat="44.47369" lon="6.79613">
        <ele>1605.808</ele>
        <time>2020-03-04T07:19:28Z</time>
      </trkpt>
      <trkpt lat="44.47368" lon="6.79597">
        <ele>1607.566</ele>
        <time>2020-03-04T07:19:48Z</time>
      </trkpt>
      <trkpt lat="44.47354" lon="6.79562">
        <ele>1616.119</ele>
        <time>2020-03-04T07:20:08Z</time>
      </trkpt>
      <trkpt lat="44.47331" lon="6.79488">
        <ele>1624.136</ele>
        <time>2020-03-04T07:20:28Z</time>
      </trkpt>
      <trkpt lat="44.47324" lon="6.79455">
        <ele>1626.675</ele>
        <time>2020-03-04T07:20:48Z</time>
      </trkpt>
      <trkpt lat="44.47317" lon="6.79416">
        <ele>1627.593</ele>
        <time>2020-03-04T07:21:08Z</time>
      </trkpt>
      <trkpt lat="44.47296" lon="6.79362">
        <ele>1631.364</ele>
        <time>2020-03-04T07:21:28Z</time>
      </trkpt>
      <trkpt lat="44.47294" lon="6.79326">
        <ele>1635.196</ele>
        <time>2020-03-04T07:21:48Z</time>
      </trkpt>
      <trkpt lat="44.47314" lon="6.79284">
        <ele>1628.362</ele>
        <time>2020-03-04T07:22:08Z</time>
      </trkpt>
      <trkpt lat="44.47321" lon="6.79247">
        <ele>1626.282</ele>
        <time>2020-03-04T07:22:28Z</time>
      </trkpt>
      <trkpt lat="44.47293" lon="6.79139">
        <ele>1621.643</ele>
        <time>2020-03-04T07:22:48Z</time>
      </trkpt>
      <trkpt lat="44.47252" lon="6.79016">
        <ele>1618.217</ele>
        <time>2020-03-04T07:23:08Z</time>
      </trkpt>
      <trkpt lat="44.47235" lon="6.78951">
        <ele>1622.008</ele>
        <time>2020-03-04T07:23:28Z</time>
      </trkpt>
      <trkpt lat="44.4722" lon="6.78915">
        <ele>1626.292</ele>
        <time>2020-03-04T07:23:48Z</time>
      </trkpt>
      <trkpt lat="44.47216" lon="6.78815">
        <ele>1629.075</ele>
        <time>2020-03-04T07:24:08Z</time>
      </trkpt>
      <trkpt lat="44.47207" lon="6.78774">
        <ele>1633.382</ele>
        <time>2020-03-04T07:24:28Z</time>
      </trkpt>
      <trkpt lat="44.47226" lon="6.78735">
        <ele>1634.891</ele>
        <time>2020-03-04T07:24:48Z</time>
      </trkpt>
      <trkpt lat="44.47242" lon="6.78703">
        <ele>1636.049</ele>
        <time>2020-03-04T07:25:08Z</time>
      </trkpt>
      <trkpt lat="44.47241" lon="6.78658">
        <ele>1638.25</ele>
        <time>2020-03-04T07:25:28Z</time>
      </trkpt>
      <trkpt lat="44.47233" lon="6.78635">
        <ele>1639.852</ele>
        <time>2020-03-04T07:25:48Z</time>
      </trkpt>
      <trkpt lat="44.47261" lon="6.78552">
        <ele>1640.058</ele>
        <time>2020-03-04T07:26:08Z</time>
      </trkpt>
      <trkpt lat="44.47254" lon="6.78527">
        <ele>1639.046</ele>
        <time>2020-03-04T07:26:28Z</time>
      </trkpt>
      <trkpt lat="44.47223" lon="6.78518">
        <ele>1645.188</ele>
        <time>2020-03-04T07:26:48Z</time>
      </trkpt>
      <trkpt lat="44.47213" lon="6.785">
        <ele>1646.216</ele>
        <time>2020-03-04T07:27:08Z</time>
      </trkpt>
      <trkpt lat="44.4722" lon="6.78475">
        <ele>1647.208</ele>
        <time>2020-03-04T07:27:28Z</time>
      </trkpt>
      <trkpt lat="44.47239" lon="6.78456">
        <ele>1643.178</ele>
        <time>2020-03-04T07:27:48Z</time>
      </trkpt>
      <trkpt lat="44.47236" lon="6.78431">
        <ele>1642.791</ele>
        <time>2020-03-04T07:28:08Z</time>
      </trkpt>
      <trkpt lat="44.47226" lon="6.78419">
        <ele>1644.198</ele>
        <time>2020-03-04T07:28:28Z</time>
      </trkpt>
      <trkpt lat="44.4719" lon="6.78396">
        <ele>1652.197</ele>
        <time>2020-03-04T07:28:48Z</time>
      </trkpt>
      <trkpt lat="44.47179" lon="6.78364">
        <ele>1654.625</ele>
        <time>2020-03-04T07:29:08Z</time>
      </trkpt>
      <trkpt lat="44.47185" lon="6.78322">
        <ele>1655.716</ele>
        <time>2020-03-04T07:29:28Z</time>
      </trkpt>
      <trkpt lat="44.47175" lon="6.78277">
        <ele>1662.848</ele>
        <time>2020-03-04T07:29:48Z</time>
      </trkpt>
      <trkpt lat="44.47186" lon="6.78241">
        <ele>1662.964</ele>
        <time>2020-03-04T07:30:08Z</time>
      </trkpt>
      <trkpt lat="44.47187" lon="6.7817">
        <ele>1665.195</ele>
        <time>2020-03-04T07:30:28Z</time>
      </trkpt>
      <trkpt lat="44.47168" lon="6.78099">
        <ele>1665.249</ele>
        <time>2020-03-04T07:30:48Z</time>
      </trkpt>
      <trkpt lat="44.47146" lon="6.7806">
        <ele>1671.923</ele>
        <time>2020-03-04T07:31:08Z</time>
      </trkpt>
      <trkpt lat="44.47149" lon="6.78017">
        <ele>1671.508</ele>
        <time>2020-03-04T07:31:28Z</time>
      </trkpt>
      <trkpt lat="44.47146" lon="6.77983">
        <ele>1672.373</ele>
        <time>2020-03-04T07:31:48Z</time>
      </trkpt>
      <trkpt lat="44.47141" lon="6.77964">
        <ele>1673.556</ele>
        <time>2020-03-04T07:32:08Z</time>
      </trkpt>
      <trkpt lat="44.47141" lon="6.77927">
        <ele>1672.843</ele>
        <time>2020-03-04T07:32:28Z</time>
      </trkpt>
      <trkpt lat="44.47121" lon="6.7796">
        <ele>1677.892</ele>
        <time>2020-03-04T07:32:48Z</time>
      </trkpt>
      <trkpt lat="44.47124" lon="6.78004">
        <ele>1677.97</ele>
        <time>2020-03-04T07:33:08Z</time>
      </trkpt>
      <trkpt lat="44.47113" lon="6.78042">
        <ele>1681.681</ele>
        <time>2020-03-04T07:33:28Z</time>
      </trkpt>
      <trkpt lat="44.47121" lon="6.78082">
        <ele>1681.093</ele>
        <time>2020-03-04T07:33:48Z</time>
      </trkpt>
      <trkpt lat="44.47084" lon="6.78152">
        <ele>1692.049</ele>
        <time>2020-03-04T07:34:08Z</time>
      </trkpt>
      <trkpt lat="44.47051" lon="6.78243">
        <ele>1695.982</ele>
        <time>2020-03-04T07:34:28Z</time>
      </trkpt>
      <trkpt lat="44.46995" lon="6.78251">
        <ele>1707.143</ele>
        <time>2020-03-04T07:34:48Z</time>
      </trkpt>
      <trkpt lat="44.46938" lon="6.78286">
        <ele>1715.517</ele>
        <time>2020-03-04T07:35:08Z</time>
      </trkpt>
      <trkpt lat="44.46921" lon="6.78339">
        <ele>1715.008</ele>
        <time>2020-03-04T07:35:28Z</time>
      </trkpt>
      <trkpt lat="44.46934" lon="6.78367">
        <ele>1710.982</ele>
        <time>2020-03-04T07:35:48Z</time>
      </trkpt>
      <trkpt lat="44.46923" lon="6.78413">
        <ele>1717.875</ele>
        <time>2020-03-04T07:36:08Z</time>
      </trkpt>
      <trkpt lat="44.46943" lon="6.78462">
        <ele>1718.572</ele>
        <time>2020-03-04T07:36:28Z</time>
      </trkpt>
      <trkpt lat="44.46941" lon="6.78499">
        <ele>1723.781</ele>
        <time>2020-03-04T07:36:48Z</time>
      </trkpt>
      <trkpt lat="44.46922" lon="6.78526">
        <ele>1727.719</ele>
        <time>2020-03-04T07:37:08Z</time>
      </trkpt>
      <trkpt lat="44.46918" lon="6.78556">
        <ele>1727.99</ele>
        <time>2020-03-04T07:37:28Z</time>
      </trkpt>
      <trkpt lat="44.46911" lon="6.78539">
        <ele>1730.132</ele>
        <time>2020-03-04T07:37:48Z</time>
      </trkpt>
      <trkpt lat="44.46911" lon="6.78522">
        <ele>1730.798</ele>
        <time>2020-03-04T07:38:08Z</time>
      </trkpt>
      <trkpt lat="44.46885" lon="6.78467">
        <ele>1734.256</ele>
        <time>2020-03-04T07:38:28Z</time>
      </trkpt>
      <trkpt lat="44.46868" lon="6.78452">
        <ele>1735.059</ele>
        <time>2020-03-04T07:38:48Z</time>
      </trkpt>
      <trkpt lat="44.46842" lon="6.78437">
        <ele>1738.814</ele>
        <time>2020-03-04T07:39:08Z</time>
      </trkpt>
      <trkpt lat="44.46833" lon="6.78404">
        <ele>1740.708</ele>
        <time>2020-03-04T07:39:28Z</time>
      </trkpt>
      <trkpt lat="44.4682" lon="6.7839">
        <ele>1745.549</ele>
        <time>2020-03-04T07:39:48Z</time>
      </trkpt>
      <trkpt lat="44.4682" lon="6.78327">
        <ele>1753.672</ele>
        <time>2020-03-04T07:40:08Z</time>
      </trkpt>
      <trkpt lat="44.46852" lon="6.78248">
        <ele>1755.819</ele>
        <time>2020-03-04T07:40:28Z</time>
      </trkpt>
      <trkpt lat="44.46832" lon="6.78201">
        <ele>1765.058</ele>
        <time>2020-03-04T07:40:48Z</time>
      </trkpt>
      <trkpt lat="44.46837" lon="6.78179">
        <ele>1766.976</ele>
        <time>2020-03-04T07:41:08Z</time>
      </trkpt>
      <trkpt lat="44.46858" lon="6.78139">
        <ele>1768.277</ele>
        <time>2020-03-04T07:41:28Z</time>
      </trkpt>
      <trkpt lat="44.46855" lon="6.78108">
        <ele>1770.919</ele>
        <time>2020-03-04T07:41:48Z</time>
      </trkpt>
      <trkpt lat="44.46846" lon="6.78076">
        <ele>1772.045</ele>
        <time>2020-03-04T07:42:08Z</time>
      </trkpt>
      <trkpt lat="44.46846" lon="6.78036">
        <ele>1769.792</ele>
        <time>2020-03-04T07:42:28Z</time>
      </trkpt>
      <trkpt lat="44.46835" lon="6.7802">
        <ele>1771.173</ele>
        <time>2020-03-04T07:42:48Z</time>
      </trkpt>
      <trkpt lat="44.46796" lon="6.7803">
        <ele>1779.22</ele>
        <time>2020-03-04T07:43:08Z</time>
      </trkpt>
      <trkpt lat="44.46791" lon="6.78059">
        <ele>1782.508</ele>
        <time>2020-03-04T07:43:28Z</time>
      </trkpt>
      <trkpt lat="44.46797" lon="6.78091">
        <ele>1784.463</ele>
        <time>2020-03-04T07:43:48Z</time>
      </trkpt>
      <trkpt lat="44.46772" lon="6.78139">
        <ele>1790.466</ele>
        <time>2020-03-04T07:44:08Z</time>
      </trkpt>
      <trkpt lat="44.46773" lon="6.78141">
        <ele>1789.783</ele>
        <time>2020-03-04T07:44:28Z</time>
      </trkpt>
      <trkpt lat="44.46739" lon="6.78169">
        <ele>1794.652</ele>
        <time>2020-03-04T07:44:48Z</time>
      </trkpt>
      <trkpt lat="44.4674" lon="6.78209">
        <ele>1793.47</ele>
        <time>2020-03-04T07:45:08Z</time>
      </trkpt>
      <trkpt lat="44.46704" lon="6.78286">
        <ele>1801.191</ele>
        <time>2020-03-04T07:45:28Z</time>
      </trkpt>
      <trkpt lat="44.46674" lon="6.78327">
        <ele>1807.713</ele>
        <time>2020-03-04T07:45:48Z</time>
      </trkpt>
      <trkpt lat="44.46674" lon="6.78395">
        <ele>1808.289</ele>
        <time>2020-03-04T07:46:08Z</time>
      </trkpt>
      <trkpt lat="44.46631" lon="6.78417">
        <ele>1818.288</ele>
        <time>2020-03-04T07:46:28Z</time>
      </trkpt>
      <trkpt lat="44.46624" lon="6.78457">
        <ele>1816.724</ele>
        <time>2020-03-04T07:46:48Z</time>
      </trkpt>
      <trkpt lat="44.4664" lon="6.78555">
        <ele>1820.626</ele>
        <time>2020-03-04T07:47:08Z</time>
      </trkpt>
      <trkpt lat="44.46696" lon="6.78614">
        <ele>1820.508</ele>
        <time>2020-03-04T07:47:28Z</time>
      </trkpt>
      <trkpt lat="44.46754" lon="6.78708">
        <ele>1831.222</ele>
        <time>2020-03-04T07:47:48Z</time>
      </trkpt>
      <trkpt lat="44.46775" lon="6.78733">
        <ele>1830.265</ele>
        <time>2020-03-04T07:48:08Z</time>
      </trkpt>
      <trkpt lat="44.46774" lon="6.78884">
        <ele>1852.492</ele>
        <time>2020-03-04T07:48:28Z</time>
      </trkpt>
      <trkpt lat="44.46839" lon="6.79012">
        <ele>1862.911</ele>
        <time>2020-03-04T07:48:48Z</time>
      </trkpt>
      <trkpt lat="44.46881" lon="6.79137">
        <ele>1888.599</ele>
        <time>2020-03-04T07:49:08Z</time>
      </trkpt>
      <trkpt lat="44.46928" lon="6.79157">
        <ele>1873.67</ele>
        <time>2020-03-04T07:49:28Z</time>
      </trkpt>
      <trkpt lat="44.46952" lon="6.79198">
        <ele>1881.132</ele>
        <time>2020-03-04T07:49:48Z</time>
      </trkpt>
      <trkpt lat="44.46954" lon="6.79247">
        <ele>1888.828</ele>
        <time>2020-03-04T07:50:08Z</time>
      </trkpt>
      <trkpt lat="44.46949" lon="6.79261">
        <ele>1891.448</ele>
        <time>2020-03-04T07:50:28Z</time>
      </trkpt>
      <trkpt lat="44.46945" lon="6.79289">
        <ele>1892.561</ele>
        <time>2020-03-04T07:50:48Z</time>
      </trkpt>
      <trkpt lat="44.46925" lon="6.79251">
        <ele>1896.917</ele>
        <time>2020-03-04T07:51:08Z</time>
      </trkpt>
      <trkpt lat="44.46911" lon="6.79261">
        <ele>1898.908</ele>
        <time>2020-03-04T07:51:28Z</time>
      </trkpt>
      <trkpt lat="44.46883" lon="6.7929">
        <ele>1901.868</ele>
        <time>2020-03-04T07:51:48Z</time>
      </trkpt>
      <trkpt lat="44.46872" lon="6.7928">
        <ele>1904.861</ele>
        <time>2020-03-04T07:52:08Z</time>
      </trkpt>
      <trkpt lat="44.46871" lon="6.79257">
        <ele>1905.578</ele>
        <time>2020-03-04T07:52:28Z</time>
      </trkpt>
      <trkpt lat="44.46864" lon="6.79204">
        <ele>1908.177</ele>
        <time>2020-03-04T07:52:48Z</time>
      </trkpt>
      <trkpt lat="44.46859" lon="6.79181">
        <ele>1909.485</ele>
        <time>2020-03-04T07:53:08Z</time>
      </trkpt>
      <trkpt lat="44.4685" lon="6.79179">
        <ele>1913.696</ele>
        <time>2020-03-04T07:53:28Z</time>
      </trkpt>
      <trkpt lat="44.46843" lon="6.79228">
        <ele>1916.058</ele>
        <time>2020-03-04T07:53:48Z</time>
      </trkpt>
      <trkpt lat="44.46793" lon="6.79304">
        <ele>1927.714</ele>
        <time>2020-03-04T07:54:08Z</time>
      </trkpt>
      <trkpt lat="44.46755" lon="6.7933">
        <ele>1937.476</ele>
        <time>2020-03-04T07:54:28Z</time>
      </trkpt>
      <trkpt lat="44.46769" lon="6.79346">
        <ele>1933.99</ele>
        <time>2020-03-04T07:54:48Z</time>
      </trkpt>
      <trkpt lat="44.46781" lon="6.79375">
        <ele>1931.719</ele>
        <time>2020-03-04T07:55:08Z</time>
      </trkpt>
      <trkpt lat="44.46736" lon="6.79437">
        <ele>1941.708</ele>
        <time>2020-03-04T07:55:28Z</time>
      </trkpt>
      <trkpt lat="44.46699" lon="6.79455">
        <ele>1948.121</ele>
        <time>2020-03-04T07:55:48Z</time>
      </trkpt>
      <trkpt lat="44.46672" lon="6.7947">
        <ele>1953.134</ele>
        <time>2020-03-04T07:56:08Z</time>
      </trkpt>
      <trkpt lat="44.46654" lon="6.79485">
        <ele>1952.361</ele>
        <time>2020-03-04T07:56:28Z</time>
      </trkpt>
      <trkpt lat="44.46588" lon="6.79448">
        <ele>1964.29</ele>
        <time>2020-03-04T07:56:48Z</time>
      </trkpt>
      <trkpt lat="44.46568" lon="6.79449">
        <ele>1965.398</ele>
        <time>2020-03-04T07:57:08Z</time>
      </trkpt>
      <trkpt lat="44.46558" lon="6.79466">
        <ele>1964.469</ele>
        <time>2020-03-04T07:57:28Z</time>
      </trkpt>
      <trkpt lat="44.46553" lon="6.79492">
        <ele>1964.521</ele>
        <time>2020-03-04T07:57:48Z</time>
      </trkpt>
      <trkpt lat="44.4656" lon="6.79519">
        <ele>1962.487</ele>
        <time>2020-03-04T07:58:08Z</time>
      </trkpt>
      <trkpt lat="44.4654" lon="6.79536">
        <ele>1969.414</ele>
        <time>2020-03-04T07:58:28Z</time>
      </trkpt>
      <trkpt lat="44.4656" lon="6.79598">
        <ele>1969.154</ele>
        <time>2020-03-04T07:58:48Z</time>
      </trkpt>
      <trkpt lat="44.46567" lon="6.79619">
        <ele>1968.809</ele>
        <time>2020-03-04T07:59:08Z</time>
      </trkpt>
      <trkpt lat="44.46548" lon="6.79631">
        <ele>1976.008</ele>
        <time>2020-03-04T07:59:28Z</time>
      </trkpt>
      <trkpt lat="44.46544" lon="6.79656">
        <ele>1975.885</ele>
        <time>2020-03-04T07:59:48Z</time>
      </trkpt>
      <trkpt lat="44.46543" lon="6.79683">
        <ele>1974.748</ele>
        <time>2020-03-04T08:00:08Z</time>
      </trkpt>
      <trkpt lat="44.46528" lon="6.79727">
        <ele>1980.525</ele>
        <time>2020-03-04T08:00:28Z</time>
      </trkpt>
      <trkpt lat="44.46524" lon="6.79755">
        <ele>1980.534</ele>
        <time>2020-03-04T08:00:48Z</time>
      </trkpt>
      <trkpt lat="44.46518" lon="6.79752">
        <ele>1983.832</ele>
        <time>2020-03-04T08:01:08Z</time>
      </trkpt>
      <trkpt lat="44.46514" lon="6.79736">
        <ele>1988.233</ele>
        <time>2020-03-04T08:01:28Z</time>
      </trkpt>
      <trkpt lat="44.46522" lon="6.797">
        <ele>1987.015</ele>
        <time>2020-03-04T08:01:48Z</time>
      </trkpt>
      <trkpt lat="44.46525" lon="6.79683">
        <ele>1985.311</ele>
        <time>2020-03-04T08:02:08Z</time>
      </trkpt>
      <trkpt lat="44.46513" lon="6.79603">
        <ele>1993.822</ele>
        <time>2020-03-04T08:02:28Z</time>
      </trkpt>
      <trkpt lat="44.46475" lon="6.79547">
        <ele>2003.462</ele>
        <time>2020-03-04T08:02:48Z</time>
      </trkpt>
      <trkpt lat="44.46455" lon="6.79474">
        <ele>2005.808</ele>
        <time>2020-03-04T08:03:08Z</time>
      </trkpt>
      <trkpt lat="44.46447" lon="6.79482">
        <ele>2010.808</ele>
        <time>2020-03-04T08:03:28Z</time>
      </trkpt>
      <trkpt lat="44.46454" lon="6.79512">
        <ele>2008.456</ele>
        <time>2020-03-04T08:03:48Z</time>
      </trkpt>
      <trkpt lat="44.4646" lon="6.79555">
        <ele>2013.279</ele>
        <time>2020-03-04T08:04:08Z</time>
      </trkpt>
      <trkpt lat="44.46467" lon="6.79578">
        <ele>2015.116</ele>
        <time>2020-03-04T08:04:28Z</time>
      </trkpt>
      <trkpt lat="44.46463" lon="6.79626">
        <ele>2020.375</ele>
        <time>2020-03-04T08:04:48Z</time>
      </trkpt>
      <trkpt lat="44.46452" lon="6.79613">
        <ele>2021.943</ele>
        <time>2020-03-04T08:05:08Z</time>
      </trkpt>
      <trkpt lat="44.46444" lon="6.7958">
        <ele>2021.044</ele>
        <time>2020-03-04T08:05:28Z</time>
      </trkpt>
      <trkpt lat="44.46419" lon="6.79551">
        <ele>2023.496</ele>
        <time>2020-03-04T08:05:48Z</time>
      </trkpt>
      <trkpt lat="44.46403" lon="6.79551">
        <ele>2026.672</ele>
        <time>2020-03-04T08:06:08Z</time>
      </trkpt>
      <trkpt lat="44.46377" lon="6.79568">
        <ele>2032.659</ele>
        <time>2020-03-04T08:06:28Z</time>
      </trkpt>
      <trkpt lat="44.46359" lon="6.79582">
        <ele>2036.603</ele>
        <time>2020-03-04T08:06:48Z</time>
      </trkpt>
      <trkpt lat="44.46349" lon="6.79575">
        <ele>2039.223</ele>
        <time>2020-03-04T08:07:08Z</time>
      </trkpt>
      <trkpt lat="44.46348" lon="6.79556">
        <ele>2041.208</ele>
        <time>2020-03-04T08:07:28Z</time>
      </trkpt>
      <trkpt lat="44.46362" lon="6.79532">
        <ele>2041.729</ele>
        <time>2020-03-04T08:07:48Z</time>
      </trkpt>
      <trkpt lat="44.46361" lon="6.79526">
        <ele>2043.352</ele>
        <time>2020-03-04T08:08:08Z</time>
      </trkpt>
      <trkpt lat="44.46331" lon="6.79552">
        <ele>2046.199</ele>
        <time>2020-03-04T08:08:28Z</time>
      </trkpt>
      <trkpt lat="44.46303" lon="6.79576">
        <ele>2048.848</ele>
        <time>2020-03-04T08:08:48Z</time>
      </trkpt>
      <trkpt lat="44.46274" lon="6.79574">
        <ele>2055.116</ele>
        <time>2020-03-04T08:09:08Z</time>
      </trkpt>
      <trkpt lat="44.46256" lon="6.79597">
        <ele>2056.287</ele>
        <time>2020-03-04T08:09:28Z</time>
      </trkpt>
      <trkpt lat="44.46243" lon="6.79623">
        <ele>2058.659</ele>
        <time>2020-03-04T08:09:48Z</time>
      </trkpt>
      <trkpt lat="44.46241" lon="6.79676">
        <ele>2064.025</ele>
        <time>2020-03-04T08:10:08Z</time>
      </trkpt>
      <trkpt lat="44.46248" lon="6.79734">
        <ele>2066.481</ele>
        <time>2020-03-04T08:10:28Z</time>
      </trkpt>
      <trkpt lat="44.46282" lon="6.79787">
        <ele>2068.161</ele>
        <time>2020-03-04T08:10:48Z</time>
      </trkpt>
      <trkpt lat="44.4629" lon="6.79809">
        <ele>2073.917</ele>
        <time>2020-03-04T08:11:08Z</time>
      </trkpt>
      <trkpt lat="44.46321" lon="6.79841">
        <ele>2073.608</ele>
        <time>2020-03-04T08:11:28Z</time>
      </trkpt>
      <trkpt lat="44.46359" lon="6.79884">
        <ele>2076.822</ele>
        <time>2020-03-04T08:11:48Z</time>
      </trkpt>
      <trkpt lat="44.46401" lon="6.79923">
        <ele>2083.985</ele>
        <time>2020-03-04T08:12:08Z</time>
      </trkpt>
      <trkpt lat="44.46429" lon="6.79933">
        <ele>2080.722</ele>
        <time>2020-03-04T08:12:28Z</time>
      </trkpt>
      <trkpt lat="44.4644" lon="6.79949">
        <ele>2087.181</ele>
        <time>2020-03-04T08:12:48Z</time>
      </trkpt>
      <trkpt lat="44.46441" lon="6.79965">
        <ele>2095.199</ele>
        <time>2020-03-04T08:13:08Z</time>
      </trkpt>
      <trkpt lat="44.46437" lon="6.79965">
        <ele>2096.21</ele>
        <time>2020-03-04T08:13:28Z</time>
      </trkpt>
      <trkpt lat="44.46438" lon="6.79949">
        <ele>2087.512</ele>
        <time>2020-03-04T08:13:48Z</time>
      </trkpt>
      <trkpt lat="44.46426" lon="6.79936">
        <ele>2083.438</ele>
        <time>2020-03-04T08:14:08Z</time>
      </trkpt>
      <trkpt lat="44.46398" lon="6.79925">
        <ele>2087.089</ele>
        <time>2020-03-04T08:14:28Z</time>
      </trkpt>
      <trkpt lat="44.46352" lon="6.79883">
        <ele>2079.806</ele>
        <time>2020-03-04T08:14:48Z</time>
      </trkpt>
      <trkpt lat="44.4632" lon="6.79845">
        <ele>2076.426</ele>
        <time>2020-03-04T08:15:08Z</time>
      </trkpt>
      <trkpt lat="44.46288" lon="6.79813">
        <ele>2076.808</ele>
        <time>2020-03-04T08:15:28Z</time>
      </trkpt>
      <trkpt lat="44.4628" lon="6.79787">
        <ele>2069.572</ele>
        <time>2020-03-04T08:15:48Z</time>
      </trkpt>
      <trkpt lat="44.46246" lon="6.79735">
        <ele>2068.025</ele>
        <time>2020-03-04T08:16:08Z</time>
      </trkpt>
      <trkpt lat="44.46237" lon="6.79673">
        <ele>2065.682</ele>
        <time>2020-03-04T08:16:28Z</time>
      </trkpt>
      <trkpt lat="44.46241" lon="6.79622">
        <ele>2059.551</ele>
        <time>2020-03-04T08:16:48Z</time>
      </trkpt>
      <trkpt lat="44.46255" lon="6.79597">
        <ele>2056.679</ele>
        <time>2020-03-04T08:17:08Z</time>
      </trkpt>
      <trkpt lat="44.46273" lon="6.7957">
        <ele>2056.17</ele>
        <time>2020-03-04T08:17:28Z</time>
      </trkpt>
      <trkpt lat="44.46304" lon="6.79574">
        <ele>2049.162</ele>
        <time>2020-03-04T08:17:48Z</time>
      </trkpt>
      <trkpt lat="44.46362" lon="6.79522">
        <ele>2043.648</ele>
        <time>2020-03-04T08:18:08Z</time>
      </trkpt>
      <trkpt lat="44.46365" lon="6.79533">
        <ele>2040.725</ele>
        <time>2020-03-04T08:18:28Z</time>
      </trkpt>
      <trkpt lat="44.4635" lon="6.79558">
        <ele>2040.526</ele>
        <time>2020-03-04T08:18:48Z</time>
      </trkpt>
      <trkpt lat="44.46351" lon="6.79573">
        <ele>2038.808</ele>
        <time>2020-03-04T08:19:08Z</time>
      </trkpt>
      <trkpt lat="44.46358" lon="6.79579">
        <ele>2037.008</ele>
        <time>2020-03-04T08:19:28Z</time>
      </trkpt>
      <trkpt lat="44.46403" lon="6.79548">
        <ele>2026.876</ele>
        <time>2020-03-04T08:19:48Z</time>
      </trkpt>
      <trkpt lat="44.4642" lon="6.79548">
        <ele>2023.199</ele>
        <time>2020-03-04T08:20:08Z</time>
      </trkpt>
      <trkpt lat="44.46447" lon="6.79582">
        <ele>2020.496</ele>
        <time>2020-03-04T08:20:28Z</time>
      </trkpt>
      <trkpt lat="44.46454" lon="6.79611">
        <ele>2021.725</ele>
        <time>2020-03-04T08:20:48Z</time>
      </trkpt>
      <trkpt lat="44.46461" lon="6.7962">
        <ele>2020.623</ele>
        <time>2020-03-04T08:21:08Z</time>
      </trkpt>
      <trkpt lat="44.46466" lon="6.7958">
        <ele>2015.784</ele>
        <time>2020-03-04T08:21:28Z</time>
      </trkpt>
      <trkpt lat="44.46457" lon="6.79554">
        <ele>2014.246</ele>
        <time>2020-03-04T08:21:48Z</time>
      </trkpt>
      <trkpt lat="44.46452" lon="6.79516">
        <ele>2010.292</ele>
        <time>2020-03-04T08:22:08Z</time>
      </trkpt>
      <trkpt lat="44.46443" lon="6.79479">
        <ele>2013.878</ele>
        <time>2020-03-04T08:22:28Z</time>
      </trkpt>
      <trkpt lat="44.46456" lon="6.79472">
        <ele>2005.233</ele>
        <time>2020-03-04T08:22:48Z</time>
      </trkpt>
      <trkpt lat="44.46476" lon="6.79544">
        <ele>2002.426</ele>
        <time>2020-03-04T08:23:08Z</time>
      </trkpt>
      <trkpt lat="44.46515" lon="6.796">
        <ele>1991.908</ele>
        <time>2020-03-04T08:23:28Z</time>
      </trkpt>
      <trkpt lat="44.46527" lon="6.79685">
        <ele>1983.711</ele>
        <time>2020-03-04T08:23:48Z</time>
      </trkpt>
      <trkpt lat="44.46516" lon="6.79734">
        <ele>1987.284</ele>
        <time>2020-03-04T08:24:08Z</time>
      </trkpt>
      <trkpt lat="44.4652" lon="6.79751">
        <ele>1982.891</ele>
        <time>2020-03-04T08:24:28Z</time>
      </trkpt>
      <trkpt lat="44.46523" lon="6.79753">
        <ele>1981.15</ele>
        <time>2020-03-04T08:24:48Z</time>
      </trkpt>
      <trkpt lat="44.46525" lon="6.79727">
        <ele>1982.278</ele>
        <time>2020-03-04T08:25:08Z</time>
      </trkpt>
      <trkpt lat="44.46542" lon="6.79684">
        <ele>1975.519</ele>
        <time>2020-03-04T08:25:28Z</time>
      </trkpt>
      <trkpt lat="44.46542" lon="6.79646">
        <ele>1978.171</ele>
        <time>2020-03-04T08:25:48Z</time>
      </trkpt>
      <trkpt lat="44.46547" lon="6.79629">
        <ele>1976.787</ele>
        <time>2020-03-04T08:26:08Z</time>
      </trkpt>
      <trkpt lat="44.46563" lon="6.7962">
        <ele>1970.474</ele>
        <time>2020-03-04T08:26:28Z</time>
      </trkpt>
      <trkpt lat="44.46538" lon="6.79537">
        <ele>1970.056</ele>
        <time>2020-03-04T08:26:48Z</time>
      </trkpt>
      <trkpt lat="44.46558" lon="6.79518">
        <ele>1963.121</ele>
        <time>2020-03-04T08:27:08Z</time>
      </trkpt>
      <trkpt lat="44.46552" lon="6.79488">
        <ele>1965.008</ele>
        <time>2020-03-04T08:27:28Z</time>
      </trkpt>
      <trkpt lat="44.46556" lon="6.79462">
        <ele>1965.071</ele>
        <time>2020-03-04T08:27:48Z</time>
      </trkpt>
      <trkpt lat="44.46568" lon="6.79445">
        <ele>1966.064</ele>
        <time>2020-03-04T08:28:08Z</time>
      </trkpt>
      <trkpt lat="44.46588" lon="6.79445">
        <ele>1964.611</ele>
        <time>2020-03-04T08:28:28Z</time>
      </trkpt>
      <trkpt lat="44.46653" lon="6.7948">
        <ele>1953.69</ele>
        <time>2020-03-04T08:28:48Z</time>
      </trkpt>
      <trkpt lat="44.46734" lon="6.79435">
        <ele>1942.568</ele>
        <time>2020-03-04T08:29:08Z</time>
      </trkpt>
      <trkpt lat="44.46777" lon="6.79373">
        <ele>1932.989</ele>
        <time>2020-03-04T08:29:28Z</time>
      </trkpt>
      <trkpt lat="44.46764" lon="6.79345">
        <ele>1935.761</ele>
        <time>2020-03-04T08:29:48Z</time>
      </trkpt>
      <trkpt lat="44.46751" lon="6.79329">
        <ele>1938.677</ele>
        <time>2020-03-04T08:30:08Z</time>
      </trkpt>
      <trkpt lat="44.46792" lon="6.79301">
        <ele>1928.481</ele>
        <time>2020-03-04T08:30:28Z</time>
      </trkpt>
      <trkpt lat="44.46842" lon="6.79228">
        <ele>1916.661</ele>
        <time>2020-03-04T08:30:48Z</time>
      </trkpt>
      <trkpt lat="44.46848" lon="6.79178">
        <ele>1914.317</ele>
        <time>2020-03-04T08:31:08Z</time>
      </trkpt>
      <trkpt lat="44.46862" lon="6.7918">
        <ele>1908.308</ele>
        <time>2020-03-04T08:31:28Z</time>
      </trkpt>
      <trkpt lat="44.46874" lon="6.79256">
        <ele>1904.872</ele>
        <time>2020-03-04T08:31:48Z</time>
      </trkpt>
      <trkpt lat="44.46874" lon="6.79276">
        <ele>1904.345</ele>
        <time>2020-03-04T08:32:08Z</time>
      </trkpt>
      <trkpt lat="44.46882" lon="6.79286">
        <ele>1902.042</ele>
        <time>2020-03-04T08:32:28Z</time>
      </trkpt>
      <trkpt lat="44.4691" lon="6.79259">
        <ele>1899.081</ele>
        <time>2020-03-04T08:32:48Z</time>
      </trkpt>
      <trkpt lat="44.46927" lon="6.79246">
        <ele>1896.389</ele>
        <time>2020-03-04T08:33:08Z</time>
      </trkpt>
      <trkpt lat="44.46942" lon="6.7928">
        <ele>1893.35</ele>
        <time>2020-03-04T08:33:28Z</time>
      </trkpt>
      <trkpt lat="44.46946" lon="6.79258">
        <ele>1891.842</ele>
        <time>2020-03-04T08:33:48Z</time>
      </trkpt>
      <trkpt lat="44.46951" lon="6.79247">
        <ele>1889.948</ele>
        <time>2020-03-04T08:34:08Z</time>
      </trkpt>
      <trkpt lat="44.46949" lon="6.79201">
        <ele>1884.316</ele>
        <time>2020-03-04T08:34:28Z</time>
      </trkpt>
      <trkpt lat="44.46926" lon="6.7916">
        <ele>1877.376</ele>
        <time>2020-03-04T08:34:48Z</time>
      </trkpt>
      <trkpt lat="44.46879" lon="6.79139">
        <ele>1890.313</ele>
        <time>2020-03-04T08:35:08Z</time>
      </trkpt>
      <trkpt lat="44.46838" lon="6.79015">
        <ele>1864.708</ele>
        <time>2020-03-04T08:35:28Z</time>
      </trkpt>
      <trkpt lat="44.4677" lon="6.78882">
        <ele>1854.595</ele>
        <time>2020-03-04T08:35:48Z</time>
      </trkpt>
      <trkpt lat="44.46773" lon="6.78736">
        <ele>1833.268</ele>
        <time>2020-03-04T08:36:08Z</time>
      </trkpt>
      <trkpt lat="44.46693" lon="6.78616">
        <ele>1822.335</ele>
        <time>2020-03-04T08:36:28Z</time>
      </trkpt>
      <trkpt lat="44.46637" lon="6.78554">
        <ele>1821.534</ele>
        <time>2020-03-04T08:36:48Z</time>
      </trkpt>
      <trkpt lat="44.4662" lon="6.78454">
        <ele>1818.482</ele>
        <time>2020-03-04T08:37:08Z</time>
      </trkpt>
      <trkpt lat="44.46629" lon="6.78415">
        <ele>1819.223</ele>
        <time>2020-03-04T08:37:28Z</time>
      </trkpt>
      <trkpt lat="44.4667" lon="6.78392">
        <ele>1809.775</ele>
        <time>2020-03-04T08:37:48Z</time>
      </trkpt>
      <trkpt lat="44.46672" lon="6.78324">
        <ele>1809.351</ele>
        <time>2020-03-04T08:38:08Z</time>
      </trkpt>
      <trkpt lat="44.467" lon="6.78288">
        <ele>1802.323</ele>
        <time>2020-03-04T08:38:28Z</time>
      </trkpt>
      <trkpt lat="44.46737" lon="6.78208">
        <ele>1794.483</ele>
        <time>2020-03-04T08:38:48Z</time>
      </trkpt>
      <trkpt lat="44.46738" lon="6.78166">
        <ele>1795.211</ele>
        <time>2020-03-04T08:39:08Z</time>
      </trkpt>
      <trkpt lat="44.46771" lon="6.7814">
        <ele>1790.508</ele>
        <time>2020-03-04T08:39:28Z</time>
      </trkpt>
      <trkpt lat="44.46794" lon="6.78091">
        <ele>1785.156</ele>
        <time>2020-03-04T08:39:48Z</time>
      </trkpt>
      <trkpt lat="44.46789" lon="6.78064">
        <ele>1783.439</ele>
        <time>2020-03-04T08:40:08Z</time>
      </trkpt>
      <trkpt lat="44.46793" lon="6.78029">
        <ele>1779.796</ele>
        <time>2020-03-04T08:40:28Z</time>
      </trkpt>
      <trkpt lat="44.46836" lon="6.78017">
        <ele>1770.615</ele>
        <time>2020-03-04T08:40:48Z</time>
      </trkpt>
      <trkpt lat="44.46849" lon="6.78035">
        <ele>1769.053</ele>
        <time>2020-03-04T08:41:08Z</time>
      </trkpt>
      <trkpt lat="44.46847" lon="6.78076">
        <ele>1771.724</ele>
        <time>2020-03-04T08:41:28Z</time>
      </trkpt>
      <trkpt lat="44.46859" lon="6.78108">
        <ele>1769.716</ele>
        <time>2020-03-04T08:41:48Z</time>
      </trkpt>
      <trkpt lat="44.4686" lon="6.78142">
        <ele>1766.832</ele>
        <time>2020-03-04T08:42:08Z</time>
      </trkpt>
      <trkpt lat="44.46841" lon="6.78178">
        <ele>1765.975</ele>
        <time>2020-03-04T08:42:28Z</time>
      </trkpt>
      <trkpt lat="44.46836" lon="6.78201">
        <ele>1763.628</ele>
        <time>2020-03-04T08:42:48Z</time>
      </trkpt>
      <trkpt lat="44.46854" lon="6.78249">
        <ele>1754.82</ele>
        <time>2020-03-04T08:43:08Z</time>
      </trkpt>
      <trkpt lat="44.46822" lon="6.78327">
        <ele>1752.908</ele>
        <time>2020-03-04T08:43:28Z</time>
      </trkpt>
      <trkpt lat="44.46823" lon="6.7839">
        <ele>1744.231</ele>
        <time>2020-03-04T08:43:48Z</time>
      </trkpt>
      <trkpt lat="44.46835" lon="6.78404">
        <ele>1740.064</ele>
        <time>2020-03-04T08:44:08Z</time>
      </trkpt>
      <trkpt lat="44.46843" lon="6.78434">
        <ele>1738.521</ele>
        <time>2020-03-04T08:44:28Z</time>
      </trkpt>
      <trkpt lat="44.46869" lon="6.78448">
        <ele>1734.24</ele>
        <time>2020-03-04T08:44:48Z</time>
      </trkpt>
      <trkpt lat="44.46886" lon="6.78466">
        <ele>1733.748</ele>
        <time>2020-03-04T08:45:08Z</time>
      </trkpt>
      <trkpt lat="44.46914" lon="6.7852">
        <ele>1729.959</ele>
        <time>2020-03-04T08:45:28Z</time>
      </trkpt>
      <trkpt lat="44.46913" lon="6.78539">
        <ele>1729.721</ele>
        <time>2020-03-04T08:45:48Z</time>
      </trkpt>
      <trkpt lat="44.46918" lon="6.78547">
        <ele>1728.187</ele>
        <time>2020-03-04T08:46:08Z</time>
      </trkpt>
      <trkpt lat="44.46922" lon="6.78524">
        <ele>1727.858</ele>
        <time>2020-03-04T08:46:28Z</time>
      </trkpt>
      <trkpt lat="44.46939" lon="6.78498">
        <ele>1724.252</ele>
        <time>2020-03-04T08:46:48Z</time>
      </trkpt>
      <trkpt lat="44.46941" lon="6.78465">
        <ele>1719.717</ele>
        <time>2020-03-04T08:47:08Z</time>
      </trkpt>
      <trkpt lat="44.46921" lon="6.78414">
        <ele>1718.708</ele>
        <time>2020-03-04T08:47:28Z</time>
      </trkpt>
      <trkpt lat="44.46931" lon="6.78369">
        <ele>1712.199</ele>
        <time>2020-03-04T08:47:48Z</time>
      </trkpt>
      <trkpt lat="44.46921" lon="6.78342">
        <ele>1715.492</ele>
        <time>2020-03-04T08:48:08Z</time>
      </trkpt>
      <trkpt lat="44.46937" lon="6.78282">
        <ele>1716.839</ele>
        <time>2020-03-04T08:48:28Z</time>
      </trkpt>
      <trkpt lat="44.46995" lon="6.78246">
        <ele>1708.248</ele>
        <time>2020-03-04T08:48:48Z</time>
      </trkpt>
      <trkpt lat="44.47049" lon="6.78241">
        <ele>1696.566</ele>
        <time>2020-03-04T08:49:08Z</time>
      </trkpt>
      <trkpt lat="44.47118" lon="6.78082">
        <ele>1681.987</ele>
        <time>2020-03-04T08:49:28Z</time>
      </trkpt>
      <trkpt lat="44.4711" lon="6.78042">
        <ele>1682.269</ele>
        <time>2020-03-04T08:49:48Z</time>
      </trkpt>
      <trkpt lat="44.47122" lon="6.78003">
        <ele>1678.455</ele>
        <time>2020-03-04T08:50:08Z</time>
      </trkpt>
      <trkpt lat="44.4712" lon="6.7796">
        <ele>1678.114</ele>
        <time>2020-03-04T08:50:28Z</time>
      </trkpt>
      <trkpt lat="44.47138" lon="6.77925">
        <ele>1673.554</ele>
        <time>2020-03-04T08:50:48Z</time>
      </trkpt>
      <trkpt lat="44.47151" lon="6.7791">
        <ele>1669.809</ele>
        <time>2020-03-04T08:51:08Z</time>
      </trkpt>
      <trkpt lat="44.4714" lon="6.77863">
        <ele>1668.708</ele>
        <time>2020-03-04T08:51:28Z</time>
      </trkpt>
      <trkpt lat="44.47157" lon="6.77806">
        <ele>1663.185</ele>
        <time>2020-03-04T08:51:48Z</time>
      </trkpt>
      <trkpt lat="44.47156" lon="6.77744">
        <ele>1658.758</ele>
        <time>2020-03-04T08:52:08Z</time>
      </trkpt>
      <trkpt lat="44.47162" lon="6.77715">
        <ele>1651.675</ele>
        <time>2020-03-04T08:52:28Z</time>
      </trkpt>
      <trkpt lat="44.47143" lon="6.77664">
        <ele>1648.614</ele>
        <time>2020-03-04T08:52:48Z</time>
      </trkpt>
      <trkpt lat="44.47119" lon="6.77609">
        <ele>1648.232</ele>
        <time>2020-03-04T08:53:08Z</time>
      </trkpt>
      <trkpt lat="44.47122" lon="6.77573">
        <ele>1640.843</ele>
        <time>2020-03-04T08:53:28Z</time>
      </trkpt>
      <trkpt lat="44.47099" lon="6.77493">
        <ele>1638.985</ele>
        <time>2020-03-04T08:53:48Z</time>
      </trkpt>
      <trkpt lat="44.47112" lon="6.77452">
        <ele>1632.221</ele>
        <time>2020-03-04T08:54:08Z</time>
      </trkpt>
      <trkpt lat="44.47097" lon="6.77366">
        <ele>1626.073</ele>
        <time>2020-03-04T08:54:28Z</time>
      </trkpt>
      <trkpt lat="44.47086" lon="6.77332">
        <ele>1627.385</ele>
        <time>2020-03-04T08:54:48Z</time>
      </trkpt>
      <trkpt lat="44.47084" lon="6.77265">
        <ele>1618.613</ele>
        <time>2020-03-04T08:55:08Z</time>
      </trkpt>
      <trkpt lat="44.47025" lon="6.77166">
        <ele>1617.408</ele>
        <time>2020-03-04T08:55:28Z</time>
      </trkpt>
      <trkpt lat="44.47016" lon="6.7711">
        <ele>1618.271</ele>
        <time>2020-03-04T08:55:48Z</time>
      </trkpt>
      <trkpt lat="44.47024" lon="6.77101">
        <ele>1614.394</ele>
        <time>2020-03-04T08:56:08Z</time>
      </trkpt>
      <trkpt lat="44.47029" lon="6.77105">
        <ele>1611.821</ele>
        <time>2020-03-04T08:56:28Z</time>
      </trkpt>
      <trkpt lat="44.47032" lon="6.7715">
        <ele>1613.05</ele>
        <time>2020-03-04T08:56:48Z</time>
      </trkpt>
      <trkpt lat="44.47074" lon="6.77184">
        <ele>1602.398</ele>
        <time>2020-03-04T08:57:08Z</time>
      </trkpt>
      <trkpt lat="44.47116" lon="6.77232">
        <ele>1597.829</ele>
        <time>2020-03-04T08:57:28Z</time>
      </trkpt>
      <trkpt lat="44.4714" lon="6.77244">
        <ele>1594.041</ele>
        <time>2020-03-04T08:57:48Z</time>
      </trkpt>
      <trkpt lat="44.47142" lon="6.77284">
        <ele>1596.347</ele>
        <time>2020-03-04T08:58:08Z</time>
      </trkpt>
      <trkpt lat="44.47169" lon="6.77338">
        <ele>1589.535</ele>
        <time>2020-03-04T08:58:28Z</time>
      </trkpt>
      <trkpt lat="44.47188" lon="6.77358">
        <ele>1583.286</ele>
        <time>2020-03-04T08:58:48Z</time>
      </trkpt>
      <trkpt lat="44.47192" lon="6.77347">
        <ele>1579.014</ele>
        <time>2020-03-04T08:59:08Z</time>
      </trkpt>
      <trkpt lat="44.47169" lon="6.77313">
        <ele>1585.908</ele>
        <time>2020-03-04T08:59:28Z</time>
      </trkpt>
      <trkpt lat="44.4717" lon="6.77294">
        <ele>1584.627</ele>
        <time>2020-03-04T08:59:48Z</time>
      </trkpt>
      <trkpt lat="44.4718" lon="6.77262">
        <ele>1577.58</ele>
        <time>2020-03-04T09:00:08Z</time>
      </trkpt>
      <trkpt lat="44.47168" lon="6.77208">
        <ele>1574.397</ele>
        <time>2020-03-04T09:00:28Z</time>
      </trkpt>
      <trkpt lat="44.47139" lon="6.77147">
        <ele>1568.856</ele>
        <time>2020-03-04T09:00:48Z</time>
      </trkpt>
      <trkpt lat="44.47124" lon="6.77117">
        <ele>1568.064</ele>
        <time>2020-03-04T09:01:08Z</time>
      </trkpt>
      <trkpt lat="44.47123" lon="6.77089">
        <ele>1562.835</ele>
        <time>2020-03-04T09:01:28Z</time>
      </trkpt>
      <trkpt lat="44.4711" lon="6.77059">
        <ele>1564.937</ele>
        <time>2020-03-04T09:01:48Z</time>
      </trkpt>
      <trkpt lat="44.47104" lon="6.77028">
        <ele>1564.953</ele>
        <time>2020-03-04T09:02:08Z</time>
      </trkpt>
      <trkpt lat="44.47092" lon="6.77017">
        <ele>1568.193</ele>
        <time>2020-03-04T09:02:28Z</time>
      </trkpt>
      <trkpt lat="44.47096" lon="6.76999">
        <ele>1563.165</ele>
        <time>2020-03-04T09:02:48Z</time>
      </trkpt>
      <trkpt lat="44.47107" lon="6.77003">
        <ele>1559.521</ele>
        <time>2020-03-04T09:03:08Z</time>
      </trkpt>
      <trkpt lat="44.47148" lon="6.77094">
        <ele>1551.908</ele>
        <time>2020-03-04T09:03:28Z</time>
      </trkpt>
      <trkpt lat="44.47179" lon="6.77131">
        <ele>1542.493</ele>
        <time>2020-03-04T09:03:48Z</time>
      </trkpt>
      <trkpt lat="44.47202" lon="6.77175">
        <ele>1542.026</ele>
        <time>2020-03-04T09:04:08Z</time>
      </trkpt>
      <trkpt lat="44.47227" lon="6.7721">
        <ele>1537.683</ele>
        <time>2020-03-04T09:04:28Z</time>
      </trkpt>
      <trkpt lat="44.47239" lon="6.77245">
        <ele>1537.272</ele>
        <time>2020-03-04T09:04:48Z</time>
      </trkpt>
      <trkpt lat="44.47247" lon="6.77239">
        <ele>1530.31</ele>
        <time>2020-03-04T09:05:08Z</time>
      </trkpt>
      <trkpt lat="44.47232" lon="6.77189">
        <ele>1528.681</ele>
        <time>2020-03-04T09:05:28Z</time>
      </trkpt>
      <trkpt lat="44.47212" lon="6.77159">
        <ele>1530.963</ele>
        <time>2020-03-04T09:05:48Z</time>
      </trkpt>
      <trkpt lat="44.472" lon="6.77096">
        <ele>1521.559</ele>
        <time>2020-03-04T09:06:08Z</time>
      </trkpt>
      <trkpt lat="44.47183" lon="6.77045">
        <ele>1522.774</ele>
        <time>2020-03-04T09:06:28Z</time>
      </trkpt>
      <trkpt lat="44.47173" lon="6.76973">
        <ele>1511.156</ele>
        <time>2020-03-04T09:06:48Z</time>
      </trkpt>
      <trkpt lat="44.47146" lon="6.76932">
        <ele>1506.721</ele>
        <time>2020-03-04T09:07:08Z</time>
      </trkpt>
      <trkpt lat="44.47113" lon="6.76899">
        <ele>1506.308</ele>
        <time>2020-03-04T09:07:28Z</time>
      </trkpt>
      <trkpt lat="44.47112" lon="6.76894">
        <ele>1503.751</ele>
        <time>2020-03-04T09:07:48Z</time>
      </trkpt>
      <trkpt lat="44.47122" lon="6.76896">
        <ele>1500.654</ele>
        <time>2020-03-04T09:08:08Z</time>
      </trkpt>
      <trkpt lat="44.47167" lon="6.76925">
        <ele>1494.111</ele>
        <time>2020-03-04T09:08:28Z</time>
      </trkpt>
      <trkpt lat="44.472" lon="6.76957">
        <ele>1493.42</ele>
        <time>2020-03-04T09:08:48Z</time>
      </trkpt>
      <trkpt lat="44.4725" lon="6.76983">
        <ele>1482.028</ele>
        <time>2020-03-04T09:09:08Z</time>
      </trkpt>
      <trkpt lat="44.47264" lon="6.77012">
        <ele>1481.389</ele>
        <time>2020-03-04T09:09:28Z</time>
      </trkpt>
      <trkpt lat="44.47282" lon="6.77058">
        <ele>1481.251</ele>
        <time>2020-03-04T09:09:48Z</time>
      </trkpt>
      <trkpt lat="44.4731" lon="6.77066">
        <ele>1475.287</ele>
        <time>2020-03-04T09:10:08Z</time>
      </trkpt>
      <trkpt lat="44.47341" lon="6.771">
        <ele>1467.592</ele>
        <time>2020-03-04T09:10:28Z</time>
      </trkpt>
      <trkpt lat="44.47344" lon="6.77145">
        <ele>1469.673</ele>
        <time>2020-03-04T09:10:48Z</time>
      </trkpt>
      <trkpt lat="44.47352" lon="6.77173">
        <ele>1466.72</ele>
        <time>2020-03-04T09:11:08Z</time>
      </trkpt>
      <trkpt lat="44.47347" lon="6.7721">
        <ele>1471.708</ele>
        <time>2020-03-04T09:11:28Z</time>
      </trkpt>
      <trkpt lat="44.47359" lon="6.77208">
        <ele>1465.453</ele>
        <time>2020-03-04T09:11:48Z</time>
      </trkpt>
      <trkpt lat="44.47359" lon="6.77184">
        <ele>1463.536</ele>
        <time>2020-03-04T09:12:08Z</time>
      </trkpt>
      <trkpt lat="44.47361" lon="6.7714">
        <ele>1459.333</ele>
        <time>2020-03-04T09:12:28Z</time>
      </trkpt>
      <trkpt lat="44.47365" lon="6.77104">
        <ele>1454.282</ele>
        <time>2020-03-04T09:12:48Z</time>
      </trkpt>
      <trkpt lat="44.47358" lon="6.77075">
        <ele>1455.85</ele>
        <time>2020-03-04T09:13:08Z</time>
      </trkpt>
      <trkpt lat="44.47365" lon="6.77022">
        <ele>1444.941</ele>
        <time>2020-03-04T09:13:28Z</time>
      </trkpt>
      <trkpt lat="44.47356" lon="6.76982">
        <ele>1440.683</ele>
        <time>2020-03-04T09:13:48Z</time>
      </trkpt>
      <trkpt lat="44.47331" lon="6.7695">
        <ele>1440.899</ele>
        <time>2020-03-04T09:14:08Z</time>
      </trkpt>
      <trkpt lat="44.47311" lon="6.76911">
        <ele>1433.958</ele>
        <time>2020-03-04T09:14:28Z</time>
      </trkpt>
      <trkpt lat="44.47248" lon="6.76855">
        <ele>1427.252</ele>
        <time>2020-03-04T09:14:48Z</time>
      </trkpt>
      <trkpt lat="44.47194" lon="6.76819">
        <ele>1424.617</ele>
        <time>2020-03-04T09:15:08Z</time>
      </trkpt>
      <trkpt lat="44.47167" lon="6.76801">
        <ele>1424.008</ele>
        <time>2020-03-04T09:15:28Z</time>
      </trkpt>
      <trkpt lat="44.47171" lon="6.7679">
        <ele>1418.679</ele>
        <time>2020-03-04T09:15:48Z</time>
      </trkpt>
      <trkpt lat="44.47187" lon="6.76805">
        <ele>1420.012</ele>
        <time>2020-03-04T09:16:08Z</time>
      </trkpt>
      <trkpt lat="44.4722" lon="6.76815">
        <ele>1413.259</ele>
        <time>2020-03-04T09:16:28Z</time>
      </trkpt>
      <trkpt lat="44.47302" lon="6.76844">
        <ele>1406.128</ele>
        <time>2020-03-04T09:16:48Z</time>
      </trkpt>
      <trkpt lat="44.47344" lon="6.76841">
        <ele>1397.536</ele>
        <time>2020-03-04T09:17:08Z</time>
      </trkpt>
      <trkpt lat="44.47359" lon="6.76853">
        <ele>1399.727</ele>
        <time>2020-03-04T09:17:28Z</time>
      </trkpt>
      <trkpt lat="44.47371" lon="6.76872">
        <ele>1400.759</ele>
        <time>2020-03-04T09:17:48Z</time>
      </trkpt>
      <trkpt lat="44.47379" lon="6.76862">
        <ele>1395.155</ele>
        <time>2020-03-04T09:18:08Z</time>
      </trkpt>
      <trkpt lat="44.4735" lon="6.76823">
        <ele>1388.876</ele>
        <time>2020-03-04T09:18:28Z</time>
      </trkpt>
      <trkpt lat="44.47332" lon="6.76815">
        <ele>1387.09</ele>
        <time>2020-03-04T09:18:48Z</time>
      </trkpt>
      <trkpt lat="44.47281" lon="6.76798">
        <ele>1381.719</ele>
        <time>2020-03-04T09:19:08Z</time>
      </trkpt>
      <trkpt lat="44.4723" lon="6.7676">
        <ele>1378.508</ele>
        <time>2020-03-04T09:19:28Z</time>
      </trkpt>
      <trkpt lat="44.47204" lon="6.76715">
        <ele>1375.041</ele>
        <time>2020-03-04T09:19:48Z</time>
      </trkpt>
      <trkpt lat="44.4719" lon="6.76678">
        <ele>1365.884</ele>
        <time>2020-03-04T09:20:08Z</time>
      </trkpt>
      <trkpt lat="44.47092" lon="6.76625">
        <ele>1359.451</ele>
        <time>2020-03-04T09:20:28Z</time>
      </trkpt>
      <trkpt lat="44.47069" lon="6.76573">
        <ele>1356.79</ele>
        <time>2020-03-04T09:20:48Z</time>
      </trkpt>
      <trkpt lat="44.47047" lon="6.7651">
        <ele>1348.688</ele>
        <time>2020-03-04T09:21:08Z</time>
      </trkpt>
      <trkpt lat="44.47024" lon="6.76475">
        <ele>1343.439</ele>
        <time>2020-03-04T09:21:28Z</time>
      </trkpt>
      <trkpt lat="44.46911" lon="6.76378">
        <ele>1329.271</ele>
        <time>2020-03-04T09:21:48Z</time>
      </trkpt>
      <trkpt lat="44.46872" lon="6.76338">
        <ele>1325.857</ele>
        <time>2020-03-04T09:22:08Z</time>
      </trkpt>
      <trkpt lat="44.46839" lon="6.76288">
        <ele>1316.144</ele>
        <time>2020-03-04T09:22:28Z</time>
      </trkpt>
      <trkpt lat="44.46786" lon="6.76265">
        <ele>1315.405</ele>
        <time>2020-03-04T09:22:48Z</time>
      </trkpt>
      <trkpt lat="44.46712" lon="6.76174">
        <ele>1304.915</ele>
        <time>2020-03-04T09:23:08Z</time>
      </trkpt>
      <trkpt lat="44.46701" lon="6.76145">
        <ele>1303.408</ele>
        <time>2020-03-04T09:23:28Z</time>
      </trkpt>
      <trkpt lat="44.46702" lon="6.76104">
        <ele>1298.318</ele>
        <time>2020-03-04T09:23:48Z</time>
      </trkpt>
      <trkpt lat="44.46646" lon="6.75998">
        <ele>1296.381</ele>
        <time>2020-03-04T09:24:08Z</time>
      </trkpt>
      <trkpt lat="44.46499" lon="6.7571">
        <ele>1291.428</ele>
        <time>2020-03-04T09:24:28Z</time>
      </trkpt>
      <trkpt lat="44.46493" lon="6.75644">
        <ele>1288.247</ele>
        <time>2020-03-04T09:24:48Z</time>
      </trkpt>
      <trkpt lat="44.46524" lon="6.75437">
        <ele>1287.135</ele>
        <time>2020-03-04T09:25:08Z</time>
      </trkpt>
      <trkpt lat="44.46527" lon="6.75336">
        <ele>1294.466</ele>
        <time>2020-03-04T09:25:28Z</time>
      </trkpt>
      <trkpt lat="44.46498" lon="6.75261">
        <ele>1298.848</ele>
        <time>2020-03-04T09:25:48Z</time>
      </trkpt>
      <trkpt lat="44.46457" lon="6.75188">
        <ele>1302.094</ele>
        <time>2020-03-04T09:26:08Z</time>
      </trkpt>
      <trkpt lat="44.4637" lon="6.75079">
        <ele>1295.323</ele>
        <time>2020-03-04T09:26:28Z</time>
      </trkpt>
      <trkpt lat="44.46321" lon="6.75034">
        <ele>1297.083</ele>
        <time>2020-03-04T09:26:48Z</time>
      </trkpt>
      <trkpt lat="44.46252" lon="6.75009">
        <ele>1292.611</ele>
        <time>2020-03-04T09:27:08Z</time>
      </trkpt>
      <trkpt lat="44.46183" lon="6.74931">
        <ele>1290.508</ele>
        <time>2020-03-04T09:27:28Z</time>
      </trkpt>
      <trkpt lat="44.4608" lon="6.74772">
        <ele>1291.796</ele>
        <time>2020-03-04T09:27:48Z</time>
      </trkpt>
      <trkpt lat="44.46029" lon="6.7472">
        <ele>1292.789</ele>
        <time>2020-03-04T09:28:08Z</time>
      </trkpt>
      <trkpt lat="44.45974" lon="6.74685">
        <ele>1294.056</ele>
        <time>2020-03-04T09:28:28Z</time>
      </trkpt>
      <trkpt lat="44.45901" lon="6.74671">
        <ele>1292.625</ele>
        <time>2020-03-04T09:28:48Z</time>
      </trkpt>
      <trkpt lat="44.4585" lon="6.74668">
        <ele>1287.863</ele>
        <time>2020-03-04T09:29:08Z</time>
      </trkpt>
      <trkpt lat="44.45823" lon="6.7463">
        <ele>1286.514</ele>
        <time>2020-03-04T09:29:28Z</time>
      </trkpt>
      <trkpt lat="44.45802" lon="6.74526">
        <ele>1287.786</ele>
        <time>2020-03-04T09:29:48Z</time>
      </trkpt>
      <trkpt lat="44.45782" lon="6.74483">
        <ele>1287.062</ele>
        <time>2020-03-04T09:30:08Z</time>
      </trkpt>
      <trkpt lat="44.4568" lon="6.74411">
        <ele>1288.832</ele>
        <time>2020-03-04T09:30:28Z</time>
      </trkpt>
      <trkpt lat="44.45587" lon="6.74411">
        <ele>1282.992</ele>
        <time>2020-03-04T09:30:48Z</time>
      </trkpt>
      <trkpt lat="44.4552" lon="6.74373">
        <ele>1280.011</ele>
        <time>2020-03-04T09:31:08Z</time>
      </trkpt>
      <trkpt lat="44.45404" lon="6.74367">
        <ele>1275.008</ele>
        <time>2020-03-04T09:31:28Z</time>
      </trkpt>
      <trkpt lat="44.45353" lon="6.74388">
        <ele>1273.157</ele>
        <time>2020-03-04T09:31:48Z</time>
      </trkpt>
      <trkpt lat="44.45309" lon="6.74389">
        <ele>1271.52</ele>
        <time>2020-03-04T09:32:08Z</time>
      </trkpt>
      <trkpt lat="44.45259" lon="6.74318">
        <ele>1270.677</ele>
        <time>2020-03-04T09:32:28Z</time>
      </trkpt>
      <trkpt lat="44.45214" lon="6.74292">
        <ele>1271.566</ele>
        <time>2020-03-04T09:32:48Z</time>
      </trkpt>
      <trkpt lat="44.45125" lon="6.74225">
        <ele>1269.534</ele>
        <time>2020-03-04T09:33:08Z</time>
      </trkpt>
      <trkpt lat="44.44982" lon="6.7407">
        <ele>1262.255</ele>
        <time>2020-03-04T09:33:28Z</time>
      </trkpt>
      <trkpt lat="44.44796" lon="6.74024">
        <ele>1262.457</ele>
        <time>2020-03-04T09:33:48Z</time>
      </trkpt>
      <trkpt lat="44.4474" lon="6.7403">
        <ele>1262.883</ele>
        <time>2020-03-04T09:34:08Z</time>
      </trkpt>
      <trkpt lat="44.44569" lon="6.74202">
        <ele>1261.123</ele>
        <time>2020-03-04T09:34:28Z</time>
      </trkpt>
      <trkpt lat="44.44454" lon="6.74266">
        <ele>1261.983</ele>
        <time>2020-03-04T09:34:48Z</time>
      </trkpt>
      <trkpt lat="44.44416" lon="6.74266">
        <ele>1262.211</ele>
        <time>2020-03-04T09:35:08Z</time>
      </trkpt>
      <trkpt lat="44.44319" lon="6.74221">
        <ele>1259.708</ele>
        <time>2020-03-04T09:35:28Z</time>
      </trkpt>
      <trkpt lat="44.44158" lon="6.74196">
        <ele>1254.846</ele>
        <time>2020-03-04T09:35:48Z</time>
      </trkpt>
      <trkpt lat="44.44059" lon="6.74282">
        <ele>1256.259</ele>
        <time>2020-03-04T09:36:08Z</time>
      </trkpt>
      <trkpt lat="44.43993" lon="6.74276">
        <ele>1256.346</ele>
        <time>2020-03-04T09:36:28Z</time>
      </trkpt>
      <trkpt lat="44.43932" lon="6.74364">
        <ele>1253.425</ele>
        <time>2020-03-04T09:36:48Z</time>
      </trkpt>
      <trkpt lat="44.43875" lon="6.74405">
        <ele>1251.943</ele>
        <time>2020-03-04T09:37:08Z</time>
      </trkpt>
      <trkpt lat="44.43816" lon="6.74389">
        <ele>1250.974</ele>
        <time>2020-03-04T09:37:28Z</time>
      </trkpt>
      <trkpt lat="44.43754" lon="6.74417">
        <ele>1250.746</ele>
        <time>2020-03-04T09:37:48Z</time>
      </trkpt>
      <trkpt lat="44.43616" lon="6.74366">
        <ele>1247.812</ele>
        <time>2020-03-04T09:38:08Z</time>
      </trkpt>
      <trkpt lat="44.43569" lon="6.74413">
        <ele>1244.098</ele>
        <time>2020-03-04T09:38:28Z</time>
      </trkpt>
      <trkpt lat="44.43484" lon="6.74407">
        <ele>1250.315</ele>
        <time>2020-03-04T09:38:48Z</time>
      </trkpt>
      <trkpt lat="44.43431" lon="6.74379">
        <ele>1247.926</ele>
        <time>2020-03-04T09:39:08Z</time>
      </trkpt>
      <trkpt lat="44.43385" lon="6.74215">
        <ele>1240.008</ele>
        <time>2020-03-04T09:39:28Z</time>
      </trkpt>
      <trkpt lat="44.43372" lon="6.74216">
        <ele>1240.073</ele>
        <time>2020-03-04T09:39:48Z</time>
      </trkpt>
      <trkpt lat="44.43362" lon="6.74259">
        <ele>1240.086</ele>
        <time>2020-03-04T09:40:08Z</time>
      </trkpt>
      <trkpt lat="44.43334" lon="6.74299">
        <ele>1240.053</ele>
        <time>2020-03-04T09:40:28Z</time>
      </trkpt>
      <trkpt lat="44.43317" lon="6.74301">
        <ele>1240.272</ele>
        <time>2020-03-04T09:40:48Z</time>
      </trkpt>
      <trkpt lat="44.433" lon="6.74299">
        <ele>1242.69</ele>
        <time>2020-03-04T09:41:08Z</time>
      </trkpt>
      <trkpt lat="44.43293" lon="6.7429">
        <ele>1245.851</ele>
        <time>2020-03-04T09:41:28Z</time>
      </trkpt>
      <trkpt lat="44.43299" lon="6.7421">
        <ele>1248.283</ele>
        <time>2020-03-04T09:41:48Z</time>
      </trkpt>
      <trkpt lat="44.43277" lon="6.74162">
        <ele>1254.399</ele>
        <time>2020-03-04T09:42:08Z</time>
      </trkpt>
      <trkpt lat="44.43262" lon="6.74161">
        <ele>1252.773</ele>
        <time>2020-03-04T09:42:28Z</time>
      </trkpt>
      <trkpt lat="44.43256" lon="6.74169">
        <ele>1253.185</ele>
        <time>2020-03-04T09:42:48Z</time>
      </trkpt>
      <trkpt lat="44.43254" lon="6.74188">
        <ele>1256.613</ele>
        <time>2020-03-04T09:43:08Z</time>
      </trkpt>
      <trkpt lat="44.43231" lon="6.74209">
        <ele>1256.508</ele>
        <time>2020-03-04T09:43:28Z</time>
      </trkpt>
      <trkpt lat="44.43227" lon="6.74233">
        <ele>1260.721</ele>
        <time>2020-03-04T09:43:48Z</time>
      </trkpt>
      <trkpt lat="44.4321" lon="6.74239">
        <ele>1264.984</ele>
        <time>2020-03-04T09:44:08Z</time>
      </trkpt>
      <trkpt lat="44.43166" lon="6.7422">
        <ele>1269.791</ele>
        <time>2020-03-04T09:44:28Z</time>
      </trkpt>
      <trkpt lat="44.43171" lon="6.74233">
        <ele>1273.08</ele>
        <time>2020-03-04T09:44:48Z</time>
      </trkpt>
      <trkpt lat="44.43187" lon="6.74242">
        <ele>1271.748</ele>
        <time>2020-03-04T09:45:08Z</time>
      </trkpt>
      <trkpt lat="44.43197" lon="6.74261">
        <ele>1273.559</ele>
        <time>2020-03-04T09:45:28Z</time>
      </trkpt>
      <trkpt lat="44.43204" lon="6.74292">
        <ele>1277.091</ele>
        <time>2020-03-04T09:45:48Z</time>
      </trkpt>
      <trkpt lat="44.43203" lon="6.74317">
        <ele>1281.157</ele>
        <time>2020-03-04T09:46:08Z</time>
      </trkpt>
      <trkpt lat="44.43197" lon="6.74317">
        <ele>1283.659</ele>
        <time>2020-03-04T09:46:28Z</time>
      </trkpt>
      <trkpt lat="44.43188" lon="6.74295">
        <ele>1283.803</ele>
        <time>2020-03-04T09:46:48Z</time>
      </trkpt>
      <trkpt lat="44.43177" lon="6.74281">
        <ele>1285.523</ele>
        <time>2020-03-04T09:47:08Z</time>
      </trkpt>
      <trkpt lat="44.4316" lon="6.74269">
        <ele>1288.408</ele>
        <time>2020-03-04T09:47:28Z</time>
      </trkpt>
      <trkpt lat="44.43139" lon="6.74262">
        <ele>1292.149</ele>
        <time>2020-03-04T09:47:48Z</time>
      </trkpt>
      <trkpt lat="44.43115" lon="6.74261">
        <ele>1300.222</ele>
        <time>2020-03-04T09:48:08Z</time>
      </trkpt>
      <trkpt lat="44.431" lon="6.74234">
        <ele>1299.449</ele>
        <time>2020-03-04T09:48:28Z</time>
      </trkpt>
      <trkpt lat="44.43081" lon="6.74189">
        <ele>1302.688</ele>
        <time>2020-03-04T09:48:48Z</time>
      </trkpt>
      <trkpt lat="44.43061" lon="6.74164">
        <ele>1309.946</ele>
        <time>2020-03-04T09:49:08Z</time>
      </trkpt>
      <trkpt lat="44.43046" lon="6.74145">
        <ele>1313.517</ele>
        <time>2020-03-04T09:49:28Z</time>
      </trkpt>
      <trkpt lat="44.43023" lon="6.74112">
        <ele>1317.179</ele>
        <time>2020-03-04T09:49:48Z</time>
      </trkpt>
      <trkpt lat="44.42977" lon="6.74076">
        <ele>1325.945</ele>
        <time>2020-03-04T09:50:08Z</time>
      </trkpt>
      <trkpt lat="44.42959" lon="6.7405">
        <ele>1326.931</ele>
        <time>2020-03-04T09:50:28Z</time>
      </trkpt>
      <trkpt lat="44.42941" lon="6.74006">
        <ele>1325.261</ele>
        <time>2020-03-04T09:50:48Z</time>
      </trkpt>
      <trkpt lat="44.42918" lon="6.73998">
        <ele>1332.007</ele>
        <time>2020-03-04T09:51:08Z</time>
      </trkpt>
      <trkpt lat="44.42881" lon="6.74017">
        <ele>1342.608</ele>
        <time>2020-03-04T09:51:28Z</time>
      </trkpt>
      <trkpt lat="44.42854" lon="6.74024">
        <ele>1347.697</ele>
        <time>2020-03-04T09:51:48Z</time>
      </trkpt>
      <trkpt lat="44.42861" lon="6.7406">
        <ele>1351.12</ele>
        <time>2020-03-04T09:52:08Z</time>
      </trkpt>
      <trkpt lat="44.42869" lon="6.74078">
        <ele>1353.397</ele>
        <time>2020-03-04T09:52:28Z</time>
      </trkpt>
      <trkpt lat="44.42882" lon="6.7409">
        <ele>1353.336</ele>
        <time>2020-03-04T09:52:48Z</time>
      </trkpt>
      <trkpt lat="44.42891" lon="6.74113">
        <ele>1355.914</ele>
        <time>2020-03-04T09:53:08Z</time>
      </trkpt>
      <trkpt lat="44.429" lon="6.74123">
        <ele>1356.355</ele>
        <time>2020-03-04T09:53:28Z</time>
      </trkpt>
      <trkpt lat="44.42891" lon="6.74129">
        <ele>1358.957</ele>
        <time>2020-03-04T09:53:48Z</time>
      </trkpt>
      <trkpt lat="44.42877" lon="6.74123">
        <ele>1360.573</ele>
        <time>2020-03-04T09:54:08Z</time>
      </trkpt>
      <trkpt lat="44.42826" lon="6.74129">
        <ele>1369.765</ele>
        <time>2020-03-04T09:54:28Z</time>
      </trkpt>
      <trkpt lat="44.4281" lon="6.74129">
        <ele>1372.868</ele>
        <time>2020-03-04T09:54:48Z</time>
      </trkpt>
      <trkpt lat="44.42785" lon="6.74116">
        <ele>1374.414</ele>
        <time>2020-03-04T09:55:08Z</time>
      </trkpt>
      <trkpt lat="44.42759" lon="6.74097">
        <ele>1378.808</ele>
        <time>2020-03-04T09:55:28Z</time>
      </trkpt>
      <trkpt lat="44.42725" lon="6.74069">
        <ele>1383.82</ele>
        <time>2020-03-04T09:55:48Z</time>
      </trkpt>
      <trkpt lat="44.42711" lon="6.74067">
        <ele>1386.513</ele>
        <time>2020-03-04T09:56:08Z</time>
      </trkpt>
      <trkpt lat="44.427" lon="6.74076">
        <ele>1390.17</ele>
        <time>2020-03-04T09:56:28Z</time>
      </trkpt>
      <trkpt lat="44.42693" lon="6.74089">
        <ele>1392.789</ele>
        <time>2020-03-04T09:56:48Z</time>
      </trkpt>
      <trkpt lat="44.42696" lon="6.74114">
        <ele>1394.957</ele>
        <time>2020-03-04T09:57:08Z</time>
      </trkpt>
      <trkpt lat="44.42715" lon="6.74151">
        <ele>1394.038</ele>
        <time>2020-03-04T09:57:28Z</time>
      </trkpt>
      <trkpt lat="44.42726" lon="6.7418">
        <ele>1397.16</ele>
        <time>2020-03-04T09:57:48Z</time>
      </trkpt>
      <trkpt lat="44.42756" lon="6.74209">
        <ele>1398.386</ele>
        <time>2020-03-04T09:58:08Z</time>
      </trkpt>
      <trkpt lat="44.42755" lon="6.74242">
        <ele>1406.918</ele>
        <time>2020-03-04T09:58:28Z</time>
      </trkpt>
      <trkpt lat="44.42761" lon="6.74262">
        <ele>1410.198</ele>
        <time>2020-03-04T09:58:48Z</time>
      </trkpt>
      <trkpt lat="44.4278" lon="6.7428">
        <ele>1410.017</ele>
        <time>2020-03-04T09:59:08Z</time>
      </trkpt>
      <trkpt lat="44.42781" lon="6.74316">
        <ele>1417.708</ele>
        <time>2020-03-04T09:59:28Z</time>
      </trkpt>
      <trkpt lat="44.42785" lon="6.74337">
        <ele>1419.215</ele>
        <time>2020-03-04T09:59:48Z</time>
      </trkpt>
      <trkpt lat="44.42789" lon="6.74371">
        <ele>1424.818</ele>
        <time>2020-03-04T10:00:08Z</time>
      </trkpt>
      <trkpt lat="44.42808" lon="6.74402">
        <ele>1423.045</ele>
        <time>2020-03-04T10:00:28Z</time>
      </trkpt>
      <trkpt lat="44.42804" lon="6.74421">
        <ele>1427.864</ele>
        <time>2020-03-04T10:00:48Z</time>
      </trkpt>
      <trkpt lat="44.42792" lon="6.74446">
        <ele>1433.132</ele>
        <time>2020-03-04T10:01:08Z</time>
      </trkpt>
      <trkpt lat="44.42794" lon="6.74482">
        <ele>1434.073</ele>
        <time>2020-03-04T10:01:28Z</time>
      </trkpt>
      <trkpt lat="44.42804" lon="6.74509">
        <ele>1436.345</ele>
        <time>2020-03-04T10:01:48Z</time>
      </trkpt>
      <trkpt lat="44.42797" lon="6.74517">
        <ele>1439.181</ele>
        <time>2020-03-04T10:02:08Z</time>
      </trkpt>
      <trkpt lat="44.42768" lon="6.74496">
        <ele>1442.312</ele>
        <time>2020-03-04T10:02:28Z</time>
      </trkpt>
      <trkpt lat="44.42755" lon="6.74469">
        <ele>1445.132</ele>
        <time>2020-03-04T10:02:48Z</time>
      </trkpt>
      <trkpt lat="44.42726" lon="6.74429">
        <ele>1453.305</ele>
        <time>2020-03-04T10:03:08Z</time>
      </trkpt>
      <trkpt lat="44.42729" lon="6.74406">
        <ele>1452.208</ele>
        <time>2020-03-04T10:03:28Z</time>
      </trkpt>
      <trkpt lat="44.42725" lon="6.74396">
        <ele>1451.615</ele>
        <time>2020-03-04T10:03:48Z</time>
      </trkpt>
      <trkpt lat="44.42704" lon="6.74394">
        <ele>1455.568</ele>
        <time>2020-03-04T10:04:08Z</time>
      </trkpt>
      <trkpt lat="44.42684" lon="6.744">
        <ele>1459.845</ele>
        <time>2020-03-04T10:04:28Z</time>
      </trkpt>
      <trkpt lat="44.42646" lon="6.74395">
        <ele>1466.274</ele>
        <time>2020-03-04T10:04:48Z</time>
      </trkpt>
      <trkpt lat="44.4261" lon="6.74411">
        <ele>1471.452</ele>
        <time>2020-03-04T10:05:08Z</time>
      </trkpt>
      <trkpt lat="44.42575" lon="6.7444">
        <ele>1479.383</ele>
        <time>2020-03-04T10:05:28Z</time>
      </trkpt>
      <trkpt lat="44.42571" lon="6.74461">
        <ele>1483.135</ele>
        <time>2020-03-04T10:05:48Z</time>
      </trkpt>
      <trkpt lat="44.42574" lon="6.7449">
        <ele>1486.571</ele>
        <time>2020-03-04T10:06:08Z</time>
      </trkpt>
      <trkpt lat="44.42581" lon="6.74542">
        <ele>1491.569</ele>
        <time>2020-03-04T10:06:28Z</time>
      </trkpt>
      <trkpt lat="44.4258" lon="6.74563">
        <ele>1496.604</ele>
        <time>2020-03-04T10:06:48Z</time>
      </trkpt>
      <trkpt lat="44.42556" lon="6.74569">
        <ele>1500.724</ele>
        <time>2020-03-04T10:07:08Z</time>
      </trkpt>
      <trkpt lat="44.42498" lon="6.74565">
        <ele>1512.608</ele>
        <time>2020-03-04T10:07:28Z</time>
      </trkpt>
      <trkpt lat="44.42488" lon="6.7457">
        <ele>1511.99</ele>
        <time>2020-03-04T10:07:48Z</time>
      </trkpt>
      <trkpt lat="44.42517" lon="6.74586">
        <ele>1517.993</ele>
        <time>2020-03-04T10:08:08Z</time>
      </trkpt>
      <trkpt lat="44.42549" lon="6.746">
        <ele>1518.37</ele>
        <time>2020-03-04T10:08:28Z</time>
      </trkpt>
      <trkpt lat="44.42586" lon="6.7461">
        <ele>1518.519</ele>
        <time>2020-03-04T10:08:48Z</time>
      </trkpt>
      <trkpt lat="44.42624" lon="6.74637">
        <ele>1528.437</ele>
        <time>2020-03-04T10:09:08Z</time>
      </trkpt>
      <trkpt lat="44.4266" lon="6.74667">
        <ele>1535.858</ele>
        <time>2020-03-04T10:09:28Z</time>
      </trkpt>
      <trkpt lat="44.42678" lon="6.74672">
        <ele>1534.23</ele>
        <time>2020-03-04T10:09:48Z</time>
      </trkpt>
      <trkpt lat="44.42724" lon="6.74738">
        <ele>1543.436</ele>
        <time>2020-03-04T10:10:08Z</time>
      </trkpt>
      <trkpt lat="44.42734" lon="6.74779">
        <ele>1549.199</ele>
        <time>2020-03-04T10:10:28Z</time>
      </trkpt>
      <trkpt lat="44.42739" lon="6.7482">
        <ele>1554.407</ele>
        <time>2020-03-04T10:10:48Z</time>
      </trkpt>
      <trkpt lat="44.42757" lon="6.74847">
        <ele>1557.627</ele>
        <time>2020-03-04T10:11:08Z</time>
      </trkpt>
      <trkpt lat="44.42777" lon="6.74867">
        <ele>1563.308</ele>
        <time>2020-03-04T10:11:28Z</time>
      </trkpt>
      <trkpt lat="44.4281" lon="6.74885">
        <ele>1566.023</ele>
        <time>2020-03-04T10:11:48Z</time>
      </trkpt>
      <trkpt lat="44.42841" lon="6.74901">
        <ele>1571.216</ele>
        <time>2020-03-04T10:12:08Z</time>
      </trkpt>
      <trkpt lat="44.42838" lon="6.74909">
        <ele>1574.773</ele>
        <time>2020-03-04T10:12:28Z</time>
      </trkpt>
      <trkpt lat="44.42819" lon="6.74906">
        <ele>1574.382</ele>
        <time>2020-03-04T10:12:48Z</time>
      </trkpt>
      <trkpt lat="44.4279" lon="6.74918">
        <ele>1581.71</ele>
        <time>2020-03-04T10:13:08Z</time>
      </trkpt>
      <trkpt lat="44.42763" lon="6.74916">
        <ele>1582.931</ele>
        <time>2020-03-04T10:13:28Z</time>
      </trkpt>
      <trkpt lat="44.42733" lon="6.74928">
        <ele>1589.413</ele>
        <time>2020-03-04T10:13:48Z</time>
      </trkpt>
      <trkpt lat="44.427" lon="6.74928">
        <ele>1592.689</ele>
        <time>2020-03-04T10:14:08Z</time>
      </trkpt>
      <trkpt lat="44.42669" lon="6.74907">
        <ele>1594.593</ele>
        <time>2020-03-04T10:14:28Z</time>
      </trkpt>
      <trkpt lat="44.42648" lon="6.74885">
        <ele>1596.265</ele>
        <time>2020-03-04T10:14:48Z</time>
      </trkpt>
      <trkpt lat="44.42632" lon="6.74875">
        <ele>1600.321</ele>
        <time>2020-03-04T10:15:08Z</time>
      </trkpt>
      <trkpt lat="44.42605" lon="6.7487">
        <ele>1610.108</ele>
        <time>2020-03-04T10:15:28Z</time>
      </trkpt>
      <trkpt lat="44.42588" lon="6.74813">
        <ele>1611.743</ele>
        <time>2020-03-04T10:15:48Z</time>
      </trkpt>
      <trkpt lat="44.42577" lon="6.74807">
        <ele>1615.286</ele>
        <time>2020-03-04T10:16:08Z</time>
      </trkpt>
      <trkpt lat="44.42551" lon="6.74815">
        <ele>1624.973</ele>
        <time>2020-03-04T10:16:28Z</time>
      </trkpt>
      <trkpt lat="44.42524" lon="6.748">
        <ele>1625.192</ele>
        <time>2020-03-04T10:16:48Z</time>
      </trkpt>
      <trkpt lat="44.4252" lon="6.74811">
        <ele>1629.96</ele>
        <time>2020-03-04T10:17:08Z</time>
      </trkpt>
      <trkpt lat="44.42534" lon="6.74831">
        <ele>1632.081</ele>
        <time>2020-03-04T10:17:28Z</time>
      </trkpt>
      <trkpt lat="44.42547" lon="6.74852">
        <ele>1631.783</ele>
        <time>2020-03-04T10:17:48Z</time>
      </trkpt>
      <trkpt lat="44.42534" lon="6.74879">
        <ele>1637.929</ele>
        <time>2020-03-04T10:18:08Z</time>
      </trkpt>
      <trkpt lat="44.42526" lon="6.74896">
        <ele>1642.098</ele>
        <time>2020-03-04T10:18:28Z</time>
      </trkpt>
      <trkpt lat="44.42536" lon="6.74923">
        <ele>1641.015</ele>
        <time>2020-03-04T10:18:48Z</time>
      </trkpt>
      <trkpt lat="44.42538" lon="6.74961">
        <ele>1645.126</ele>
        <time>2020-03-04T10:19:08Z</time>
      </trkpt>
      <trkpt lat="44.42544" lon="6.74992">
        <ele>1649.208</ele>
        <time>2020-03-04T10:19:28Z</time>
      </trkpt>
      <trkpt lat="44.42556" lon="6.75006">
        <ele>1648.583</ele>
        <time>2020-03-04T10:19:48Z</time>
      </trkpt>
      <trkpt lat="44.42581" lon="6.75061">
        <ele>1658.756</ele>
        <time>2020-03-04T10:20:08Z</time>
      </trkpt>
      <trkpt lat="44.42611" lon="6.7509">
        <ele>1663.763</ele>
        <time>2020-03-04T10:20:28Z</time>
      </trkpt>
      <trkpt lat="44.42642" lon="6.75102">
        <ele>1664.162</ele>
        <time>2020-03-04T10:20:48Z</time>
      </trkpt>
      <trkpt lat="44.42669" lon="6.75112">
        <ele>1667.39</ele>
        <time>2020-03-04T10:21:08Z</time>
      </trkpt>
      <trkpt lat="44.42684" lon="6.75126">
        <ele>1674.861</ele>
        <time>2020-03-04T10:21:28Z</time>
      </trkpt>
      <trkpt lat="44.42637" lon="6.75137">
        <ele>1681.373</ele>
        <time>2020-03-04T10:21:48Z</time>
      </trkpt>
      <trkpt lat="44.42618" lon="6.75132">
        <ele>1681.389</ele>
        <time>2020-03-04T10:22:08Z</time>
      </trkpt>
      <trkpt lat="44.42588" lon="6.7513">
        <ele>1687.963</ele>
        <time>2020-03-04T10:22:28Z</time>
      </trkpt>
      <trkpt lat="44.42561" lon="6.75122">
        <ele>1692.944</ele>
        <time>2020-03-04T10:22:48Z</time>
      </trkpt>
      <trkpt lat="44.42541" lon="6.75108">
        <ele>1693.018</ele>
        <time>2020-03-04T10:23:08Z</time>
      </trkpt>
      <trkpt lat="44.4254" lon="6.75121">
        <ele>1698.708</ele>
        <time>2020-03-04T10:23:28Z</time>
      </trkpt>
      <trkpt lat="44.42574" lon="6.75158">
        <ele>1703.73</ele>
        <time>2020-03-04T10:23:48Z</time>
      </trkpt>
      <trkpt lat="44.42598" lon="6.75179">
        <ele>1706.163</ele>
        <time>2020-03-04T10:24:08Z</time>
      </trkpt>
      <trkpt lat="44.42608" lon="6.75193">
        <ele>1710.64</ele>
        <time>2020-03-04T10:24:28Z</time>
      </trkpt>
      <trkpt lat="44.42634" lon="6.7521">
        <ele>1713.049</ele>
        <time>2020-03-04T10:24:48Z</time>
      </trkpt>
      <trkpt lat="44.42628" lon="6.75218">
        <ele>1716.337</ele>
        <time>2020-03-04T10:25:08Z</time>
      </trkpt>
      <trkpt lat="44.42587" lon="6.75213">
        <ele>1721.898</ele>
        <time>2020-03-04T10:25:28Z</time>
      </trkpt>
      <trkpt lat="44.42542" lon="6.75197">
        <ele>1729.66</ele>
        <time>2020-03-04T10:25:48Z</time>
      </trkpt>
      <trkpt lat="44.42527" lon="6.75185">
        <ele>1731.596</ele>
        <time>2020-03-04T10:26:08Z</time>
      </trkpt>
      <trkpt lat="44.42506" lon="6.7516">
        <ele>1729.742</ele>
        <time>2020-03-04T10:26:28Z</time>
      </trkpt>
      <trkpt lat="44.42503" lon="6.75164">
        <ele>1732.922</ele>
        <time>2020-03-04T10:26:48Z</time>
      </trkpt>
      <trkpt lat="44.42511" lon="6.75192">
        <ele>1738.114</ele>
        <time>2020-03-04T10:27:08Z</time>
      </trkpt>
      <trkpt lat="44.42522" lon="6.75228">
        <ele>1743.408</ele>
        <time>2020-03-04T10:27:28Z</time>
      </trkpt>
      <trkpt lat="44.42554" lon="6.75252">
        <ele>1742.368</ele>
        <time>2020-03-04T10:27:48Z</time>
      </trkpt>
      <trkpt lat="44.42575" lon="6.75282">
        <ele>1749.761</ele>
        <time>2020-03-04T10:28:08Z</time>
      </trkpt>
      <trkpt lat="44.42595" lon="6.75308">
        <ele>1757.018</ele>
        <time>2020-03-04T10:28:28Z</time>
      </trkpt>
      <trkpt lat="44.42608" lon="6.75317">
        <ele>1760.397</ele>
        <time>2020-03-04T10:28:48Z</time>
      </trkpt>
      <trkpt lat="44.42662" lon="6.75316">
        <ele>1768.885</ele>
        <time>2020-03-04T10:29:08Z</time>
      </trkpt>
      <trkpt lat="44.42664" lon="6.75329">
        <ele>1778.166</ele>
        <time>2020-03-04T10:29:28Z</time>
      </trkpt>
      <trkpt lat="44.42618" lon="6.75344">
        <ele>1777.628</ele>
        <time>2020-03-04T10:29:48Z</time>
      </trkpt>
      <trkpt lat="44.42587" lon="6.75356">
        <ele>1782.424</ele>
        <time>2020-03-04T10:30:08Z</time>
      </trkpt>
      <trkpt lat="44.42551" lon="6.75357">
        <ele>1787.162</ele>
        <time>2020-03-04T10:30:28Z</time>
      </trkpt>
      <trkpt lat="44.42529" lon="6.75346">
        <ele>1789.683</ele>
        <time>2020-03-04T10:30:48Z</time>
      </trkpt>
      <trkpt lat="44.42493" lon="6.75322">
        <ele>1796.011</ele>
        <time>2020-03-04T10:31:08Z</time>
      </trkpt>
      <trkpt lat="44.42467" lon="6.753">
        <ele>1798.608</ele>
        <time>2020-03-04T10:31:28Z</time>
      </trkpt>
      <trkpt lat="44.4245" lon="6.75283">
        <ele>1797.08</ele>
        <time>2020-03-04T10:31:48Z</time>
      </trkpt>
      <trkpt lat="44.42444" lon="6.75291">
        <ele>1802.273</ele>
        <time>2020-03-04T10:32:08Z</time>
      </trkpt>
      <trkpt lat="44.42451" lon="6.75311">
        <ele>1807.44</ele>
        <time>2020-03-04T10:32:28Z</time>
      </trkpt>
      <trkpt lat="44.42468" lon="6.75334">
        <ele>1807.919</ele>
        <time>2020-03-04T10:32:48Z</time>
      </trkpt>
      <trkpt lat="44.42488" lon="6.75378">
        <ele>1815.787</ele>
        <time>2020-03-04T10:33:08Z</time>
      </trkpt>
      <trkpt lat="44.42508" lon="6.75426">
        <ele>1822.928</ele>
        <time>2020-03-04T10:33:28Z</time>
      </trkpt>
      <trkpt lat="44.42529" lon="6.75447">
        <ele>1828.08</ele>
        <time>2020-03-04T10:33:48Z</time>
      </trkpt>
      <trkpt lat="44.42549" lon="6.75452">
        <ele>1832.456</ele>
        <time>2020-03-04T10:34:08Z</time>
      </trkpt>
      <trkpt lat="44.42572" lon="6.75455">
        <ele>1837.722</ele>
        <time>2020-03-04T10:34:28Z</time>
      </trkpt>
      <trkpt lat="44.42572" lon="6.75463">
        <ele>1841.062</ele>
        <time>2020-03-04T10:34:48Z</time>
      </trkpt>
      <trkpt lat="44.42535" lon="6.75476">
        <ele>1839.608</ele>
        <time>2020-03-04T10:35:08Z</time>
      </trkpt>
      <trkpt lat="44.42511" lon="6.75497">
        <ele>1840.608</ele>
        <time>2020-03-04T10:35:28Z</time>
      </trkpt>
      <trkpt lat="44.42492" lon="6.75519">
        <ele>1839.046</ele>
        <time>2020-03-04T10:35:48Z</time>
      </trkpt>
      <trkpt lat="44.4249" lon="6.7555">
        <ele>1841.449</ele>
        <time>2020-03-04T10:36:08Z</time>
      </trkpt>
      <trkpt lat="44.42495" lon="6.75594">
        <ele>1849.066</ele>
        <time>2020-03-04T10:36:28Z</time>
      </trkpt>
      <trkpt lat="44.42487" lon="6.75652">
        <ele>1854.285</ele>
        <time>2020-03-04T10:36:48Z</time>
      </trkpt>
      <trkpt lat="44.42476" lon="6.75692">
        <ele>1856.023</ele>
        <time>2020-03-04T10:37:08Z</time>
      </trkpt>
      <trkpt lat="44.42449" lon="6.75765">
        <ele>1857.364</ele>
        <time>2020-03-04T10:37:28Z</time>
      </trkpt>
      <trkpt lat="44.42433" lon="6.75804">
        <ele>1857.486</ele>
        <time>2020-03-04T10:37:48Z</time>
      </trkpt>
      <trkpt lat="44.42414" lon="6.75831">
        <ele>1860.362</ele>
        <time>2020-03-04T10:38:08Z</time>
      </trkpt>
      <trkpt lat="44.42422" lon="6.75846">
        <ele>1865.097</ele>
        <time>2020-03-04T10:38:28Z</time>
      </trkpt>
      <trkpt lat="44.42421" lon="6.75849">
        <ele>1865.323</ele>
        <time>2020-03-04T10:38:48Z</time>
      </trkpt>
      <trkpt lat="44.4241" lon="6.75829">
        <ele>1859.925</ele>
        <time>2020-03-04T10:39:08Z</time>
      </trkpt>
      <trkpt lat="44.42433" lon="6.75799">
        <ele>1856.408</ele>
        <time>2020-03-04T10:39:28Z</time>
      </trkpt>
      <trkpt lat="44.42476" lon="6.75684">
        <ele>1854.423</ele>
        <time>2020-03-04T10:39:48Z</time>
      </trkpt>
      <trkpt lat="44.42486" lon="6.7565">
        <ele>1853.046</ele>
        <time>2020-03-04T10:40:08Z</time>
      </trkpt>
      <trkpt lat="44.42492" lon="6.75594">
        <ele>1847.793</ele>
        <time>2020-03-04T10:40:28Z</time>
      </trkpt>
      <trkpt lat="44.42487" lon="6.75549">
        <ele>1840.112</ele>
        <time>2020-03-04T10:40:48Z</time>
      </trkpt>
      <trkpt lat="44.4249" lon="6.75516">
        <ele>1838.22</ele>
        <time>2020-03-04T10:41:08Z</time>
      </trkpt>
      <trkpt lat="44.42532" lon="6.75474">
        <ele>1838.571</ele>
        <time>2020-03-04T10:41:28Z</time>
      </trkpt>
      <trkpt lat="44.42569" lon="6.7546">
        <ele>1839.183</ele>
        <time>2020-03-04T10:41:48Z</time>
      </trkpt>
      <trkpt lat="44.42529" lon="6.75451">
        <ele>1829.319</ele>
        <time>2020-03-04T10:42:08Z</time>
      </trkpt>
      <trkpt lat="44.42506" lon="6.75428">
        <ele>1823.663</ele>
        <time>2020-03-04T10:42:28Z</time>
      </trkpt>
      <trkpt lat="44.42466" lon="6.7534">
        <ele>1810.744</ele>
        <time>2020-03-04T10:42:48Z</time>
      </trkpt>
      <trkpt lat="44.42448" lon="6.75312">
        <ele>1808.818</ele>
        <time>2020-03-04T10:43:08Z</time>
      </trkpt>
      <trkpt lat="44.42441" lon="6.7529">
        <ele>1802.008</ele>
        <time>2020-03-04T10:43:28Z</time>
      </trkpt>
      <trkpt lat="44.4245" lon="6.75278">
        <ele>1795.12</ele>
        <time>2020-03-04T10:43:48Z</time>
      </trkpt>
      <trkpt lat="44.42479" lon="6.75307">
        <ele>1796.873</ele>
        <time>2020-03-04T10:44:08Z</time>
      </trkpt>
      <trkpt lat="44.42549" lon="6.75353">
        <ele>1785.96</ele>
        <time>2020-03-04T10:44:28Z</time>
      </trkpt>
      <trkpt lat="44.42588" lon="6.75354">
        <ele>1781.259</ele>
        <time>2020-03-04T10:44:48Z</time>
      </trkpt>
      <trkpt lat="44.42661" lon="6.75327">
        <ele>1775.657</ele>
        <time>2020-03-04T10:45:08Z</time>
      </trkpt>
      <trkpt lat="44.42659" lon="6.7532">
        <ele>1770.888</ele>
        <time>2020-03-04T10:45:28Z</time>
      </trkpt>
      <trkpt lat="44.42607" lon="6.75321">
        <ele>1762.43</ele>
        <time>2020-03-04T10:45:48Z</time>
      </trkpt>
      <trkpt lat="44.42554" lon="6.75255">
        <ele>1743.856</ele>
        <time>2020-03-04T10:46:08Z</time>
      </trkpt>
      <trkpt lat="44.4252" lon="6.75233">
        <ele>1745.142</ele>
        <time>2020-03-04T10:46:28Z</time>
      </trkpt>
      <trkpt lat="44.42499" lon="6.7516">
        <ele>1732.222</ele>
        <time>2020-03-04T10:46:48Z</time>
      </trkpt>
      <trkpt lat="44.42505" lon="6.75156">
        <ele>1727.914</ele>
        <time>2020-03-04T10:47:08Z</time>
      </trkpt>
      <trkpt lat="44.42529" lon="6.75183">
        <ele>1730.308</ele>
        <time>2020-03-04T10:47:28Z</time>
      </trkpt>
      <trkpt lat="44.42544" lon="6.75195">
        <ele>1728.388</ele>
        <time>2020-03-04T10:47:48Z</time>
      </trkpt>
      <trkpt lat="44.42587" lon="6.75211">
        <ele>1720.891</ele>
        <time>2020-03-04T10:48:08Z</time>
      </trkpt>
      <trkpt lat="44.42624" lon="6.75215">
        <ele>1715.628</ele>
        <time>2020-03-04T10:48:28Z</time>
      </trkpt>
      <trkpt lat="44.42629" lon="6.7521">
        <ele>1713.737</ele>
        <time>2020-03-04T10:48:48Z</time>
      </trkpt>
      <trkpt lat="44.42602" lon="6.75188">
        <ele>1709.765</ele>
        <time>2020-03-04T10:49:08Z</time>
      </trkpt>
      <trkpt lat="44.42579" lon="6.75165">
        <ele>1705.786</ele>
        <time>2020-03-04T10:49:28Z</time>
      </trkpt>
      <trkpt lat="44.42538" lon="6.75121">
        <ele>1699.588</ele>
        <time>2020-03-04T10:49:48Z</time>
      </trkpt>
      <trkpt lat="44.4254" lon="6.75107">
        <ele>1692.494</ele>
        <time>2020-03-04T10:50:08Z</time>
      </trkpt>
      <trkpt lat="44.42561" lon="6.75119">
        <ele>1691.395</ele>
        <time>2020-03-04T10:50:28Z</time>
      </trkpt>
      <trkpt lat="44.42593" lon="6.75127">
        <ele>1684.849</ele>
        <time>2020-03-04T10:50:48Z</time>
      </trkpt>
      <trkpt lat="44.42622" lon="6.7513">
        <ele>1679.623</ele>
        <time>2020-03-04T10:51:08Z</time>
      </trkpt>
      <trkpt lat="44.42636" lon="6.75135">
        <ele>1680.408</ele>
        <time>2020-03-04T10:51:28Z</time>
      </trkpt>
      <trkpt lat="44.4268" lon="6.75124">
        <ele>1673.923</ele>
        <time>2020-03-04T10:51:48Z</time>
      </trkpt>
      <trkpt lat="44.42666" lon="6.75114">
        <ele>1668.326</ele>
        <time>2020-03-04T10:52:08Z</time>
      </trkpt>
      <trkpt lat="44.42611" lon="6.75093">
        <ele>1665.463</ele>
        <time>2020-03-04T10:52:28Z</time>
      </trkpt>
      <trkpt lat="44.4258" lon="6.75065">
        <ele>1661.182</ele>
        <time>2020-03-04T10:52:48Z</time>
      </trkpt>
      <trkpt lat="44.42554" lon="6.7501">
        <ele>1650.53</ele>
        <time>2020-03-04T10:53:08Z</time>
      </trkpt>
      <trkpt lat="44.42543" lon="6.74996">
        <ele>1650.161</ele>
        <time>2020-03-04T10:53:28Z</time>
      </trkpt>
      <trkpt lat="44.42534" lon="6.7496">
        <ele>1646.343</ele>
        <time>2020-03-04T10:53:48Z</time>
      </trkpt>
      <trkpt lat="44.42534" lon="6.74927">
        <ele>1642.269</ele>
        <time>2020-03-04T10:54:08Z</time>
      </trkpt>
      <trkpt lat="44.42524" lon="6.74896">
        <ele>1642.886</ele>
        <time>2020-03-04T10:54:28Z</time>
      </trkpt>
      <trkpt lat="44.42544" lon="6.74853">
        <ele>1632.66</ele>
        <time>2020-03-04T10:54:48Z</time>
      </trkpt>
      <trkpt lat="44.42518" lon="6.74812">
        <ele>1630.926</ele>
        <time>2020-03-04T10:55:08Z</time>
      </trkpt>
      <trkpt lat="44.42525" lon="6.74798">
        <ele>1624.008</ele>
        <time>2020-03-04T10:55:28Z</time>
      </trkpt>
      <trkpt lat="44.42552" lon="6.74812">
        <ele>1624.082</ele>
        <time>2020-03-04T10:55:48Z</time>
      </trkpt>
      <trkpt lat="44.42578" lon="6.74806">
        <ele>1614.885</ele>
        <time>2020-03-04T10:56:08Z</time>
      </trkpt>
      <trkpt lat="44.42591" lon="6.74813">
        <ele>1610.492</ele>
        <time>2020-03-04T10:56:28Z</time>
      </trkpt>
      <trkpt lat="44.42607" lon="6.74868">
        <ele>1609.221</ele>
        <time>2020-03-04T10:56:48Z</time>
      </trkpt>
      <trkpt lat="44.42636" lon="6.74876">
        <ele>1598.799</ele>
        <time>2020-03-04T10:57:08Z</time>
      </trkpt>
      <trkpt lat="44.42657" lon="6.74894">
        <ele>1594.71</ele>
        <time>2020-03-04T10:57:28Z</time>
      </trkpt>
      <trkpt lat="44.42672" lon="6.74907">
        <ele>1593.322</ele>
        <time>2020-03-04T10:57:48Z</time>
      </trkpt>
      <trkpt lat="44.42702" lon="6.74925">
        <ele>1591.558</ele>
        <time>2020-03-04T10:58:08Z</time>
      </trkpt>
      <trkpt lat="44.42737" lon="6.74923">
        <ele>1587.035</ele>
        <time>2020-03-04T10:58:28Z</time>
      </trkpt>
      <trkpt lat="44.42765" lon="6.74914">
        <ele>1581.986</ele>
        <time>2020-03-04T10:58:48Z</time>
      </trkpt>
      <trkpt lat="44.42792" lon="6.74915">
        <ele>1580.314</ele>
        <time>2020-03-04T10:59:08Z</time>
      </trkpt>
      <trkpt lat="44.42818" lon="6.74904">
        <ele>1573.608</ele>
        <time>2020-03-04T10:59:28Z</time>
      </trkpt>
      <trkpt lat="44.42837" lon="6.74906">
        <ele>1573.097</ele>
        <time>2020-03-04T10:59:48Z</time>
      </trkpt>
      <trkpt lat="44.42811" lon="6.7489">
        <ele>1567.94</ele>
        <time>2020-03-04T11:00:08Z</time>
      </trkpt>
      <trkpt lat="44.42775" lon="6.74872">
        <ele>1565.097</ele>
        <time>2020-03-04T11:00:28Z</time>
      </trkpt>
      <trkpt lat="44.42737" lon="6.74825">
        <ele>1555.316</ele>
        <time>2020-03-04T11:00:48Z</time>
      </trkpt>
      <trkpt lat="44.42732" lon="6.74783">
        <ele>1550.144</ele>
        <time>2020-03-04T11:01:08Z</time>
      </trkpt>
      <trkpt lat="44.42721" lon="6.74741">
        <ele>1544.925</ele>
        <time>2020-03-04T11:01:28Z</time>
      </trkpt>
      <trkpt lat="44.42677" lon="6.74676">
        <ele>1535.967</ele>
        <time>2020-03-04T11:01:48Z</time>
      </trkpt>
      <trkpt lat="44.42659" lon="6.74674">
        <ele>1538.473</ele>
        <time>2020-03-04T11:02:08Z</time>
      </trkpt>
      <trkpt lat="44.42586" lon="6.74612">
        <ele>1519.436</ele>
        <time>2020-03-04T11:02:28Z</time>
      </trkpt>
      <trkpt lat="44.42552" lon="6.74604">
        <ele>1520.317</ele>
        <time>2020-03-04T11:02:48Z</time>
      </trkpt>
      <trkpt lat="44.42484" lon="6.74571">
        <ele>1511.718</ele>
        <time>2020-03-04T11:03:08Z</time>
      </trkpt>
      <trkpt lat="44.42497" lon="6.74561">
        <ele>1510.908</ele>
        <time>2020-03-04T11:03:28Z</time>
      </trkpt>
      <trkpt lat="44.42554" lon="6.74565">
        <ele>1500.137</ele>
        <time>2020-03-04T11:03:48Z</time>
      </trkpt>
      <trkpt lat="44.42576" lon="6.7456">
        <ele>1496.11</ele>
        <time>2020-03-04T11:04:08Z</time>
      </trkpt>
      <trkpt lat="44.42579" lon="6.7454">
        <ele>1491.487</ele>
        <time>2020-03-04T11:04:28Z</time>
      </trkpt>
      <trkpt lat="44.42571" lon="6.74466">
        <ele>1483.946</ele>
        <time>2020-03-04T11:04:48Z</time>
      </trkpt>
      <trkpt lat="44.42574" lon="6.74437">
        <ele>1478.854</ele>
        <time>2020-03-04T11:05:08Z</time>
      </trkpt>
      <trkpt lat="44.42573" lon="6.74438">
        <ele>1478.915</ele>
        <time>2020-03-04T11:05:28Z</time>
      </trkpt>
      <trkpt lat="44.4261" lon="6.74406">
        <ele>1470.577</ele>
        <time>2020-03-04T11:05:48Z</time>
      </trkpt>
      <trkpt lat="44.42647" lon="6.74389">
        <ele>1465.323</ele>
        <time>2020-03-04T11:06:08Z</time>
      </trkpt>
      <trkpt lat="44.42686" lon="6.74395">
        <ele>1458.932</ele>
        <time>2020-03-04T11:06:28Z</time>
      </trkpt>
      <trkpt lat="44.42709" lon="6.74392">
        <ele>1454.392</ele>
        <time>2020-03-04T11:06:48Z</time>
      </trkpt>
      <trkpt lat="44.42727" lon="6.74394">
        <ele>1450.811</ele>
        <time>2020-03-04T11:07:08Z</time>
      </trkpt>
      <trkpt lat="44.42731" lon="6.74406">
        <ele>1451.708</ele>
        <time>2020-03-04T11:07:28Z</time>
      </trkpt>
      <trkpt lat="44.42729" lon="6.74427">
        <ele>1452.917</ele>
        <time>2020-03-04T11:07:48Z</time>
      </trkpt>
      <trkpt lat="44.4276" lon="6.74474">
        <ele>1443.75</ele>
        <time>2020-03-04T11:08:08Z</time>
      </trkpt>
      <trkpt lat="44.4277" lon="6.74496">
        <ele>1441.597</ele>
        <time>2020-03-04T11:08:28Z</time>
      </trkpt>
      <trkpt lat="44.42797" lon="6.74513">
        <ele>1438.496</ele>
        <time>2020-03-04T11:08:48Z</time>
      </trkpt>
      <trkpt lat="44.42801" lon="6.7451">
        <ele>1437.154</ele>
        <time>2020-03-04T11:09:08Z</time>
      </trkpt>
      <trkpt lat="44.42794" lon="6.74485">
        <ele>1434.465</ele>
        <time>2020-03-04T11:09:28Z</time>
      </trkpt>
      <trkpt lat="44.4279" lon="6.74445">
        <ele>1433.657</ele>
        <time>2020-03-04T11:09:48Z</time>
      </trkpt>
      <trkpt lat="44.428" lon="6.74421">
        <ele>1429.743</ele>
        <time>2020-03-04T11:10:08Z</time>
      </trkpt>
      <trkpt lat="44.42806" lon="6.74404">
        <ele>1424.735</ele>
        <time>2020-03-04T11:10:28Z</time>
      </trkpt>
      <trkpt lat="44.42787" lon="6.74374">
        <ele>1426.486</ele>
        <time>2020-03-04T11:10:48Z</time>
      </trkpt>
      <trkpt lat="44.42782" lon="6.74337">
        <ele>1420.614</ele>
        <time>2020-03-04T11:11:08Z</time>
      </trkpt>
      <trkpt lat="44.42779" lon="6.74318">
        <ele>1418.608</ele>
        <time>2020-03-04T11:11:28Z</time>
      </trkpt>
      <trkpt lat="44.42779" lon="6.74284">
        <ele>1411.327</ele>
        <time>2020-03-04T11:11:48Z</time>
      </trkpt>
      <trkpt lat="44.42761" lon="6.74267">
        <ele>1411.51</ele>
        <time>2020-03-04T11:12:08Z</time>
      </trkpt>
      <trkpt lat="44.42754" lon="6.74242">
        <ele>1407.327</ele>
        <time>2020-03-04T11:12:28Z</time>
      </trkpt>
      <trkpt lat="44.42753" lon="6.74212">
        <ele>1400.136</ele>
        <time>2020-03-04T11:12:48Z</time>
      </trkpt>
      <trkpt lat="44.42724" lon="6.74181">
        <ele>1397.724</ele>
        <time>2020-03-04T11:13:08Z</time>
      </trkpt>
      <trkpt lat="44.42708" lon="6.74146">
        <ele>1395.175</ele>
        <time>2020-03-04T11:13:28Z</time>
      </trkpt>
      <trkpt lat="44.42693" lon="6.74114">
        <ele>1395.477</ele>
        <time>2020-03-04T11:13:48Z</time>
      </trkpt>
      <trkpt lat="44.42692" lon="6.74086">
        <ele>1392.533</ele>
        <time>2020-03-04T11:14:08Z</time>
      </trkpt>
      <trkpt lat="44.4271" lon="6.74065">
        <ele>1386.777</ele>
        <time>2020-03-04T11:14:28Z</time>
      </trkpt>
      <trkpt lat="44.42729" lon="6.74066">
        <ele>1382.561</ele>
        <time>2020-03-04T11:14:48Z</time>
      </trkpt>
      <trkpt lat="44.42806" lon="6.74126">
        <ele>1373.027</ele>
        <time>2020-03-04T11:15:08Z</time>
      </trkpt>
      <trkpt lat="44.42874" lon="6.74121">
        <ele>1360.608</ele>
        <time>2020-03-04T11:15:28Z</time>
      </trkpt>
      <trkpt lat="44.42892" lon="6.74127">
        <ele>1358.571</ele>
        <time>2020-03-04T11:15:48Z</time>
      </trkpt>
      <trkpt lat="44.42895" lon="6.74123">
        <ele>1357.134</ele>
        <time>2020-03-04T11:16:08Z</time>
      </trkpt>
      <trkpt lat="44.4289" lon="6.74117">
        <ele>1356.891</ele>
        <time>2020-03-04T11:16:28Z</time>
      </trkpt>
      <trkpt lat="44.42879" lon="6.74092">
        <ele>1354.22</ele>
        <time>2020-03-04T11:16:48Z</time>
      </trkpt>
      <trkpt lat="44.42867" lon="6.74082">
        <ele>1354.628</ele>
        <time>2020-03-04T11:17:08Z</time>
      </trkpt>
      <trkpt lat="44.4286" lon="6.74061">
        <ele>1351.539</ele>
        <time>2020-03-04T11:17:28Z</time>
      </trkpt>
      <trkpt lat="44.42853" lon="6.74024">
        <ele>1347.811</ele>
        <time>2020-03-04T11:17:48Z</time>
      </trkpt>
      <trkpt lat="44.42883" lon="6.74014">
        <ele>1342.267</ele>
        <time>2020-03-04T11:18:08Z</time>
      </trkpt>
      <trkpt lat="44.42919" lon="6.73997">
        <ele>1331.517</ele>
        <time>2020-03-04T11:18:28Z</time>
      </trkpt>
      <trkpt lat="44.42943" lon="6.74005">
        <ele>1324.387</ele>
        <time>2020-03-04T11:18:48Z</time>
      </trkpt>
      <trkpt lat="44.42959" lon="6.74048">
        <ele>1326.515</ele>
        <time>2020-03-04T11:19:08Z</time>
      </trkpt>
      <trkpt lat="44.42981" lon="6.74076">
        <ele>1324.508</ele>
        <time>2020-03-04T11:19:28Z</time>
      </trkpt>
      <trkpt lat="44.43023" lon="6.74109">
        <ele>1316.685</ele>
        <time>2020-03-04T11:19:48Z</time>
      </trkpt>
      <trkpt lat="44.43082" lon="6.7419">
        <ele>1301.838</ele>
        <time>2020-03-04T11:20:08Z</time>
      </trkpt>
      <trkpt lat="44.43116" lon="6.74258">
        <ele>1299.085</ele>
        <time>2020-03-04T11:20:28Z</time>
      </trkpt>
      <trkpt lat="44.4314" lon="6.74261">
        <ele>1291.474</ele>
        <time>2020-03-04T11:20:48Z</time>
      </trkpt>
      <trkpt lat="44.43159" lon="6.74266">
        <ele>1287.732</ele>
        <time>2020-03-04T11:21:08Z</time>
      </trkpt>
      <trkpt lat="44.43184" lon="6.74284">
        <ele>1283.493</ele>
        <time>2020-03-04T11:21:28Z</time>
      </trkpt>
      <trkpt lat="44.43198" lon="6.74315">
        <ele>1283.075</ele>
        <time>2020-03-04T11:21:48Z</time>
      </trkpt>
      <trkpt lat="44.43202" lon="6.74295">
        <ele>1278.441</ele>
        <time>2020-03-04T11:22:08Z</time>
      </trkpt>
      <trkpt lat="44.43196" lon="6.74266">
        <ele>1274.926</ele>
        <time>2020-03-04T11:22:28Z</time>
      </trkpt>
      <trkpt lat="44.43185" lon="6.74245">
        <ele>1273.347</ele>
        <time>2020-03-04T11:22:48Z</time>
      </trkpt>
      <trkpt lat="44.43171" lon="6.74237">
        <ele>1274.711</ele>
        <time>2020-03-04T11:23:08Z</time>
      </trkpt>
      <trkpt lat="44.43165" lon="6.74221">
        <ele>1270.308</ele>
        <time>2020-03-04T11:23:28Z</time>
      </trkpt>
      <trkpt lat="44.43167" lon="6.74216">
        <ele>1268.656</ele>
        <time>2020-03-04T11:23:48Z</time>
      </trkpt>
      <trkpt lat="44.43209" lon="6.74236">
        <ele>1264.179</ele>
        <time>2020-03-04T11:24:08Z</time>
      </trkpt>
      <trkpt lat="44.43227" lon="6.74232">
        <ele>1260.486</ele>
        <time>2020-03-04T11:24:28Z</time>
      </trkpt>
      <trkpt lat="44.43225" lon="6.7423">
        <ele>1260.025</ele>
        <time>2020-03-04T11:24:48Z</time>
      </trkpt>
      <trkpt lat="44.43229" lon="6.74206">
        <ele>1255.673</ele>
        <time>2020-03-04T11:25:08Z</time>
      </trkpt>
      <trkpt lat="44.43252" lon="6.74185">
        <ele>1256.044</ele>
        <time>2020-03-04T11:25:28Z</time>
      </trkpt>
      <trkpt lat="44.43255" lon="6.74164">
        <ele>1252.446</ele>
        <time>2020-03-04T11:25:48Z</time>
      </trkpt>
      <trkpt lat="44.43261" lon="6.74158">
        <ele>1252.392</ele>
        <time>2020-03-04T11:26:08Z</time>
      </trkpt>
      <trkpt lat="44.43279" lon="6.74161">
        <ele>1253.635</ele>
        <time>2020-03-04T11:26:28Z</time>
      </trkpt>
      <trkpt lat="44.433" lon="6.74211">
        <ele>1247.586</ele>
        <time>2020-03-04T11:26:48Z</time>
      </trkpt>
      <trkpt lat="44.43295" lon="6.74289">
        <ele>1245.214</ele>
        <time>2020-03-04T11:27:08Z</time>
      </trkpt>
      <trkpt lat="44.43301" lon="6.74296">
        <ele>1242.208</ele>
        <time>2020-03-04T11:27:28Z</time>
      </trkpt>
      <trkpt lat="44.43335" lon="6.74297">
        <ele>1240.077</ele>
        <time>2020-03-04T11:27:48Z</time>
      </trkpt>
      <trkpt lat="44.4336" lon="6.74257">
        <ele>1240.03</ele>
        <time>2020-03-04T11:28:08Z</time>
      </trkpt>
      <trkpt lat="44.43372" lon="6.74212">
        <ele>1240.097</ele>
        <time>2020-03-04T11:28:28Z</time>
      </trkpt>
      <trkpt lat="44.43384" lon="6.74212">
        <ele>1240.096</ele>
        <time>2020-03-04T11:28:48Z</time>
      </trkpt>
      <trkpt lat="44.4337" lon="6.74157">
        <ele>1240.014</ele>
        <time>2020-03-04T11:29:08Z</time>
      </trkpt>
      <trkpt lat="44.43345" lon="6.74107">
        <ele>1240.285</ele>
        <time>2020-03-04T11:29:28Z</time>
      </trkpt>
      <trkpt lat="44.43271" lon="6.74046">
        <ele>1240.017</ele>
        <time>2020-03-04T11:29:48Z</time>
      </trkpt>
      <trkpt lat="44.43174" lon="6.73879">
        <ele>1234.713</ele>
        <time>2020-03-04T11:30:08Z</time>
      </trkpt>
      <trkpt lat="44.43111" lon="6.73854">
        <ele>1230.745</ele>
        <time>2020-03-04T11:30:28Z</time>
      </trkpt>
      <trkpt lat="44.43083" lon="6.73831">
        <ele>1230.247</ele>
        <time>2020-03-04T11:30:48Z</time>
      </trkpt>
      <trkpt lat="44.43016" lon="6.73709">
        <ele>1232.611</ele>
        <time>2020-03-04T11:31:08Z</time>
      </trkpt>
      <trkpt lat="44.42952" lon="6.73644">
        <ele>1230.008</ele>
        <time>2020-03-04T11:31:28Z</time>
      </trkpt>
      <trkpt lat="44.42882" lon="6.73636">
        <ele>1230.188</ele>
        <time>2020-03-04T11:31:48Z</time>
      </trkpt>
      <trkpt lat="44.42738" lon="6.73697">
        <ele>1230.091</ele>
        <time>2020-03-04T11:32:08Z</time>
      </trkpt>
      <trkpt lat="44.42449" lon="6.73712">
        <ele>1223.488</ele>
        <time>2020-03-04T11:32:28Z</time>
      </trkpt>
      <trkpt lat="44.42268" lon="6.73726">
        <ele>1220.057</ele>
        <time>2020-03-04T11:32:48Z</time>
      </trkpt>
      <trkpt lat="44.42171" lon="6.73717">
        <ele>1220.095</ele>
        <time>2020-03-04T11:33:08Z</time>
      </trkpt>
      <trkpt lat="44.42054" lon="6.73671">
        <ele>1220.016</ele>
        <time>2020-03-04T11:33:28Z</time>
      </trkpt>
    </trkseg>
  </trk>
</gpx>